<?xml version="1.0" encoding="UTF-8" standalone="no" ?>
<gpx xmlns="http://www.topografix.com/GPX/1/1" xmlns:xsi="http://www.w3.org/2001/XMLSchema-instance" xsi:schemaLocation="http://www.topografix.com/GPX/1/1 http://www.topografix.com/GPX/1/1/gpx.xsd" version="1.1" creator="VisuGPX - https://www.visugpx.com">
  <metadata>
    <name>Autour de Moulinet</name>
    <desc><![CDATA[Visite à ce beau massif pour vérifier la réputation du sentier "des feuilles mortes", beau, technique (un peu trop pour les boulets dans mon genre !), variante "A Xavier" beau poussage/portage c'est là que le VAE révèle tout son potentiel ! Encore un beau coin pour les gens acclimatés (monstre chaud et bien végétalisé !)... ]]></desc>
  </metadata>
  <trk>
    <name><![CDATA[Autour de Moulinet]]></name>
    <trkseg>
      <trkpt lat="43.9418" lon="7.411">
        <ele>828</ele>
        <time>2018-06-15T07:43:38.000Z</time>
      </trkpt>
      <trkpt lat="43.94179" lon="7.411">
        <ele>827.79998779297</ele>
        <time>2018-06-15T07:43:39.000Z</time>
      </trkpt>
      <trkpt lat="43.94182" lon="7.41098">
        <ele>827.40002441406</ele>
        <time>2018-06-15T07:43:48.000Z</time>
      </trkpt>
      <trkpt lat="43.94183" lon="7.41092">
        <ele>827.20001220703</ele>
        <time>2018-06-15T07:43:51.000Z</time>
      </trkpt>
      <trkpt lat="43.94185" lon="7.41087">
        <ele>827</ele>
        <time>2018-06-15T07:43:53.000Z</time>
      </trkpt>
      <trkpt lat="43.94189" lon="7.41076">
        <ele>827</ele>
        <time>2018-06-15T07:43:57.000Z</time>
      </trkpt>
      <trkpt lat="43.94195" lon="7.41052">
        <ele>827</ele>
        <time>2018-06-15T07:44:05.000Z</time>
      </trkpt>
      <trkpt lat="43.94197" lon="7.41028">
        <ele>827.20001220703</ele>
        <time>2018-06-15T07:44:12.000Z</time>
      </trkpt>
      <trkpt lat="43.94189" lon="7.41009">
        <ele>827</ele>
        <time>2018-06-15T07:44:18.000Z</time>
      </trkpt>
      <trkpt lat="43.94172" lon="7.40999">
        <ele>828.20001220703</ele>
        <time>2018-06-15T07:44:24.000Z</time>
      </trkpt>
      <trkpt lat="43.94169" lon="7.40999">
        <ele>828.40002441406</ele>
        <time>2018-06-15T07:44:25.000Z</time>
      </trkpt>
      <trkpt lat="43.94158" lon="7.41003">
        <ele>829.59997558594</ele>
        <time>2018-06-15T07:44:29.000Z</time>
      </trkpt>
      <trkpt lat="43.94156" lon="7.41005">
        <ele>829.79998779297</ele>
        <time>2018-06-15T07:44:30.000Z</time>
      </trkpt>
      <trkpt lat="43.94146" lon="7.41015">
        <ele>830.59997558594</ele>
        <time>2018-06-15T07:44:34.000Z</time>
      </trkpt>
      <trkpt lat="43.9414" lon="7.41016">
        <ele>831</ele>
        <time>2018-06-15T07:44:36.000Z</time>
      </trkpt>
      <trkpt lat="43.9413" lon="7.41008">
        <ele>831.20001220703</ele>
        <time>2018-06-15T07:44:40.000Z</time>
      </trkpt>
      <trkpt lat="43.94119" lon="7.40983">
        <ele>831.20001220703</ele>
        <time>2018-06-15T07:44:47.000Z</time>
      </trkpt>
      <trkpt lat="43.94109" lon="7.4096">
        <ele>831.79998779297</ele>
        <time>2018-06-15T07:44:54.000Z</time>
      </trkpt>
      <trkpt lat="43.94107" lon="7.40957">
        <ele>831.79998779297</ele>
        <time>2018-06-15T07:44:55.000Z</time>
      </trkpt>
      <trkpt lat="43.9409" lon="7.40933">
        <ele>831.79998779297</ele>
        <time>2018-06-15T07:45:03.000Z</time>
      </trkpt>
      <trkpt lat="43.94067" lon="7.40906">
        <ele>832.59997558594</ele>
        <time>2018-06-15T07:45:12.000Z</time>
      </trkpt>
      <trkpt lat="43.94062" lon="7.409">
        <ele>833.20001220703</ele>
        <time>2018-06-15T07:45:14.000Z</time>
      </trkpt>
      <trkpt lat="43.94048" lon="7.4088">
        <ele>834</ele>
        <time>2018-06-15T07:45:21.000Z</time>
      </trkpt>
      <trkpt lat="43.94046" lon="7.40877">
        <ele>834.20001220703</ele>
        <time>2018-06-15T07:45:22.000Z</time>
      </trkpt>
      <trkpt lat="43.94032" lon="7.40856">
        <ele>834.59997558594</ele>
        <time>2018-06-15T07:45:30.000Z</time>
      </trkpt>
      <trkpt lat="43.94024" lon="7.40843">
        <ele>835.20001220703</ele>
        <time>2018-06-15T07:45:35.000Z</time>
      </trkpt>
      <trkpt lat="43.94018" lon="7.40833">
        <ele>835.40002441406</ele>
        <time>2018-06-15T07:45:39.000Z</time>
      </trkpt>
      <trkpt lat="43.94011" lon="7.40819">
        <ele>836.40002441406</ele>
        <time>2018-06-15T07:45:44.000Z</time>
      </trkpt>
      <trkpt lat="43.94008" lon="7.40815">
        <ele>837</ele>
        <time>2018-06-15T07:45:46.000Z</time>
      </trkpt>
      <trkpt lat="43.93996" lon="7.40793">
        <ele>837</ele>
        <time>2018-06-15T07:45:55.000Z</time>
      </trkpt>
      <trkpt lat="43.93985" lon="7.40768">
        <ele>837.59997558594</ele>
        <time>2018-06-15T07:46:05.000Z</time>
      </trkpt>
      <trkpt lat="43.93983" lon="7.40753">
        <ele>839</ele>
        <time>2018-06-15T07:46:10.000Z</time>
      </trkpt>
      <trkpt lat="43.93983" lon="7.40744">
        <ele>839.40002441406</ele>
        <time>2018-06-15T07:46:13.000Z</time>
      </trkpt>
      <trkpt lat="43.93983" lon="7.40738">
        <ele>840.20001220703</ele>
        <time>2018-06-15T07:46:15.000Z</time>
      </trkpt>
      <trkpt lat="43.93983" lon="7.40725">
        <ele>841.20001220703</ele>
        <time>2018-06-15T07:46:19.000Z</time>
      </trkpt>
      <trkpt lat="43.93983" lon="7.40715">
        <ele>841.79998779297</ele>
        <time>2018-06-15T07:46:22.000Z</time>
      </trkpt>
      <trkpt lat="43.93983" lon="7.40709">
        <ele>842.40002441406</ele>
        <time>2018-06-15T07:46:24.000Z</time>
      </trkpt>
      <trkpt lat="43.93985" lon="7.40697">
        <ele>843.20001220703</ele>
        <time>2018-06-15T07:46:28.000Z</time>
      </trkpt>
      <trkpt lat="43.93985" lon="7.40695">
        <ele>843.59997558594</ele>
        <time>2018-06-15T07:46:29.000Z</time>
      </trkpt>
      <trkpt lat="43.93985" lon="7.40683">
        <ele>845.20001220703</ele>
        <time>2018-06-15T07:46:34.000Z</time>
      </trkpt>
      <trkpt lat="43.93984" lon="7.40681">
        <ele>845.59997558594</ele>
        <time>2018-06-15T07:46:35.000Z</time>
      </trkpt>
      <trkpt lat="43.93978" lon="7.40679">
        <ele>846.59997558594</ele>
        <time>2018-06-15T07:46:38.000Z</time>
      </trkpt>
      <trkpt lat="43.93976" lon="7.40679">
        <ele>846.59997558594</ele>
        <time>2018-06-15T07:46:39.000Z</time>
      </trkpt>
      <trkpt lat="43.93971" lon="7.4068">
        <ele>847.59997558594</ele>
        <time>2018-06-15T07:46:41.000Z</time>
      </trkpt>
      <trkpt lat="43.93969" lon="7.40681">
        <ele>848</ele>
        <time>2018-06-15T07:46:42.000Z</time>
      </trkpt>
      <trkpt lat="43.93959" lon="7.40683">
        <ele>849.20001220703</ele>
        <time>2018-06-15T07:46:46.000Z</time>
      </trkpt>
      <trkpt lat="43.93946" lon="7.40681">
        <ele>850.40002441406</ele>
        <time>2018-06-15T07:46:51.000Z</time>
      </trkpt>
      <trkpt lat="43.93939" lon="7.4067">
        <ele>850.20001220703</ele>
        <time>2018-06-15T07:46:56.000Z</time>
      </trkpt>
      <trkpt lat="43.93929" lon="7.40646">
        <ele>851.40002441406</ele>
        <time>2018-06-15T07:47:05.000Z</time>
      </trkpt>
      <trkpt lat="43.93916" lon="7.40628">
        <ele>852.20001220703</ele>
        <time>2018-06-15T07:47:13.000Z</time>
      </trkpt>
      <trkpt lat="43.93914" lon="7.40627">
        <ele>852.40002441406</ele>
        <time>2018-06-15T07:47:14.000Z</time>
      </trkpt>
      <trkpt lat="43.93902" lon="7.40611">
        <ele>853.59997558594</ele>
        <time>2018-06-15T07:47:21.000Z</time>
      </trkpt>
      <trkpt lat="43.93894" lon="7.40584">
        <ele>854</ele>
        <time>2018-06-15T07:47:29.000Z</time>
      </trkpt>
      <trkpt lat="43.93892" lon="7.40557">
        <ele>854.79998779297</ele>
        <time>2018-06-15T07:47:36.000Z</time>
      </trkpt>
      <trkpt lat="43.93892" lon="7.40553">
        <ele>855</ele>
        <time>2018-06-15T07:47:37.000Z</time>
      </trkpt>
      <trkpt lat="43.93893" lon="7.40539">
        <ele>856</ele>
        <time>2018-06-15T07:47:41.000Z</time>
      </trkpt>
      <trkpt lat="43.93895" lon="7.40534">
        <ele>856.20001220703</ele>
        <time>2018-06-15T07:47:43.000Z</time>
      </trkpt>
      <trkpt lat="43.93896" lon="7.40526">
        <ele>857.20001220703</ele>
        <time>2018-06-15T07:47:46.000Z</time>
      </trkpt>
      <trkpt lat="43.93895" lon="7.40522">
        <ele>857.40002441406</ele>
        <time>2018-06-15T07:47:47.000Z</time>
      </trkpt>
      <trkpt lat="43.93892" lon="7.40519">
        <ele>857.59997558594</ele>
        <time>2018-06-15T07:47:49.000Z</time>
      </trkpt>
      <trkpt lat="43.93887" lon="7.40517">
        <ele>857.79998779297</ele>
        <time>2018-06-15T07:47:51.000Z</time>
      </trkpt>
      <trkpt lat="43.93881" lon="7.40514">
        <ele>858.40002441406</ele>
        <time>2018-06-15T07:47:54.000Z</time>
      </trkpt>
      <trkpt lat="43.93869" lon="7.40507">
        <ele>859</ele>
        <time>2018-06-15T07:48:00.000Z</time>
      </trkpt>
      <trkpt lat="43.93861" lon="7.40497">
        <ele>859.40002441406</ele>
        <time>2018-06-15T07:48:04.000Z</time>
      </trkpt>
      <trkpt lat="43.93853" lon="7.40484">
        <ele>860</ele>
        <time>2018-06-15T07:48:09.000Z</time>
      </trkpt>
      <trkpt lat="43.93848" lon="7.40476">
        <ele>860.40002441406</ele>
        <time>2018-06-15T07:48:12.000Z</time>
      </trkpt>
      <trkpt lat="43.9384" lon="7.40461">
        <ele>861</ele>
        <time>2018-06-15T07:48:18.000Z</time>
      </trkpt>
      <trkpt lat="43.93827" lon="7.40433">
        <ele>861</ele>
        <time>2018-06-15T07:48:29.000Z</time>
      </trkpt>
      <trkpt lat="43.93816" lon="7.40411">
        <ele>861.40002441406</ele>
        <time>2018-06-15T07:48:37.000Z</time>
      </trkpt>
      <trkpt lat="43.93813" lon="7.40406">
        <ele>861.79998779297</ele>
        <time>2018-06-15T07:48:39.000Z</time>
      </trkpt>
      <trkpt lat="43.93804" lon="7.40391">
        <ele>863</ele>
        <time>2018-06-15T07:48:44.000Z</time>
      </trkpt>
      <trkpt lat="43.93799" lon="7.40383">
        <ele>863.59997558594</ele>
        <time>2018-06-15T07:48:47.000Z</time>
      </trkpt>
      <trkpt lat="43.93794" lon="7.40374">
        <ele>864.20001220703</ele>
        <time>2018-06-15T07:48:50.000Z</time>
      </trkpt>
      <trkpt lat="43.93786" lon="7.40363">
        <ele>865.20001220703</ele>
        <time>2018-06-15T07:48:54.000Z</time>
      </trkpt>
      <trkpt lat="43.93783" lon="7.40357">
        <ele>865.79998779297</ele>
        <time>2018-06-15T07:48:56.000Z</time>
      </trkpt>
      <trkpt lat="43.9378" lon="7.40351">
        <ele>866.40002441406</ele>
        <time>2018-06-15T07:48:58.000Z</time>
      </trkpt>
      <trkpt lat="43.93773" lon="7.40338">
        <ele>867.59997558594</ele>
        <time>2018-06-15T07:49:02.000Z</time>
      </trkpt>
      <trkpt lat="43.93768" lon="7.4033">
        <ele>868.20001220703</ele>
        <time>2018-06-15T07:49:05.000Z</time>
      </trkpt>
      <trkpt lat="43.93754" lon="7.40306">
        <ele>868.59997558594</ele>
        <time>2018-06-15T07:49:12.000Z</time>
      </trkpt>
      <trkpt lat="43.9374" lon="7.40278">
        <ele>868.59997558594</ele>
        <time>2018-06-15T07:49:19.000Z</time>
      </trkpt>
      <trkpt lat="43.9373" lon="7.40253">
        <ele>869.79998779297</ele>
        <time>2018-06-15T07:49:25.000Z</time>
      </trkpt>
      <trkpt lat="43.93731" lon="7.40248">
        <ele>869.79998779297</ele>
        <time>2018-06-15T07:49:26.000Z</time>
      </trkpt>
      <trkpt lat="43.93734" lon="7.4023">
        <ele>870.79998779297</ele>
        <time>2018-06-15T07:49:30.000Z</time>
      </trkpt>
      <trkpt lat="43.93735" lon="7.40226">
        <ele>871</ele>
        <time>2018-06-15T07:49:31.000Z</time>
      </trkpt>
      <trkpt lat="43.93736" lon="7.40204">
        <ele>871.40002441406</ele>
        <time>2018-06-15T07:49:36.000Z</time>
      </trkpt>
      <trkpt lat="43.93733" lon="7.40175">
        <ele>872</ele>
        <time>2018-06-15T07:49:42.000Z</time>
      </trkpt>
      <trkpt lat="43.93734" lon="7.40171">
        <ele>872.40002441406</ele>
        <time>2018-06-15T07:49:43.000Z</time>
      </trkpt>
      <trkpt lat="43.93734" lon="7.40164">
        <ele>873.20001220703</ele>
        <time>2018-06-15T07:49:45.000Z</time>
      </trkpt>
      <trkpt lat="43.93735" lon="7.40154">
        <ele>874.59997558594</ele>
        <time>2018-06-15T07:49:48.000Z</time>
      </trkpt>
      <trkpt lat="43.93736" lon="7.40151">
        <ele>875.20001220703</ele>
        <time>2018-06-15T07:49:49.000Z</time>
      </trkpt>
      <trkpt lat="43.93736" lon="7.40147">
        <ele>875.79998779297</ele>
        <time>2018-06-15T07:49:50.000Z</time>
      </trkpt>
      <trkpt lat="43.93738" lon="7.40136">
        <ele>877.20001220703</ele>
        <time>2018-06-15T07:49:53.000Z</time>
      </trkpt>
      <trkpt lat="43.93741" lon="7.40125">
        <ele>878.40002441406</ele>
        <time>2018-06-15T07:49:56.000Z</time>
      </trkpt>
      <trkpt lat="43.93742" lon="7.40122">
        <ele>878.59997558594</ele>
        <time>2018-06-15T07:49:57.000Z</time>
      </trkpt>
      <trkpt lat="43.93745" lon="7.40112">
        <ele>879.40002441406</ele>
        <time>2018-06-15T07:50:00.000Z</time>
      </trkpt>
      <trkpt lat="43.93749" lon="7.40104">
        <ele>880.59997558594</ele>
        <time>2018-06-15T07:50:03.000Z</time>
      </trkpt>
      <trkpt lat="43.93751" lon="7.40102">
        <ele>880.79998779297</ele>
        <time>2018-06-15T07:50:04.000Z</time>
      </trkpt>
      <trkpt lat="43.93754" lon="7.40097">
        <ele>881.59997558594</ele>
        <time>2018-06-15T07:50:06.000Z</time>
      </trkpt>
      <trkpt lat="43.93758" lon="7.4009">
        <ele>882.79998779297</ele>
        <time>2018-06-15T07:50:09.000Z</time>
      </trkpt>
      <trkpt lat="43.93764" lon="7.40083">
        <ele>884</ele>
        <time>2018-06-15T07:50:12.000Z</time>
      </trkpt>
      <trkpt lat="43.93768" lon="7.40075">
        <ele>885.20001220703</ele>
        <time>2018-06-15T07:50:15.000Z</time>
      </trkpt>
      <trkpt lat="43.93774" lon="7.40068">
        <ele>886.40002441406</ele>
        <time>2018-06-15T07:50:19.000Z</time>
      </trkpt>
      <trkpt lat="43.93781" lon="7.40062">
        <ele>887.59997558594</ele>
        <time>2018-06-15T07:50:23.000Z</time>
      </trkpt>
      <trkpt lat="43.93784" lon="7.40058">
        <ele>889</ele>
        <time>2018-06-15T07:50:26.000Z</time>
      </trkpt>
      <trkpt lat="43.93788" lon="7.40054">
        <ele>890.40002441406</ele>
        <time>2018-06-15T07:50:28.000Z</time>
      </trkpt>
      <trkpt lat="43.93792" lon="7.40047">
        <ele>891.59997558594</ele>
        <time>2018-06-15T07:50:30.000Z</time>
      </trkpt>
      <trkpt lat="43.93794" lon="7.40037">
        <ele>892.79998779297</ele>
        <time>2018-06-15T07:50:33.000Z</time>
      </trkpt>
      <trkpt lat="43.93793" lon="7.40031">
        <ele>893.59997558594</ele>
        <time>2018-06-15T07:50:35.000Z</time>
      </trkpt>
      <trkpt lat="43.93793" lon="7.4003">
        <ele>893.79998779297</ele>
        <time>2018-06-15T07:50:36.000Z</time>
      </trkpt>
      <trkpt lat="43.9379" lon="7.40025">
        <ele>894.59997558594</ele>
        <time>2018-06-15T07:50:39.000Z</time>
      </trkpt>
      <trkpt lat="43.93789" lon="7.40022">
        <ele>895</ele>
        <time>2018-06-15T07:50:41.000Z</time>
      </trkpt>
      <trkpt lat="43.93787" lon="7.40016">
        <ele>896.20001220703</ele>
        <time>2018-06-15T07:50:45.000Z</time>
      </trkpt>
      <trkpt lat="43.93785" lon="7.40014">
        <ele>897.40002441406</ele>
        <time>2018-06-15T07:50:48.000Z</time>
      </trkpt>
      <trkpt lat="43.93782" lon="7.40012">
        <ele>898</ele>
        <time>2018-06-15T07:50:50.000Z</time>
      </trkpt>
      <trkpt lat="43.93776" lon="7.4001">
        <ele>898.59997558594</ele>
        <time>2018-06-15T07:50:53.000Z</time>
      </trkpt>
      <trkpt lat="43.9377" lon="7.40009">
        <ele>899.20001220703</ele>
        <time>2018-06-15T07:50:56.000Z</time>
      </trkpt>
      <trkpt lat="43.93767" lon="7.40009">
        <ele>899.79998779297</ele>
        <time>2018-06-15T07:50:58.000Z</time>
      </trkpt>
      <trkpt lat="43.93762" lon="7.40011">
        <ele>900.79998779297</ele>
        <time>2018-06-15T07:51:01.000Z</time>
      </trkpt>
      <trkpt lat="43.93755" lon="7.40011">
        <ele>902.59997558594</ele>
        <time>2018-06-15T07:51:04.000Z</time>
      </trkpt>
      <trkpt lat="43.93749" lon="7.40011">
        <ele>903.79998779297</ele>
        <time>2018-06-15T07:51:08.000Z</time>
      </trkpt>
      <trkpt lat="43.93745" lon="7.40013">
        <ele>905.20001220703</ele>
        <time>2018-06-15T07:51:11.000Z</time>
      </trkpt>
      <trkpt lat="43.93742" lon="7.40015">
        <ele>905.59997558594</ele>
        <time>2018-06-15T07:51:13.000Z</time>
      </trkpt>
      <trkpt lat="43.93741" lon="7.40016">
        <ele>906.59997558594</ele>
        <time>2018-06-15T07:51:14.000Z</time>
      </trkpt>
      <trkpt lat="43.93738" lon="7.4002">
        <ele>907.79998779297</ele>
        <time>2018-06-15T07:51:17.000Z</time>
      </trkpt>
      <trkpt lat="43.93732" lon="7.40025">
        <ele>908.40002441406</ele>
        <time>2018-06-15T07:51:21.000Z</time>
      </trkpt>
      <trkpt lat="43.93731" lon="7.40026">
        <ele>909</ele>
        <time>2018-06-15T07:51:22.000Z</time>
      </trkpt>
      <trkpt lat="43.9372" lon="7.40032">
        <ele>910</ele>
        <time>2018-06-15T07:51:28.000Z</time>
      </trkpt>
      <trkpt lat="43.93718" lon="7.40032">
        <ele>910.59997558594</ele>
        <time>2018-06-15T07:51:29.000Z</time>
      </trkpt>
      <trkpt lat="43.93713" lon="7.40035">
        <ele>911.20001220703</ele>
        <time>2018-06-15T07:51:32.000Z</time>
      </trkpt>
      <trkpt lat="43.93705" lon="7.4004">
        <ele>912.40002441406</ele>
        <time>2018-06-15T07:51:37.000Z</time>
      </trkpt>
      <trkpt lat="43.93701" lon="7.40041">
        <ele>912.40002441406</ele>
        <time>2018-06-15T07:51:39.000Z</time>
      </trkpt>
      <trkpt lat="43.93689" lon="7.40044">
        <ele>912.79998779297</ele>
        <time>2018-06-15T07:51:46.000Z</time>
      </trkpt>
      <trkpt lat="43.9368" lon="7.40051">
        <ele>913.40002441406</ele>
        <time>2018-06-15T07:51:51.000Z</time>
      </trkpt>
      <trkpt lat="43.93678" lon="7.40055">
        <ele>913.79998779297</ele>
        <time>2018-06-15T07:51:53.000Z</time>
      </trkpt>
      <trkpt lat="43.9367" lon="7.4007">
        <ele>914.59997558594</ele>
        <time>2018-06-15T07:51:59.000Z</time>
      </trkpt>
      <trkpt lat="43.93658" lon="7.40091">
        <ele>915.40002441406</ele>
        <time>2018-06-15T07:52:07.000Z</time>
      </trkpt>
      <trkpt lat="43.93654" lon="7.40099">
        <ele>915.79998779297</ele>
        <time>2018-06-15T07:52:10.000Z</time>
      </trkpt>
      <trkpt lat="43.93645" lon="7.40117">
        <ele>917.20001220703</ele>
        <time>2018-06-15T07:52:17.000Z</time>
      </trkpt>
      <trkpt lat="43.93642" lon="7.40123">
        <ele>918.20001220703</ele>
        <time>2018-06-15T07:52:19.000Z</time>
      </trkpt>
      <trkpt lat="43.93631" lon="7.4014">
        <ele>919</ele>
        <time>2018-06-15T07:52:26.000Z</time>
      </trkpt>
      <trkpt lat="43.93628" lon="7.40145">
        <ele>919.40002441406</ele>
        <time>2018-06-15T07:52:28.000Z</time>
      </trkpt>
      <trkpt lat="43.93624" lon="7.40154">
        <ele>920.40002441406</ele>
        <time>2018-06-15T07:52:31.000Z</time>
      </trkpt>
      <trkpt lat="43.93622" lon="7.40159">
        <ele>920.59997558594</ele>
        <time>2018-06-15T07:52:33.000Z</time>
      </trkpt>
      <trkpt lat="43.93613" lon="7.40183">
        <ele>920.79998779297</ele>
        <time>2018-06-15T07:52:41.000Z</time>
      </trkpt>
      <trkpt lat="43.93601" lon="7.40206">
        <ele>921</ele>
        <time>2018-06-15T07:52:49.000Z</time>
      </trkpt>
      <trkpt lat="43.93598" lon="7.40214">
        <ele>921.59997558594</ele>
        <time>2018-06-15T07:52:52.000Z</time>
      </trkpt>
      <trkpt lat="43.93592" lon="7.40231">
        <ele>922.40002441406</ele>
        <time>2018-06-15T07:52:58.000Z</time>
      </trkpt>
      <trkpt lat="43.9359" lon="7.40242">
        <ele>922.59997558594</ele>
        <time>2018-06-15T07:53:01.000Z</time>
      </trkpt>
      <trkpt lat="43.93587" lon="7.40256">
        <ele>923</ele>
        <time>2018-06-15T07:53:05.000Z</time>
      </trkpt>
      <trkpt lat="43.9358" lon="7.4028">
        <ele>922.79998779297</ele>
        <time>2018-06-15T07:53:13.000Z</time>
      </trkpt>
      <trkpt lat="43.93576" lon="7.40303">
        <ele>923.40002441406</ele>
        <time>2018-06-15T07:53:20.000Z</time>
      </trkpt>
      <trkpt lat="43.93569" lon="7.4032">
        <ele>923.79998779297</ele>
        <time>2018-06-15T07:53:25.000Z</time>
      </trkpt>
      <trkpt lat="43.93564" lon="7.4033">
        <ele>924</ele>
        <time>2018-06-15T07:53:28.000Z</time>
      </trkpt>
      <trkpt lat="43.9356" lon="7.40349">
        <ele>924</ele>
        <time>2018-06-15T07:53:33.000Z</time>
      </trkpt>
      <trkpt lat="43.93559" lon="7.40373">
        <ele>924.20001220703</ele>
        <time>2018-06-15T07:53:39.000Z</time>
      </trkpt>
      <trkpt lat="43.93556" lon="7.40392">
        <ele>923.79998779297</ele>
        <time>2018-06-15T07:53:44.000Z</time>
      </trkpt>
      <trkpt lat="43.93555" lon="7.40423">
        <ele>924.40002441406</ele>
        <time>2018-06-15T07:53:52.000Z</time>
      </trkpt>
      <trkpt lat="43.93556" lon="7.40432">
        <ele>925</ele>
        <time>2018-06-15T07:53:55.000Z</time>
      </trkpt>
      <trkpt lat="43.93557" lon="7.40442">
        <ele>925.40002441406</ele>
        <time>2018-06-15T07:53:58.000Z</time>
      </trkpt>
      <trkpt lat="43.93559" lon="7.40463">
        <ele>925.59997558594</ele>
        <time>2018-06-15T07:54:04.000Z</time>
      </trkpt>
      <trkpt lat="43.9356" lon="7.40474">
        <ele>926.20001220703</ele>
        <time>2018-06-15T07:54:07.000Z</time>
      </trkpt>
      <trkpt lat="43.93561" lon="7.40484">
        <ele>926.40002441406</ele>
        <time>2018-06-15T07:54:10.000Z</time>
      </trkpt>
      <trkpt lat="43.93563" lon="7.40509">
        <ele>926.59997558594</ele>
        <time>2018-06-15T07:54:17.000Z</time>
      </trkpt>
      <trkpt lat="43.93564" lon="7.40515">
        <ele>927</ele>
        <time>2018-06-15T07:54:19.000Z</time>
      </trkpt>
      <trkpt lat="43.93564" lon="7.40519">
        <ele>927.20001220703</ele>
        <time>2018-06-15T07:54:20.000Z</time>
      </trkpt>
      <trkpt lat="43.93566" lon="7.40532">
        <ele>927</ele>
        <time>2018-06-15T07:54:24.000Z</time>
      </trkpt>
      <trkpt lat="43.93569" lon="7.40549">
        <ele>927.20001220703</ele>
        <time>2018-06-15T07:54:29.000Z</time>
      </trkpt>
      <trkpt lat="43.93575" lon="7.40578">
        <ele>927.40002441406</ele>
        <time>2018-06-15T07:54:37.000Z</time>
      </trkpt>
      <trkpt lat="43.93581" lon="7.40595">
        <ele>927.79998779297</ele>
        <time>2018-06-15T07:54:42.000Z</time>
      </trkpt>
      <trkpt lat="43.93587" lon="7.40608">
        <ele>928.40002441406</ele>
        <time>2018-06-15T07:54:46.000Z</time>
      </trkpt>
      <trkpt lat="43.93589" lon="7.40611">
        <ele>928.40002441406</ele>
        <time>2018-06-15T07:54:47.000Z</time>
      </trkpt>
      <trkpt lat="43.93599" lon="7.40626">
        <ele>928.40002441406</ele>
        <time>2018-06-15T07:54:53.000Z</time>
      </trkpt>
      <trkpt lat="43.93612" lon="7.40646">
        <ele>929.20001220703</ele>
        <time>2018-06-15T07:55:00.000Z</time>
      </trkpt>
      <trkpt lat="43.93614" lon="7.40648">
        <ele>929.59997558594</ele>
        <time>2018-06-15T07:55:01.000Z</time>
      </trkpt>
      <trkpt lat="43.93623" lon="7.40661">
        <ele>930.59997558594</ele>
        <time>2018-06-15T07:55:06.000Z</time>
      </trkpt>
      <trkpt lat="43.93625" lon="7.40663">
        <ele>930.59997558594</ele>
        <time>2018-06-15T07:55:07.000Z</time>
      </trkpt>
      <trkpt lat="43.93636" lon="7.40676">
        <ele>931.79998779297</ele>
        <time>2018-06-15T07:55:13.000Z</time>
      </trkpt>
      <trkpt lat="43.93638" lon="7.40678">
        <ele>932</ele>
        <time>2018-06-15T07:55:14.000Z</time>
      </trkpt>
      <trkpt lat="43.93648" lon="7.40691">
        <ele>932.79998779297</ele>
        <time>2018-06-15T07:55:19.000Z</time>
      </trkpt>
      <trkpt lat="43.93651" lon="7.40699">
        <ele>933.40002441406</ele>
        <time>2018-06-15T07:55:22.000Z</time>
      </trkpt>
      <trkpt lat="43.93652" lon="7.40704">
        <ele>933.79998779297</ele>
        <time>2018-06-15T07:55:24.000Z</time>
      </trkpt>
      <trkpt lat="43.93652" lon="7.40712">
        <ele>935</ele>
        <time>2018-06-15T07:55:28.000Z</time>
      </trkpt>
      <trkpt lat="43.93651" lon="7.40715">
        <ele>935.79998779297</ele>
        <time>2018-06-15T07:55:31.000Z</time>
      </trkpt>
      <trkpt lat="43.93648" lon="7.40722">
        <ele>935.40002441406</ele>
        <time>2018-06-15T07:59:41.000Z</time>
      </trkpt>
      <trkpt lat="43.9364" lon="7.40711">
        <ele>936</ele>
        <time>2018-06-15T07:59:48.000Z</time>
      </trkpt>
      <trkpt lat="43.93637" lon="7.40695">
        <ele>937.20001220703</ele>
        <time>2018-06-15T07:59:54.000Z</time>
      </trkpt>
      <trkpt lat="43.93636" lon="7.40692">
        <ele>937.40002441406</ele>
        <time>2018-06-15T07:59:55.000Z</time>
      </trkpt>
      <trkpt lat="43.93625" lon="7.40681">
        <ele>938.20001220703</ele>
        <time>2018-06-15T08:00:01.000Z</time>
      </trkpt>
      <trkpt lat="43.93623" lon="7.40679">
        <ele>938.20001220703</ele>
        <time>2018-06-15T08:00:02.000Z</time>
      </trkpt>
      <trkpt lat="43.93604" lon="7.40661">
        <ele>939.40002441406</ele>
        <time>2018-06-15T08:00:11.000Z</time>
      </trkpt>
      <trkpt lat="43.93586" lon="7.40645">
        <ele>940.40002441406</ele>
        <time>2018-06-15T08:00:19.000Z</time>
      </trkpt>
      <trkpt lat="43.93572" lon="7.40628">
        <ele>941.20001220703</ele>
        <time>2018-06-15T08:00:26.000Z</time>
      </trkpt>
      <trkpt lat="43.93569" lon="7.40625">
        <ele>941.40002441406</ele>
        <time>2018-06-15T08:00:28.000Z</time>
      </trkpt>
      <trkpt lat="43.93557" lon="7.40617">
        <ele>942</ele>
        <time>2018-06-15T08:00:34.000Z</time>
      </trkpt>
      <trkpt lat="43.93554" lon="7.40615">
        <ele>942.40002441406</ele>
        <time>2018-06-15T08:00:36.000Z</time>
      </trkpt>
      <trkpt lat="43.93551" lon="7.40611">
        <ele>943</ele>
        <time>2018-06-15T08:00:39.000Z</time>
      </trkpt>
      <trkpt lat="43.93546" lon="7.40607">
        <ele>943.59997558594</ele>
        <time>2018-06-15T08:00:43.000Z</time>
      </trkpt>
      <trkpt lat="43.93544" lon="7.40606">
        <ele>943.79998779297</ele>
        <time>2018-06-15T08:00:47.000Z</time>
      </trkpt>
      <trkpt lat="43.93541" lon="7.406">
        <ele>945.40002441406</ele>
        <time>2018-06-15T08:01:12.000Z</time>
      </trkpt>
      <trkpt lat="43.9353" lon="7.40588">
        <ele>946.20001220703</ele>
        <time>2018-06-15T08:01:19.000Z</time>
      </trkpt>
      <trkpt lat="43.93528" lon="7.40586">
        <ele>946.40002441406</ele>
        <time>2018-06-15T08:01:20.000Z</time>
      </trkpt>
      <trkpt lat="43.93518" lon="7.40573">
        <ele>947</ele>
        <time>2018-06-15T08:01:27.000Z</time>
      </trkpt>
      <trkpt lat="43.93512" lon="7.40566">
        <ele>947.59997558594</ele>
        <time>2018-06-15T08:01:30.000Z</time>
      </trkpt>
      <trkpt lat="43.93501" lon="7.40551">
        <ele>948.40002441406</ele>
        <time>2018-06-15T08:01:37.000Z</time>
      </trkpt>
      <trkpt lat="43.93498" lon="7.40547">
        <ele>948.59997558594</ele>
        <time>2018-06-15T08:01:39.000Z</time>
      </trkpt>
      <trkpt lat="43.9349" lon="7.40534">
        <ele>949</ele>
        <time>2018-06-15T08:01:45.000Z</time>
      </trkpt>
      <trkpt lat="43.93482" lon="7.40523">
        <ele>949.79998779297</ele>
        <time>2018-06-15T08:01:51.000Z</time>
      </trkpt>
      <trkpt lat="43.9348" lon="7.40521">
        <ele>949.79998779297</ele>
        <time>2018-06-15T08:01:52.000Z</time>
      </trkpt>
      <trkpt lat="43.93472" lon="7.40512">
        <ele>950.79998779297</ele>
        <time>2018-06-15T08:01:57.000Z</time>
      </trkpt>
      <trkpt lat="43.93467" lon="7.40507">
        <ele>951.20001220703</ele>
        <time>2018-06-15T08:02:00.000Z</time>
      </trkpt>
      <trkpt lat="43.93459" lon="7.40501">
        <ele>952.20001220703</ele>
        <time>2018-06-15T08:02:04.000Z</time>
      </trkpt>
      <trkpt lat="43.9345" lon="7.40499">
        <ele>953.20001220703</ele>
        <time>2018-06-15T08:02:08.000Z</time>
      </trkpt>
      <trkpt lat="43.93447" lon="7.40498">
        <ele>953.59997558594</ele>
        <time>2018-06-15T08:02:09.000Z</time>
      </trkpt>
      <trkpt lat="43.93441" lon="7.40497">
        <ele>954.40002441406</ele>
        <time>2018-06-15T08:02:12.000Z</time>
      </trkpt>
      <trkpt lat="43.93433" lon="7.40496">
        <ele>955.40002441406</ele>
        <time>2018-06-15T08:02:16.000Z</time>
      </trkpt>
      <trkpt lat="43.93425" lon="7.40497">
        <ele>956.59997558594</ele>
        <time>2018-06-15T08:02:20.000Z</time>
      </trkpt>
      <trkpt lat="43.9342" lon="7.40498">
        <ele>957</ele>
        <time>2018-06-15T08:02:23.000Z</time>
      </trkpt>
      <trkpt lat="43.93403" lon="7.40498">
        <ele>957.40002441406</ele>
        <time>2018-06-15T08:02:32.000Z</time>
      </trkpt>
      <trkpt lat="43.93395" lon="7.40497">
        <ele>957.79998779297</ele>
        <time>2018-06-15T08:02:36.000Z</time>
      </trkpt>
      <trkpt lat="43.93388" lon="7.40495">
        <ele>958.20001220703</ele>
        <time>2018-06-15T08:02:39.000Z</time>
      </trkpt>
      <trkpt lat="43.93375" lon="7.40493">
        <ele>959</ele>
        <time>2018-06-15T08:02:45.000Z</time>
      </trkpt>
      <trkpt lat="43.9337" lon="7.40492">
        <ele>959.59997558594</ele>
        <time>2018-06-15T08:02:47.000Z</time>
      </trkpt>
      <trkpt lat="43.93365" lon="7.40491">
        <ele>960</ele>
        <time>2018-06-15T08:02:49.000Z</time>
      </trkpt>
      <trkpt lat="43.93357" lon="7.4049">
        <ele>961</ele>
        <time>2018-06-15T08:02:53.000Z</time>
      </trkpt>
      <trkpt lat="43.93348" lon="7.40489">
        <ele>962.20001220703</ele>
        <time>2018-06-15T08:02:57.000Z</time>
      </trkpt>
      <trkpt lat="43.93339" lon="7.4049">
        <ele>963.59997558594</ele>
        <time>2018-06-15T08:03:01.000Z</time>
      </trkpt>
      <trkpt lat="43.93328" lon="7.40492">
        <ele>964.59997558594</ele>
        <time>2018-06-15T08:03:06.000Z</time>
      </trkpt>
      <trkpt lat="43.93317" lon="7.40497">
        <ele>966</ele>
        <time>2018-06-15T08:03:11.000Z</time>
      </trkpt>
      <trkpt lat="43.93309" lon="7.405">
        <ele>967.20001220703</ele>
        <time>2018-06-15T08:03:15.000Z</time>
      </trkpt>
      <trkpt lat="43.93298" lon="7.40505">
        <ele>968.20001220703</ele>
        <time>2018-06-15T08:03:20.000Z</time>
      </trkpt>
      <trkpt lat="43.93289" lon="7.40507">
        <ele>969.20001220703</ele>
        <time>2018-06-15T08:03:25.000Z</time>
      </trkpt>
      <trkpt lat="43.93287" lon="7.40508">
        <ele>969.20001220703</ele>
        <time>2018-06-15T08:03:26.000Z</time>
      </trkpt>
      <trkpt lat="43.93276" lon="7.40511">
        <ele>970.40002441406</ele>
        <time>2018-06-15T08:03:32.000Z</time>
      </trkpt>
      <trkpt lat="43.93267" lon="7.40514">
        <ele>971.59997558594</ele>
        <time>2018-06-15T08:03:37.000Z</time>
      </trkpt>
      <trkpt lat="43.93261" lon="7.40515">
        <ele>971.79998779297</ele>
        <time>2018-06-15T08:03:40.000Z</time>
      </trkpt>
      <trkpt lat="43.93249" lon="7.40518">
        <ele>972.59997558594</ele>
        <time>2018-06-15T08:03:46.000Z</time>
      </trkpt>
      <trkpt lat="43.93245" lon="7.40519">
        <ele>973</ele>
        <time>2018-06-15T08:03:48.000Z</time>
      </trkpt>
      <trkpt lat="43.93239" lon="7.40518">
        <ele>973.79998779297</ele>
        <time>2018-06-15T08:03:51.000Z</time>
      </trkpt>
      <trkpt lat="43.9323" lon="7.40513">
        <ele>974.40002441406</ele>
        <time>2018-06-15T08:03:56.000Z</time>
      </trkpt>
      <trkpt lat="43.93225" lon="7.40509">
        <ele>974.79998779297</ele>
        <time>2018-06-15T08:03:59.000Z</time>
      </trkpt>
      <trkpt lat="43.93218" lon="7.40504">
        <ele>975</ele>
        <time>2018-06-15T08:04:03.000Z</time>
      </trkpt>
      <trkpt lat="43.93209" lon="7.40497">
        <ele>975.40002441406</ele>
        <time>2018-06-15T08:04:09.000Z</time>
      </trkpt>
      <trkpt lat="43.93207" lon="7.40496">
        <ele>975.59997558594</ele>
        <time>2018-06-15T08:04:10.000Z</time>
      </trkpt>
      <trkpt lat="43.932" lon="7.40489">
        <ele>975.79998779297</ele>
        <time>2018-06-15T08:04:15.000Z</time>
      </trkpt>
      <trkpt lat="43.93198" lon="7.40488">
        <ele>976</ele>
        <time>2018-06-15T08:04:16.000Z</time>
      </trkpt>
      <trkpt lat="43.93193" lon="7.40485">
        <ele>977.20001220703</ele>
        <time>2018-06-15T08:04:19.000Z</time>
      </trkpt>
      <trkpt lat="43.93188" lon="7.40479">
        <ele>978</ele>
        <time>2018-06-15T08:04:23.000Z</time>
      </trkpt>
      <trkpt lat="43.93185" lon="7.40476">
        <ele>978.20001220703</ele>
        <time>2018-06-15T08:04:25.000Z</time>
      </trkpt>
      <trkpt lat="43.93178" lon="7.40466">
        <ele>979.20001220703</ele>
        <time>2018-06-15T08:04:30.000Z</time>
      </trkpt>
      <trkpt lat="43.93166" lon="7.40451">
        <ele>980</ele>
        <time>2018-06-15T08:04:38.000Z</time>
      </trkpt>
      <trkpt lat="43.93162" lon="7.40448">
        <ele>980.40002441406</ele>
        <time>2018-06-15T08:04:40.000Z</time>
      </trkpt>
      <trkpt lat="43.93154" lon="7.40439">
        <ele>981.59997558594</ele>
        <time>2018-06-15T08:04:45.000Z</time>
      </trkpt>
      <trkpt lat="43.93152" lon="7.40437">
        <ele>981.79998779297</ele>
        <time>2018-06-15T08:04:46.000Z</time>
      </trkpt>
      <trkpt lat="43.93147" lon="7.4043">
        <ele>982.79998779297</ele>
        <time>2018-06-15T08:04:50.000Z</time>
      </trkpt>
      <trkpt lat="43.9314" lon="7.40423">
        <ele>983.59997558594</ele>
        <time>2018-06-15T08:04:54.000Z</time>
      </trkpt>
      <trkpt lat="43.93138" lon="7.40421">
        <ele>983.79998779297</ele>
        <time>2018-06-15T08:04:55.000Z</time>
      </trkpt>
      <trkpt lat="43.93132" lon="7.40414">
        <ele>985.40002441406</ele>
        <time>2018-06-15T08:04:59.000Z</time>
      </trkpt>
      <trkpt lat="43.93129" lon="7.40411">
        <ele>985.59997558594</ele>
        <time>2018-06-15T08:05:01.000Z</time>
      </trkpt>
      <trkpt lat="43.93126" lon="7.40408">
        <ele>986.40002441406</ele>
        <time>2018-06-15T08:05:03.000Z</time>
      </trkpt>
      <trkpt lat="43.9312" lon="7.404">
        <ele>987.59997558594</ele>
        <time>2018-06-15T08:05:07.000Z</time>
      </trkpt>
      <trkpt lat="43.93116" lon="7.40391">
        <ele>988.40002441406</ele>
        <time>2018-06-15T08:05:11.000Z</time>
      </trkpt>
      <trkpt lat="43.93114" lon="7.40387">
        <ele>988.79998779297</ele>
        <time>2018-06-15T08:05:13.000Z</time>
      </trkpt>
      <trkpt lat="43.93109" lon="7.40376">
        <ele>989.40002441406</ele>
        <time>2018-06-15T08:05:18.000Z</time>
      </trkpt>
      <trkpt lat="43.93106" lon="7.40368">
        <ele>990</ele>
        <time>2018-06-15T08:05:21.000Z</time>
      </trkpt>
      <trkpt lat="43.93103" lon="7.40355">
        <ele>990.79998779297</ele>
        <time>2018-06-15T08:05:26.000Z</time>
      </trkpt>
      <trkpt lat="43.93102" lon="7.40352">
        <ele>991</ele>
        <time>2018-06-15T08:05:27.000Z</time>
      </trkpt>
      <trkpt lat="43.93095" lon="7.40337">
        <ele>992.20001220703</ele>
        <time>2018-06-15T08:05:33.000Z</time>
      </trkpt>
      <trkpt lat="43.93094" lon="7.40334">
        <ele>992.40002441406</ele>
        <time>2018-06-15T08:05:34.000Z</time>
      </trkpt>
      <trkpt lat="43.93086" lon="7.40328">
        <ele>993.20001220703</ele>
        <time>2018-06-15T08:05:38.000Z</time>
      </trkpt>
      <trkpt lat="43.9308" lon="7.40326">
        <ele>993.79998779297</ele>
        <time>2018-06-15T08:05:41.000Z</time>
      </trkpt>
      <trkpt lat="43.93072" lon="7.40323">
        <ele>994.40002441406</ele>
        <time>2018-06-15T08:05:45.000Z</time>
      </trkpt>
      <trkpt lat="43.93064" lon="7.40319">
        <ele>995.59997558594</ele>
        <time>2018-06-15T08:05:49.000Z</time>
      </trkpt>
      <trkpt lat="43.93062" lon="7.40318">
        <ele>995.79998779297</ele>
        <time>2018-06-15T08:05:50.000Z</time>
      </trkpt>
      <trkpt lat="43.93057" lon="7.40315">
        <ele>996.79998779297</ele>
        <time>2018-06-15T08:05:53.000Z</time>
      </trkpt>
      <trkpt lat="43.93045" lon="7.40317">
        <ele>997.40002441406</ele>
        <time>2018-06-15T08:05:58.000Z</time>
      </trkpt>
      <trkpt lat="43.93041" lon="7.40321">
        <ele>998</ele>
        <time>2018-06-15T08:06:00.000Z</time>
      </trkpt>
      <trkpt lat="43.93037" lon="7.40327">
        <ele>998.40002441406</ele>
        <time>2018-06-15T08:06:03.000Z</time>
      </trkpt>
      <trkpt lat="43.93034" lon="7.40332">
        <ele>999</ele>
        <time>2018-06-15T08:06:05.000Z</time>
      </trkpt>
      <trkpt lat="43.93028" lon="7.40343">
        <ele>1000</ele>
        <time>2018-06-15T08:06:10.000Z</time>
      </trkpt>
      <trkpt lat="43.93026" lon="7.40347">
        <ele>1000.5999755859</ele>
        <time>2018-06-15T08:06:12.000Z</time>
      </trkpt>
      <trkpt lat="43.93022" lon="7.40352">
        <ele>1001.200012207</ele>
        <time>2018-06-15T08:06:15.000Z</time>
      </trkpt>
      <trkpt lat="43.93013" lon="7.4036">
        <ele>1002.4000244141</ele>
        <time>2018-06-15T08:06:20.000Z</time>
      </trkpt>
      <trkpt lat="43.93012" lon="7.40362">
        <ele>1002.5999755859</ele>
        <time>2018-06-15T08:06:21.000Z</time>
      </trkpt>
      <trkpt lat="43.93009" lon="7.40364">
        <ele>1003.4000244141</ele>
        <time>2018-06-15T08:06:23.000Z</time>
      </trkpt>
      <trkpt lat="43.93003" lon="7.40369">
        <ele>1004.5999755859</ele>
        <time>2018-06-15T08:06:26.000Z</time>
      </trkpt>
      <trkpt lat="43.92997" lon="7.40374">
        <ele>1005.4000244141</ele>
        <time>2018-06-15T08:06:29.000Z</time>
      </trkpt>
      <trkpt lat="43.92995" lon="7.40375">
        <ele>1005.5999755859</ele>
        <time>2018-06-15T08:06:30.000Z</time>
      </trkpt>
      <trkpt lat="43.92985" lon="7.40381">
        <ele>1006.799987793</ele>
        <time>2018-06-15T08:06:37.000Z</time>
      </trkpt>
      <trkpt lat="43.92976" lon="7.40384">
        <ele>1007.799987793</ele>
        <time>2018-06-15T08:06:41.000Z</time>
      </trkpt>
      <trkpt lat="43.9297" lon="7.40386">
        <ele>1009.200012207</ele>
        <time>2018-06-15T08:06:44.000Z</time>
      </trkpt>
      <trkpt lat="43.92959" lon="7.40391">
        <ele>1010.200012207</ele>
        <time>2018-06-15T08:06:50.000Z</time>
      </trkpt>
      <trkpt lat="43.92955" lon="7.40394">
        <ele>1010.5999755859</ele>
        <time>2018-06-15T08:06:52.000Z</time>
      </trkpt>
      <trkpt lat="43.92948" lon="7.40399">
        <ele>1011.4000244141</ele>
        <time>2018-06-15T08:06:56.000Z</time>
      </trkpt>
      <trkpt lat="43.92943" lon="7.40404">
        <ele>1012.200012207</ele>
        <time>2018-06-15T08:06:59.000Z</time>
      </trkpt>
      <trkpt lat="43.92942" lon="7.40406">
        <ele>1012.4000244141</ele>
        <time>2018-06-15T08:07:00.000Z</time>
      </trkpt>
      <trkpt lat="43.92934" lon="7.40414">
        <ele>1013.5999755859</ele>
        <time>2018-06-15T08:07:05.000Z</time>
      </trkpt>
      <trkpt lat="43.92933" lon="7.40415">
        <ele>1013.5999755859</ele>
        <time>2018-06-15T08:07:06.000Z</time>
      </trkpt>
      <trkpt lat="43.92922" lon="7.40427">
        <ele>1014.4000244141</ele>
        <time>2018-06-15T08:07:13.000Z</time>
      </trkpt>
      <trkpt lat="43.92918" lon="7.40433">
        <ele>1014.799987793</ele>
        <time>2018-06-15T08:07:16.000Z</time>
      </trkpt>
      <trkpt lat="43.92916" lon="7.40441">
        <ele>1015</ele>
        <time>2018-06-15T08:07:19.000Z</time>
      </trkpt>
      <trkpt lat="43.92913" lon="7.40457">
        <ele>1015.799987793</ele>
        <time>2018-06-15T08:07:26.000Z</time>
      </trkpt>
      <trkpt lat="43.92913" lon="7.4046">
        <ele>1016</ele>
        <time>2018-06-15T08:07:27.000Z</time>
      </trkpt>
      <trkpt lat="43.92912" lon="7.40467">
        <ele>1016.799987793</ele>
        <time>2018-06-15T08:07:30.000Z</time>
      </trkpt>
      <trkpt lat="43.92911" lon="7.40479">
        <ele>1017.799987793</ele>
        <time>2018-06-15T08:07:35.000Z</time>
      </trkpt>
      <trkpt lat="43.9291" lon="7.40481">
        <ele>1018</ele>
        <time>2018-06-15T08:07:36.000Z</time>
      </trkpt>
      <trkpt lat="43.929" lon="7.405">
        <ele>1018.5999755859</ele>
        <time>2018-06-15T08:07:45.000Z</time>
      </trkpt>
      <trkpt lat="43.92896" lon="7.40503">
        <ele>1019</ele>
        <time>2018-06-15T08:07:47.000Z</time>
      </trkpt>
      <trkpt lat="43.92888" lon="7.40506">
        <ele>1019.5999755859</ele>
        <time>2018-06-15T08:07:51.000Z</time>
      </trkpt>
      <trkpt lat="43.92881" lon="7.40507">
        <ele>1020</ele>
        <time>2018-06-15T08:07:54.000Z</time>
      </trkpt>
      <trkpt lat="43.92868" lon="7.40511">
        <ele>1020.799987793</ele>
        <time>2018-06-15T08:08:00.000Z</time>
      </trkpt>
      <trkpt lat="43.92864" lon="7.40513">
        <ele>1021.200012207</ele>
        <time>2018-06-15T08:08:02.000Z</time>
      </trkpt>
      <trkpt lat="43.92855" lon="7.40522">
        <ele>1021.5999755859</ele>
        <time>2018-06-15T08:08:07.000Z</time>
      </trkpt>
      <trkpt lat="43.92848" lon="7.40532">
        <ele>1021.799987793</ele>
        <time>2018-06-15T08:08:12.000Z</time>
      </trkpt>
      <trkpt lat="43.92843" lon="7.4054">
        <ele>1022</ele>
        <time>2018-06-15T08:08:16.000Z</time>
      </trkpt>
      <trkpt lat="43.92842" lon="7.40541">
        <ele>1022</ele>
        <time>2018-06-15T08:08:17.000Z</time>
      </trkpt>
      <trkpt lat="43.92838" lon="7.4055">
        <ele>1022.4000244141</ele>
        <time>2018-06-15T08:08:21.000Z</time>
      </trkpt>
      <trkpt lat="43.92833" lon="7.40558">
        <ele>1023.4000244141</ele>
        <time>2018-06-15T08:08:25.000Z</time>
      </trkpt>
      <trkpt lat="43.92831" lon="7.40562">
        <ele>1024</ele>
        <time>2018-06-15T08:08:27.000Z</time>
      </trkpt>
      <trkpt lat="43.92828" lon="7.40566">
        <ele>1024.4000244141</ele>
        <time>2018-06-15T08:08:29.000Z</time>
      </trkpt>
      <trkpt lat="43.92823" lon="7.4058">
        <ele>1025.5999755859</ele>
        <time>2018-06-15T08:08:35.000Z</time>
      </trkpt>
      <trkpt lat="43.9282" lon="7.40594">
        <ele>1026.8000488281</ele>
        <time>2018-06-15T08:08:40.000Z</time>
      </trkpt>
      <trkpt lat="43.92819" lon="7.40597">
        <ele>1027</ele>
        <time>2018-06-15T08:08:41.000Z</time>
      </trkpt>
      <trkpt lat="43.92818" lon="7.40606">
        <ele>1028</ele>
        <time>2018-06-15T08:08:44.000Z</time>
      </trkpt>
      <trkpt lat="43.92817" lon="7.40616">
        <ele>1029</ele>
        <time>2018-06-15T08:08:48.000Z</time>
      </trkpt>
      <trkpt lat="43.92817" lon="7.40619">
        <ele>1029.4000244141</ele>
        <time>2018-06-15T08:08:49.000Z</time>
      </trkpt>
      <trkpt lat="43.92815" lon="7.40627">
        <ele>1030.5999755859</ele>
        <time>2018-06-15T08:08:52.000Z</time>
      </trkpt>
      <trkpt lat="43.92814" lon="7.40641">
        <ele>1031.5999755859</ele>
        <time>2018-06-15T08:08:57.000Z</time>
      </trkpt>
      <trkpt lat="43.92809" lon="7.40654">
        <ele>1032.5999755859</ele>
        <time>2018-06-15T08:09:03.000Z</time>
      </trkpt>
      <trkpt lat="43.92808" lon="7.40656">
        <ele>1032.8000488281</ele>
        <time>2018-06-15T08:09:04.000Z</time>
      </trkpt>
      <trkpt lat="43.92801" lon="7.40671">
        <ele>1033.4000244141</ele>
        <time>2018-06-15T08:09:11.000Z</time>
      </trkpt>
      <trkpt lat="43.92798" lon="7.40673">
        <ele>1033.8000488281</ele>
        <time>2018-06-15T08:09:13.000Z</time>
      </trkpt>
      <trkpt lat="43.92792" lon="7.40679">
        <ele>1035</ele>
        <time>2018-06-15T08:09:17.000Z</time>
      </trkpt>
      <trkpt lat="43.92789" lon="7.40682">
        <ele>1036</ele>
        <time>2018-06-15T08:09:19.000Z</time>
      </trkpt>
      <trkpt lat="43.92779" lon="7.40686">
        <ele>1037.1999511719</ele>
        <time>2018-06-15T08:09:24.000Z</time>
      </trkpt>
      <trkpt lat="43.92775" lon="7.40687">
        <ele>1037.4000244141</ele>
        <time>2018-06-15T08:09:26.000Z</time>
      </trkpt>
      <trkpt lat="43.92761" lon="7.4069">
        <ele>1038.1999511719</ele>
        <time>2018-06-15T08:09:34.000Z</time>
      </trkpt>
      <trkpt lat="43.92756" lon="7.4069">
        <ele>1038.8000488281</ele>
        <time>2018-06-15T08:09:37.000Z</time>
      </trkpt>
      <trkpt lat="43.92753" lon="7.4069">
        <ele>1039.1999511719</ele>
        <time>2018-06-15T08:09:39.000Z</time>
      </trkpt>
      <trkpt lat="43.92747" lon="7.40689">
        <ele>1040.4000244141</ele>
        <time>2018-06-15T08:09:43.000Z</time>
      </trkpt>
      <trkpt lat="43.92744" lon="7.40688">
        <ele>1040.8000488281</ele>
        <time>2018-06-15T08:09:45.000Z</time>
      </trkpt>
      <trkpt lat="43.9274" lon="7.40686">
        <ele>1041.5999755859</ele>
        <time>2018-06-15T08:09:48.000Z</time>
      </trkpt>
      <trkpt lat="43.92732" lon="7.40682">
        <ele>1042.8000488281</ele>
        <time>2018-06-15T08:09:53.000Z</time>
      </trkpt>
      <trkpt lat="43.92724" lon="7.40673">
        <ele>1043.8000488281</ele>
        <time>2018-06-15T08:10:01.000Z</time>
      </trkpt>
      <trkpt lat="43.92722" lon="7.40671">
        <ele>1043.8000488281</ele>
        <time>2018-06-15T08:10:02.000Z</time>
      </trkpt>
      <trkpt lat="43.92715" lon="7.40662">
        <ele>1045</ele>
        <time>2018-06-15T08:10:08.000Z</time>
      </trkpt>
      <trkpt lat="43.9271" lon="7.40658">
        <ele>1045.5999755859</ele>
        <time>2018-06-15T08:10:11.000Z</time>
      </trkpt>
      <trkpt lat="43.92708" lon="7.40655">
        <ele>1046</ele>
        <time>2018-06-15T08:10:13.000Z</time>
      </trkpt>
      <trkpt lat="43.92698" lon="7.40646">
        <ele>1047</ele>
        <time>2018-06-15T08:10:19.000Z</time>
      </trkpt>
      <trkpt lat="43.92697" lon="7.40644">
        <ele>1047.1999511719</ele>
        <time>2018-06-15T08:10:20.000Z</time>
      </trkpt>
      <trkpt lat="43.92691" lon="7.40639">
        <ele>1048.1999511719</ele>
        <time>2018-06-15T08:10:24.000Z</time>
      </trkpt>
      <trkpt lat="43.92683" lon="7.40632">
        <ele>1049.1999511719</ele>
        <time>2018-06-15T08:10:29.000Z</time>
      </trkpt>
      <trkpt lat="43.92674" lon="7.40625">
        <ele>1050.1999511719</ele>
        <time>2018-06-15T08:10:35.000Z</time>
      </trkpt>
      <trkpt lat="43.92667" lon="7.4062">
        <ele>1050.4000244141</ele>
        <time>2018-06-15T08:10:39.000Z</time>
      </trkpt>
      <trkpt lat="43.92658" lon="7.40613">
        <ele>1051.1999511719</ele>
        <time>2018-06-15T08:10:44.000Z</time>
      </trkpt>
      <trkpt lat="43.92652" lon="7.40608">
        <ele>1052</ele>
        <time>2018-06-15T08:10:48.000Z</time>
      </trkpt>
      <trkpt lat="43.92648" lon="7.40602">
        <ele>1052.4000244141</ele>
        <time>2018-06-15T08:10:51.000Z</time>
      </trkpt>
      <trkpt lat="43.92638" lon="7.4059">
        <ele>1053.4000244141</ele>
        <time>2018-06-15T08:10:58.000Z</time>
      </trkpt>
      <trkpt lat="43.92628" lon="7.40575">
        <ele>1054.5999755859</ele>
        <time>2018-06-15T08:11:06.000Z</time>
      </trkpt>
      <trkpt lat="43.92622" lon="7.40564">
        <ele>1055.5999755859</ele>
        <time>2018-06-15T08:11:11.000Z</time>
      </trkpt>
      <trkpt lat="43.92619" lon="7.40557">
        <ele>1056.4000244141</ele>
        <time>2018-06-15T08:11:14.000Z</time>
      </trkpt>
      <trkpt lat="43.92618" lon="7.40552">
        <ele>1056.8000488281</ele>
        <time>2018-06-15T08:11:16.000Z</time>
      </trkpt>
      <trkpt lat="43.92614" lon="7.40536">
        <ele>1057.8000488281</ele>
        <time>2018-06-15T08:11:22.000Z</time>
      </trkpt>
      <trkpt lat="43.92614" lon="7.40534">
        <ele>1058</ele>
        <time>2018-06-15T08:11:23.000Z</time>
      </trkpt>
      <trkpt lat="43.92612" lon="7.40523">
        <ele>1058.8000488281</ele>
        <time>2018-06-15T08:11:27.000Z</time>
      </trkpt>
      <trkpt lat="43.92612" lon="7.40512">
        <ele>1059.5999755859</ele>
        <time>2018-06-15T08:11:31.000Z</time>
      </trkpt>
      <trkpt lat="43.92611" lon="7.40504">
        <ele>1060</ele>
        <time>2018-06-15T08:11:34.000Z</time>
      </trkpt>
      <trkpt lat="43.92611" lon="7.40486">
        <ele>1060.8000488281</ele>
        <time>2018-06-15T08:11:41.000Z</time>
      </trkpt>
      <trkpt lat="43.9261" lon="7.40483">
        <ele>1061</ele>
        <time>2018-06-15T08:11:42.000Z</time>
      </trkpt>
      <trkpt lat="43.92609" lon="7.4047">
        <ele>1062</ele>
        <time>2018-06-15T08:11:47.000Z</time>
      </trkpt>
      <trkpt lat="43.92608" lon="7.40463">
        <ele>1062.8000488281</ele>
        <time>2018-06-15T08:11:50.000Z</time>
      </trkpt>
      <trkpt lat="43.92607" lon="7.40458">
        <ele>1063.1999511719</ele>
        <time>2018-06-15T08:11:52.000Z</time>
      </trkpt>
      <trkpt lat="43.92604" lon="7.40444">
        <ele>1064.4000244141</ele>
        <time>2018-06-15T08:11:58.000Z</time>
      </trkpt>
      <trkpt lat="43.92603" lon="7.40439">
        <ele>1064.8000488281</ele>
        <time>2018-06-15T08:12:00.000Z</time>
      </trkpt>
      <trkpt lat="43.92601" lon="7.40433">
        <ele>1065.4000244141</ele>
        <time>2018-06-15T08:12:03.000Z</time>
      </trkpt>
      <trkpt lat="43.92597" lon="7.40423">
        <ele>1066.5999755859</ele>
        <time>2018-06-15T08:12:08.000Z</time>
      </trkpt>
      <trkpt lat="43.92595" lon="7.40418">
        <ele>1066.8000488281</ele>
        <time>2018-06-15T08:12:10.000Z</time>
      </trkpt>
      <trkpt lat="43.92593" lon="7.40411">
        <ele>1067.5999755859</ele>
        <time>2018-06-15T08:12:13.000Z</time>
      </trkpt>
      <trkpt lat="43.9259" lon="7.40399">
        <ele>1068.8000488281</ele>
        <time>2018-06-15T08:12:18.000Z</time>
      </trkpt>
      <trkpt lat="43.9259" lon="7.40384">
        <ele>1069.8000488281</ele>
        <time>2018-06-15T08:12:24.000Z</time>
      </trkpt>
      <trkpt lat="43.9259" lon="7.40377">
        <ele>1070.1999511719</ele>
        <time>2018-06-15T08:12:27.000Z</time>
      </trkpt>
      <trkpt lat="43.92591" lon="7.40363">
        <ele>1071</ele>
        <time>2018-06-15T08:12:32.000Z</time>
      </trkpt>
      <trkpt lat="43.92591" lon="7.40353">
        <ele>1071.5999755859</ele>
        <time>2018-06-15T08:12:36.000Z</time>
      </trkpt>
      <trkpt lat="43.92591" lon="7.40343">
        <ele>1072</ele>
        <time>2018-06-15T08:12:40.000Z</time>
      </trkpt>
      <trkpt lat="43.92591" lon="7.40333">
        <ele>1072.5999755859</ele>
        <time>2018-06-15T08:12:44.000Z</time>
      </trkpt>
      <trkpt lat="43.9259" lon="7.40327">
        <ele>1073</ele>
        <time>2018-06-15T08:12:46.000Z</time>
      </trkpt>
      <trkpt lat="43.92586" lon="7.40312">
        <ele>1074</ele>
        <time>2018-06-15T08:12:52.000Z</time>
      </trkpt>
      <trkpt lat="43.92583" lon="7.40307">
        <ele>1074.1999511719</ele>
        <time>2018-06-15T08:12:54.000Z</time>
      </trkpt>
      <trkpt lat="43.92577" lon="7.40298">
        <ele>1075.1999511719</ele>
        <time>2018-06-15T08:12:59.000Z</time>
      </trkpt>
      <trkpt lat="43.92571" lon="7.4029">
        <ele>1076</ele>
        <time>2018-06-15T08:13:03.000Z</time>
      </trkpt>
      <trkpt lat="43.92569" lon="7.40288">
        <ele>1076.4000244141</ele>
        <time>2018-06-15T08:13:04.000Z</time>
      </trkpt>
      <trkpt lat="43.92561" lon="7.4028">
        <ele>1077.5999755859</ele>
        <time>2018-06-15T08:13:09.000Z</time>
      </trkpt>
      <trkpt lat="43.92556" lon="7.40276">
        <ele>1078.1999511719</ele>
        <time>2018-06-15T08:13:12.000Z</time>
      </trkpt>
      <trkpt lat="43.92552" lon="7.40274">
        <ele>1078.5999755859</ele>
        <time>2018-06-15T08:13:14.000Z</time>
      </trkpt>
      <trkpt lat="43.92543" lon="7.40269">
        <ele>1079.5999755859</ele>
        <time>2018-06-15T08:13:19.000Z</time>
      </trkpt>
      <trkpt lat="43.92536" lon="7.40265">
        <ele>1080.1999511719</ele>
        <time>2018-06-15T08:13:23.000Z</time>
      </trkpt>
      <trkpt lat="43.92533" lon="7.40263">
        <ele>1080.5999755859</ele>
        <time>2018-06-15T08:13:25.000Z</time>
      </trkpt>
      <trkpt lat="43.92523" lon="7.40257">
        <ele>1081.5999755859</ele>
        <time>2018-06-15T08:13:30.000Z</time>
      </trkpt>
      <trkpt lat="43.92519" lon="7.40255">
        <ele>1082.1999511719</ele>
        <time>2018-06-15T08:13:32.000Z</time>
      </trkpt>
      <trkpt lat="43.92511" lon="7.40249">
        <ele>1082.8000488281</ele>
        <time>2018-06-15T08:13:36.000Z</time>
      </trkpt>
      <trkpt lat="43.92506" lon="7.40244">
        <ele>1083.1999511719</ele>
        <time>2018-06-15T08:13:39.000Z</time>
      </trkpt>
      <trkpt lat="43.92502" lon="7.40237">
        <ele>1083.8000488281</ele>
        <time>2018-06-15T08:13:42.000Z</time>
      </trkpt>
      <trkpt lat="43.92496" lon="7.40225">
        <ele>1085</ele>
        <time>2018-06-15T08:13:47.000Z</time>
      </trkpt>
      <trkpt lat="43.92495" lon="7.40214">
        <ele>1086</ele>
        <time>2018-06-15T08:13:51.000Z</time>
      </trkpt>
      <trkpt lat="43.92494" lon="7.40203">
        <ele>1086.5999755859</ele>
        <time>2018-06-15T08:13:55.000Z</time>
      </trkpt>
      <trkpt lat="43.92494" lon="7.40195">
        <ele>1087.1999511719</ele>
        <time>2018-06-15T08:13:58.000Z</time>
      </trkpt>
      <trkpt lat="43.9249" lon="7.40182">
        <ele>1088</ele>
        <time>2018-06-15T08:14:03.000Z</time>
      </trkpt>
      <trkpt lat="43.92488" lon="7.40177">
        <ele>1088.4000244141</ele>
        <time>2018-06-15T08:14:05.000Z</time>
      </trkpt>
      <trkpt lat="43.92482" lon="7.4017">
        <ele>1089.1999511719</ele>
        <time>2018-06-15T08:14:09.000Z</time>
      </trkpt>
      <trkpt lat="43.92481" lon="7.4017">
        <ele>1089.8000488281</ele>
        <time>2018-06-15T08:14:10.000Z</time>
      </trkpt>
      <trkpt lat="43.92477" lon="7.40163">
        <ele>1090.1999511719</ele>
        <time>2018-06-15T08:14:13.000Z</time>
      </trkpt>
      <trkpt lat="43.92472" lon="7.40157">
        <ele>1090.8000488281</ele>
        <time>2018-06-15T08:14:16.000Z</time>
      </trkpt>
      <trkpt lat="43.92463" lon="7.40143">
        <ele>1092</ele>
        <time>2018-06-15T08:14:22.000Z</time>
      </trkpt>
      <trkpt lat="43.92461" lon="7.40141">
        <ele>1092.1999511719</ele>
        <time>2018-06-15T08:14:23.000Z</time>
      </trkpt>
      <trkpt lat="43.92454" lon="7.40133">
        <ele>1093.1999511719</ele>
        <time>2018-06-15T08:14:27.000Z</time>
      </trkpt>
      <trkpt lat="43.92447" lon="7.40127">
        <ele>1094.1999511719</ele>
        <time>2018-06-15T08:14:31.000Z</time>
      </trkpt>
      <trkpt lat="43.92439" lon="7.40118">
        <ele>1095.1999511719</ele>
        <time>2018-06-15T08:14:36.000Z</time>
      </trkpt>
      <trkpt lat="43.92432" lon="7.40111">
        <ele>1096.4000244141</ele>
        <time>2018-06-15T08:14:41.000Z</time>
      </trkpt>
      <trkpt lat="43.92422" lon="7.40101">
        <ele>1097.4000244141</ele>
        <time>2018-06-15T08:14:47.000Z</time>
      </trkpt>
      <trkpt lat="43.9242" lon="7.401">
        <ele>1097.5999755859</ele>
        <time>2018-06-15T08:14:48.000Z</time>
      </trkpt>
      <trkpt lat="43.92412" lon="7.40092">
        <ele>1098.4000244141</ele>
        <time>2018-06-15T08:14:53.000Z</time>
      </trkpt>
      <trkpt lat="43.92404" lon="7.40084">
        <ele>1099.4000244141</ele>
        <time>2018-06-15T08:14:58.000Z</time>
      </trkpt>
      <trkpt lat="43.92403" lon="7.40082">
        <ele>1099.5999755859</ele>
        <time>2018-06-15T08:14:59.000Z</time>
      </trkpt>
      <trkpt lat="43.92392" lon="7.40071">
        <ele>1100.8000488281</ele>
        <time>2018-06-15T08:15:06.000Z</time>
      </trkpt>
      <trkpt lat="43.92381" lon="7.40056">
        <ele>1102</ele>
        <time>2018-06-15T08:15:14.000Z</time>
      </trkpt>
      <trkpt lat="43.9238" lon="7.40054">
        <ele>1102.1999511719</ele>
        <time>2018-06-15T08:15:15.000Z</time>
      </trkpt>
      <trkpt lat="43.92376" lon="7.40041">
        <ele>1103</ele>
        <time>2018-06-15T08:15:20.000Z</time>
      </trkpt>
      <trkpt lat="43.92375" lon="7.40033">
        <ele>1103.4000244141</ele>
        <time>2018-06-15T08:15:23.000Z</time>
      </trkpt>
      <trkpt lat="43.92374" lon="7.40025">
        <ele>1104.1999511719</ele>
        <time>2018-06-15T08:15:26.000Z</time>
      </trkpt>
      <trkpt lat="43.92373" lon="7.40013">
        <ele>1105.1999511719</ele>
        <time>2018-06-15T08:15:31.000Z</time>
      </trkpt>
      <trkpt lat="43.92373" lon="7.4001">
        <ele>1105.1999511719</ele>
        <time>2018-06-15T08:15:32.000Z</time>
      </trkpt>
      <trkpt lat="43.92375" lon="7.39993">
        <ele>1106.4000244141</ele>
        <time>2018-06-15T08:15:39.000Z</time>
      </trkpt>
      <trkpt lat="43.9238" lon="7.39976">
        <ele>1107.5999755859</ele>
        <time>2018-06-15T08:15:46.000Z</time>
      </trkpt>
      <trkpt lat="43.92381" lon="7.39971">
        <ele>1107.8000488281</ele>
        <time>2018-06-15T08:15:48.000Z</time>
      </trkpt>
      <trkpt lat="43.92385" lon="7.39961">
        <ele>1108.8000488281</ele>
        <time>2018-06-15T08:15:52.000Z</time>
      </trkpt>
      <trkpt lat="43.92391" lon="7.39948">
        <ele>1109.8000488281</ele>
        <time>2018-06-15T08:15:58.000Z</time>
      </trkpt>
      <trkpt lat="43.92398" lon="7.39935">
        <ele>1111</ele>
        <time>2018-06-15T08:16:04.000Z</time>
      </trkpt>
      <trkpt lat="43.92402" lon="7.39928">
        <ele>1111.4000244141</ele>
        <time>2018-06-15T08:16:07.000Z</time>
      </trkpt>
      <trkpt lat="43.92411" lon="7.3991">
        <ele>1112</ele>
        <time>2018-06-15T08:16:15.000Z</time>
      </trkpt>
      <trkpt lat="43.92413" lon="7.39905">
        <ele>1112.1999511719</ele>
        <time>2018-06-15T08:16:17.000Z</time>
      </trkpt>
      <trkpt lat="43.9242" lon="7.39888">
        <ele>1113.4000244141</ele>
        <time>2018-06-15T08:16:24.000Z</time>
      </trkpt>
      <trkpt lat="43.92421" lon="7.39884">
        <ele>1113.8000488281</ele>
        <time>2018-06-15T08:16:26.000Z</time>
      </trkpt>
      <trkpt lat="43.92424" lon="7.39876">
        <ele>1114.4000244141</ele>
        <time>2018-06-15T08:16:29.000Z</time>
      </trkpt>
      <trkpt lat="43.92431" lon="7.39859">
        <ele>1115.4000244141</ele>
        <time>2018-06-15T08:16:36.000Z</time>
      </trkpt>
      <trkpt lat="43.92433" lon="7.39855">
        <ele>1115.8000488281</ele>
        <time>2018-06-15T08:16:38.000Z</time>
      </trkpt>
      <trkpt lat="43.92437" lon="7.39846">
        <ele>1116.5999755859</ele>
        <time>2018-06-15T08:16:42.000Z</time>
      </trkpt>
      <trkpt lat="43.92438" lon="7.39841">
        <ele>1117</ele>
        <time>2018-06-15T08:16:44.000Z</time>
      </trkpt>
      <trkpt lat="43.9244" lon="7.39828">
        <ele>1117.5999755859</ele>
        <time>2018-06-15T08:16:49.000Z</time>
      </trkpt>
      <trkpt lat="43.92439" lon="7.39826">
        <ele>1118</ele>
        <time>2018-06-15T08:16:50.000Z</time>
      </trkpt>
      <trkpt lat="43.92437" lon="7.39822">
        <ele>1119.1999511719</ele>
        <time>2018-06-15T08:16:52.000Z</time>
      </trkpt>
      <trkpt lat="43.92435" lon="7.39816">
        <ele>1120.4000244141</ele>
        <time>2018-06-15T08:16:55.000Z</time>
      </trkpt>
      <trkpt lat="43.9243" lon="7.39811">
        <ele>1121.5999755859</ele>
        <time>2018-06-15T08:16:59.000Z</time>
      </trkpt>
      <trkpt lat="43.92425" lon="7.39806">
        <ele>1122.5999755859</ele>
        <time>2018-06-15T08:17:02.000Z</time>
      </trkpt>
      <trkpt lat="43.92424" lon="7.39805">
        <ele>1123</ele>
        <time>2018-06-15T08:17:03.000Z</time>
      </trkpt>
      <trkpt lat="43.92417" lon="7.39799">
        <ele>1124</ele>
        <time>2018-06-15T08:17:08.000Z</time>
      </trkpt>
      <trkpt lat="43.92415" lon="7.39797">
        <ele>1124.1999511719</ele>
        <time>2018-06-15T08:17:09.000Z</time>
      </trkpt>
      <trkpt lat="43.92411" lon="7.39793">
        <ele>1125.1999511719</ele>
        <time>2018-06-15T08:17:12.000Z</time>
      </trkpt>
      <trkpt lat="43.92405" lon="7.39786">
        <ele>1126</ele>
        <time>2018-06-15T08:17:16.000Z</time>
      </trkpt>
      <trkpt lat="43.92404" lon="7.39785">
        <ele>1126.1999511719</ele>
        <time>2018-06-15T08:17:17.000Z</time>
      </trkpt>
      <trkpt lat="43.92398" lon="7.39774">
        <ele>1127.4000244141</ele>
        <time>2018-06-15T08:17:22.000Z</time>
      </trkpt>
      <trkpt lat="43.92395" lon="7.39763">
        <ele>1128.5999755859</ele>
        <time>2018-06-15T08:17:26.000Z</time>
      </trkpt>
      <trkpt lat="43.92394" lon="7.39754">
        <ele>1129.5999755859</ele>
        <time>2018-06-15T08:17:30.000Z</time>
      </trkpt>
      <trkpt lat="43.92394" lon="7.39751">
        <ele>1130</ele>
        <time>2018-06-15T08:17:31.000Z</time>
      </trkpt>
      <trkpt lat="43.92394" lon="7.39741">
        <ele>1131</ele>
        <time>2018-06-15T08:17:35.000Z</time>
      </trkpt>
      <trkpt lat="43.92394" lon="7.39738">
        <ele>1131.1999511719</ele>
        <time>2018-06-15T08:17:36.000Z</time>
      </trkpt>
      <trkpt lat="43.92397" lon="7.39719">
        <ele>1132.1999511719</ele>
        <time>2018-06-15T08:17:43.000Z</time>
      </trkpt>
      <trkpt lat="43.92401" lon="7.39704">
        <ele>1133.1999511719</ele>
        <time>2018-06-15T08:17:49.000Z</time>
      </trkpt>
      <trkpt lat="43.92403" lon="7.39699">
        <ele>1133.4000244141</ele>
        <time>2018-06-15T08:17:51.000Z</time>
      </trkpt>
      <trkpt lat="43.9241" lon="7.39676">
        <ele>1133.5999755859</ele>
        <time>2018-06-15T08:18:00.000Z</time>
      </trkpt>
      <trkpt lat="43.92415" lon="7.39658">
        <ele>1134.1999511719</ele>
        <time>2018-06-15T08:18:07.000Z</time>
      </trkpt>
      <trkpt lat="43.92416" lon="7.39656">
        <ele>1134.4000244141</ele>
        <time>2018-06-15T08:18:08.000Z</time>
      </trkpt>
      <trkpt lat="43.9242" lon="7.39641">
        <ele>1135.4000244141</ele>
        <time>2018-06-15T08:18:14.000Z</time>
      </trkpt>
      <trkpt lat="43.92422" lon="7.39636">
        <ele>1135.5999755859</ele>
        <time>2018-06-15T08:18:16.000Z</time>
      </trkpt>
      <trkpt lat="43.92427" lon="7.39627">
        <ele>1136.5999755859</ele>
        <time>2018-06-15T08:18:20.000Z</time>
      </trkpt>
      <trkpt lat="43.9243" lon="7.3962">
        <ele>1137.4000244141</ele>
        <time>2018-06-15T08:18:23.000Z</time>
      </trkpt>
      <trkpt lat="43.92432" lon="7.39616">
        <ele>1138</ele>
        <time>2018-06-15T08:18:25.000Z</time>
      </trkpt>
      <trkpt lat="43.92436" lon="7.3961">
        <ele>1139</ele>
        <time>2018-06-15T08:18:28.000Z</time>
      </trkpt>
      <trkpt lat="43.92438" lon="7.39607">
        <ele>1139.8000488281</ele>
        <time>2018-06-15T08:18:30.000Z</time>
      </trkpt>
      <trkpt lat="43.9244" lon="7.39603">
        <ele>1140.1999511719</ele>
        <time>2018-06-15T08:18:32.000Z</time>
      </trkpt>
      <trkpt lat="43.92443" lon="7.39594">
        <ele>1141.5999755859</ele>
        <time>2018-06-15T08:18:36.000Z</time>
      </trkpt>
      <trkpt lat="43.92444" lon="7.39591">
        <ele>1141.8000488281</ele>
        <time>2018-06-15T08:18:37.000Z</time>
      </trkpt>
      <trkpt lat="43.92445" lon="7.39585">
        <ele>1142.8000488281</ele>
        <time>2018-06-15T08:18:40.000Z</time>
      </trkpt>
      <trkpt lat="43.92444" lon="7.3958">
        <ele>1144</ele>
        <time>2018-06-15T08:18:42.000Z</time>
      </trkpt>
      <trkpt lat="43.92443" lon="7.39578">
        <ele>1144.5999755859</ele>
        <time>2018-06-15T08:18:43.000Z</time>
      </trkpt>
      <trkpt lat="43.92442" lon="7.39575">
        <ele>1145.1999511719</ele>
        <time>2018-06-15T08:18:44.000Z</time>
      </trkpt>
      <trkpt lat="43.92437" lon="7.3957">
        <ele>1146.5999755859</ele>
        <time>2018-06-15T08:18:47.000Z</time>
      </trkpt>
      <trkpt lat="43.92432" lon="7.39569">
        <ele>1147.4000244141</ele>
        <time>2018-06-15T08:18:49.000Z</time>
      </trkpt>
      <trkpt lat="43.92431" lon="7.39569">
        <ele>1148</ele>
        <time>2018-06-15T08:18:50.000Z</time>
      </trkpt>
      <trkpt lat="43.92426" lon="7.39567">
        <ele>1148.8000488281</ele>
        <time>2018-06-15T08:18:52.000Z</time>
      </trkpt>
      <trkpt lat="43.92424" lon="7.39567">
        <ele>1149.1999511719</ele>
        <time>2018-06-15T08:18:53.000Z</time>
      </trkpt>
      <trkpt lat="43.92417" lon="7.39565">
        <ele>1150.1999511719</ele>
        <time>2018-06-15T08:18:56.000Z</time>
      </trkpt>
      <trkpt lat="43.92416" lon="7.39564">
        <ele>1150.4000244141</ele>
        <time>2018-06-15T08:18:57.000Z</time>
      </trkpt>
      <trkpt lat="43.92406" lon="7.3956">
        <ele>1151.5999755859</ele>
        <time>2018-06-15T08:19:02.000Z</time>
      </trkpt>
      <trkpt lat="43.92403" lon="7.39558">
        <ele>1152.4000244141</ele>
        <time>2018-06-15T08:19:04.000Z</time>
      </trkpt>
      <trkpt lat="43.92401" lon="7.39558">
        <ele>1152.8000488281</ele>
        <time>2018-06-15T08:19:05.000Z</time>
      </trkpt>
      <trkpt lat="43.92393" lon="7.39555">
        <ele>1154</ele>
        <time>2018-06-15T08:19:10.000Z</time>
      </trkpt>
      <trkpt lat="43.92392" lon="7.39554">
        <ele>1154</ele>
        <time>2018-06-15T08:19:11.000Z</time>
      </trkpt>
      <trkpt lat="43.92381" lon="7.39553">
        <ele>1155</ele>
        <time>2018-06-15T08:19:17.000Z</time>
      </trkpt>
      <trkpt lat="43.92377" lon="7.39552">
        <ele>1155.4000244141</ele>
        <time>2018-06-15T08:19:19.000Z</time>
      </trkpt>
      <trkpt lat="43.9237" lon="7.39551">
        <ele>1156</ele>
        <time>2018-06-15T08:19:23.000Z</time>
      </trkpt>
      <trkpt lat="43.92366" lon="7.3955">
        <ele>1156.5999755859</ele>
        <time>2018-06-15T08:19:25.000Z</time>
      </trkpt>
      <trkpt lat="43.92363" lon="7.39548">
        <ele>1157</ele>
        <time>2018-06-15T08:19:27.000Z</time>
      </trkpt>
      <trkpt lat="43.92354" lon="7.39544">
        <ele>1158.1999511719</ele>
        <time>2018-06-15T08:19:32.000Z</time>
      </trkpt>
      <trkpt lat="43.92352" lon="7.39543">
        <ele>1158.4000244141</ele>
        <time>2018-06-15T08:19:33.000Z</time>
      </trkpt>
      <trkpt lat="43.92346" lon="7.39542">
        <ele>1159.4000244141</ele>
        <time>2018-06-15T08:19:36.000Z</time>
      </trkpt>
      <trkpt lat="43.92338" lon="7.39539">
        <ele>1160.5999755859</ele>
        <time>2018-06-15T08:19:41.000Z</time>
      </trkpt>
      <trkpt lat="43.92326" lon="7.39535">
        <ele>1161.1999511719</ele>
        <time>2018-06-15T08:19:47.000Z</time>
      </trkpt>
      <trkpt lat="43.92321" lon="7.39533">
        <ele>1161.5999755859</ele>
        <time>2018-06-15T08:19:50.000Z</time>
      </trkpt>
      <trkpt lat="43.92308" lon="7.39526">
        <ele>1162.1999511719</ele>
        <time>2018-06-15T08:19:57.000Z</time>
      </trkpt>
      <trkpt lat="43.92301" lon="7.39519">
        <ele>1162.5999755859</ele>
        <time>2018-06-15T08:20:01.000Z</time>
      </trkpt>
      <trkpt lat="43.92297" lon="7.39513">
        <ele>1163</ele>
        <time>2018-06-15T08:20:04.000Z</time>
      </trkpt>
      <trkpt lat="43.92293" lon="7.39505">
        <ele>1163.5999755859</ele>
        <time>2018-06-15T08:20:08.000Z</time>
      </trkpt>
      <trkpt lat="43.9229" lon="7.39497">
        <ele>1164</ele>
        <time>2018-06-15T08:20:11.000Z</time>
      </trkpt>
      <trkpt lat="43.92286" lon="7.39483">
        <ele>1164.8000488281</ele>
        <time>2018-06-15T08:20:16.000Z</time>
      </trkpt>
      <trkpt lat="43.92284" lon="7.39478">
        <ele>1165</ele>
        <time>2018-06-15T08:20:18.000Z</time>
      </trkpt>
      <trkpt lat="43.92281" lon="7.39467">
        <ele>1165.8000488281</ele>
        <time>2018-06-15T08:20:22.000Z</time>
      </trkpt>
      <trkpt lat="43.92277" lon="7.39457">
        <ele>1166.5999755859</ele>
        <time>2018-06-15T08:20:26.000Z</time>
      </trkpt>
      <trkpt lat="43.92276" lon="7.39455">
        <ele>1166.8000488281</ele>
        <time>2018-06-15T08:20:27.000Z</time>
      </trkpt>
      <trkpt lat="43.92272" lon="7.39441">
        <ele>1168</ele>
        <time>2018-06-15T08:20:33.000Z</time>
      </trkpt>
      <trkpt lat="43.92269" lon="7.39434">
        <ele>1168.5999755859</ele>
        <time>2018-06-15T08:20:36.000Z</time>
      </trkpt>
      <trkpt lat="43.92267" lon="7.39428">
        <ele>1169.1999511719</ele>
        <time>2018-06-15T08:20:39.000Z</time>
      </trkpt>
      <trkpt lat="43.92263" lon="7.39418">
        <ele>1170</ele>
        <time>2018-06-15T08:20:43.000Z</time>
      </trkpt>
      <trkpt lat="43.92262" lon="7.39416">
        <ele>1170.1999511719</ele>
        <time>2018-06-15T08:20:44.000Z</time>
      </trkpt>
      <trkpt lat="43.92256" lon="7.39406">
        <ele>1171.4000244141</ele>
        <time>2018-06-15T08:20:49.000Z</time>
      </trkpt>
      <trkpt lat="43.92254" lon="7.39402">
        <ele>1171.8000488281</ele>
        <time>2018-06-15T08:20:51.000Z</time>
      </trkpt>
      <trkpt lat="43.92251" lon="7.39394">
        <ele>1172.4000244141</ele>
        <time>2018-06-15T08:20:55.000Z</time>
      </trkpt>
      <trkpt lat="43.92247" lon="7.39385">
        <ele>1173.5999755859</ele>
        <time>2018-06-15T08:20:59.000Z</time>
      </trkpt>
      <trkpt lat="43.92246" lon="7.39383">
        <ele>1173.8000488281</ele>
        <time>2018-06-15T08:21:00.000Z</time>
      </trkpt>
      <trkpt lat="43.92241" lon="7.39377">
        <ele>1174.8000488281</ele>
        <time>2018-06-15T08:21:04.000Z</time>
      </trkpt>
      <trkpt lat="43.92235" lon="7.39375">
        <ele>1175.1999511719</ele>
        <time>2018-06-15T08:21:07.000Z</time>
      </trkpt>
      <trkpt lat="43.92227" lon="7.3938">
        <ele>1175.8000488281</ele>
        <time>2018-06-15T08:21:12.000Z</time>
      </trkpt>
      <trkpt lat="43.92226" lon="7.39382">
        <ele>1175.8000488281</ele>
        <time>2018-06-15T08:21:13.000Z</time>
      </trkpt>
      <trkpt lat="43.92222" lon="7.39389">
        <ele>1175.5999755859</ele>
        <time>2018-06-15T08:21:17.000Z</time>
      </trkpt>
      <trkpt lat="43.92214" lon="7.39399">
        <ele>1177</ele>
        <time>2018-06-15T08:21:23.000Z</time>
      </trkpt>
      <trkpt lat="43.92209" lon="7.39404">
        <ele>1178.1999511719</ele>
        <time>2018-06-15T08:21:27.000Z</time>
      </trkpt>
      <trkpt lat="43.92206" lon="7.39406">
        <ele>1178.1999511719</ele>
        <time>2018-06-15T08:21:29.000Z</time>
      </trkpt>
      <trkpt lat="43.92196" lon="7.3941">
        <ele>1179.1999511719</ele>
        <time>2018-06-15T08:21:35.000Z</time>
      </trkpt>
      <trkpt lat="43.92194" lon="7.39411">
        <ele>1179.4000244141</ele>
        <time>2018-06-15T08:21:36.000Z</time>
      </trkpt>
      <trkpt lat="43.92193" lon="7.39412">
        <ele>1179.5999755859</ele>
        <time>2018-06-15T08:21:39.000Z</time>
      </trkpt>
      <trkpt lat="43.92191" lon="7.3942">
        <ele>1191</ele>
        <time>2018-06-15T08:23:23.000Z</time>
      </trkpt>
      <trkpt lat="43.9218" lon="7.39423">
        <ele>1190</ele>
        <time>2018-06-15T08:23:29.000Z</time>
      </trkpt>
      <trkpt lat="43.92178" lon="7.39424">
        <ele>1190</ele>
        <time>2018-06-15T08:23:30.000Z</time>
      </trkpt>
      <trkpt lat="43.92167" lon="7.39427">
        <ele>1189.5999755859</ele>
        <time>2018-06-15T08:23:36.000Z</time>
      </trkpt>
      <trkpt lat="43.92154" lon="7.39432">
        <ele>1189.8000488281</ele>
        <time>2018-06-15T08:23:43.000Z</time>
      </trkpt>
      <trkpt lat="43.92149" lon="7.39435">
        <ele>1189.8000488281</ele>
        <time>2018-06-15T08:23:47.000Z</time>
      </trkpt>
      <trkpt lat="43.92147" lon="7.39435">
        <ele>1190</ele>
        <time>2018-06-15T08:23:48.000Z</time>
      </trkpt>
      <trkpt lat="43.92138" lon="7.39439">
        <ele>1189.8000488281</ele>
        <time>2018-06-15T08:23:52.000Z</time>
      </trkpt>
      <trkpt lat="43.92132" lon="7.3944">
        <ele>1188.8000488281</ele>
        <time>2018-06-15T08:23:55.000Z</time>
      </trkpt>
      <trkpt lat="43.92116" lon="7.39441">
        <ele>1187.8000488281</ele>
        <time>2018-06-15T08:24:02.000Z</time>
      </trkpt>
      <trkpt lat="43.92103" lon="7.39435">
        <ele>1188.4000244141</ele>
        <time>2018-06-15T08:24:09.000Z</time>
      </trkpt>
      <trkpt lat="43.92093" lon="7.39427">
        <ele>1189.5999755859</ele>
        <time>2018-06-15T08:24:15.000Z</time>
      </trkpt>
      <trkpt lat="43.92091" lon="7.39426">
        <ele>1190.1999511719</ele>
        <time>2018-06-15T08:24:16.000Z</time>
      </trkpt>
      <trkpt lat="43.92085" lon="7.39422">
        <ele>1191.4000244141</ele>
        <time>2018-06-15T08:24:19.000Z</time>
      </trkpt>
      <trkpt lat="43.92082" lon="7.3942">
        <ele>1192.4000244141</ele>
        <time>2018-06-15T08:24:21.000Z</time>
      </trkpt>
      <trkpt lat="43.92079" lon="7.39419">
        <ele>1193.5999755859</ele>
        <time>2018-06-15T08:24:23.000Z</time>
      </trkpt>
      <trkpt lat="43.92073" lon="7.39417">
        <ele>1195</ele>
        <time>2018-06-15T08:24:26.000Z</time>
      </trkpt>
      <trkpt lat="43.92071" lon="7.39417">
        <ele>1195.4000244141</ele>
        <time>2018-06-15T08:24:27.000Z</time>
      </trkpt>
      <trkpt lat="43.92066" lon="7.39415">
        <ele>1196.1999511719</ele>
        <time>2018-06-15T08:24:29.000Z</time>
      </trkpt>
      <trkpt lat="43.92058" lon="7.39414">
        <ele>1197</ele>
        <time>2018-06-15T08:24:34.000Z</time>
      </trkpt>
      <trkpt lat="43.92054" lon="7.39414">
        <ele>1197.1999511719</ele>
        <time>2018-06-15T08:24:36.000Z</time>
      </trkpt>
      <trkpt lat="43.92046" lon="7.39415">
        <ele>1198</ele>
        <time>2018-06-15T08:24:40.000Z</time>
      </trkpt>
      <trkpt lat="43.92034" lon="7.39419">
        <ele>1198.4000244141</ele>
        <time>2018-06-15T08:24:46.000Z</time>
      </trkpt>
      <trkpt lat="43.92031" lon="7.39419">
        <ele>1198.5999755859</ele>
        <time>2018-06-15T08:24:47.000Z</time>
      </trkpt>
      <trkpt lat="43.92021" lon="7.39421">
        <ele>1199.5999755859</ele>
        <time>2018-06-15T08:24:52.000Z</time>
      </trkpt>
      <trkpt lat="43.92019" lon="7.39421">
        <ele>1199.8000488281</ele>
        <time>2018-06-15T08:24:53.000Z</time>
      </trkpt>
      <trkpt lat="43.92009" lon="7.39422">
        <ele>1200.5999755859</ele>
        <time>2018-06-15T08:24:58.000Z</time>
      </trkpt>
      <trkpt lat="43.92003" lon="7.39422">
        <ele>1201</ele>
        <time>2018-06-15T08:25:01.000Z</time>
      </trkpt>
      <trkpt lat="43.91989" lon="7.39424">
        <ele>1201.4000244141</ele>
        <time>2018-06-15T08:25:08.000Z</time>
      </trkpt>
      <trkpt lat="43.91983" lon="7.39425">
        <ele>1201.8000488281</ele>
        <time>2018-06-15T08:25:11.000Z</time>
      </trkpt>
      <trkpt lat="43.91977" lon="7.39426">
        <ele>1201.8000488281</ele>
        <time>2018-06-15T08:25:15.000Z</time>
      </trkpt>
      <trkpt lat="43.91966" lon="7.39429">
        <ele>1202.5999755859</ele>
        <time>2018-06-15T08:25:21.000Z</time>
      </trkpt>
      <trkpt lat="43.91964" lon="7.39429">
        <ele>1202.8000488281</ele>
        <time>2018-06-15T08:25:22.000Z</time>
      </trkpt>
      <trkpt lat="43.91956" lon="7.39432">
        <ele>1203.4000244141</ele>
        <time>2018-06-15T08:25:27.000Z</time>
      </trkpt>
      <trkpt lat="43.9194" lon="7.39436">
        <ele>1203.4000244141</ele>
        <time>2018-06-15T08:25:35.000Z</time>
      </trkpt>
      <trkpt lat="43.91923" lon="7.39438">
        <ele>1204</ele>
        <time>2018-06-15T08:25:43.000Z</time>
      </trkpt>
      <trkpt lat="43.91921" lon="7.39438">
        <ele>1204.4000244141</ele>
        <time>2018-06-15T08:25:44.000Z</time>
      </trkpt>
      <trkpt lat="43.91908" lon="7.39439">
        <ele>1204.8000488281</ele>
        <time>2018-06-15T08:25:50.000Z</time>
      </trkpt>
      <trkpt lat="43.91904" lon="7.39439">
        <ele>1205.1999511719</ele>
        <time>2018-06-15T08:25:52.000Z</time>
      </trkpt>
      <trkpt lat="43.91894" lon="7.3944">
        <ele>1206.4000244141</ele>
        <time>2018-06-15T08:25:57.000Z</time>
      </trkpt>
      <trkpt lat="43.91892" lon="7.39439">
        <ele>1206.4000244141</ele>
        <time>2018-06-15T08:25:58.000Z</time>
      </trkpt>
      <trkpt lat="43.91883" lon="7.39438">
        <ele>1207.4000244141</ele>
        <time>2018-06-15T08:26:02.000Z</time>
      </trkpt>
      <trkpt lat="43.91879" lon="7.39435">
        <ele>1208</ele>
        <time>2018-06-15T08:26:05.000Z</time>
      </trkpt>
      <trkpt lat="43.91875" lon="7.39434">
        <ele>1208.5999755859</ele>
        <time>2018-06-15T08:26:07.000Z</time>
      </trkpt>
      <trkpt lat="43.91867" lon="7.39432">
        <ele>1209.5999755859</ele>
        <time>2018-06-15T08:26:11.000Z</time>
      </trkpt>
      <trkpt lat="43.91864" lon="7.39431">
        <ele>1210.1999511719</ele>
        <time>2018-06-15T08:26:13.000Z</time>
      </trkpt>
      <trkpt lat="43.9186" lon="7.3943">
        <ele>1210.8000488281</ele>
        <time>2018-06-15T08:26:15.000Z</time>
      </trkpt>
      <trkpt lat="43.9185" lon="7.39427">
        <ele>1211.8000488281</ele>
        <time>2018-06-15T08:26:20.000Z</time>
      </trkpt>
      <trkpt lat="43.91847" lon="7.39427">
        <ele>1212</ele>
        <time>2018-06-15T08:26:22.000Z</time>
      </trkpt>
      <trkpt lat="43.91839" lon="7.39427">
        <ele>1213.1999511719</ele>
        <time>2018-06-15T08:26:26.000Z</time>
      </trkpt>
      <trkpt lat="43.91836" lon="7.39427">
        <ele>1213.8000488281</ele>
        <time>2018-06-15T08:26:28.000Z</time>
      </trkpt>
      <trkpt lat="43.91832" lon="7.39427">
        <ele>1214.1999511719</ele>
        <time>2018-06-15T08:26:30.000Z</time>
      </trkpt>
      <trkpt lat="43.91823" lon="7.39426">
        <ele>1214.8000488281</ele>
        <time>2018-06-15T08:26:35.000Z</time>
      </trkpt>
      <trkpt lat="43.91811" lon="7.39424">
        <ele>1214.8000488281</ele>
        <time>2018-06-15T08:26:41.000Z</time>
      </trkpt>
      <trkpt lat="43.91806" lon="7.39423">
        <ele>1215.4000244141</ele>
        <time>2018-06-15T08:26:44.000Z</time>
      </trkpt>
      <trkpt lat="43.91799" lon="7.39423">
        <ele>1216.4000244141</ele>
        <time>2018-06-15T08:26:47.000Z</time>
      </trkpt>
      <trkpt lat="43.91795" lon="7.39422">
        <ele>1216.5999755859</ele>
        <time>2018-06-15T08:26:49.000Z</time>
      </trkpt>
      <trkpt lat="43.91783" lon="7.3942">
        <ele>1217.1999511719</ele>
        <time>2018-06-15T08:26:55.000Z</time>
      </trkpt>
      <trkpt lat="43.91769" lon="7.39418">
        <ele>1217.5999755859</ele>
        <time>2018-06-15T08:27:02.000Z</time>
      </trkpt>
      <trkpt lat="43.91767" lon="7.39418">
        <ele>1217.8000488281</ele>
        <time>2018-06-15T08:27:03.000Z</time>
      </trkpt>
      <trkpt lat="43.91759" lon="7.39417">
        <ele>1218.8000488281</ele>
        <time>2018-06-15T08:27:07.000Z</time>
      </trkpt>
      <trkpt lat="43.91754" lon="7.39417">
        <ele>1219.8000488281</ele>
        <time>2018-06-15T08:27:10.000Z</time>
      </trkpt>
      <trkpt lat="43.91744" lon="7.39416">
        <ele>1221</ele>
        <time>2018-06-15T08:27:15.000Z</time>
      </trkpt>
      <trkpt lat="43.91737" lon="7.39415">
        <ele>1221.8000488281</ele>
        <time>2018-06-15T08:27:18.000Z</time>
      </trkpt>
      <trkpt lat="43.91734" lon="7.39415">
        <ele>1222.1999511719</ele>
        <time>2018-06-15T08:27:19.000Z</time>
      </trkpt>
      <trkpt lat="43.9172" lon="7.39412">
        <ele>1223</ele>
        <time>2018-06-15T08:27:26.000Z</time>
      </trkpt>
      <trkpt lat="43.91718" lon="7.39412">
        <ele>1223.1999511719</ele>
        <time>2018-06-15T08:27:27.000Z</time>
      </trkpt>
      <trkpt lat="43.91704" lon="7.39411">
        <ele>1223.5999755859</ele>
        <time>2018-06-15T08:27:33.000Z</time>
      </trkpt>
      <trkpt lat="43.91689" lon="7.39408">
        <ele>1224.4000244141</ele>
        <time>2018-06-15T08:27:40.000Z</time>
      </trkpt>
      <trkpt lat="43.91687" lon="7.39408">
        <ele>1224.4000244141</ele>
        <time>2018-06-15T08:27:41.000Z</time>
      </trkpt>
      <trkpt lat="43.91676" lon="7.39404">
        <ele>1225.4000244141</ele>
        <time>2018-06-15T08:27:47.000Z</time>
      </trkpt>
      <trkpt lat="43.91673" lon="7.39402">
        <ele>1225.5999755859</ele>
        <time>2018-06-15T08:27:49.000Z</time>
      </trkpt>
      <trkpt lat="43.91658" lon="7.39394">
        <ele>1226.4000244141</ele>
        <time>2018-06-15T08:27:57.000Z</time>
      </trkpt>
      <trkpt lat="43.91647" lon="7.3938">
        <ele>1227.1999511719</ele>
        <time>2018-06-15T08:28:04.000Z</time>
      </trkpt>
      <trkpt lat="43.91646" lon="7.39377">
        <ele>1227.5999755859</ele>
        <time>2018-06-15T08:28:05.000Z</time>
      </trkpt>
      <trkpt lat="43.91642" lon="7.39364">
        <ele>1228.8000488281</ele>
        <time>2018-06-15T08:28:10.000Z</time>
      </trkpt>
      <trkpt lat="43.91642" lon="7.39361">
        <ele>1228.8000488281</ele>
        <time>2018-06-15T08:28:11.000Z</time>
      </trkpt>
      <trkpt lat="43.91639" lon="7.39345">
        <ele>1229.8000488281</ele>
        <time>2018-06-15T08:28:17.000Z</time>
      </trkpt>
      <trkpt lat="43.91638" lon="7.39337">
        <ele>1230</ele>
        <time>2018-06-15T08:28:20.000Z</time>
      </trkpt>
      <trkpt lat="43.91635" lon="7.39317">
        <ele>1230.8000488281</ele>
        <time>2018-06-15T08:28:27.000Z</time>
      </trkpt>
      <trkpt lat="43.91634" lon="7.39312">
        <ele>1231.1999511719</ele>
        <time>2018-06-15T08:28:29.000Z</time>
      </trkpt>
      <trkpt lat="43.91632" lon="7.39301">
        <ele>1232</ele>
        <time>2018-06-15T08:28:33.000Z</time>
      </trkpt>
      <trkpt lat="43.9163" lon="7.39289">
        <ele>1232.8000488281</ele>
        <time>2018-06-15T08:28:38.000Z</time>
      </trkpt>
      <trkpt lat="43.9163" lon="7.39286">
        <ele>1233.1999511719</ele>
        <time>2018-06-15T08:28:39.000Z</time>
      </trkpt>
      <trkpt lat="43.91627" lon="7.39273">
        <ele>1234.4000244141</ele>
        <time>2018-06-15T08:28:44.000Z</time>
      </trkpt>
      <trkpt lat="43.91625" lon="7.39263">
        <ele>1235.1999511719</ele>
        <time>2018-06-15T08:28:48.000Z</time>
      </trkpt>
      <trkpt lat="43.91625" lon="7.3926">
        <ele>1235.4000244141</ele>
        <time>2018-06-15T08:28:49.000Z</time>
      </trkpt>
      <trkpt lat="43.91622" lon="7.3925">
        <ele>1236.5999755859</ele>
        <time>2018-06-15T08:28:53.000Z</time>
      </trkpt>
      <trkpt lat="43.91618" lon="7.39239">
        <ele>1237.8000488281</ele>
        <time>2018-06-15T08:28:57.000Z</time>
      </trkpt>
      <trkpt lat="43.91614" lon="7.39229">
        <ele>1239</ele>
        <time>2018-06-15T08:29:01.000Z</time>
      </trkpt>
      <trkpt lat="43.9161" lon="7.3922">
        <ele>1240.1999511719</ele>
        <time>2018-06-15T08:29:05.000Z</time>
      </trkpt>
      <trkpt lat="43.91608" lon="7.39215">
        <ele>1240.5999755859</ele>
        <time>2018-06-15T08:29:07.000Z</time>
      </trkpt>
      <trkpt lat="43.91603" lon="7.39209">
        <ele>1241.1999511719</ele>
        <time>2018-06-15T08:29:10.000Z</time>
      </trkpt>
      <trkpt lat="43.91598" lon="7.39197">
        <ele>1242</ele>
        <time>2018-06-15T08:29:15.000Z</time>
      </trkpt>
      <trkpt lat="43.91596" lon="7.39192">
        <ele>1242.4000244141</ele>
        <time>2018-06-15T08:29:17.000Z</time>
      </trkpt>
      <trkpt lat="43.91591" lon="7.39179">
        <ele>1243.5999755859</ele>
        <time>2018-06-15T08:29:22.000Z</time>
      </trkpt>
      <trkpt lat="43.91588" lon="7.39171">
        <ele>1244.4000244141</ele>
        <time>2018-06-15T08:29:25.000Z</time>
      </trkpt>
      <trkpt lat="43.91587" lon="7.39168">
        <ele>1244.5999755859</ele>
        <time>2018-06-15T08:29:26.000Z</time>
      </trkpt>
      <trkpt lat="43.91583" lon="7.39158">
        <ele>1245.5999755859</ele>
        <time>2018-06-15T08:29:30.000Z</time>
      </trkpt>
      <trkpt lat="43.91577" lon="7.39147">
        <ele>1246.5999755859</ele>
        <time>2018-06-15T08:29:35.000Z</time>
      </trkpt>
      <trkpt lat="43.91573" lon="7.39139">
        <ele>1247.8000488281</ele>
        <time>2018-06-15T08:29:39.000Z</time>
      </trkpt>
      <trkpt lat="43.91567" lon="7.39129">
        <ele>1248.8000488281</ele>
        <time>2018-06-15T08:29:44.000Z</time>
      </trkpt>
      <trkpt lat="43.91566" lon="7.39127">
        <ele>1249</ele>
        <time>2018-06-15T08:29:45.000Z</time>
      </trkpt>
      <trkpt lat="43.91559" lon="7.39115">
        <ele>1250.1999511719</ele>
        <time>2018-06-15T08:29:51.000Z</time>
      </trkpt>
      <trkpt lat="43.91556" lon="7.39111">
        <ele>1250.5999755859</ele>
        <time>2018-06-15T08:29:53.000Z</time>
      </trkpt>
      <trkpt lat="43.91552" lon="7.39104">
        <ele>1251.1999511719</ele>
        <time>2018-06-15T08:29:56.000Z</time>
      </trkpt>
      <trkpt lat="43.91545" lon="7.39093">
        <ele>1252.1999511719</ele>
        <time>2018-06-15T08:30:01.000Z</time>
      </trkpt>
      <trkpt lat="43.91544" lon="7.39091">
        <ele>1252.4000244141</ele>
        <time>2018-06-15T08:30:02.000Z</time>
      </trkpt>
      <trkpt lat="43.91535" lon="7.39074">
        <ele>1253.5999755859</ele>
        <time>2018-06-15T08:30:09.000Z</time>
      </trkpt>
      <trkpt lat="43.91534" lon="7.39072">
        <ele>1253.8000488281</ele>
        <time>2018-06-15T08:30:10.000Z</time>
      </trkpt>
      <trkpt lat="43.91531" lon="7.39064">
        <ele>1254.5999755859</ele>
        <time>2018-06-15T08:30:13.000Z</time>
      </trkpt>
      <trkpt lat="43.91531" lon="7.39054">
        <ele>1255.1999511719</ele>
        <time>2018-06-15T08:30:17.000Z</time>
      </trkpt>
      <trkpt lat="43.91532" lon="7.3905">
        <ele>1255.5999755859</ele>
        <time>2018-06-15T08:30:19.000Z</time>
      </trkpt>
      <trkpt lat="43.91536" lon="7.39043">
        <ele>1256.4000244141</ele>
        <time>2018-06-15T08:30:23.000Z</time>
      </trkpt>
      <trkpt lat="43.91538" lon="7.3904">
        <ele>1256.8000488281</ele>
        <time>2018-06-15T08:30:25.000Z</time>
      </trkpt>
      <trkpt lat="43.91546" lon="7.39034">
        <ele>1257.8000488281</ele>
        <time>2018-06-15T08:30:30.000Z</time>
      </trkpt>
      <trkpt lat="43.91547" lon="7.39033">
        <ele>1258</ele>
        <time>2018-06-15T08:30:31.000Z</time>
      </trkpt>
      <trkpt lat="43.91556" lon="7.39028">
        <ele>1259</ele>
        <time>2018-06-15T08:30:36.000Z</time>
      </trkpt>
      <trkpt lat="43.91563" lon="7.39023">
        <ele>1259.8000488281</ele>
        <time>2018-06-15T08:30:40.000Z</time>
      </trkpt>
      <trkpt lat="43.91564" lon="7.39022">
        <ele>1260</ele>
        <time>2018-06-15T08:30:41.000Z</time>
      </trkpt>
      <trkpt lat="43.91575" lon="7.39017">
        <ele>1261.1999511719</ele>
        <time>2018-06-15T08:30:47.000Z</time>
      </trkpt>
      <trkpt lat="43.91576" lon="7.39016">
        <ele>1261.4000244141</ele>
        <time>2018-06-15T08:30:48.000Z</time>
      </trkpt>
      <trkpt lat="43.91582" lon="7.39012">
        <ele>1262.4000244141</ele>
        <time>2018-06-15T08:30:51.000Z</time>
      </trkpt>
      <trkpt lat="43.91588" lon="7.3901">
        <ele>1263.5999755859</ele>
        <time>2018-06-15T08:30:55.000Z</time>
      </trkpt>
      <trkpt lat="43.91594" lon="7.39008">
        <ele>1264.5999755859</ele>
        <time>2018-06-15T08:30:58.000Z</time>
      </trkpt>
      <trkpt lat="43.91603" lon="7.39004">
        <ele>1265.8000488281</ele>
        <time>2018-06-15T08:31:03.000Z</time>
      </trkpt>
      <trkpt lat="43.91615" lon="7.38999">
        <ele>1266</ele>
        <time>2018-06-15T08:31:10.000Z</time>
      </trkpt>
      <trkpt lat="43.9163" lon="7.38994">
        <ele>1266.8000488281</ele>
        <time>2018-06-15T08:31:17.000Z</time>
      </trkpt>
      <trkpt lat="43.91631" lon="7.38994">
        <ele>1267</ele>
        <time>2018-06-15T08:31:18.000Z</time>
      </trkpt>
      <trkpt lat="43.91648" lon="7.38992">
        <ele>1267.1999511719</ele>
        <time>2018-06-15T08:31:27.000Z</time>
      </trkpt>
      <trkpt lat="43.91656" lon="7.38991">
        <ele>1268</ele>
        <time>2018-06-15T08:31:31.000Z</time>
      </trkpt>
      <trkpt lat="43.91667" lon="7.38991">
        <ele>1269</ele>
        <time>2018-06-15T08:31:36.000Z</time>
      </trkpt>
      <trkpt lat="43.91669" lon="7.38991">
        <ele>1269.1999511719</ele>
        <time>2018-06-15T08:31:37.000Z</time>
      </trkpt>
      <trkpt lat="43.9168" lon="7.38992">
        <ele>1270.1999511719</ele>
        <time>2018-06-15T08:31:43.000Z</time>
      </trkpt>
      <trkpt lat="43.91682" lon="7.38992">
        <ele>1270.4000244141</ele>
        <time>2018-06-15T08:31:44.000Z</time>
      </trkpt>
      <trkpt lat="43.917" lon="7.38992">
        <ele>1271.1999511719</ele>
        <time>2018-06-15T08:31:53.000Z</time>
      </trkpt>
      <trkpt lat="43.91709" lon="7.38992">
        <ele>1271.1999511719</ele>
        <time>2018-06-15T08:31:57.000Z</time>
      </trkpt>
      <trkpt lat="43.91722" lon="7.3899">
        <ele>1271.5999755859</ele>
        <time>2018-06-15T08:32:03.000Z</time>
      </trkpt>
      <trkpt lat="43.91737" lon="7.38986">
        <ele>1272.4000244141</ele>
        <time>2018-06-15T08:32:10.000Z</time>
      </trkpt>
      <trkpt lat="43.91741" lon="7.38984">
        <ele>1272.5999755859</ele>
        <time>2018-06-15T08:32:12.000Z</time>
      </trkpt>
      <trkpt lat="43.91754" lon="7.38979">
        <ele>1273.4000244141</ele>
        <time>2018-06-15T08:32:18.000Z</time>
      </trkpt>
      <trkpt lat="43.9176" lon="7.38976">
        <ele>1273.4000244141</ele>
        <time>2018-06-15T08:32:21.000Z</time>
      </trkpt>
      <trkpt lat="43.91774" lon="7.3897">
        <ele>1273.5999755859</ele>
        <time>2018-06-15T08:32:28.000Z</time>
      </trkpt>
      <trkpt lat="43.91788" lon="7.38963">
        <ele>1273.4000244141</ele>
        <time>2018-06-15T08:32:35.000Z</time>
      </trkpt>
      <trkpt lat="43.91801" lon="7.38957">
        <ele>1273.1999511719</ele>
        <time>2018-06-15T08:32:41.000Z</time>
      </trkpt>
      <trkpt lat="43.91819" lon="7.38951">
        <ele>1273.8000488281</ele>
        <time>2018-06-15T08:32:49.000Z</time>
      </trkpt>
      <trkpt lat="43.91826" lon="7.38949">
        <ele>1274.4000244141</ele>
        <time>2018-06-15T08:32:52.000Z</time>
      </trkpt>
      <trkpt lat="43.91835" lon="7.38945">
        <ele>1275.5999755859</ele>
        <time>2018-06-15T08:32:56.000Z</time>
      </trkpt>
      <trkpt lat="43.91852" lon="7.38939">
        <ele>1275.8000488281</ele>
        <time>2018-06-15T08:33:03.000Z</time>
      </trkpt>
      <trkpt lat="43.91876" lon="7.38931">
        <ele>1276.8000488281</ele>
        <time>2018-06-15T08:33:13.000Z</time>
      </trkpt>
      <trkpt lat="43.91891" lon="7.38927">
        <ele>1276.8000488281</ele>
        <time>2018-06-15T08:33:19.000Z</time>
      </trkpt>
      <trkpt lat="43.91911" lon="7.38918">
        <ele>1277.4000244141</ele>
        <time>2018-06-15T08:33:27.000Z</time>
      </trkpt>
      <trkpt lat="43.9193" lon="7.38907">
        <ele>1277.4000244141</ele>
        <time>2018-06-15T08:33:35.000Z</time>
      </trkpt>
      <trkpt lat="43.91942" lon="7.38888">
        <ele>1277.8000488281</ele>
        <time>2018-06-15T08:33:42.000Z</time>
      </trkpt>
      <trkpt lat="43.91943" lon="7.38885">
        <ele>1277.8000488281</ele>
        <time>2018-06-15T08:33:43.000Z</time>
      </trkpt>
      <trkpt lat="43.91952" lon="7.3886">
        <ele>1278.8000488281</ele>
        <time>2018-06-15T08:33:51.000Z</time>
      </trkpt>
      <trkpt lat="43.91953" lon="7.38857">
        <ele>1279</ele>
        <time>2018-06-15T08:33:52.000Z</time>
      </trkpt>
      <trkpt lat="43.91963" lon="7.38834">
        <ele>1279.5999755859</ele>
        <time>2018-06-15T08:34:00.000Z</time>
      </trkpt>
      <trkpt lat="43.91964" lon="7.3883">
        <ele>1280.1999511719</ele>
        <time>2018-06-15T08:34:01.000Z</time>
      </trkpt>
      <trkpt lat="43.91966" lon="7.38823">
        <ele>1281.1999511719</ele>
        <time>2018-06-15T08:34:03.000Z</time>
      </trkpt>
      <trkpt lat="43.91967" lon="7.38813">
        <ele>1282.4000244141</ele>
        <time>2018-06-15T08:34:06.000Z</time>
      </trkpt>
      <trkpt lat="43.91968" lon="7.3881">
        <ele>1282.5999755859</ele>
        <time>2018-06-15T08:34:07.000Z</time>
      </trkpt>
      <trkpt lat="43.9197" lon="7.38791">
        <ele>1283.5999755859</ele>
        <time>2018-06-15T08:34:12.000Z</time>
      </trkpt>
      <trkpt lat="43.91971" lon="7.38784">
        <ele>1283.8000488281</ele>
        <time>2018-06-15T08:34:14.000Z</time>
      </trkpt>
      <trkpt lat="43.91973" lon="7.3877">
        <ele>1284.8000488281</ele>
        <time>2018-06-15T08:34:18.000Z</time>
      </trkpt>
      <trkpt lat="43.91973" lon="7.38754">
        <ele>1285.8000488281</ele>
        <time>2018-06-15T08:34:22.000Z</time>
      </trkpt>
      <trkpt lat="43.91973" lon="7.38723">
        <ele>1287</ele>
        <time>2018-06-15T08:34:30.000Z</time>
      </trkpt>
      <trkpt lat="43.91974" lon="7.38699">
        <ele>1288</ele>
        <time>2018-06-15T08:34:36.000Z</time>
      </trkpt>
      <trkpt lat="43.91975" lon="7.38692">
        <ele>1288.5999755859</ele>
        <time>2018-06-15T08:34:38.000Z</time>
      </trkpt>
      <trkpt lat="43.91977" lon="7.38684">
        <ele>1289</ele>
        <time>2018-06-15T08:34:40.000Z</time>
      </trkpt>
      <trkpt lat="43.91984" lon="7.38667">
        <ele>1289.5999755859</ele>
        <time>2018-06-15T08:34:44.000Z</time>
      </trkpt>
      <trkpt lat="43.91995" lon="7.38653">
        <ele>1290.1999511719</ele>
        <time>2018-06-15T08:34:48.000Z</time>
      </trkpt>
      <trkpt lat="43.92001" lon="7.38649">
        <ele>1290.8000488281</ele>
        <time>2018-06-15T08:34:50.000Z</time>
      </trkpt>
      <trkpt lat="43.92006" lon="7.38646">
        <ele>1291.4000244141</ele>
        <time>2018-06-15T08:34:52.000Z</time>
      </trkpt>
      <trkpt lat="43.92019" lon="7.38642">
        <ele>1291.8000488281</ele>
        <time>2018-06-15T08:34:56.000Z</time>
      </trkpt>
      <trkpt lat="43.92036" lon="7.3864">
        <ele>1292.4000244141</ele>
        <time>2018-06-15T08:35:02.000Z</time>
      </trkpt>
      <trkpt lat="43.92039" lon="7.3864">
        <ele>1292.5999755859</ele>
        <time>2018-06-15T08:35:03.000Z</time>
      </trkpt>
      <trkpt lat="43.92061" lon="7.38641">
        <ele>1292.8000488281</ele>
        <time>2018-06-15T08:35:10.000Z</time>
      </trkpt>
      <trkpt lat="43.92074" lon="7.38642">
        <ele>1293.5999755859</ele>
        <time>2018-06-15T08:35:14.000Z</time>
      </trkpt>
      <trkpt lat="43.92085" lon="7.38644">
        <ele>1294.4000244141</ele>
        <time>2018-06-15T08:35:18.000Z</time>
      </trkpt>
      <trkpt lat="43.9209" lon="7.38646">
        <ele>1294.5999755859</ele>
        <time>2018-06-15T08:35:20.000Z</time>
      </trkpt>
      <trkpt lat="43.92102" lon="7.38649">
        <ele>1294.8000488281</ele>
        <time>2018-06-15T08:35:24.000Z</time>
      </trkpt>
      <trkpt lat="43.92114" lon="7.38644">
        <ele>1294.1999511719</ele>
        <time>2018-06-15T08:35:29.000Z</time>
      </trkpt>
      <trkpt lat="43.92119" lon="7.3863">
        <ele>1293.8000488281</ele>
        <time>2018-06-15T08:35:34.000Z</time>
      </trkpt>
      <trkpt lat="43.92123" lon="7.38615">
        <ele>1293.4000244141</ele>
        <time>2018-06-15T08:35:38.000Z</time>
      </trkpt>
      <trkpt lat="43.92127" lon="7.38607">
        <ele>1293.1999511719</ele>
        <time>2018-06-15T08:35:41.000Z</time>
      </trkpt>
      <trkpt lat="43.92138" lon="7.38594">
        <ele>1292.5999755859</ele>
        <time>2018-06-15T08:35:47.000Z</time>
      </trkpt>
      <trkpt lat="43.9215" lon="7.38577">
        <ele>1292.5999755859</ele>
        <time>2018-06-15T08:35:53.000Z</time>
      </trkpt>
      <trkpt lat="43.92154" lon="7.38565">
        <ele>1292.4000244141</ele>
        <time>2018-06-15T08:35:56.000Z</time>
      </trkpt>
      <trkpt lat="43.92157" lon="7.38557">
        <ele>1292.4000244141</ele>
        <time>2018-06-15T08:35:58.000Z</time>
      </trkpt>
      <trkpt lat="43.92166" lon="7.38545">
        <ele>1291.5999755859</ele>
        <time>2018-06-15T08:36:03.000Z</time>
      </trkpt>
      <trkpt lat="43.92169" lon="7.38544">
        <ele>1291.4000244141</ele>
        <time>2018-06-15T08:36:04.000Z</time>
      </trkpt>
      <trkpt lat="43.92178" lon="7.38544">
        <ele>1290.1999511719</ele>
        <time>2018-06-15T08:36:07.000Z</time>
      </trkpt>
      <trkpt lat="43.92182" lon="7.38545">
        <ele>1289.5999755859</ele>
        <time>2018-06-15T08:36:08.000Z</time>
      </trkpt>
      <trkpt lat="43.92186" lon="7.38545">
        <ele>1289</ele>
        <time>2018-06-15T08:36:09.000Z</time>
      </trkpt>
      <trkpt lat="43.92197" lon="7.38544">
        <ele>1288</ele>
        <time>2018-06-15T08:36:12.000Z</time>
      </trkpt>
      <trkpt lat="43.92201" lon="7.38543">
        <ele>1287.5999755859</ele>
        <time>2018-06-15T08:36:13.000Z</time>
      </trkpt>
      <trkpt lat="43.92215" lon="7.3854">
        <ele>1287</ele>
        <time>2018-06-15T08:36:16.000Z</time>
      </trkpt>
      <trkpt lat="43.92223" lon="7.38538">
        <ele>1286.5999755859</ele>
        <time>2018-06-15T08:36:18.000Z</time>
      </trkpt>
      <trkpt lat="43.92237" lon="7.38535">
        <ele>1285.8000488281</ele>
        <time>2018-06-15T08:36:21.000Z</time>
      </trkpt>
      <trkpt lat="43.92253" lon="7.38529">
        <ele>1284.8000488281</ele>
        <time>2018-06-15T08:36:25.000Z</time>
      </trkpt>
      <trkpt lat="43.9226" lon="7.38522">
        <ele>1284.1999511719</ele>
        <time>2018-06-15T08:36:27.000Z</time>
      </trkpt>
      <trkpt lat="43.92268" lon="7.38512">
        <ele>1284</ele>
        <time>2018-06-15T08:36:29.000Z</time>
      </trkpt>
      <trkpt lat="43.92271" lon="7.38506">
        <ele>1283.8000488281</ele>
        <time>2018-06-15T08:36:30.000Z</time>
      </trkpt>
      <trkpt lat="43.92274" lon="7.38501">
        <ele>1283.5999755859</ele>
        <time>2018-06-15T08:36:31.000Z</time>
      </trkpt>
      <trkpt lat="43.9229" lon="7.38479">
        <ele>1282.4000244141</ele>
        <time>2018-06-15T08:36:35.000Z</time>
      </trkpt>
      <trkpt lat="43.92312" lon="7.38466">
        <ele>1281.1999511719</ele>
        <time>2018-06-15T08:36:39.000Z</time>
      </trkpt>
      <trkpt lat="43.92334" lon="7.38453">
        <ele>1280</ele>
        <time>2018-06-15T08:36:43.000Z</time>
      </trkpt>
      <trkpt lat="43.92343" lon="7.38444">
        <ele>1279.1999511719</ele>
        <time>2018-06-15T08:36:45.000Z</time>
      </trkpt>
      <trkpt lat="43.92347" lon="7.38439">
        <ele>1279</ele>
        <time>2018-06-15T08:36:46.000Z</time>
      </trkpt>
      <trkpt lat="43.92365" lon="7.38422">
        <ele>1277.8000488281</ele>
        <time>2018-06-15T08:36:50.000Z</time>
      </trkpt>
      <trkpt lat="43.9238" lon="7.38424">
        <ele>1276.5999755859</ele>
        <time>2018-06-15T08:36:53.000Z</time>
      </trkpt>
      <trkpt lat="43.92391" lon="7.38433">
        <ele>1275.5999755859</ele>
        <time>2018-06-15T08:36:55.000Z</time>
      </trkpt>
      <trkpt lat="43.92397" lon="7.38437">
        <ele>1275</ele>
        <time>2018-06-15T08:36:56.000Z</time>
      </trkpt>
      <trkpt lat="43.92402" lon="7.38441">
        <ele>1274.8000488281</ele>
        <time>2018-06-15T08:36:57.000Z</time>
      </trkpt>
      <trkpt lat="43.92406" lon="7.38445">
        <ele>1274.1999511719</ele>
        <time>2018-06-15T08:36:58.000Z</time>
      </trkpt>
      <trkpt lat="43.92423" lon="7.38455">
        <ele>1273.1999511719</ele>
        <time>2018-06-15T08:37:01.000Z</time>
      </trkpt>
      <trkpt lat="43.92428" lon="7.38459">
        <ele>1273</ele>
        <time>2018-06-15T08:37:02.000Z</time>
      </trkpt>
      <trkpt lat="43.9244" lon="7.38465">
        <ele>1271.8000488281</ele>
        <time>2018-06-15T08:37:04.000Z</time>
      </trkpt>
      <trkpt lat="43.92459" lon="7.38474">
        <ele>1270.8000488281</ele>
        <time>2018-06-15T08:37:07.000Z</time>
      </trkpt>
      <trkpt lat="43.92472" lon="7.38481">
        <ele>1269.5999755859</ele>
        <time>2018-06-15T08:37:09.000Z</time>
      </trkpt>
      <trkpt lat="43.92484" lon="7.38489">
        <ele>1268.4000244141</ele>
        <time>2018-06-15T08:37:11.000Z</time>
      </trkpt>
      <trkpt lat="43.92495" lon="7.38496">
        <ele>1267.8000488281</ele>
        <time>2018-06-15T08:37:13.000Z</time>
      </trkpt>
      <trkpt lat="43.92513" lon="7.38505">
        <ele>1267.4000244141</ele>
        <time>2018-06-15T08:37:16.000Z</time>
      </trkpt>
      <trkpt lat="43.92525" lon="7.38512">
        <ele>1266.5999755859</ele>
        <time>2018-06-15T08:37:18.000Z</time>
      </trkpt>
      <trkpt lat="43.92532" lon="7.38515">
        <ele>1266</ele>
        <time>2018-06-15T08:37:19.000Z</time>
      </trkpt>
      <trkpt lat="43.92546" lon="7.38522">
        <ele>1264.8000488281</ele>
        <time>2018-06-15T08:37:21.000Z</time>
      </trkpt>
      <trkpt lat="43.92559" lon="7.38528">
        <ele>1263.1999511719</ele>
        <time>2018-06-15T08:37:23.000Z</time>
      </trkpt>
      <trkpt lat="43.92566" lon="7.38532">
        <ele>1262.4000244141</ele>
        <time>2018-06-15T08:37:24.000Z</time>
      </trkpt>
      <trkpt lat="43.92573" lon="7.38536">
        <ele>1261.5999755859</ele>
        <time>2018-06-15T08:37:25.000Z</time>
      </trkpt>
      <trkpt lat="43.92587" lon="7.38544">
        <ele>1260.4000244141</ele>
        <time>2018-06-15T08:37:27.000Z</time>
      </trkpt>
      <trkpt lat="43.92603" lon="7.38554">
        <ele>1258.4000244141</ele>
        <time>2018-06-15T08:37:29.000Z</time>
      </trkpt>
      <trkpt lat="43.92611" lon="7.3856">
        <ele>1258</ele>
        <time>2018-06-15T08:37:30.000Z</time>
      </trkpt>
      <trkpt lat="43.9262" lon="7.38567">
        <ele>1257.4000244141</ele>
        <time>2018-06-15T08:37:31.000Z</time>
      </trkpt>
      <trkpt lat="43.92635" lon="7.3858">
        <ele>1255.8000488281</ele>
        <time>2018-06-15T08:37:33.000Z</time>
      </trkpt>
      <trkpt lat="43.92653" lon="7.38594">
        <ele>1254.1999511719</ele>
        <time>2018-06-15T08:37:35.000Z</time>
      </trkpt>
      <trkpt lat="43.92668" lon="7.38609">
        <ele>1252.4000244141</ele>
        <time>2018-06-15T08:37:37.000Z</time>
      </trkpt>
      <trkpt lat="43.92684" lon="7.3862">
        <ele>1251.5999755859</ele>
        <time>2018-06-15T08:37:39.000Z</time>
      </trkpt>
      <trkpt lat="43.92691" lon="7.38624">
        <ele>1251</ele>
        <time>2018-06-15T08:37:40.000Z</time>
      </trkpt>
      <trkpt lat="43.92708" lon="7.3863">
        <ele>1250.1999511719</ele>
        <time>2018-06-15T08:37:42.000Z</time>
      </trkpt>
      <trkpt lat="43.92715" lon="7.38633">
        <ele>1249.8000488281</ele>
        <time>2018-06-15T08:37:43.000Z</time>
      </trkpt>
      <trkpt lat="43.9273" lon="7.38645">
        <ele>1248.5999755859</ele>
        <time>2018-06-15T08:37:45.000Z</time>
      </trkpt>
      <trkpt lat="43.92736" lon="7.38651">
        <ele>1248.1999511719</ele>
        <time>2018-06-15T08:37:46.000Z</time>
      </trkpt>
      <trkpt lat="43.92751" lon="7.38662">
        <ele>1247.1999511719</ele>
        <time>2018-06-15T08:37:48.000Z</time>
      </trkpt>
      <trkpt lat="43.9276" lon="7.38667">
        <ele>1246.8000488281</ele>
        <time>2018-06-15T08:37:49.000Z</time>
      </trkpt>
      <trkpt lat="43.92774" lon="7.38676">
        <ele>1246.4000244141</ele>
        <time>2018-06-15T08:37:51.000Z</time>
      </trkpt>
      <trkpt lat="43.92788" lon="7.38683">
        <ele>1246</ele>
        <time>2018-06-15T08:37:53.000Z</time>
      </trkpt>
      <trkpt lat="43.92808" lon="7.38695">
        <ele>1245.4000244141</ele>
        <time>2018-06-15T08:37:56.000Z</time>
      </trkpt>
      <trkpt lat="43.92813" lon="7.387">
        <ele>1245.1999511719</ele>
        <time>2018-06-15T08:37:57.000Z</time>
      </trkpt>
      <trkpt lat="43.92817" lon="7.38704">
        <ele>1245</ele>
        <time>2018-06-15T08:37:58.000Z</time>
      </trkpt>
      <trkpt lat="43.92826" lon="7.38712">
        <ele>1244.5999755859</ele>
        <time>2018-06-15T08:38:00.000Z</time>
      </trkpt>
      <trkpt lat="43.92829" lon="7.38717">
        <ele>1244.4000244141</ele>
        <time>2018-06-15T08:38:01.000Z</time>
      </trkpt>
      <trkpt lat="43.92836" lon="7.38726">
        <ele>1244.1999511719</ele>
        <time>2018-06-15T08:38:03.000Z</time>
      </trkpt>
      <trkpt lat="43.92844" lon="7.38744">
        <ele>1244.1999511719</ele>
        <time>2018-06-15T08:38:06.000Z</time>
      </trkpt>
      <trkpt lat="43.92848" lon="7.38749">
        <ele>1244.1999511719</ele>
        <time>2018-06-15T08:38:07.000Z</time>
      </trkpt>
      <trkpt lat="43.92855" lon="7.3876">
        <ele>1244</ele>
        <time>2018-06-15T08:38:10.000Z</time>
      </trkpt>
      <trkpt lat="43.92858" lon="7.38765">
        <ele>1244</ele>
        <time>2018-06-15T08:38:11.000Z</time>
      </trkpt>
      <trkpt lat="43.92859" lon="7.38775">
        <ele>1244.4000244141</ele>
        <time>2018-06-15T08:38:13.000Z</time>
      </trkpt>
      <trkpt lat="43.92869" lon="7.38782">
        <ele>1244.5999755859</ele>
        <time>2018-06-15T08:38:16.000Z</time>
      </trkpt>
      <trkpt lat="43.9288" lon="7.38779">
        <ele>1245.1999511719</ele>
        <time>2018-06-15T08:38:20.000Z</time>
      </trkpt>
      <trkpt lat="43.92885" lon="7.38779">
        <ele>1245.8000488281</ele>
        <time>2018-06-15T08:38:22.000Z</time>
      </trkpt>
      <trkpt lat="43.92896" lon="7.38782">
        <ele>1245.1999511719</ele>
        <time>2018-06-15T08:38:26.000Z</time>
      </trkpt>
      <trkpt lat="43.92908" lon="7.38788">
        <ele>1245.5999755859</ele>
        <time>2018-06-15T08:38:32.000Z</time>
      </trkpt>
      <trkpt lat="43.92912" lon="7.3879">
        <ele>1246.4000244141</ele>
        <time>2018-06-15T08:38:34.000Z</time>
      </trkpt>
      <trkpt lat="43.92918" lon="7.38793">
        <ele>1246.5999755859</ele>
        <time>2018-06-15T08:38:37.000Z</time>
      </trkpt>
      <trkpt lat="43.92933" lon="7.388">
        <ele>1247.4000244141</ele>
        <time>2018-06-15T08:38:44.000Z</time>
      </trkpt>
      <trkpt lat="43.92937" lon="7.38801">
        <ele>1247.5999755859</ele>
        <time>2018-06-15T08:38:46.000Z</time>
      </trkpt>
      <trkpt lat="43.92946" lon="7.38804">
        <ele>1247.8000488281</ele>
        <time>2018-06-15T08:38:50.000Z</time>
      </trkpt>
      <trkpt lat="43.92948" lon="7.38803">
        <ele>1248</ele>
        <time>2018-06-15T08:38:51.000Z</time>
      </trkpt>
      <trkpt lat="43.92952" lon="7.38797">
        <ele>1248</ele>
        <time>2018-06-15T08:38:54.000Z</time>
      </trkpt>
      <trkpt lat="43.92955" lon="7.38788">
        <ele>1248.4000244141</ele>
        <time>2018-06-15T08:38:57.000Z</time>
      </trkpt>
      <trkpt lat="43.92956" lon="7.38785">
        <ele>1248.5999755859</ele>
        <time>2018-06-15T08:38:58.000Z</time>
      </trkpt>
      <trkpt lat="43.92957" lon="7.3877">
        <ele>1249.5999755859</ele>
        <time>2018-06-15T08:39:02.000Z</time>
      </trkpt>
      <trkpt lat="43.92957" lon="7.38767">
        <ele>1249.8000488281</ele>
        <time>2018-06-15T08:39:03.000Z</time>
      </trkpt>
      <trkpt lat="43.9296" lon="7.38752">
        <ele>1250.8000488281</ele>
        <time>2018-06-15T08:39:08.000Z</time>
      </trkpt>
      <trkpt lat="43.92962" lon="7.38745">
        <ele>1251.1999511719</ele>
        <time>2018-06-15T08:39:11.000Z</time>
      </trkpt>
      <trkpt lat="43.92967" lon="7.38738">
        <ele>1251.8000488281</ele>
        <time>2018-06-15T08:39:14.000Z</time>
      </trkpt>
      <trkpt lat="43.92971" lon="7.38737">
        <ele>1252</ele>
        <time>2018-06-15T08:39:16.000Z</time>
      </trkpt>
      <trkpt lat="43.92981" lon="7.38741">
        <ele>1251.1999511719</ele>
        <time>2018-06-15T08:39:21.000Z</time>
      </trkpt>
      <trkpt lat="43.92986" lon="7.38746">
        <ele>1250.8000488281</ele>
        <time>2018-06-15T08:39:24.000Z</time>
      </trkpt>
      <trkpt lat="43.92993" lon="7.38753">
        <ele>1249.8000488281</ele>
        <time>2018-06-15T08:39:27.000Z</time>
      </trkpt>
      <trkpt lat="43.93004" lon="7.38763">
        <ele>1249.1999511719</ele>
        <time>2018-06-15T08:39:32.000Z</time>
      </trkpt>
      <trkpt lat="43.93014" lon="7.38774">
        <ele>1248.8000488281</ele>
        <time>2018-06-15T08:39:37.000Z</time>
      </trkpt>
      <trkpt lat="43.93018" lon="7.3878">
        <ele>1248.4000244141</ele>
        <time>2018-06-15T08:39:39.000Z</time>
      </trkpt>
      <trkpt lat="43.93028" lon="7.38792">
        <ele>1248.1999511719</ele>
        <time>2018-06-15T08:39:44.000Z</time>
      </trkpt>
      <trkpt lat="43.93038" lon="7.38805">
        <ele>1248.8000488281</ele>
        <time>2018-06-15T08:39:50.000Z</time>
      </trkpt>
      <trkpt lat="43.93046" lon="7.38816">
        <ele>1249.8000488281</ele>
        <time>2018-06-15T08:39:55.000Z</time>
      </trkpt>
      <trkpt lat="43.93047" lon="7.38818">
        <ele>1250.1999511719</ele>
        <time>2018-06-15T08:39:56.000Z</time>
      </trkpt>
      <trkpt lat="43.93052" lon="7.38825">
        <ele>1251</ele>
        <time>2018-06-15T08:39:59.000Z</time>
      </trkpt>
      <trkpt lat="43.93055" lon="7.38829">
        <ele>1252.4000244141</ele>
        <time>2018-06-15T08:40:02.000Z</time>
      </trkpt>
      <trkpt lat="43.93062" lon="7.38838">
        <ele>1253.5999755859</ele>
        <time>2018-06-15T08:40:07.000Z</time>
      </trkpt>
      <trkpt lat="43.93066" lon="7.38842">
        <ele>1253.5999755859</ele>
        <time>2018-06-15T08:40:09.000Z</time>
      </trkpt>
      <trkpt lat="43.93073" lon="7.38846">
        <ele>1253.8000488281</ele>
        <time>2018-06-15T08:40:13.000Z</time>
      </trkpt>
      <trkpt lat="43.93082" lon="7.38853">
        <ele>1254.5999755859</ele>
        <time>2018-06-15T08:40:18.000Z</time>
      </trkpt>
      <trkpt lat="43.93085" lon="7.38854">
        <ele>1255</ele>
        <time>2018-06-15T08:40:20.000Z</time>
      </trkpt>
      <trkpt lat="43.93096" lon="7.38859">
        <ele>1255.5999755859</ele>
        <time>2018-06-15T08:40:25.000Z</time>
      </trkpt>
      <trkpt lat="43.93112" lon="7.38865">
        <ele>1255.5999755859</ele>
        <time>2018-06-15T08:40:32.000Z</time>
      </trkpt>
      <trkpt lat="43.93117" lon="7.38866">
        <ele>1255.5999755859</ele>
        <time>2018-06-15T08:40:34.000Z</time>
      </trkpt>
      <trkpt lat="43.93124" lon="7.38868">
        <ele>1255.4000244141</ele>
        <time>2018-06-15T08:40:38.000Z</time>
      </trkpt>
      <trkpt lat="43.93138" lon="7.38875">
        <ele>1255.8000488281</ele>
        <time>2018-06-15T08:40:44.000Z</time>
      </trkpt>
      <trkpt lat="43.93147" lon="7.38878">
        <ele>1256</ele>
        <time>2018-06-15T08:40:49.000Z</time>
      </trkpt>
      <trkpt lat="43.93155" lon="7.3888">
        <ele>1256.8000488281</ele>
        <time>2018-06-15T08:40:53.000Z</time>
      </trkpt>
      <trkpt lat="43.93156" lon="7.3888">
        <ele>1256.5999755859</ele>
        <time>2018-06-15T08:40:54.000Z</time>
      </trkpt>
      <trkpt lat="43.93166" lon="7.38881">
        <ele>1256.5999755859</ele>
        <time>2018-06-15T08:40:59.000Z</time>
      </trkpt>
      <trkpt lat="43.93176" lon="7.38882">
        <ele>1257.8000488281</ele>
        <time>2018-06-15T08:41:03.000Z</time>
      </trkpt>
      <trkpt lat="43.93178" lon="7.38883">
        <ele>1258</ele>
        <time>2018-06-15T08:41:04.000Z</time>
      </trkpt>
      <trkpt lat="43.93186" lon="7.38886">
        <ele>1259</ele>
        <time>2018-06-15T08:41:08.000Z</time>
      </trkpt>
      <trkpt lat="43.9319" lon="7.38888">
        <ele>1259.4000244141</ele>
        <time>2018-06-15T08:41:10.000Z</time>
      </trkpt>
      <trkpt lat="43.93203" lon="7.38894">
        <ele>1259.4000244141</ele>
        <time>2018-06-15T08:41:17.000Z</time>
      </trkpt>
      <trkpt lat="43.93216" lon="7.38898">
        <ele>1260.1999511719</ele>
        <time>2018-06-15T08:41:23.000Z</time>
      </trkpt>
      <trkpt lat="43.9322" lon="7.38899">
        <ele>1261.1999511719</ele>
        <time>2018-06-15T08:41:25.000Z</time>
      </trkpt>
      <trkpt lat="43.93224" lon="7.38901">
        <ele>1262.5999755859</ele>
        <time>2018-06-15T08:41:28.000Z</time>
      </trkpt>
      <trkpt lat="43.93227" lon="7.38902">
        <ele>1263</ele>
        <time>2018-06-15T08:41:29.000Z</time>
      </trkpt>
      <trkpt lat="43.93231" lon="7.38903">
        <ele>1263.8000488281</ele>
        <time>2018-06-15T08:41:31.000Z</time>
      </trkpt>
      <trkpt lat="43.93236" lon="7.38905">
        <ele>1264.8000488281</ele>
        <time>2018-06-15T08:41:34.000Z</time>
      </trkpt>
      <trkpt lat="43.93238" lon="7.38905">
        <ele>1265.1999511719</ele>
        <time>2018-06-15T08:41:35.000Z</time>
      </trkpt>
      <trkpt lat="43.93242" lon="7.38907">
        <ele>1266</ele>
        <time>2018-06-15T08:41:37.000Z</time>
      </trkpt>
      <trkpt lat="43.93249" lon="7.3891">
        <ele>1267.1999511719</ele>
        <time>2018-06-15T08:41:41.000Z</time>
      </trkpt>
      <trkpt lat="43.93252" lon="7.38911">
        <ele>1268</ele>
        <time>2018-06-15T08:41:43.000Z</time>
      </trkpt>
      <trkpt lat="43.93253" lon="7.38912">
        <ele>1268.4000244141</ele>
        <time>2018-06-15T08:41:44.000Z</time>
      </trkpt>
      <trkpt lat="43.93262" lon="7.38915">
        <ele>1269.5999755859</ele>
        <time>2018-06-15T08:41:49.000Z</time>
      </trkpt>
      <trkpt lat="43.93264" lon="7.38916">
        <ele>1269.5999755859</ele>
        <time>2018-06-15T08:41:50.000Z</time>
      </trkpt>
      <trkpt lat="43.93274" lon="7.38924">
        <ele>1270</ele>
        <time>2018-06-15T08:41:56.000Z</time>
      </trkpt>
      <trkpt lat="43.93284" lon="7.38933">
        <ele>1271</ele>
        <time>2018-06-15T08:42:02.000Z</time>
      </trkpt>
      <trkpt lat="43.9329" lon="7.38937">
        <ele>1272.1999511719</ele>
        <time>2018-06-15T08:42:06.000Z</time>
      </trkpt>
      <trkpt lat="43.93291" lon="7.38937">
        <ele>1272.4000244141</ele>
        <time>2018-06-15T08:42:07.000Z</time>
      </trkpt>
      <trkpt lat="43.93293" lon="7.38937">
        <ele>1272.5999755859</ele>
        <time>2018-06-15T08:42:08.000Z</time>
      </trkpt>
      <trkpt lat="43.933" lon="7.38932">
        <ele>1273.1999511719</ele>
        <time>2018-06-15T08:42:12.000Z</time>
      </trkpt>
      <trkpt lat="43.93302" lon="7.3893">
        <ele>1273.5999755859</ele>
        <time>2018-06-15T08:42:13.000Z</time>
      </trkpt>
      <trkpt lat="43.93305" lon="7.3892">
        <ele>1274.5999755859</ele>
        <time>2018-06-15T08:42:17.000Z</time>
      </trkpt>
      <trkpt lat="43.93307" lon="7.38915">
        <ele>1275</ele>
        <time>2018-06-15T08:42:19.000Z</time>
      </trkpt>
      <trkpt lat="43.9331" lon="7.38911">
        <ele>1275.5999755859</ele>
        <time>2018-06-15T08:42:21.000Z</time>
      </trkpt>
      <trkpt lat="43.93317" lon="7.38907">
        <ele>1276.4000244141</ele>
        <time>2018-06-15T08:42:25.000Z</time>
      </trkpt>
      <trkpt lat="43.93321" lon="7.38904">
        <ele>1276.5999755859</ele>
        <time>2018-06-15T08:42:27.000Z</time>
      </trkpt>
      <trkpt lat="43.93333" lon="7.38897">
        <ele>1277.5999755859</ele>
        <time>2018-06-15T08:42:33.000Z</time>
      </trkpt>
      <trkpt lat="43.93334" lon="7.38894">
        <ele>1278.1999511719</ele>
        <time>2018-06-15T08:42:34.000Z</time>
      </trkpt>
      <trkpt lat="43.93336" lon="7.38889">
        <ele>1278.8000488281</ele>
        <time>2018-06-15T08:42:36.000Z</time>
      </trkpt>
      <trkpt lat="43.93337" lon="7.38883">
        <ele>1279</ele>
        <time>2018-06-15T08:42:38.000Z</time>
      </trkpt>
      <trkpt lat="43.93337" lon="7.38881">
        <ele>1279.1999511719</ele>
        <time>2018-06-15T08:42:39.000Z</time>
      </trkpt>
      <trkpt lat="43.93332" lon="7.38867">
        <ele>1279.1999511719</ele>
        <time>2018-06-15T08:42:45.000Z</time>
      </trkpt>
      <trkpt lat="43.93324" lon="7.38851">
        <ele>1279.4000244141</ele>
        <time>2018-06-15T08:42:52.000Z</time>
      </trkpt>
      <trkpt lat="43.9332" lon="7.38832">
        <ele>1279.8000488281</ele>
        <time>2018-06-15T08:42:59.000Z</time>
      </trkpt>
      <trkpt lat="43.93326" lon="7.38818">
        <ele>1279.5999755859</ele>
        <time>2018-06-15T08:43:05.000Z</time>
      </trkpt>
      <trkpt lat="43.93328" lon="7.38818">
        <ele>1279.5999755859</ele>
        <time>2018-06-15T08:43:06.000Z</time>
      </trkpt>
      <trkpt lat="43.93338" lon="7.3882">
        <ele>1279.8000488281</ele>
        <time>2018-06-15T08:43:10.000Z</time>
      </trkpt>
      <trkpt lat="43.93353" lon="7.38818">
        <ele>1279.4000244141</ele>
        <time>2018-06-15T08:43:16.000Z</time>
      </trkpt>
      <trkpt lat="43.93368" lon="7.38812">
        <ele>1279</ele>
        <time>2018-06-15T08:43:21.000Z</time>
      </trkpt>
      <trkpt lat="43.93381" lon="7.38803">
        <ele>1279</ele>
        <time>2018-06-15T08:43:27.000Z</time>
      </trkpt>
      <trkpt lat="43.93392" lon="7.38789">
        <ele>1279.1999511719</ele>
        <time>2018-06-15T08:43:33.000Z</time>
      </trkpt>
      <trkpt lat="43.93401" lon="7.38779">
        <ele>1279.5999755859</ele>
        <time>2018-06-15T08:43:38.000Z</time>
      </trkpt>
      <trkpt lat="43.93412" lon="7.3877">
        <ele>1280</ele>
        <time>2018-06-15T08:43:45.000Z</time>
      </trkpt>
      <trkpt lat="43.93415" lon="7.38767">
        <ele>1280.4000244141</ele>
        <time>2018-06-15T08:43:48.000Z</time>
      </trkpt>
      <trkpt lat="43.93423" lon="7.38762">
        <ele>1280.5999755859</ele>
        <time>2018-06-15T08:43:52.000Z</time>
      </trkpt>
      <trkpt lat="43.93435" lon="7.38754">
        <ele>1280</ele>
        <time>2018-06-15T08:43:58.000Z</time>
      </trkpt>
      <trkpt lat="43.9344" lon="7.38746">
        <ele>1281.4000244141</ele>
        <time>2018-06-15T08:44:02.000Z</time>
      </trkpt>
      <trkpt lat="43.93442" lon="7.38744">
        <ele>1281.8000488281</ele>
        <time>2018-06-15T08:44:04.000Z</time>
      </trkpt>
      <trkpt lat="43.93442" lon="7.38744">
        <ele>1282</ele>
        <time>2018-06-15T08:44:05.000Z</time>
      </trkpt>
      <trkpt lat="43.93444" lon="7.38734">
        <ele>1287.5999755859</ele>
        <time>2018-06-15T08:49:37.000Z</time>
      </trkpt>
      <trkpt lat="43.93444" lon="7.38732">
        <ele>1287.4000244141</ele>
        <time>2018-06-15T08:49:38.000Z</time>
      </trkpt>
      <trkpt lat="43.9345" lon="7.38714">
        <ele>1286.8000488281</ele>
        <time>2018-06-15T08:49:46.000Z</time>
      </trkpt>
      <trkpt lat="43.93456" lon="7.387">
        <ele>1287</ele>
        <time>2018-06-15T08:49:53.000Z</time>
      </trkpt>
      <trkpt lat="43.93463" lon="7.38683">
        <ele>1288.8000488281</ele>
        <time>2018-06-15T08:50:01.000Z</time>
      </trkpt>
      <trkpt lat="43.93464" lon="7.38681">
        <ele>1289</ele>
        <time>2018-06-15T08:50:02.000Z</time>
      </trkpt>
      <trkpt lat="43.93466" lon="7.38675">
        <ele>1289.8000488281</ele>
        <time>2018-06-15T08:50:05.000Z</time>
      </trkpt>
      <trkpt lat="43.9347" lon="7.38665">
        <ele>1290.1999511719</ele>
        <time>2018-06-15T08:50:10.000Z</time>
      </trkpt>
      <trkpt lat="43.9347" lon="7.38648">
        <ele>1289.8000488281</ele>
        <time>2018-06-15T08:50:17.000Z</time>
      </trkpt>
      <trkpt lat="43.93467" lon="7.38631">
        <ele>1290.5999755859</ele>
        <time>2018-06-15T08:50:24.000Z</time>
      </trkpt>
      <trkpt lat="43.93463" lon="7.38614">
        <ele>1290.5999755859</ele>
        <time>2018-06-15T08:50:32.000Z</time>
      </trkpt>
      <trkpt lat="43.9346" lon="7.38609">
        <ele>1291</ele>
        <time>2018-06-15T08:50:35.000Z</time>
      </trkpt>
      <trkpt lat="43.93455" lon="7.38605">
        <ele>1291.5999755859</ele>
        <time>2018-06-15T08:50:40.000Z</time>
      </trkpt>
      <trkpt lat="43.93451" lon="7.38602">
        <ele>1292.1999511719</ele>
        <time>2018-06-15T08:50:43.000Z</time>
      </trkpt>
      <trkpt lat="43.93445" lon="7.38599">
        <ele>1292.5999755859</ele>
        <time>2018-06-15T08:50:47.000Z</time>
      </trkpt>
      <trkpt lat="43.93431" lon="7.38591">
        <ele>1293</ele>
        <time>2018-06-15T08:50:55.000Z</time>
      </trkpt>
      <trkpt lat="43.93427" lon="7.38583">
        <ele>1293.1999511719</ele>
        <time>2018-06-15T08:50:59.000Z</time>
      </trkpt>
      <trkpt lat="43.93425" lon="7.38577">
        <ele>1293.1999511719</ele>
        <time>2018-06-15T08:51:01.000Z</time>
      </trkpt>
      <trkpt lat="43.93426" lon="7.38553">
        <ele>1293.1999511719</ele>
        <time>2018-06-15T08:51:08.000Z</time>
      </trkpt>
      <trkpt lat="43.93419" lon="7.38532">
        <ele>1293.1999511719</ele>
        <time>2018-06-15T08:51:14.000Z</time>
      </trkpt>
      <trkpt lat="43.93415" lon="7.38522">
        <ele>1293.5999755859</ele>
        <time>2018-06-15T08:51:19.000Z</time>
      </trkpt>
      <trkpt lat="43.93419" lon="7.38519">
        <ele>1294.5999755859</ele>
        <time>2018-06-15T08:51:23.000Z</time>
      </trkpt>
      <trkpt lat="43.93421" lon="7.38518">
        <ele>1294.5999755859</ele>
        <time>2018-06-15T08:51:24.000Z</time>
      </trkpt>
      <trkpt lat="43.93422" lon="7.38519">
        <ele>1294.8000488281</ele>
        <time>2018-06-15T08:51:25.000Z</time>
      </trkpt>
      <trkpt lat="43.93428" lon="7.38528">
        <ele>1295.4000244141</ele>
        <time>2018-06-15T08:51:29.000Z</time>
      </trkpt>
      <trkpt lat="43.93428" lon="7.38531">
        <ele>1295.5999755859</ele>
        <time>2018-06-15T08:51:30.000Z</time>
      </trkpt>
      <trkpt lat="43.93429" lon="7.38533">
        <ele>1295.8000488281</ele>
        <time>2018-06-15T08:51:31.000Z</time>
      </trkpt>
      <trkpt lat="43.93431" lon="7.38547">
        <ele>1297</ele>
        <time>2018-06-15T08:51:37.000Z</time>
      </trkpt>
      <trkpt lat="43.93433" lon="7.38563">
        <ele>1297.8000488281</ele>
        <time>2018-06-15T08:51:44.000Z</time>
      </trkpt>
      <trkpt lat="43.93433" lon="7.38571">
        <ele>1298</ele>
        <time>2018-06-15T08:51:47.000Z</time>
      </trkpt>
      <trkpt lat="43.93437" lon="7.3858">
        <ele>1298.4000244141</ele>
        <time>2018-06-15T08:51:51.000Z</time>
      </trkpt>
      <trkpt lat="43.9345" lon="7.38586">
        <ele>1298.8000488281</ele>
        <time>2018-06-15T08:51:58.000Z</time>
      </trkpt>
      <trkpt lat="43.93454" lon="7.38587">
        <ele>1299</ele>
        <time>2018-06-15T08:52:00.000Z</time>
      </trkpt>
      <trkpt lat="43.93461" lon="7.38589">
        <ele>1299.8000488281</ele>
        <time>2018-06-15T08:52:04.000Z</time>
      </trkpt>
      <trkpt lat="43.93464" lon="7.38591">
        <ele>1300.1999511719</ele>
        <time>2018-06-15T08:52:06.000Z</time>
      </trkpt>
      <trkpt lat="43.93474" lon="7.38598">
        <ele>1301.1999511719</ele>
        <time>2018-06-15T08:52:12.000Z</time>
      </trkpt>
      <trkpt lat="43.93483" lon="7.38608">
        <ele>1302.1999511719</ele>
        <time>2018-06-15T08:52:18.000Z</time>
      </trkpt>
      <trkpt lat="43.93484" lon="7.38609">
        <ele>1302.4000244141</ele>
        <time>2018-06-15T08:52:19.000Z</time>
      </trkpt>
      <trkpt lat="43.93491" lon="7.3861">
        <ele>1302.5999755859</ele>
        <time>2018-06-15T08:52:23.000Z</time>
      </trkpt>
      <trkpt lat="43.93493" lon="7.38609">
        <ele>1302.5999755859</ele>
        <time>2018-06-15T08:52:24.000Z</time>
      </trkpt>
      <trkpt lat="43.93498" lon="7.38605">
        <ele>1303.1999511719</ele>
        <time>2018-06-15T08:52:27.000Z</time>
      </trkpt>
      <trkpt lat="43.93499" lon="7.38604">
        <ele>1303.4000244141</ele>
        <time>2018-06-15T08:52:28.000Z</time>
      </trkpt>
      <trkpt lat="43.93502" lon="7.386">
        <ele>1304</ele>
        <time>2018-06-15T08:52:30.000Z</time>
      </trkpt>
      <trkpt lat="43.93506" lon="7.38595">
        <ele>1305</ele>
        <time>2018-06-15T08:52:33.000Z</time>
      </trkpt>
      <trkpt lat="43.93511" lon="7.38589">
        <ele>1305.8000488281</ele>
        <time>2018-06-15T08:52:36.000Z</time>
      </trkpt>
      <trkpt lat="43.93513" lon="7.38588">
        <ele>1306</ele>
        <time>2018-06-15T08:52:37.000Z</time>
      </trkpt>
      <trkpt lat="43.93514" lon="7.38586">
        <ele>1306.4000244141</ele>
        <time>2018-06-15T08:52:38.000Z</time>
      </trkpt>
      <trkpt lat="43.93517" lon="7.38583">
        <ele>1306.8000488281</ele>
        <time>2018-06-15T08:52:40.000Z</time>
      </trkpt>
      <trkpt lat="43.93519" lon="7.38581">
        <ele>1307.1999511719</ele>
        <time>2018-06-15T08:52:41.000Z</time>
      </trkpt>
      <trkpt lat="43.93524" lon="7.38576">
        <ele>1308.4000244141</ele>
        <time>2018-06-15T08:52:44.000Z</time>
      </trkpt>
      <trkpt lat="43.9353" lon="7.3857">
        <ele>1309.5999755859</ele>
        <time>2018-06-15T08:52:47.000Z</time>
      </trkpt>
      <trkpt lat="43.93539" lon="7.38566">
        <ele>1310.8000488281</ele>
        <time>2018-06-15T08:52:51.000Z</time>
      </trkpt>
      <trkpt lat="43.93542" lon="7.38566">
        <ele>1311</ele>
        <time>2018-06-15T08:52:52.000Z</time>
      </trkpt>
      <trkpt lat="43.93554" lon="7.38563">
        <ele>1312</ele>
        <time>2018-06-15T08:52:56.000Z</time>
      </trkpt>
      <trkpt lat="43.93563" lon="7.38558">
        <ele>1312.4000244141</ele>
        <time>2018-06-15T08:52:59.000Z</time>
      </trkpt>
      <trkpt lat="43.93573" lon="7.38551">
        <ele>1313</ele>
        <time>2018-06-15T08:53:03.000Z</time>
      </trkpt>
      <trkpt lat="43.93575" lon="7.38551">
        <ele>1313.4000244141</ele>
        <time>2018-06-15T08:53:04.000Z</time>
      </trkpt>
      <trkpt lat="43.93587" lon="7.3855">
        <ele>1314.1999511719</ele>
        <time>2018-06-15T08:53:09.000Z</time>
      </trkpt>
      <trkpt lat="43.93589" lon="7.3855">
        <ele>1314.4000244141</ele>
        <time>2018-06-15T08:53:10.000Z</time>
      </trkpt>
      <trkpt lat="43.93605" lon="7.38544">
        <ele>1314.5999755859</ele>
        <time>2018-06-15T08:53:17.000Z</time>
      </trkpt>
      <trkpt lat="43.93613" lon="7.38546">
        <ele>1315.1999511719</ele>
        <time>2018-06-15T08:53:21.000Z</time>
      </trkpt>
      <trkpt lat="43.93614" lon="7.38547">
        <ele>1315.4000244141</ele>
        <time>2018-06-15T08:53:22.000Z</time>
      </trkpt>
      <trkpt lat="43.93625" lon="7.38558">
        <ele>1315.4000244141</ele>
        <time>2018-06-15T08:53:29.000Z</time>
      </trkpt>
      <trkpt lat="43.9364" lon="7.38573">
        <ele>1315.4000244141</ele>
        <time>2018-06-15T08:53:37.000Z</time>
      </trkpt>
      <trkpt lat="43.93655" lon="7.38583">
        <ele>1315.1999511719</ele>
        <time>2018-06-15T08:53:44.000Z</time>
      </trkpt>
      <trkpt lat="43.93672" lon="7.38596">
        <ele>1314.8000488281</ele>
        <time>2018-06-15T08:53:51.000Z</time>
      </trkpt>
      <trkpt lat="43.9369" lon="7.38603">
        <ele>1314.5999755859</ele>
        <time>2018-06-15T08:53:57.000Z</time>
      </trkpt>
      <trkpt lat="43.93707" lon="7.38601">
        <ele>1315.4000244141</ele>
        <time>2018-06-15T08:54:03.000Z</time>
      </trkpt>
      <trkpt lat="43.93726" lon="7.38595">
        <ele>1316.5999755859</ele>
        <time>2018-06-15T08:54:09.000Z</time>
      </trkpt>
      <trkpt lat="43.93748" lon="7.38588">
        <ele>1316.8000488281</ele>
        <time>2018-06-15T08:54:16.000Z</time>
      </trkpt>
      <trkpt lat="43.93763" lon="7.38576">
        <ele>1316.4000244141</ele>
        <time>2018-06-15T08:54:21.000Z</time>
      </trkpt>
      <trkpt lat="43.93775" lon="7.3856">
        <ele>1316.4000244141</ele>
        <time>2018-06-15T08:54:27.000Z</time>
      </trkpt>
      <trkpt lat="43.93783" lon="7.38543">
        <ele>1316.1999511719</ele>
        <time>2018-06-15T08:54:32.000Z</time>
      </trkpt>
      <trkpt lat="43.93784" lon="7.38523">
        <ele>1317.5999755859</ele>
        <time>2018-06-15T08:54:38.000Z</time>
      </trkpt>
      <trkpt lat="43.93782" lon="7.3851">
        <ele>1318.5999755859</ele>
        <time>2018-06-15T08:54:42.000Z</time>
      </trkpt>
      <trkpt lat="43.93781" lon="7.38505">
        <ele>1319.1999511719</ele>
        <time>2018-06-15T08:54:44.000Z</time>
      </trkpt>
      <trkpt lat="43.93778" lon="7.38495">
        <ele>1319.8000488281</ele>
        <time>2018-06-15T08:54:47.000Z</time>
      </trkpt>
      <trkpt lat="43.93776" lon="7.38488">
        <ele>1320.5999755859</ele>
        <time>2018-06-15T08:54:50.000Z</time>
      </trkpt>
      <trkpt lat="43.93774" lon="7.3848">
        <ele>1320.8000488281</ele>
        <time>2018-06-15T08:54:53.000Z</time>
      </trkpt>
      <trkpt lat="43.93772" lon="7.38475">
        <ele>1321</ele>
        <time>2018-06-15T08:54:55.000Z</time>
      </trkpt>
      <trkpt lat="43.93767" lon="7.3847">
        <ele>1322</ele>
        <time>2018-06-15T08:54:58.000Z</time>
      </trkpt>
      <trkpt lat="43.93766" lon="7.38468">
        <ele>1322.1999511719</ele>
        <time>2018-06-15T08:54:59.000Z</time>
      </trkpt>
      <trkpt lat="43.93763" lon="7.38459">
        <ele>1323.1999511719</ele>
        <time>2018-06-15T08:55:03.000Z</time>
      </trkpt>
      <trkpt lat="43.93762" lon="7.38456">
        <ele>1323.1999511719</ele>
        <time>2018-06-15T08:55:04.000Z</time>
      </trkpt>
      <trkpt lat="43.93761" lon="7.38445">
        <ele>1324</ele>
        <time>2018-06-15T08:55:08.000Z</time>
      </trkpt>
      <trkpt lat="43.9376" lon="7.38442">
        <ele>1324.5999755859</ele>
        <time>2018-06-15T08:55:09.000Z</time>
      </trkpt>
      <trkpt lat="43.9376" lon="7.3844">
        <ele>1325</ele>
        <time>2018-06-15T08:55:10.000Z</time>
      </trkpt>
      <trkpt lat="43.93759" lon="7.38435">
        <ele>1325.8000488281</ele>
        <time>2018-06-15T08:55:12.000Z</time>
      </trkpt>
      <trkpt lat="43.93758" lon="7.38431">
        <ele>1327</ele>
        <time>2018-06-15T08:55:14.000Z</time>
      </trkpt>
      <trkpt lat="43.93757" lon="7.38429">
        <ele>1327.4000244141</ele>
        <time>2018-06-15T08:55:15.000Z</time>
      </trkpt>
      <trkpt lat="43.93757" lon="7.38427">
        <ele>1328</ele>
        <time>2018-06-15T08:55:16.000Z</time>
      </trkpt>
      <trkpt lat="43.93757" lon="7.38424">
        <ele>1328.4000244141</ele>
        <time>2018-06-15T08:55:17.000Z</time>
      </trkpt>
      <trkpt lat="43.93756" lon="7.38421">
        <ele>1329.1999511719</ele>
        <time>2018-06-15T08:55:19.000Z</time>
      </trkpt>
      <trkpt lat="43.93754" lon="7.38414">
        <ele>1330</ele>
        <time>2018-06-15T08:55:22.000Z</time>
      </trkpt>
      <trkpt lat="43.93754" lon="7.38409">
        <ele>1330.4000244141</ele>
        <time>2018-06-15T08:55:24.000Z</time>
      </trkpt>
      <trkpt lat="43.93752" lon="7.38395">
        <ele>1331</ele>
        <time>2018-06-15T08:55:29.000Z</time>
      </trkpt>
      <trkpt lat="43.93753" lon="7.3839">
        <ele>1331.5999755859</ele>
        <time>2018-06-15T08:55:31.000Z</time>
      </trkpt>
      <trkpt lat="43.93757" lon="7.38383">
        <ele>1332.4000244141</ele>
        <time>2018-06-15T08:55:34.000Z</time>
      </trkpt>
      <trkpt lat="43.93759" lon="7.3838">
        <ele>1332.8000488281</ele>
        <time>2018-06-15T08:55:35.000Z</time>
      </trkpt>
      <trkpt lat="43.93762" lon="7.38374">
        <ele>1334.1999511719</ele>
        <time>2018-06-15T08:55:38.000Z</time>
      </trkpt>
      <trkpt lat="43.93764" lon="7.38372">
        <ele>1334.5999755859</ele>
        <time>2018-06-15T08:55:39.000Z</time>
      </trkpt>
      <trkpt lat="43.93768" lon="7.38372">
        <ele>1335.5999755859</ele>
        <time>2018-06-15T08:55:42.000Z</time>
      </trkpt>
      <trkpt lat="43.9377" lon="7.38371">
        <ele>1336</ele>
        <time>2018-06-15T08:55:43.000Z</time>
      </trkpt>
      <trkpt lat="43.93773" lon="7.3837">
        <ele>1336.5999755859</ele>
        <time>2018-06-15T08:55:45.000Z</time>
      </trkpt>
      <trkpt lat="43.93778" lon="7.38368">
        <ele>1338</ele>
        <time>2018-06-15T08:55:48.000Z</time>
      </trkpt>
      <trkpt lat="43.9378" lon="7.38366">
        <ele>1339</ele>
        <time>2018-06-15T08:55:50.000Z</time>
      </trkpt>
      <trkpt lat="43.93783" lon="7.38365">
        <ele>1341</ele>
        <time>2018-06-15T08:55:52.000Z</time>
      </trkpt>
      <trkpt lat="43.93787" lon="7.38363">
        <ele>1342.4000244141</ele>
        <time>2018-06-15T08:55:54.000Z</time>
      </trkpt>
      <trkpt lat="43.9379" lon="7.3836">
        <ele>1344.1999511719</ele>
        <time>2018-06-15T08:55:56.000Z</time>
      </trkpt>
      <trkpt lat="43.93793" lon="7.38357">
        <ele>1345.4000244141</ele>
        <time>2018-06-15T08:55:58.000Z</time>
      </trkpt>
      <trkpt lat="43.93795" lon="7.38355">
        <ele>1345.5999755859</ele>
        <time>2018-06-15T08:55:59.000Z</time>
      </trkpt>
      <trkpt lat="43.938" lon="7.38349">
        <ele>1346.4000244141</ele>
        <time>2018-06-15T08:56:02.000Z</time>
      </trkpt>
      <trkpt lat="43.93809" lon="7.38333">
        <ele>1346.1999511719</ele>
        <time>2018-06-15T08:56:09.000Z</time>
      </trkpt>
      <trkpt lat="43.93813" lon="7.38325">
        <ele>1345.4000244141</ele>
        <time>2018-06-15T08:56:13.000Z</time>
      </trkpt>
      <trkpt lat="43.93814" lon="7.38322">
        <ele>1345</ele>
        <time>2018-06-15T08:56:14.000Z</time>
      </trkpt>
      <trkpt lat="43.93815" lon="7.3832">
        <ele>1344.4000244141</ele>
        <time>2018-06-15T08:56:15.000Z</time>
      </trkpt>
      <trkpt lat="43.93822" lon="7.3831">
        <ele>1344.4000244141</ele>
        <time>2018-06-15T08:56:21.000Z</time>
      </trkpt>
      <trkpt lat="43.93827" lon="7.38301">
        <ele>1345.8000488281</ele>
        <time>2018-06-15T08:56:26.000Z</time>
      </trkpt>
      <trkpt lat="43.93829" lon="7.38299">
        <ele>1345.8000488281</ele>
        <time>2018-06-15T08:56:27.000Z</time>
      </trkpt>
      <trkpt lat="43.9383" lon="7.38296">
        <ele>1345.8000488281</ele>
        <time>2018-06-15T08:56:30.000Z</time>
      </trkpt>
      <trkpt lat="43.93848" lon="7.38283">
        <ele>1340.8000488281</ele>
        <time>2018-06-15T09:01:41.000Z</time>
      </trkpt>
      <trkpt lat="43.93848" lon="7.38286">
        <ele>1339.8000488281</ele>
        <time>2018-06-15T09:01:43.000Z</time>
      </trkpt>
      <trkpt lat="43.93847" lon="7.3829">
        <ele>1338.5999755859</ele>
        <time>2018-06-15T09:01:45.000Z</time>
      </trkpt>
      <trkpt lat="43.93845" lon="7.38298">
        <ele>1337.8000488281</ele>
        <time>2018-06-15T09:01:50.000Z</time>
      </trkpt>
      <trkpt lat="43.93846" lon="7.38298">
        <ele>1337.5999755859</ele>
        <time>2018-06-15T09:01:51.000Z</time>
      </trkpt>
      <trkpt lat="43.93853" lon="7.38296">
        <ele>1337.5999755859</ele>
        <time>2018-06-15T09:01:54.000Z</time>
      </trkpt>
      <trkpt lat="43.93859" lon="7.38293">
        <ele>1337.8000488281</ele>
        <time>2018-06-15T09:01:57.000Z</time>
      </trkpt>
      <trkpt lat="43.9386" lon="7.38291">
        <ele>1338</ele>
        <time>2018-06-15T09:01:58.000Z</time>
      </trkpt>
      <trkpt lat="43.93867" lon="7.38279">
        <ele>1337.1999511719</ele>
        <time>2018-06-15T09:02:02.000Z</time>
      </trkpt>
      <trkpt lat="43.93869" lon="7.38268">
        <ele>1337.1999511719</ele>
        <time>2018-06-15T09:02:05.000Z</time>
      </trkpt>
      <trkpt lat="43.93869" lon="7.38265">
        <ele>1337</ele>
        <time>2018-06-15T09:02:06.000Z</time>
      </trkpt>
      <trkpt lat="43.93872" lon="7.38249">
        <ele>1336.4000244141</ele>
        <time>2018-06-15T09:02:12.000Z</time>
      </trkpt>
      <trkpt lat="43.93874" lon="7.38244">
        <ele>1336.5999755859</ele>
        <time>2018-06-15T09:02:15.000Z</time>
      </trkpt>
      <trkpt lat="43.93877" lon="7.3824">
        <ele>1336.4000244141</ele>
        <time>2018-06-15T09:02:19.000Z</time>
      </trkpt>
      <trkpt lat="43.93876" lon="7.3824">
        <ele>1336.4000244141</ele>
        <time>2018-06-15T09:02:20.000Z</time>
      </trkpt>
      <trkpt lat="43.93879" lon="7.38243">
        <ele>1336.1999511719</ele>
        <time>2018-06-15T09:02:25.000Z</time>
      </trkpt>
      <trkpt lat="43.9388" lon="7.3825">
        <ele>1335.8000488281</ele>
        <time>2018-06-15T09:02:27.000Z</time>
      </trkpt>
      <trkpt lat="43.9388" lon="7.38264">
        <ele>1335.1999511719</ele>
        <time>2018-06-15T09:02:30.000Z</time>
      </trkpt>
      <trkpt lat="43.93881" lon="7.38271">
        <ele>1335</ele>
        <time>2018-06-15T09:02:32.000Z</time>
      </trkpt>
      <trkpt lat="43.93881" lon="7.38275">
        <ele>1335</ele>
        <time>2018-06-15T09:02:33.000Z</time>
      </trkpt>
      <trkpt lat="43.93881" lon="7.38283">
        <ele>1334.8000488281</ele>
        <time>2018-06-15T09:02:36.000Z</time>
      </trkpt>
      <trkpt lat="43.93883" lon="7.38289">
        <ele>1334.5999755859</ele>
        <time>2018-06-15T09:02:39.000Z</time>
      </trkpt>
      <trkpt lat="43.93883" lon="7.3829">
        <ele>1334.4000244141</ele>
        <time>2018-06-15T09:02:40.000Z</time>
      </trkpt>
      <trkpt lat="43.93883" lon="7.3829">
        <ele>1334.4000244141</ele>
        <time>2018-06-15T09:02:41.000Z</time>
      </trkpt>
      <trkpt lat="43.93888" lon="7.38286">
        <ele>1333.1999511719</ele>
        <time>2018-06-15T09:02:50.000Z</time>
      </trkpt>
      <trkpt lat="43.9389" lon="7.38283">
        <ele>1333.1999511719</ele>
        <time>2018-06-15T09:02:52.000Z</time>
      </trkpt>
      <trkpt lat="43.93892" lon="7.38279">
        <ele>1332.1999511719</ele>
        <time>2018-06-15T09:02:57.000Z</time>
      </trkpt>
      <trkpt lat="43.93894" lon="7.38283">
        <ele>1331.1999511719</ele>
        <time>2018-06-15T09:02:59.000Z</time>
      </trkpt>
      <trkpt lat="43.93896" lon="7.38287">
        <ele>1330.1999511719</ele>
        <time>2018-06-15T09:03:01.000Z</time>
      </trkpt>
      <trkpt lat="43.93896" lon="7.38289">
        <ele>1329.8000488281</ele>
        <time>2018-06-15T09:03:02.000Z</time>
      </trkpt>
      <trkpt lat="43.93898" lon="7.38292">
        <ele>1328.5999755859</ele>
        <time>2018-06-15T09:03:04.000Z</time>
      </trkpt>
      <trkpt lat="43.939" lon="7.38292">
        <ele>1328</ele>
        <time>2018-06-15T09:03:05.000Z</time>
      </trkpt>
      <trkpt lat="43.93903" lon="7.38293">
        <ele>1327</ele>
        <time>2018-06-15T09:03:07.000Z</time>
      </trkpt>
      <trkpt lat="43.93904" lon="7.38295">
        <ele>1326.4000244141</ele>
        <time>2018-06-15T09:03:08.000Z</time>
      </trkpt>
      <trkpt lat="43.93906" lon="7.38299">
        <ele>1325.5999755859</ele>
        <time>2018-06-15T09:03:10.000Z</time>
      </trkpt>
      <trkpt lat="43.93908" lon="7.38302">
        <ele>1325.4000244141</ele>
        <time>2018-06-15T09:03:12.000Z</time>
      </trkpt>
      <trkpt lat="43.93909" lon="7.38303">
        <ele>1325</ele>
        <time>2018-06-15T09:03:13.000Z</time>
      </trkpt>
      <trkpt lat="43.93911" lon="7.38305">
        <ele>1324.4000244141</ele>
        <time>2018-06-15T09:03:15.000Z</time>
      </trkpt>
      <trkpt lat="43.93914" lon="7.38302">
        <ele>1324</ele>
        <time>2018-06-15T09:03:17.000Z</time>
      </trkpt>
      <trkpt lat="43.93914" lon="7.38301">
        <ele>1323.8000488281</ele>
        <time>2018-06-15T09:03:19.000Z</time>
      </trkpt>
      <trkpt lat="43.93914" lon="7.38296">
        <ele>1324.1999511719</ele>
        <time>2018-06-15T09:03:46.000Z</time>
      </trkpt>
      <trkpt lat="43.93915" lon="7.38294">
        <ele>1323.8000488281</ele>
        <time>2018-06-15T09:03:47.000Z</time>
      </trkpt>
      <trkpt lat="43.93915" lon="7.38291">
        <ele>1323.4000244141</ele>
        <time>2018-06-15T09:03:48.000Z</time>
      </trkpt>
      <trkpt lat="43.93917" lon="7.38282">
        <ele>1323</ele>
        <time>2018-06-15T09:03:51.000Z</time>
      </trkpt>
      <trkpt lat="43.93918" lon="7.38276">
        <ele>1322.1999511719</ele>
        <time>2018-06-15T09:03:54.000Z</time>
      </trkpt>
      <trkpt lat="43.93919" lon="7.38272">
        <ele>1321.8000488281</ele>
        <time>2018-06-15T09:03:56.000Z</time>
      </trkpt>
      <trkpt lat="43.93921" lon="7.3827">
        <ele>1321.1999511719</ele>
        <time>2018-06-15T09:03:59.000Z</time>
      </trkpt>
      <trkpt lat="43.93922" lon="7.38272">
        <ele>1320.4000244141</ele>
        <time>2018-06-15T09:04:01.000Z</time>
      </trkpt>
      <trkpt lat="43.93922" lon="7.38275">
        <ele>1320</ele>
        <time>2018-06-15T09:04:02.000Z</time>
      </trkpt>
      <trkpt lat="43.93923" lon="7.38282">
        <ele>1319</ele>
        <time>2018-06-15T09:04:04.000Z</time>
      </trkpt>
      <trkpt lat="43.93922" lon="7.38285">
        <ele>1318.5999755859</ele>
        <time>2018-06-15T09:04:05.000Z</time>
      </trkpt>
      <trkpt lat="43.93922" lon="7.38293">
        <ele>1317.8000488281</ele>
        <time>2018-06-15T09:04:08.000Z</time>
      </trkpt>
      <trkpt lat="43.93923" lon="7.38298">
        <ele>1317.5999755859</ele>
        <time>2018-06-15T09:04:10.000Z</time>
      </trkpt>
      <trkpt lat="43.93925" lon="7.38303">
        <ele>1317.1999511719</ele>
        <time>2018-06-15T09:04:13.000Z</time>
      </trkpt>
      <trkpt lat="43.93926" lon="7.38304">
        <ele>1317</ele>
        <time>2018-06-15T09:04:14.000Z</time>
      </trkpt>
      <trkpt lat="43.93926" lon="7.38307">
        <ele>1316.5999755859</ele>
        <time>2018-06-15T09:04:15.000Z</time>
      </trkpt>
      <trkpt lat="43.93928" lon="7.38307">
        <ele>1316.1999511719</ele>
        <time>2018-06-15T09:04:18.000Z</time>
      </trkpt>
      <trkpt lat="43.93929" lon="7.38304">
        <ele>1315.1999511719</ele>
        <time>2018-06-15T09:04:20.000Z</time>
      </trkpt>
      <trkpt lat="43.93929" lon="7.38304">
        <ele>1314.1999511719</ele>
        <time>2018-06-15T09:04:22.000Z</time>
      </trkpt>
      <trkpt lat="43.93934" lon="7.38304">
        <ele>1307</ele>
        <time>2018-06-15T09:05:35.000Z</time>
      </trkpt>
      <trkpt lat="43.93936" lon="7.38299">
        <ele>1306.8000488281</ele>
        <time>2018-06-15T09:05:38.000Z</time>
      </trkpt>
      <trkpt lat="43.93935" lon="7.38295">
        <ele>1306.5999755859</ele>
        <time>2018-06-15T09:05:41.000Z</time>
      </trkpt>
      <trkpt lat="43.93935" lon="7.38294">
        <ele>1306.4000244141</ele>
        <time>2018-06-15T09:05:42.000Z</time>
      </trkpt>
      <trkpt lat="43.93936" lon="7.38293">
        <ele>1305.8000488281</ele>
        <time>2018-06-15T09:05:44.000Z</time>
      </trkpt>
      <trkpt lat="43.93938" lon="7.38294">
        <ele>1305.4000244141</ele>
        <time>2018-06-15T09:05:46.000Z</time>
      </trkpt>
      <trkpt lat="43.9394" lon="7.38292">
        <ele>1305.1999511719</ele>
        <time>2018-06-15T09:05:49.000Z</time>
      </trkpt>
      <trkpt lat="43.93945" lon="7.38283">
        <ele>1304.8000488281</ele>
        <time>2018-06-15T09:05:52.000Z</time>
      </trkpt>
      <trkpt lat="43.93947" lon="7.38279">
        <ele>1304.4000244141</ele>
        <time>2018-06-15T09:05:53.000Z</time>
      </trkpt>
      <trkpt lat="43.93949" lon="7.38275">
        <ele>1303.5999755859</ele>
        <time>2018-06-15T09:05:54.000Z</time>
      </trkpt>
      <trkpt lat="43.93949" lon="7.38272">
        <ele>1303.1999511719</ele>
        <time>2018-06-15T09:05:55.000Z</time>
      </trkpt>
      <trkpt lat="43.9395" lon="7.38265">
        <ele>1302.4000244141</ele>
        <time>2018-06-15T09:05:57.000Z</time>
      </trkpt>
      <trkpt lat="43.93954" lon="7.38257">
        <ele>1301.1999511719</ele>
        <time>2018-06-15T09:06:00.000Z</time>
      </trkpt>
      <trkpt lat="43.93955" lon="7.38254">
        <ele>1300.8000488281</ele>
        <time>2018-06-15T09:06:01.000Z</time>
      </trkpt>
      <trkpt lat="43.93954" lon="7.38244">
        <ele>1300.5999755859</ele>
        <time>2018-06-15T09:06:04.000Z</time>
      </trkpt>
      <trkpt lat="43.93954" lon="7.38239">
        <ele>1300.4000244141</ele>
        <time>2018-06-15T09:06:06.000Z</time>
      </trkpt>
      <trkpt lat="43.93953" lon="7.38236">
        <ele>1300.1999511719</ele>
        <time>2018-06-15T09:06:07.000Z</time>
      </trkpt>
      <trkpt lat="43.93954" lon="7.38228">
        <ele>1299.5999755859</ele>
        <time>2018-06-15T09:06:09.000Z</time>
      </trkpt>
      <trkpt lat="43.93955" lon="7.38224">
        <ele>1299.4000244141</ele>
        <time>2018-06-15T09:06:10.000Z</time>
      </trkpt>
      <trkpt lat="43.93955" lon="7.38221">
        <ele>1299.1999511719</ele>
        <time>2018-06-15T09:06:11.000Z</time>
      </trkpt>
      <trkpt lat="43.93956" lon="7.38218">
        <ele>1298.8000488281</ele>
        <time>2018-06-15T09:06:12.000Z</time>
      </trkpt>
      <trkpt lat="43.93959" lon="7.38211">
        <ele>1297.8000488281</ele>
        <time>2018-06-15T09:06:14.000Z</time>
      </trkpt>
      <trkpt lat="43.93961" lon="7.382">
        <ele>1296.8000488281</ele>
        <time>2018-06-15T09:06:18.000Z</time>
      </trkpt>
      <trkpt lat="43.93962" lon="7.38195">
        <ele>1296</ele>
        <time>2018-06-15T09:06:20.000Z</time>
      </trkpt>
      <trkpt lat="43.93963" lon="7.38193">
        <ele>1295.4000244141</ele>
        <time>2018-06-15T09:06:21.000Z</time>
      </trkpt>
      <trkpt lat="43.93964" lon="7.38189">
        <ele>1294.4000244141</ele>
        <time>2018-06-15T09:06:24.000Z</time>
      </trkpt>
      <trkpt lat="43.93965" lon="7.38189">
        <ele>1294.1999511719</ele>
        <time>2018-06-15T09:06:25.000Z</time>
      </trkpt>
      <trkpt lat="43.93966" lon="7.3819">
        <ele>1293.5999755859</ele>
        <time>2018-06-15T09:06:26.000Z</time>
      </trkpt>
      <trkpt lat="43.93968" lon="7.38192">
        <ele>1293.1999511719</ele>
        <time>2018-06-15T09:06:27.000Z</time>
      </trkpt>
      <trkpt lat="43.93969" lon="7.38193">
        <ele>1292.4000244141</ele>
        <time>2018-06-15T09:06:28.000Z</time>
      </trkpt>
      <trkpt lat="43.93971" lon="7.38195">
        <ele>1292</ele>
        <time>2018-06-15T09:06:29.000Z</time>
      </trkpt>
      <trkpt lat="43.93973" lon="7.38201">
        <ele>1291</ele>
        <time>2018-06-15T09:06:32.000Z</time>
      </trkpt>
      <trkpt lat="43.93975" lon="7.38203">
        <ele>1290.5999755859</ele>
        <time>2018-06-15T09:06:33.000Z</time>
      </trkpt>
      <trkpt lat="43.93977" lon="7.38207">
        <ele>1289.1999511719</ele>
        <time>2018-06-15T09:06:35.000Z</time>
      </trkpt>
      <trkpt lat="43.93979" lon="7.38212">
        <ele>1288.1999511719</ele>
        <time>2018-06-15T09:06:37.000Z</time>
      </trkpt>
      <trkpt lat="43.93981" lon="7.38214">
        <ele>1287.8000488281</ele>
        <time>2018-06-15T09:06:38.000Z</time>
      </trkpt>
      <trkpt lat="43.93983" lon="7.38215">
        <ele>1287</ele>
        <time>2018-06-15T09:06:40.000Z</time>
      </trkpt>
      <trkpt lat="43.93983" lon="7.38215">
        <ele>1286.8000488281</ele>
        <time>2018-06-15T09:06:41.000Z</time>
      </trkpt>
      <trkpt lat="43.93986" lon="7.3821">
        <ele>1283</ele>
        <time>2018-06-15T09:07:04.000Z</time>
      </trkpt>
      <trkpt lat="43.93987" lon="7.38205">
        <ele>1282</ele>
        <time>2018-06-15T09:07:06.000Z</time>
      </trkpt>
      <trkpt lat="43.93988" lon="7.38202">
        <ele>1281.5999755859</ele>
        <time>2018-06-15T09:07:07.000Z</time>
      </trkpt>
      <trkpt lat="43.93989" lon="7.38197">
        <ele>1280.5999755859</ele>
        <time>2018-06-15T09:07:10.000Z</time>
      </trkpt>
      <trkpt lat="43.93989" lon="7.38195">
        <ele>1280.1999511719</ele>
        <time>2018-06-15T09:07:11.000Z</time>
      </trkpt>
      <trkpt lat="43.9399" lon="7.38193">
        <ele>1279.4000244141</ele>
        <time>2018-06-15T09:07:14.000Z</time>
      </trkpt>
      <trkpt lat="43.93996" lon="7.38195">
        <ele>1277.8000488281</ele>
        <time>2018-06-15T09:07:24.000Z</time>
      </trkpt>
      <trkpt lat="43.93998" lon="7.38198">
        <ele>1277.4000244141</ele>
        <time>2018-06-15T09:07:26.000Z</time>
      </trkpt>
      <trkpt lat="43.94003" lon="7.38199">
        <ele>1276.4000244141</ele>
        <time>2018-06-15T09:07:29.000Z</time>
      </trkpt>
      <trkpt lat="43.94006" lon="7.38201">
        <ele>1275.4000244141</ele>
        <time>2018-06-15T09:07:30.000Z</time>
      </trkpt>
      <trkpt lat="43.9401" lon="7.38204">
        <ele>1274</ele>
        <time>2018-06-15T09:07:32.000Z</time>
      </trkpt>
      <trkpt lat="43.94016" lon="7.38208">
        <ele>1273</ele>
        <time>2018-06-15T09:07:34.000Z</time>
      </trkpt>
      <trkpt lat="43.94018" lon="7.38211">
        <ele>1272.4000244141</ele>
        <time>2018-06-15T09:07:35.000Z</time>
      </trkpt>
      <trkpt lat="43.94021" lon="7.38216">
        <ele>1272</ele>
        <time>2018-06-15T09:07:37.000Z</time>
      </trkpt>
      <trkpt lat="43.94022" lon="7.38218">
        <ele>1271.5999755859</ele>
        <time>2018-06-15T09:07:38.000Z</time>
      </trkpt>
      <trkpt lat="43.94022" lon="7.38221">
        <ele>1271.4000244141</ele>
        <time>2018-06-15T09:07:39.000Z</time>
      </trkpt>
      <trkpt lat="43.94023" lon="7.38228">
        <ele>1270.1999511719</ele>
        <time>2018-06-15T09:07:42.000Z</time>
      </trkpt>
      <trkpt lat="43.94023" lon="7.3823">
        <ele>1269.8000488281</ele>
        <time>2018-06-15T09:07:43.000Z</time>
      </trkpt>
      <trkpt lat="43.94025" lon="7.38234">
        <ele>1268.8000488281</ele>
        <time>2018-06-15T09:07:45.000Z</time>
      </trkpt>
      <trkpt lat="43.94026" lon="7.38238">
        <ele>1267.4000244141</ele>
        <time>2018-06-15T09:07:47.000Z</time>
      </trkpt>
      <trkpt lat="43.94028" lon="7.38242">
        <ele>1266.1999511719</ele>
        <time>2018-06-15T09:07:49.000Z</time>
      </trkpt>
      <trkpt lat="43.94029" lon="7.38245">
        <ele>1265.4000244141</ele>
        <time>2018-06-15T09:07:50.000Z</time>
      </trkpt>
      <trkpt lat="43.94031" lon="7.38247">
        <ele>1265</ele>
        <time>2018-06-15T09:07:51.000Z</time>
      </trkpt>
      <trkpt lat="43.94031" lon="7.3825">
        <ele>1264.4000244141</ele>
        <time>2018-06-15T09:07:52.000Z</time>
      </trkpt>
      <trkpt lat="43.94034" lon="7.38255">
        <ele>1264</ele>
        <time>2018-06-15T09:07:54.000Z</time>
      </trkpt>
      <trkpt lat="43.9404" lon="7.38263">
        <ele>1262.4000244141</ele>
        <time>2018-06-15T09:07:57.000Z</time>
      </trkpt>
      <trkpt lat="43.94046" lon="7.38273">
        <ele>1261.4000244141</ele>
        <time>2018-06-15T09:08:00.000Z</time>
      </trkpt>
      <trkpt lat="43.94048" lon="7.38279">
        <ele>1260.5999755859</ele>
        <time>2018-06-15T09:08:02.000Z</time>
      </trkpt>
      <trkpt lat="43.94049" lon="7.38281">
        <ele>1260.1999511719</ele>
        <time>2018-06-15T09:08:03.000Z</time>
      </trkpt>
      <trkpt lat="43.94051" lon="7.38285">
        <ele>1259</ele>
        <time>2018-06-15T09:08:05.000Z</time>
      </trkpt>
      <trkpt lat="43.94051" lon="7.38287">
        <ele>1258.8000488281</ele>
        <time>2018-06-15T09:08:06.000Z</time>
      </trkpt>
      <trkpt lat="43.94052" lon="7.38291">
        <ele>1257.8000488281</ele>
        <time>2018-06-15T09:08:08.000Z</time>
      </trkpt>
      <trkpt lat="43.94055" lon="7.38295">
        <ele>1257</ele>
        <time>2018-06-15T09:08:10.000Z</time>
      </trkpt>
      <trkpt lat="43.94056" lon="7.38297">
        <ele>1256.5999755859</ele>
        <time>2018-06-15T09:08:11.000Z</time>
      </trkpt>
      <trkpt lat="43.9406" lon="7.383">
        <ele>1255.5999755859</ele>
        <time>2018-06-15T09:08:13.000Z</time>
      </trkpt>
      <trkpt lat="43.94065" lon="7.38303">
        <ele>1254.8000488281</ele>
        <time>2018-06-15T09:08:15.000Z</time>
      </trkpt>
      <trkpt lat="43.94066" lon="7.38306">
        <ele>1254.5999755859</ele>
        <time>2018-06-15T09:08:16.000Z</time>
      </trkpt>
      <trkpt lat="43.94068" lon="7.38309">
        <ele>1254.4000244141</ele>
        <time>2018-06-15T09:08:17.000Z</time>
      </trkpt>
      <trkpt lat="43.94071" lon="7.38316">
        <ele>1253.5999755859</ele>
        <time>2018-06-15T09:08:19.000Z</time>
      </trkpt>
      <trkpt lat="43.94072" lon="7.38319">
        <ele>1253.1999511719</ele>
        <time>2018-06-15T09:08:20.000Z</time>
      </trkpt>
      <trkpt lat="43.94075" lon="7.38327">
        <ele>1251.5999755859</ele>
        <time>2018-06-15T09:08:23.000Z</time>
      </trkpt>
      <trkpt lat="43.94078" lon="7.38332">
        <ele>1251</ele>
        <time>2018-06-15T09:08:25.000Z</time>
      </trkpt>
      <trkpt lat="43.94079" lon="7.38334">
        <ele>1250.5999755859</ele>
        <time>2018-06-15T09:08:26.000Z</time>
      </trkpt>
      <trkpt lat="43.9408" lon="7.38338">
        <ele>1249.1999511719</ele>
        <time>2018-06-15T09:08:28.000Z</time>
      </trkpt>
      <trkpt lat="43.9408" lon="7.38341">
        <ele>1248.4000244141</ele>
        <time>2018-06-15T09:08:29.000Z</time>
      </trkpt>
      <trkpt lat="43.94081" lon="7.38343">
        <ele>1247.5999755859</ele>
        <time>2018-06-15T09:08:30.000Z</time>
      </trkpt>
      <trkpt lat="43.94082" lon="7.38349">
        <ele>1246.4000244141</ele>
        <time>2018-06-15T09:08:32.000Z</time>
      </trkpt>
      <trkpt lat="43.94082" lon="7.38352">
        <ele>1245.8000488281</ele>
        <time>2018-06-15T09:08:33.000Z</time>
      </trkpt>
      <trkpt lat="43.94083" lon="7.38355">
        <ele>1245</ele>
        <time>2018-06-15T09:08:34.000Z</time>
      </trkpt>
      <trkpt lat="43.94086" lon="7.38361">
        <ele>1244</ele>
        <time>2018-06-15T09:08:37.000Z</time>
      </trkpt>
      <trkpt lat="43.94092" lon="7.38363">
        <ele>1242.5999755859</ele>
        <time>2018-06-15T09:08:41.000Z</time>
      </trkpt>
      <trkpt lat="43.94094" lon="7.3836">
        <ele>1241</ele>
        <time>2018-06-15T09:08:45.000Z</time>
      </trkpt>
      <trkpt lat="43.94095" lon="7.3836">
        <ele>1240.8000488281</ele>
        <time>2018-06-15T09:08:46.000Z</time>
      </trkpt>
      <trkpt lat="43.94094" lon="7.3836">
        <ele>1240.4000244141</ele>
        <time>2018-06-15T09:08:47.000Z</time>
      </trkpt>
      <trkpt lat="43.941" lon="7.3836">
        <ele>1233</ele>
        <time>2018-06-15T09:09:09.000Z</time>
      </trkpt>
      <trkpt lat="43.94102" lon="7.38358">
        <ele>1232.1999511719</ele>
        <time>2018-06-15T09:09:11.000Z</time>
      </trkpt>
      <trkpt lat="43.94103" lon="7.38358">
        <ele>1232.1999511719</ele>
        <time>2018-06-15T09:09:12.000Z</time>
      </trkpt>
      <trkpt lat="43.94104" lon="7.38357">
        <ele>1232</ele>
        <time>2018-06-15T09:09:13.000Z</time>
      </trkpt>
      <trkpt lat="43.94105" lon="7.38356">
        <ele>1231.5999755859</ele>
        <time>2018-06-15T09:09:14.000Z</time>
      </trkpt>
      <trkpt lat="43.94104" lon="7.38355">
        <ele>1231.1999511719</ele>
        <time>2018-06-15T09:09:15.000Z</time>
      </trkpt>
      <trkpt lat="43.94104" lon="7.38353">
        <ele>1230.8000488281</ele>
        <time>2018-06-15T09:09:16.000Z</time>
      </trkpt>
      <trkpt lat="43.94105" lon="7.38353">
        <ele>1230.4000244141</ele>
        <time>2018-06-15T09:09:17.000Z</time>
      </trkpt>
      <trkpt lat="43.94106" lon="7.38352">
        <ele>1229.5999755859</ele>
        <time>2018-06-15T09:09:20.000Z</time>
      </trkpt>
      <trkpt lat="43.94131" lon="7.38324">
        <ele>1210.8000488281</ele>
        <time>2018-06-15T09:10:42.000Z</time>
      </trkpt>
      <trkpt lat="43.94131" lon="7.38316">
        <ele>1210</ele>
        <time>2018-06-15T09:10:46.000Z</time>
      </trkpt>
      <trkpt lat="43.94129" lon="7.38306">
        <ele>1210</ele>
        <time>2018-06-15T09:10:50.000Z</time>
      </trkpt>
      <trkpt lat="43.94128" lon="7.38302">
        <ele>1209.8000488281</ele>
        <time>2018-06-15T09:10:52.000Z</time>
      </trkpt>
      <trkpt lat="43.94128" lon="7.38303">
        <ele>1209.5999755859</ele>
        <time>2018-06-15T09:10:53.000Z</time>
      </trkpt>
      <trkpt lat="43.94123" lon="7.38285">
        <ele>1205</ele>
        <time>2018-06-15T09:13:13.000Z</time>
      </trkpt>
      <trkpt lat="43.94122" lon="7.3828">
        <ele>1205.4000244141</ele>
        <time>2018-06-15T09:13:18.000Z</time>
      </trkpt>
      <trkpt lat="43.94123" lon="7.38275">
        <ele>1204.8000488281</ele>
        <time>2018-06-15T09:13:23.000Z</time>
      </trkpt>
      <trkpt lat="43.94123" lon="7.38275">
        <ele>1204.5999755859</ele>
        <time>2018-06-15T09:13:24.000Z</time>
      </trkpt>
      <trkpt lat="43.94128" lon="7.38275">
        <ele>1205.1999511719</ele>
        <time>2018-06-15T09:13:33.000Z</time>
      </trkpt>
      <trkpt lat="43.9413" lon="7.38278">
        <ele>1205.1999511719</ele>
        <time>2018-06-15T09:13:35.000Z</time>
      </trkpt>
      <trkpt lat="43.94136" lon="7.38283">
        <ele>1205.4000244141</ele>
        <time>2018-06-15T09:13:39.000Z</time>
      </trkpt>
      <trkpt lat="43.94137" lon="7.38285">
        <ele>1205.4000244141</ele>
        <time>2018-06-15T09:13:40.000Z</time>
      </trkpt>
      <trkpt lat="43.94138" lon="7.38286">
        <ele>1205.1999511719</ele>
        <time>2018-06-15T09:13:41.000Z</time>
      </trkpt>
      <trkpt lat="43.94138" lon="7.38287">
        <ele>1204.8000488281</ele>
        <time>2018-06-15T09:13:43.000Z</time>
      </trkpt>
      <trkpt lat="43.94142" lon="7.3829">
        <ele>1204.1999511719</ele>
        <time>2018-06-15T09:13:52.000Z</time>
      </trkpt>
      <trkpt lat="43.94143" lon="7.38291">
        <ele>1204.4000244141</ele>
        <time>2018-06-15T09:13:54.000Z</time>
      </trkpt>
      <trkpt lat="43.94147" lon="7.38293">
        <ele>1204</ele>
        <time>2018-06-15T09:13:59.000Z</time>
      </trkpt>
      <trkpt lat="43.94149" lon="7.38294">
        <ele>1203.8000488281</ele>
        <time>2018-06-15T09:14:00.000Z</time>
      </trkpt>
      <trkpt lat="43.94156" lon="7.38302">
        <ele>1203</ele>
        <time>2018-06-15T09:14:03.000Z</time>
      </trkpt>
      <trkpt lat="43.94157" lon="7.38305">
        <ele>1202.8000488281</ele>
        <time>2018-06-15T09:14:04.000Z</time>
      </trkpt>
      <trkpt lat="43.94158" lon="7.38307">
        <ele>1202.4000244141</ele>
        <time>2018-06-15T09:14:05.000Z</time>
      </trkpt>
      <trkpt lat="43.94158" lon="7.38308">
        <ele>1202</ele>
        <time>2018-06-15T09:14:06.000Z</time>
      </trkpt>
      <trkpt lat="43.94159" lon="7.3831">
        <ele>1201.5999755859</ele>
        <time>2018-06-15T09:14:07.000Z</time>
      </trkpt>
      <trkpt lat="43.9416" lon="7.38313">
        <ele>1201.1999511719</ele>
        <time>2018-06-15T09:14:09.000Z</time>
      </trkpt>
      <trkpt lat="43.9416" lon="7.38319">
        <ele>1200.4000244141</ele>
        <time>2018-06-15T09:14:12.000Z</time>
      </trkpt>
      <trkpt lat="43.9416" lon="7.3832">
        <ele>1200.1999511719</ele>
        <time>2018-06-15T09:14:13.000Z</time>
      </trkpt>
      <trkpt lat="43.94161" lon="7.38321">
        <ele>1200</ele>
        <time>2018-06-15T09:14:15.000Z</time>
      </trkpt>
      <trkpt lat="43.94161" lon="7.38318">
        <ele>1199</ele>
        <time>2018-06-15T09:14:27.000Z</time>
      </trkpt>
      <trkpt lat="43.94163" lon="7.38307">
        <ele>1197.8000488281</ele>
        <time>2018-06-15T09:14:31.000Z</time>
      </trkpt>
      <trkpt lat="43.94164" lon="7.38303">
        <ele>1197.5999755859</ele>
        <time>2018-06-15T09:14:32.000Z</time>
      </trkpt>
      <trkpt lat="43.94161" lon="7.38297">
        <ele>1197.4000244141</ele>
        <time>2018-06-15T09:14:36.000Z</time>
      </trkpt>
      <trkpt lat="43.9416" lon="7.38295">
        <ele>1197.1999511719</ele>
        <time>2018-06-15T09:14:38.000Z</time>
      </trkpt>
      <trkpt lat="43.9416" lon="7.38295">
        <ele>1197.1999511719</ele>
        <time>2018-06-15T09:14:39.000Z</time>
      </trkpt>
      <trkpt lat="43.94157" lon="7.38288">
        <ele>1196.4000244141</ele>
        <time>2018-06-15T09:14:44.000Z</time>
      </trkpt>
      <trkpt lat="43.94154" lon="7.38279">
        <ele>1196.1999511719</ele>
        <time>2018-06-15T09:14:47.000Z</time>
      </trkpt>
      <trkpt lat="43.94146" lon="7.38268">
        <ele>1196</ele>
        <time>2018-06-15T09:14:51.000Z</time>
      </trkpt>
      <trkpt lat="43.94144" lon="7.38263">
        <ele>1196</ele>
        <time>2018-06-15T09:14:52.000Z</time>
      </trkpt>
      <trkpt lat="43.94142" lon="7.38257">
        <ele>1196</ele>
        <time>2018-06-15T09:14:53.000Z</time>
      </trkpt>
      <trkpt lat="43.9414" lon="7.38245">
        <ele>1195.4000244141</ele>
        <time>2018-06-15T09:14:55.000Z</time>
      </trkpt>
      <trkpt lat="43.94138" lon="7.38233">
        <ele>1195.5999755859</ele>
        <time>2018-06-15T09:14:59.000Z</time>
      </trkpt>
      <trkpt lat="43.94138" lon="7.38231">
        <ele>1196</ele>
        <time>2018-06-15T09:15:00.000Z</time>
      </trkpt>
      <trkpt lat="43.94137" lon="7.3823">
        <ele>1196.5999755859</ele>
        <time>2018-06-15T09:15:02.000Z</time>
      </trkpt>
      <trkpt lat="43.94144" lon="7.38215">
        <ele>1200.1999511719</ele>
        <time>2018-06-15T09:16:10.000Z</time>
      </trkpt>
      <trkpt lat="43.94147" lon="7.38221">
        <ele>1198.5999755859</ele>
        <time>2018-06-15T09:16:14.000Z</time>
      </trkpt>
      <trkpt lat="43.94148" lon="7.38222">
        <ele>1198</ele>
        <time>2018-06-15T09:16:15.000Z</time>
      </trkpt>
      <trkpt lat="43.9415" lon="7.38222">
        <ele>1197.5999755859</ele>
        <time>2018-06-15T09:16:16.000Z</time>
      </trkpt>
      <trkpt lat="43.94152" lon="7.38221">
        <ele>1196.8000488281</ele>
        <time>2018-06-15T09:16:18.000Z</time>
      </trkpt>
      <trkpt lat="43.94153" lon="7.38219">
        <ele>1196.1999511719</ele>
        <time>2018-06-15T09:16:19.000Z</time>
      </trkpt>
      <trkpt lat="43.94152" lon="7.38216">
        <ele>1195.8000488281</ele>
        <time>2018-06-15T09:16:21.000Z</time>
      </trkpt>
      <trkpt lat="43.94151" lon="7.38215">
        <ele>1195.1999511719</ele>
        <time>2018-06-15T09:16:23.000Z</time>
      </trkpt>
      <trkpt lat="43.94151" lon="7.38215">
        <ele>1195.1999511719</ele>
        <time>2018-06-15T09:16:24.000Z</time>
      </trkpt>
      <trkpt lat="43.94153" lon="7.38217">
        <ele>1194.4000244141</ele>
        <time>2018-06-15T09:16:32.000Z</time>
      </trkpt>
      <trkpt lat="43.94155" lon="7.3822">
        <ele>1194</ele>
        <time>2018-06-15T09:16:34.000Z</time>
      </trkpt>
      <trkpt lat="43.94156" lon="7.38226">
        <ele>1192.8000488281</ele>
        <time>2018-06-15T09:16:37.000Z</time>
      </trkpt>
      <trkpt lat="43.94158" lon="7.38228">
        <ele>1192.1999511719</ele>
        <time>2018-06-15T09:16:39.000Z</time>
      </trkpt>
      <trkpt lat="43.9416" lon="7.3823">
        <ele>1191.5999755859</ele>
        <time>2018-06-15T09:16:40.000Z</time>
      </trkpt>
      <trkpt lat="43.94164" lon="7.38232">
        <ele>1190.4000244141</ele>
        <time>2018-06-15T09:16:42.000Z</time>
      </trkpt>
      <trkpt lat="43.94166" lon="7.38234">
        <ele>1190</ele>
        <time>2018-06-15T09:16:43.000Z</time>
      </trkpt>
      <trkpt lat="43.94168" lon="7.38236">
        <ele>1189.4000244141</ele>
        <time>2018-06-15T09:16:44.000Z</time>
      </trkpt>
      <trkpt lat="43.94171" lon="7.38235">
        <ele>1188.1999511719</ele>
        <time>2018-06-15T09:16:46.000Z</time>
      </trkpt>
      <trkpt lat="43.94173" lon="7.38235">
        <ele>1187.5999755859</ele>
        <time>2018-06-15T09:16:47.000Z</time>
      </trkpt>
      <trkpt lat="43.94174" lon="7.38234">
        <ele>1186.8000488281</ele>
        <time>2018-06-15T09:16:48.000Z</time>
      </trkpt>
      <trkpt lat="43.94177" lon="7.38234">
        <ele>1185.5999755859</ele>
        <time>2018-06-15T09:16:50.000Z</time>
      </trkpt>
      <trkpt lat="43.94178" lon="7.38233">
        <ele>1185.1999511719</ele>
        <time>2018-06-15T09:16:51.000Z</time>
      </trkpt>
      <trkpt lat="43.94179" lon="7.38233">
        <ele>1184.5999755859</ele>
        <time>2018-06-15T09:16:52.000Z</time>
      </trkpt>
      <trkpt lat="43.9418" lon="7.38231">
        <ele>1183.5999755859</ele>
        <time>2018-06-15T09:16:55.000Z</time>
      </trkpt>
      <trkpt lat="43.94192" lon="7.38237">
        <ele>1174.8000488281</ele>
        <time>2018-06-15T09:17:18.000Z</time>
      </trkpt>
      <trkpt lat="43.94195" lon="7.38241">
        <ele>1173.1999511719</ele>
        <time>2018-06-15T09:17:20.000Z</time>
      </trkpt>
      <trkpt lat="43.94197" lon="7.38242">
        <ele>1171.8000488281</ele>
        <time>2018-06-15T09:17:21.000Z</time>
      </trkpt>
      <trkpt lat="43.94198" lon="7.38244">
        <ele>1170.8000488281</ele>
        <time>2018-06-15T09:17:22.000Z</time>
      </trkpt>
      <trkpt lat="43.94199" lon="7.38246">
        <ele>1169.8000488281</ele>
        <time>2018-06-15T09:17:23.000Z</time>
      </trkpt>
      <trkpt lat="43.94201" lon="7.38249">
        <ele>1168.5999755859</ele>
        <time>2018-06-15T09:17:24.000Z</time>
      </trkpt>
      <trkpt lat="43.94202" lon="7.38251">
        <ele>1168.1999511719</ele>
        <time>2018-06-15T09:17:25.000Z</time>
      </trkpt>
      <trkpt lat="43.94204" lon="7.38252">
        <ele>1167.5999755859</ele>
        <time>2018-06-15T09:17:26.000Z</time>
      </trkpt>
      <trkpt lat="43.94206" lon="7.38255">
        <ele>1166.8000488281</ele>
        <time>2018-06-15T09:17:27.000Z</time>
      </trkpt>
      <trkpt lat="43.94208" lon="7.38256">
        <ele>1166.4000244141</ele>
        <time>2018-06-15T09:17:28.000Z</time>
      </trkpt>
      <trkpt lat="43.94209" lon="7.3826">
        <ele>1165</ele>
        <time>2018-06-15T09:17:30.000Z</time>
      </trkpt>
      <trkpt lat="43.94213" lon="7.38265">
        <ele>1164</ele>
        <time>2018-06-15T09:17:32.000Z</time>
      </trkpt>
      <trkpt lat="43.94219" lon="7.38271">
        <ele>1162.5999755859</ele>
        <time>2018-06-15T09:17:34.000Z</time>
      </trkpt>
      <trkpt lat="43.94225" lon="7.38277">
        <ele>1161.4000244141</ele>
        <time>2018-06-15T09:17:36.000Z</time>
      </trkpt>
      <trkpt lat="43.94227" lon="7.38279">
        <ele>1160.4000244141</ele>
        <time>2018-06-15T09:17:37.000Z</time>
      </trkpt>
      <trkpt lat="43.94229" lon="7.38282">
        <ele>1159.8000488281</ele>
        <time>2018-06-15T09:17:38.000Z</time>
      </trkpt>
      <trkpt lat="43.94231" lon="7.38286">
        <ele>1158.5999755859</ele>
        <time>2018-06-15T09:17:40.000Z</time>
      </trkpt>
      <trkpt lat="43.94233" lon="7.38288">
        <ele>1158</ele>
        <time>2018-06-15T09:17:41.000Z</time>
      </trkpt>
      <trkpt lat="43.94234" lon="7.3829">
        <ele>1157.4000244141</ele>
        <time>2018-06-15T09:17:42.000Z</time>
      </trkpt>
      <trkpt lat="43.94236" lon="7.38293">
        <ele>1156.4000244141</ele>
        <time>2018-06-15T09:17:44.000Z</time>
      </trkpt>
      <trkpt lat="43.94237" lon="7.38294">
        <ele>1155.8000488281</ele>
        <time>2018-06-15T09:17:45.000Z</time>
      </trkpt>
      <trkpt lat="43.94238" lon="7.38294">
        <ele>1155.1999511719</ele>
        <time>2018-06-15T09:17:47.000Z</time>
      </trkpt>
      <trkpt lat="43.94244" lon="7.38298">
        <ele>1140</ele>
        <time>2018-06-15T09:19:28.000Z</time>
      </trkpt>
      <trkpt lat="43.94244" lon="7.38296">
        <ele>1140</ele>
        <time>2018-06-15T09:19:29.000Z</time>
      </trkpt>
      <trkpt lat="43.94242" lon="7.38287">
        <ele>1139.8000488281</ele>
        <time>2018-06-15T09:19:33.000Z</time>
      </trkpt>
      <trkpt lat="43.94241" lon="7.38284">
        <ele>1139.8000488281</ele>
        <time>2018-06-15T09:19:34.000Z</time>
      </trkpt>
      <trkpt lat="43.94239" lon="7.38271">
        <ele>1139.4000244141</ele>
        <time>2018-06-15T09:19:38.000Z</time>
      </trkpt>
      <trkpt lat="43.94238" lon="7.38263">
        <ele>1139</ele>
        <time>2018-06-15T09:19:41.000Z</time>
      </trkpt>
      <trkpt lat="43.94237" lon="7.38262">
        <ele>1139</ele>
        <time>2018-06-15T09:19:42.000Z</time>
      </trkpt>
      <trkpt lat="43.94237" lon="7.3826">
        <ele>1139.1999511719</ele>
        <time>2018-06-15T09:19:43.000Z</time>
      </trkpt>
      <trkpt lat="43.94235" lon="7.38257">
        <ele>1139.5999755859</ele>
        <time>2018-06-15T09:19:45.000Z</time>
      </trkpt>
      <trkpt lat="43.94233" lon="7.38256">
        <ele>1139.8000488281</ele>
        <time>2018-06-15T09:19:46.000Z</time>
      </trkpt>
      <trkpt lat="43.94234" lon="7.38256">
        <ele>1140.1999511719</ele>
        <time>2018-06-15T09:19:47.000Z</time>
      </trkpt>
      <trkpt lat="43.94233" lon="7.38243">
        <ele>1151.5999755859</ele>
        <time>2018-06-15T09:20:35.000Z</time>
      </trkpt>
      <trkpt lat="43.94234" lon="7.38242">
        <ele>1151.8000488281</ele>
        <time>2018-06-15T09:20:36.000Z</time>
      </trkpt>
      <trkpt lat="43.94242" lon="7.3824">
        <ele>1151.1999511719</ele>
        <time>2018-06-15T09:20:40.000Z</time>
      </trkpt>
      <trkpt lat="43.94251" lon="7.38242">
        <ele>1150.8000488281</ele>
        <time>2018-06-15T09:20:45.000Z</time>
      </trkpt>
      <trkpt lat="43.94255" lon="7.38241">
        <ele>1150.4000244141</ele>
        <time>2018-06-15T09:20:47.000Z</time>
      </trkpt>
      <trkpt lat="43.94257" lon="7.38239">
        <ele>1149.5999755859</ele>
        <time>2018-06-15T09:20:48.000Z</time>
      </trkpt>
      <trkpt lat="43.94259" lon="7.38236">
        <ele>1149.1999511719</ele>
        <time>2018-06-15T09:20:50.000Z</time>
      </trkpt>
      <trkpt lat="43.94258" lon="7.38233">
        <ele>1148.5999755859</ele>
        <time>2018-06-15T09:20:52.000Z</time>
      </trkpt>
      <trkpt lat="43.94258" lon="7.38231">
        <ele>1147.8000488281</ele>
        <time>2018-06-15T09:20:53.000Z</time>
      </trkpt>
      <trkpt lat="43.94259" lon="7.38228">
        <ele>1147.4000244141</ele>
        <time>2018-06-15T09:20:54.000Z</time>
      </trkpt>
      <trkpt lat="43.9426" lon="7.38223">
        <ele>1146.8000488281</ele>
        <time>2018-06-15T09:20:56.000Z</time>
      </trkpt>
      <trkpt lat="43.94263" lon="7.38216">
        <ele>1145.5999755859</ele>
        <time>2018-06-15T09:20:59.000Z</time>
      </trkpt>
      <trkpt lat="43.94264" lon="7.38213">
        <ele>1145.1999511719</ele>
        <time>2018-06-15T09:21:00.000Z</time>
      </trkpt>
      <trkpt lat="43.94263" lon="7.3821">
        <ele>1144.5999755859</ele>
        <time>2018-06-15T09:21:01.000Z</time>
      </trkpt>
      <trkpt lat="43.94264" lon="7.38205">
        <ele>1144</ele>
        <time>2018-06-15T09:21:03.000Z</time>
      </trkpt>
      <trkpt lat="43.94264" lon="7.38202">
        <ele>1143.5999755859</ele>
        <time>2018-06-15T09:21:04.000Z</time>
      </trkpt>
      <trkpt lat="43.94266" lon="7.38195">
        <ele>1143.4000244141</ele>
        <time>2018-06-15T09:21:07.000Z</time>
      </trkpt>
      <trkpt lat="43.94269" lon="7.3819">
        <ele>1142.5999755859</ele>
        <time>2018-06-15T09:21:09.000Z</time>
      </trkpt>
      <trkpt lat="43.94271" lon="7.38178">
        <ele>1142.5999755859</ele>
        <time>2018-06-15T09:21:14.000Z</time>
      </trkpt>
      <trkpt lat="43.94271" lon="7.38167">
        <ele>1142.5999755859</ele>
        <time>2018-06-15T09:21:18.000Z</time>
      </trkpt>
      <trkpt lat="43.94271" lon="7.38162">
        <ele>1143</ele>
        <time>2018-06-15T09:21:20.000Z</time>
      </trkpt>
      <trkpt lat="43.94272" lon="7.38153">
        <ele>1142.8000488281</ele>
        <time>2018-06-15T09:21:24.000Z</time>
      </trkpt>
      <trkpt lat="43.94273" lon="7.38152">
        <ele>1142.5999755859</ele>
        <time>2018-06-15T09:21:26.000Z</time>
      </trkpt>
      <trkpt lat="43.94285" lon="7.38128">
        <ele>1143.5999755859</ele>
        <time>2018-06-15T09:21:56.000Z</time>
      </trkpt>
      <trkpt lat="43.94286" lon="7.38126">
        <ele>1143.5999755859</ele>
        <time>2018-06-15T09:21:57.000Z</time>
      </trkpt>
      <trkpt lat="43.94286" lon="7.38116">
        <ele>1144.1999511719</ele>
        <time>2018-06-15T09:22:01.000Z</time>
      </trkpt>
      <trkpt lat="43.94288" lon="7.38109">
        <ele>1145</ele>
        <time>2018-06-15T09:22:04.000Z</time>
      </trkpt>
      <trkpt lat="43.94288" lon="7.38108">
        <ele>1145.5999755859</ele>
        <time>2018-06-15T09:22:06.000Z</time>
      </trkpt>
      <trkpt lat="43.94282" lon="7.38063">
        <ele>1154</ele>
        <time>2018-06-15T09:23:41.000Z</time>
      </trkpt>
      <trkpt lat="43.94282" lon="7.38058">
        <ele>1154.1999511719</ele>
        <time>2018-06-15T09:23:43.000Z</time>
      </trkpt>
      <trkpt lat="43.94282" lon="7.38059">
        <ele>1154.1999511719</ele>
        <time>2018-06-15T09:23:44.000Z</time>
      </trkpt>
      <trkpt lat="43.94279" lon="7.38025">
        <ele>1159.1999511719</ele>
        <time>2018-06-15T09:24:29.000Z</time>
      </trkpt>
      <trkpt lat="43.9428" lon="7.38023">
        <ele>1159.5999755859</ele>
        <time>2018-06-15T09:24:30.000Z</time>
      </trkpt>
      <trkpt lat="43.94279" lon="7.38018">
        <ele>1160.4000244141</ele>
        <time>2018-06-15T09:24:32.000Z</time>
      </trkpt>
      <trkpt lat="43.94279" lon="7.38014">
        <ele>1161</ele>
        <time>2018-06-15T09:24:34.000Z</time>
      </trkpt>
      <trkpt lat="43.94279" lon="7.38013">
        <ele>1161.4000244141</ele>
        <time>2018-06-15T09:24:35.000Z</time>
      </trkpt>
      <trkpt lat="43.94276" lon="7.38008">
        <ele>1162.8000488281</ele>
        <time>2018-06-15T09:24:38.000Z</time>
      </trkpt>
      <trkpt lat="43.94275" lon="7.38007">
        <ele>1163.1999511719</ele>
        <time>2018-06-15T09:24:39.000Z</time>
      </trkpt>
      <trkpt lat="43.94275" lon="7.38005">
        <ele>1163.4000244141</ele>
        <time>2018-06-15T09:24:40.000Z</time>
      </trkpt>
      <trkpt lat="43.94275" lon="7.38003">
        <ele>1163.8000488281</ele>
        <time>2018-06-15T09:24:42.000Z</time>
      </trkpt>
      <trkpt lat="43.94274" lon="7.38003">
        <ele>1164</ele>
        <time>2018-06-15T09:24:43.000Z</time>
      </trkpt>
      <trkpt lat="43.94274" lon="7.38003">
        <ele>1164.1999511719</ele>
        <time>2018-06-15T09:24:44.000Z</time>
      </trkpt>
      <trkpt lat="43.94276" lon="7.37988">
        <ele>1168.1999511719</ele>
        <time>2018-06-15T09:25:01.000Z</time>
      </trkpt>
      <trkpt lat="43.94277" lon="7.37984">
        <ele>1168.5999755859</ele>
        <time>2018-06-15T09:25:03.000Z</time>
      </trkpt>
      <trkpt lat="43.94279" lon="7.3798">
        <ele>1169</ele>
        <time>2018-06-15T09:25:05.000Z</time>
      </trkpt>
      <trkpt lat="43.9428" lon="7.3798">
        <ele>1169.1999511719</ele>
        <time>2018-06-15T09:25:06.000Z</time>
      </trkpt>
      <trkpt lat="43.94281" lon="7.3798">
        <ele>1169.5999755859</ele>
        <time>2018-06-15T09:25:07.000Z</time>
      </trkpt>
      <trkpt lat="43.94284" lon="7.37979">
        <ele>1169.8000488281</ele>
        <time>2018-06-15T09:25:09.000Z</time>
      </trkpt>
      <trkpt lat="43.94286" lon="7.37977">
        <ele>1170.1999511719</ele>
        <time>2018-06-15T09:25:11.000Z</time>
      </trkpt>
      <trkpt lat="43.94287" lon="7.37976">
        <ele>1170.4000244141</ele>
        <time>2018-06-15T09:25:12.000Z</time>
      </trkpt>
      <trkpt lat="43.94289" lon="7.3797">
        <ele>1169.8000488281</ele>
        <time>2018-06-15T09:25:14.000Z</time>
      </trkpt>
      <trkpt lat="43.9429" lon="7.37964">
        <ele>1170.1999511719</ele>
        <time>2018-06-15T09:25:16.000Z</time>
      </trkpt>
      <trkpt lat="43.94296" lon="7.37947">
        <ele>1170.4000244141</ele>
        <time>2018-06-15T09:25:20.000Z</time>
      </trkpt>
      <trkpt lat="43.94297" lon="7.37935">
        <ele>1170.4000244141</ele>
        <time>2018-06-15T09:25:24.000Z</time>
      </trkpt>
      <trkpt lat="43.94298" lon="7.37932">
        <ele>1170.4000244141</ele>
        <time>2018-06-15T09:25:25.000Z</time>
      </trkpt>
      <trkpt lat="43.94296" lon="7.37926">
        <ele>1170.1999511719</ele>
        <time>2018-06-15T09:25:30.000Z</time>
      </trkpt>
      <trkpt lat="43.94331" lon="7.37956">
        <ele>1187.5999755859</ele>
        <time>2018-06-15T09:31:27.000Z</time>
      </trkpt>
      <trkpt lat="43.94335" lon="7.37962">
        <ele>1187.5999755859</ele>
        <time>2018-06-15T09:31:30.000Z</time>
      </trkpt>
      <trkpt lat="43.94336" lon="7.37967">
        <ele>1187.5999755859</ele>
        <time>2018-06-15T09:31:33.000Z</time>
      </trkpt>
      <trkpt lat="43.94336" lon="7.37972">
        <ele>1188</ele>
        <time>2018-06-15T09:31:35.000Z</time>
      </trkpt>
      <trkpt lat="43.94336" lon="7.37975">
        <ele>1188.1999511719</ele>
        <time>2018-06-15T09:31:36.000Z</time>
      </trkpt>
      <trkpt lat="43.94336" lon="7.37979">
        <ele>1188.5999755859</ele>
        <time>2018-06-15T09:31:39.000Z</time>
      </trkpt>
      <trkpt lat="43.94337" lon="7.3799">
        <ele>1193.4000244141</ele>
        <time>2018-06-15T09:32:06.000Z</time>
      </trkpt>
      <trkpt lat="43.94338" lon="7.37991">
        <ele>1193.5999755859</ele>
        <time>2018-06-15T09:32:09.000Z</time>
      </trkpt>
      <trkpt lat="43.94348" lon="7.38007">
        <ele>1191.1999511719</ele>
        <time>2018-06-15T09:32:49.000Z</time>
      </trkpt>
      <trkpt lat="43.94355" lon="7.38018">
        <ele>1192.1999511719</ele>
        <time>2018-06-15T09:32:56.000Z</time>
      </trkpt>
      <trkpt lat="43.94356" lon="7.38019">
        <ele>1192.4000244141</ele>
        <time>2018-06-15T09:32:57.000Z</time>
      </trkpt>
      <trkpt lat="43.94355" lon="7.38018">
        <ele>1192.8000488281</ele>
        <time>2018-06-15T09:32:59.000Z</time>
      </trkpt>
      <trkpt lat="43.94354" lon="7.37997">
        <ele>1195</ele>
        <time>2018-06-15T09:34:18.000Z</time>
      </trkpt>
      <trkpt lat="43.94354" lon="7.37995">
        <ele>1195</ele>
        <time>2018-06-15T09:34:19.000Z</time>
      </trkpt>
      <trkpt lat="43.94356" lon="7.37982">
        <ele>1195.5999755859</ele>
        <time>2018-06-15T09:34:23.000Z</time>
      </trkpt>
      <trkpt lat="43.94358" lon="7.37976">
        <ele>1196</ele>
        <time>2018-06-15T09:34:26.000Z</time>
      </trkpt>
      <trkpt lat="43.94361" lon="7.3797">
        <ele>1196</ele>
        <time>2018-06-15T09:34:28.000Z</time>
      </trkpt>
      <trkpt lat="43.94362" lon="7.37969">
        <ele>1196.4000244141</ele>
        <time>2018-06-15T09:34:29.000Z</time>
      </trkpt>
      <trkpt lat="43.94365" lon="7.37957">
        <ele>1197</ele>
        <time>2018-06-15T09:34:34.000Z</time>
      </trkpt>
      <trkpt lat="43.94366" lon="7.37941">
        <ele>1197.5999755859</ele>
        <time>2018-06-15T09:34:41.000Z</time>
      </trkpt>
      <trkpt lat="43.94365" lon="7.37939">
        <ele>1197.5999755859</ele>
        <time>2018-06-15T09:34:42.000Z</time>
      </trkpt>
      <trkpt lat="43.94364" lon="7.37938">
        <ele>1198</ele>
        <time>2018-06-15T09:34:43.000Z</time>
      </trkpt>
      <trkpt lat="43.9436" lon="7.37929">
        <ele>1199</ele>
        <time>2018-06-15T09:34:47.000Z</time>
      </trkpt>
      <trkpt lat="43.94358" lon="7.37913">
        <ele>1199.8000488281</ele>
        <time>2018-06-15T09:34:53.000Z</time>
      </trkpt>
      <trkpt lat="43.94359" lon="7.37907">
        <ele>1200.1999511719</ele>
        <time>2018-06-15T09:34:55.000Z</time>
      </trkpt>
      <trkpt lat="43.94357" lon="7.37899">
        <ele>1200.5999755859</ele>
        <time>2018-06-15T09:34:58.000Z</time>
      </trkpt>
      <trkpt lat="43.94358" lon="7.37887">
        <ele>1201.4000244141</ele>
        <time>2018-06-15T09:35:04.000Z</time>
      </trkpt>
      <trkpt lat="43.94358" lon="7.37885">
        <ele>1201.4000244141</ele>
        <time>2018-06-15T09:35:05.000Z</time>
      </trkpt>
      <trkpt lat="43.94358" lon="7.37885">
        <ele>1201.5999755859</ele>
        <time>2018-06-15T09:35:07.000Z</time>
      </trkpt>
      <trkpt lat="43.94363" lon="7.37892">
        <ele>1202.4000244141</ele>
        <time>2018-06-15T09:35:24.000Z</time>
      </trkpt>
      <trkpt lat="43.94364" lon="7.37894">
        <ele>1202.5999755859</ele>
        <time>2018-06-15T09:35:25.000Z</time>
      </trkpt>
      <trkpt lat="43.94369" lon="7.37905">
        <ele>1203.4000244141</ele>
        <time>2018-06-15T09:35:30.000Z</time>
      </trkpt>
      <trkpt lat="43.94372" lon="7.37908">
        <ele>1203.8000488281</ele>
        <time>2018-06-15T09:35:32.000Z</time>
      </trkpt>
      <trkpt lat="43.94374" lon="7.37913">
        <ele>1204.5999755859</ele>
        <time>2018-06-15T09:35:35.000Z</time>
      </trkpt>
      <trkpt lat="43.94375" lon="7.37915">
        <ele>1205.5999755859</ele>
        <time>2018-06-15T09:35:37.000Z</time>
      </trkpt>
      <trkpt lat="43.94375" lon="7.37915">
        <ele>1206.5999755859</ele>
        <time>2018-06-15T09:35:39.000Z</time>
      </trkpt>
      <trkpt lat="43.94375" lon="7.37915">
        <ele>1207</ele>
        <time>2018-06-15T09:35:40.000Z</time>
      </trkpt>
      <trkpt lat="43.94375" lon="7.37905">
        <ele>1210.4000244141</ele>
        <time>2018-06-15T09:36:06.000Z</time>
      </trkpt>
      <trkpt lat="43.94375" lon="7.37904">
        <ele>1210.8000488281</ele>
        <time>2018-06-15T09:36:09.000Z</time>
      </trkpt>
      <trkpt lat="43.94376" lon="7.37893">
        <ele>1212.4000244141</ele>
        <time>2018-06-15T09:36:32.000Z</time>
      </trkpt>
      <trkpt lat="43.94376" lon="7.3789">
        <ele>1212.4000244141</ele>
        <time>2018-06-15T09:36:33.000Z</time>
      </trkpt>
      <trkpt lat="43.94378" lon="7.37876">
        <ele>1213.4000244141</ele>
        <time>2018-06-15T09:36:39.000Z</time>
      </trkpt>
      <trkpt lat="43.94378" lon="7.37875">
        <ele>1213.4000244141</ele>
        <time>2018-06-15T09:36:40.000Z</time>
      </trkpt>
      <trkpt lat="43.94379" lon="7.37873">
        <ele>1213.5999755859</ele>
        <time>2018-06-15T09:36:43.000Z</time>
      </trkpt>
      <trkpt lat="43.94497" lon="7.37908">
        <ele>1260.4000244141</ele>
        <time>2018-06-15T09:45:19.000Z</time>
      </trkpt>
      <trkpt lat="43.94497" lon="7.3791">
        <ele>1260.4000244141</ele>
        <time>2018-06-15T09:45:20.000Z</time>
      </trkpt>
      <trkpt lat="43.94502" lon="7.37917">
        <ele>1261.4000244141</ele>
        <time>2018-06-15T09:45:25.000Z</time>
      </trkpt>
      <trkpt lat="43.94504" lon="7.37921">
        <ele>1262.1999511719</ele>
        <time>2018-06-15T09:45:29.000Z</time>
      </trkpt>
      <trkpt lat="43.9454" lon="7.37904">
        <ele>1308</ele>
        <time>2018-06-15T09:48:13.000Z</time>
      </trkpt>
      <trkpt lat="43.94544" lon="7.37905">
        <ele>1309</ele>
        <time>2018-06-15T09:48:16.000Z</time>
      </trkpt>
      <trkpt lat="43.94548" lon="7.37905">
        <ele>1310</ele>
        <time>2018-06-15T09:48:19.000Z</time>
      </trkpt>
      <trkpt lat="43.94549" lon="7.37904">
        <ele>1310.1999511719</ele>
        <time>2018-06-15T09:48:20.000Z</time>
      </trkpt>
      <trkpt lat="43.94549" lon="7.37905">
        <ele>1310.5999755859</ele>
        <time>2018-06-15T09:48:21.000Z</time>
      </trkpt>
      <trkpt lat="43.94599" lon="7.37867">
        <ele>1329.5999755859</ele>
        <time>2018-06-15T09:50:50.000Z</time>
      </trkpt>
      <trkpt lat="43.946" lon="7.37869">
        <ele>1330</ele>
        <time>2018-06-15T09:50:51.000Z</time>
      </trkpt>
      <trkpt lat="43.94604" lon="7.37872">
        <ele>1330.8000488281</ele>
        <time>2018-06-15T09:50:54.000Z</time>
      </trkpt>
      <trkpt lat="43.94607" lon="7.37875">
        <ele>1331.8000488281</ele>
        <time>2018-06-15T09:50:57.000Z</time>
      </trkpt>
      <trkpt lat="43.94609" lon="7.37875">
        <ele>1332.1999511719</ele>
        <time>2018-06-15T09:50:58.000Z</time>
      </trkpt>
      <trkpt lat="43.94613" lon="7.37872">
        <ele>1333.4000244141</ele>
        <time>2018-06-15T09:51:01.000Z</time>
      </trkpt>
      <trkpt lat="43.94617" lon="7.3787">
        <ele>1335</ele>
        <time>2018-06-15T09:51:04.000Z</time>
      </trkpt>
      <trkpt lat="43.94621" lon="7.37866">
        <ele>1336.4000244141</ele>
        <time>2018-06-15T09:51:07.000Z</time>
      </trkpt>
      <trkpt lat="43.94624" lon="7.37862">
        <ele>1337.5999755859</ele>
        <time>2018-06-15T09:51:10.000Z</time>
      </trkpt>
      <trkpt lat="43.94627" lon="7.37859">
        <ele>1338.8000488281</ele>
        <time>2018-06-15T09:51:14.000Z</time>
      </trkpt>
      <trkpt lat="43.94628" lon="7.37859">
        <ele>1339.1999511719</ele>
        <time>2018-06-15T09:51:15.000Z</time>
      </trkpt>
      <trkpt lat="43.94629" lon="7.3786">
        <ele>1340</ele>
        <time>2018-06-15T09:51:17.000Z</time>
      </trkpt>
      <trkpt lat="43.94628" lon="7.3786">
        <ele>1340.4000244141</ele>
        <time>2018-06-15T09:51:18.000Z</time>
      </trkpt>
      <trkpt lat="43.94878" lon="7.37755">
        <ele>1460</ele>
        <time>2018-06-15T10:19:31.000Z</time>
      </trkpt>
      <trkpt lat="43.9488" lon="7.37755">
        <ele>1460</ele>
        <time>2018-06-15T10:19:32.000Z</time>
      </trkpt>
      <trkpt lat="43.94889" lon="7.37754">
        <ele>1460.1999511719</ele>
        <time>2018-06-15T10:19:36.000Z</time>
      </trkpt>
      <trkpt lat="43.9489" lon="7.37752">
        <ele>1460.1999511719</ele>
        <time>2018-06-15T10:19:37.000Z</time>
      </trkpt>
      <trkpt lat="43.94889" lon="7.37754">
        <ele>1460.1999511719</ele>
        <time>2018-06-15T10:19:38.000Z</time>
      </trkpt>
      <trkpt lat="43.9492" lon="7.3766">
        <ele>1497.5999755859</ele>
        <time>2018-06-15T10:23:59.000Z</time>
      </trkpt>
      <trkpt lat="43.94924" lon="7.37663">
        <ele>1498.5999755859</ele>
        <time>2018-06-15T10:24:02.000Z</time>
      </trkpt>
      <trkpt lat="43.94929" lon="7.37662">
        <ele>1499.5999755859</ele>
        <time>2018-06-15T10:24:06.000Z</time>
      </trkpt>
      <trkpt lat="43.9493" lon="7.37653">
        <ele>1500.5999755859</ele>
        <time>2018-06-15T10:24:11.000Z</time>
      </trkpt>
      <trkpt lat="43.94931" lon="7.37651">
        <ele>1501</ele>
        <time>2018-06-15T10:24:12.000Z</time>
      </trkpt>
      <trkpt lat="43.94934" lon="7.37648">
        <ele>1502</ele>
        <time>2018-06-15T10:24:16.000Z</time>
      </trkpt>
      <trkpt lat="43.94934" lon="7.37648">
        <ele>1502.8000488281</ele>
        <time>2018-06-15T10:24:18.000Z</time>
      </trkpt>
      <trkpt lat="43.94937" lon="7.37646">
        <ele>1503.1999511719</ele>
        <time>2018-06-15T10:24:19.000Z</time>
      </trkpt>
      <trkpt lat="43.94937" lon="7.37646">
        <ele>1503.4000244141</ele>
        <time>2018-06-15T10:24:20.000Z</time>
      </trkpt>
      <trkpt lat="43.94937" lon="7.37646">
        <ele>1503.5999755859</ele>
        <time>2018-06-15T10:24:21.000Z</time>
      </trkpt>
      <trkpt lat="43.94944" lon="7.37628">
        <ele>1513.5999755859</ele>
        <time>2018-06-15T10:25:27.000Z</time>
      </trkpt>
      <trkpt lat="43.94942" lon="7.37627">
        <ele>1513.8000488281</ele>
        <time>2018-06-15T10:25:28.000Z</time>
      </trkpt>
      <trkpt lat="43.94938" lon="7.37619">
        <ele>1514.5999755859</ele>
        <time>2018-06-15T10:25:33.000Z</time>
      </trkpt>
      <trkpt lat="43.94936" lon="7.3761">
        <ele>1514.5999755859</ele>
        <time>2018-06-15T10:25:37.000Z</time>
      </trkpt>
      <trkpt lat="43.94936" lon="7.37607">
        <ele>1514.5999755859</ele>
        <time>2018-06-15T10:25:38.000Z</time>
      </trkpt>
      <trkpt lat="43.94936" lon="7.37596">
        <ele>1514.5999755859</ele>
        <time>2018-06-15T10:25:43.000Z</time>
      </trkpt>
      <trkpt lat="43.94937" lon="7.37592">
        <ele>1514.8000488281</ele>
        <time>2018-06-15T10:25:45.000Z</time>
      </trkpt>
      <trkpt lat="43.94937" lon="7.37586">
        <ele>1514.8000488281</ele>
        <time>2018-06-15T10:25:49.000Z</time>
      </trkpt>
      <trkpt lat="43.94937" lon="7.37578">
        <ele>1516.1999511719</ele>
        <time>2018-06-15T10:26:01.000Z</time>
      </trkpt>
      <trkpt lat="43.94937" lon="7.37577">
        <ele>1516.1999511719</ele>
        <time>2018-06-15T10:26:03.000Z</time>
      </trkpt>
      <trkpt lat="43.94937" lon="7.37577">
        <ele>1516.4000244141</ele>
        <time>2018-06-15T10:26:04.000Z</time>
      </trkpt>
      <trkpt lat="43.94949" lon="7.37522">
        <ele>1534.1999511719</ele>
        <time>2018-06-15T10:28:18.000Z</time>
      </trkpt>
      <trkpt lat="43.94948" lon="7.37518">
        <ele>1535.1999511719</ele>
        <time>2018-06-15T10:28:20.000Z</time>
      </trkpt>
      <trkpt lat="43.94948" lon="7.37516">
        <ele>1535.5999755859</ele>
        <time>2018-06-15T10:28:21.000Z</time>
      </trkpt>
      <trkpt lat="43.94948" lon="7.37512">
        <ele>1536.4000244141</ele>
        <time>2018-06-15T10:28:23.000Z</time>
      </trkpt>
      <trkpt lat="43.94948" lon="7.37509">
        <ele>1536.5999755859</ele>
        <time>2018-06-15T10:28:25.000Z</time>
      </trkpt>
      <trkpt lat="43.94948" lon="7.37509">
        <ele>1536.8000488281</ele>
        <time>2018-06-15T10:28:26.000Z</time>
      </trkpt>
      <trkpt lat="43.94973" lon="7.37514">
        <ele>1550.1999511719</ele>
        <time>2018-06-15T10:29:32.000Z</time>
      </trkpt>
      <trkpt lat="43.94976" lon="7.37515">
        <ele>1550.8000488281</ele>
        <time>2018-06-15T10:29:34.000Z</time>
      </trkpt>
      <trkpt lat="43.94978" lon="7.37517">
        <ele>1551.4000244141</ele>
        <time>2018-06-15T10:29:36.000Z</time>
      </trkpt>
      <trkpt lat="43.94983" lon="7.37516">
        <ele>1552.4000244141</ele>
        <time>2018-06-15T10:29:39.000Z</time>
      </trkpt>
      <trkpt lat="43.94984" lon="7.37516">
        <ele>1552.5999755859</ele>
        <time>2018-06-15T10:29:40.000Z</time>
      </trkpt>
      <trkpt lat="43.94986" lon="7.37515">
        <ele>1553</ele>
        <time>2018-06-15T10:29:42.000Z</time>
      </trkpt>
      <trkpt lat="43.94986" lon="7.37516">
        <ele>1553.1999511719</ele>
        <time>2018-06-15T10:29:43.000Z</time>
      </trkpt>
      <trkpt lat="43.94998" lon="7.37512">
        <ele>1553.8000488281</ele>
        <time>2018-06-15T10:30:04.000Z</time>
      </trkpt>
      <trkpt lat="43.95001" lon="7.37511">
        <ele>1554.1999511719</ele>
        <time>2018-06-15T10:30:06.000Z</time>
      </trkpt>
      <trkpt lat="43.95002" lon="7.3751">
        <ele>1554.8000488281</ele>
        <time>2018-06-15T10:30:08.000Z</time>
      </trkpt>
      <trkpt lat="43.95002" lon="7.37509">
        <ele>1555.4000244141</ele>
        <time>2018-06-15T10:30:10.000Z</time>
      </trkpt>
      <trkpt lat="43.95016" lon="7.37495">
        <ele>1562.1999511719</ele>
        <time>2018-06-15T10:31:16.000Z</time>
      </trkpt>
      <trkpt lat="43.95018" lon="7.37494">
        <ele>1562.5999755859</ele>
        <time>2018-06-15T10:31:17.000Z</time>
      </trkpt>
      <trkpt lat="43.95019" lon="7.37493">
        <ele>1563</ele>
        <time>2018-06-15T10:31:19.000Z</time>
      </trkpt>
      <trkpt lat="43.9502" lon="7.37491">
        <ele>1563.4000244141</ele>
        <time>2018-06-15T10:31:20.000Z</time>
      </trkpt>
      <trkpt lat="43.95021" lon="7.37489">
        <ele>1563.8000488281</ele>
        <time>2018-06-15T10:31:21.000Z</time>
      </trkpt>
      <trkpt lat="43.95022" lon="7.37487">
        <ele>1564.5999755859</ele>
        <time>2018-06-15T10:31:24.000Z</time>
      </trkpt>
      <trkpt lat="43.95027" lon="7.37483">
        <ele>1567.5999755859</ele>
        <time>2018-06-15T10:31:33.000Z</time>
      </trkpt>
      <trkpt lat="43.95032" lon="7.37482">
        <ele>1569</ele>
        <time>2018-06-15T10:31:36.000Z</time>
      </trkpt>
      <trkpt lat="43.95032" lon="7.37481">
        <ele>1569.1999511719</ele>
        <time>2018-06-15T10:31:38.000Z</time>
      </trkpt>
      <trkpt lat="43.95042" lon="7.3748">
        <ele>1570.8000488281</ele>
        <time>2018-06-15T10:31:54.000Z</time>
      </trkpt>
      <trkpt lat="43.95045" lon="7.37479">
        <ele>1571.1999511719</ele>
        <time>2018-06-15T10:31:55.000Z</time>
      </trkpt>
      <trkpt lat="43.95047" lon="7.37479">
        <ele>1571.4000244141</ele>
        <time>2018-06-15T10:31:56.000Z</time>
      </trkpt>
      <trkpt lat="43.95048" lon="7.37479">
        <ele>1572</ele>
        <time>2018-06-15T10:31:58.000Z</time>
      </trkpt>
      <trkpt lat="43.95052" lon="7.37479">
        <ele>1573</ele>
        <time>2018-06-15T10:32:01.000Z</time>
      </trkpt>
      <trkpt lat="43.95056" lon="7.3748">
        <ele>1574.4000244141</ele>
        <time>2018-06-15T10:32:04.000Z</time>
      </trkpt>
      <trkpt lat="43.95059" lon="7.37479">
        <ele>1575.4000244141</ele>
        <time>2018-06-15T10:32:06.000Z</time>
      </trkpt>
      <trkpt lat="43.95061" lon="7.37479">
        <ele>1575.8000488281</ele>
        <time>2018-06-15T10:32:07.000Z</time>
      </trkpt>
      <trkpt lat="43.95064" lon="7.37478">
        <ele>1576.5999755859</ele>
        <time>2018-06-15T10:32:11.000Z</time>
      </trkpt>
      <trkpt lat="43.95068" lon="7.37477">
        <ele>1577.1999511719</ele>
        <time>2018-06-15T10:32:13.000Z</time>
      </trkpt>
      <trkpt lat="43.95068" lon="7.37477">
        <ele>1577.4000244141</ele>
        <time>2018-06-15T10:32:14.000Z</time>
      </trkpt>
      <trkpt lat="43.9507" lon="7.37477">
        <ele>1577.5999755859</ele>
        <time>2018-06-15T10:32:15.000Z</time>
      </trkpt>
      <trkpt lat="43.95074" lon="7.37477">
        <ele>1578.1999511719</ele>
        <time>2018-06-15T10:32:17.000Z</time>
      </trkpt>
      <trkpt lat="43.95078" lon="7.37477">
        <ele>1578.8000488281</ele>
        <time>2018-06-15T10:32:19.000Z</time>
      </trkpt>
      <trkpt lat="43.95083" lon="7.37476">
        <ele>1579.4000244141</ele>
        <time>2018-06-15T10:32:23.000Z</time>
      </trkpt>
      <trkpt lat="43.95084" lon="7.37477">
        <ele>1579.8000488281</ele>
        <time>2018-06-15T10:32:24.000Z</time>
      </trkpt>
      <trkpt lat="43.95085" lon="7.37477">
        <ele>1580</ele>
        <time>2018-06-15T10:32:25.000Z</time>
      </trkpt>
      <trkpt lat="43.95091" lon="7.37477">
        <ele>1581</ele>
        <time>2018-06-15T10:32:29.000Z</time>
      </trkpt>
      <trkpt lat="43.95093" lon="7.37476">
        <ele>1581.1999511719</ele>
        <time>2018-06-15T10:32:30.000Z</time>
      </trkpt>
      <trkpt lat="43.95097" lon="7.37475">
        <ele>1581.1999511719</ele>
        <time>2018-06-15T10:32:33.000Z</time>
      </trkpt>
      <trkpt lat="43.95102" lon="7.37474">
        <ele>1581.1999511719</ele>
        <time>2018-06-15T10:32:36.000Z</time>
      </trkpt>
      <trkpt lat="43.95102" lon="7.37474">
        <ele>1581.1999511719</ele>
        <time>2018-06-15T10:32:38.000Z</time>
      </trkpt>
      <trkpt lat="43.95108" lon="7.37472">
        <ele>1581.1999511719</ele>
        <time>2018-06-15T10:32:41.000Z</time>
      </trkpt>
      <trkpt lat="43.95111" lon="7.37472">
        <ele>1581.4000244141</ele>
        <time>2018-06-15T10:32:43.000Z</time>
      </trkpt>
      <trkpt lat="43.95118" lon="7.37473">
        <ele>1581.8000488281</ele>
        <time>2018-06-15T10:32:47.000Z</time>
      </trkpt>
      <trkpt lat="43.95122" lon="7.37473">
        <ele>1582.1999511719</ele>
        <time>2018-06-15T10:32:49.000Z</time>
      </trkpt>
      <trkpt lat="43.95129" lon="7.37471">
        <ele>1582.8000488281</ele>
        <time>2018-06-15T10:32:52.000Z</time>
      </trkpt>
      <trkpt lat="43.95133" lon="7.3747">
        <ele>1582.8000488281</ele>
        <time>2018-06-15T10:32:54.000Z</time>
      </trkpt>
      <trkpt lat="43.95137" lon="7.37468">
        <ele>1583.1999511719</ele>
        <time>2018-06-15T10:32:56.000Z</time>
      </trkpt>
      <trkpt lat="43.95142" lon="7.37467">
        <ele>1584</ele>
        <time>2018-06-15T10:33:00.000Z</time>
      </trkpt>
      <trkpt lat="43.95146" lon="7.37466">
        <ele>1584.1999511719</ele>
        <time>2018-06-15T10:33:01.000Z</time>
      </trkpt>
      <trkpt lat="43.95148" lon="7.37466">
        <ele>1584.4000244141</ele>
        <time>2018-06-15T10:33:02.000Z</time>
      </trkpt>
      <trkpt lat="43.95155" lon="7.37466">
        <ele>1584</ele>
        <time>2018-06-15T10:33:06.000Z</time>
      </trkpt>
      <trkpt lat="43.95158" lon="7.37465">
        <ele>1584.4000244141</ele>
        <time>2018-06-15T10:33:07.000Z</time>
      </trkpt>
      <trkpt lat="43.95161" lon="7.37464">
        <ele>1584.8000488281</ele>
        <time>2018-06-15T10:33:09.000Z</time>
      </trkpt>
      <trkpt lat="43.95161" lon="7.37464">
        <ele>1585</ele>
        <time>2018-06-15T10:33:10.000Z</time>
      </trkpt>
      <trkpt lat="43.95179" lon="7.37469">
        <ele>1589.8000488281</ele>
        <time>2018-06-15T10:33:38.000Z</time>
      </trkpt>
      <trkpt lat="43.95184" lon="7.37469">
        <ele>1590.1999511719</ele>
        <time>2018-06-15T10:33:40.000Z</time>
      </trkpt>
      <trkpt lat="43.95192" lon="7.3747">
        <ele>1590.8000488281</ele>
        <time>2018-06-15T10:33:44.000Z</time>
      </trkpt>
      <trkpt lat="43.95195" lon="7.37472">
        <ele>1591.4000244141</ele>
        <time>2018-06-15T10:33:46.000Z</time>
      </trkpt>
      <trkpt lat="43.95199" lon="7.37474">
        <ele>1591.5999755859</ele>
        <time>2018-06-15T10:33:49.000Z</time>
      </trkpt>
      <trkpt lat="43.952" lon="7.37474">
        <ele>1591.8000488281</ele>
        <time>2018-06-15T10:33:50.000Z</time>
      </trkpt>
      <trkpt lat="43.95201" lon="7.37474">
        <ele>1592</ele>
        <time>2018-06-15T10:33:51.000Z</time>
      </trkpt>
      <trkpt lat="43.95207" lon="7.37476">
        <ele>1592.8000488281</ele>
        <time>2018-06-15T10:33:55.000Z</time>
      </trkpt>
      <trkpt lat="43.95208" lon="7.37476">
        <ele>1593.1999511719</ele>
        <time>2018-06-15T10:33:56.000Z</time>
      </trkpt>
      <trkpt lat="43.9521" lon="7.37476">
        <ele>1593.4000244141</ele>
        <time>2018-06-15T10:33:57.000Z</time>
      </trkpt>
      <trkpt lat="43.9521" lon="7.37477">
        <ele>1593.8000488281</ele>
        <time>2018-06-15T10:33:59.000Z</time>
      </trkpt>
      <trkpt lat="43.95221" lon="7.37488">
        <ele>1599</ele>
        <time>2018-06-15T10:34:31.000Z</time>
      </trkpt>
      <trkpt lat="43.95225" lon="7.37488">
        <ele>1599</ele>
        <time>2018-06-15T10:34:33.000Z</time>
      </trkpt>
      <trkpt lat="43.95228" lon="7.37488">
        <ele>1599.1999511719</ele>
        <time>2018-06-15T10:34:36.000Z</time>
      </trkpt>
      <trkpt lat="43.95233" lon="7.3749">
        <ele>1600.1999511719</ele>
        <time>2018-06-15T10:34:40.000Z</time>
      </trkpt>
      <trkpt lat="43.95234" lon="7.3749">
        <ele>1600.8000488281</ele>
        <time>2018-06-15T10:34:41.000Z</time>
      </trkpt>
      <trkpt lat="43.95235" lon="7.37491">
        <ele>1601.1999511719</ele>
        <time>2018-06-15T10:34:42.000Z</time>
      </trkpt>
      <trkpt lat="43.95239" lon="7.37492">
        <ele>1602</ele>
        <time>2018-06-15T10:34:46.000Z</time>
      </trkpt>
      <trkpt lat="43.9524" lon="7.37493">
        <ele>1602.4000244141</ele>
        <time>2018-06-15T10:34:47.000Z</time>
      </trkpt>
      <trkpt lat="43.95244" lon="7.37496">
        <ele>1603.5999755859</ele>
        <time>2018-06-15T10:34:50.000Z</time>
      </trkpt>
      <trkpt lat="43.95245" lon="7.37497">
        <ele>1604.1999511719</ele>
        <time>2018-06-15T10:34:51.000Z</time>
      </trkpt>
      <trkpt lat="43.95245" lon="7.37498">
        <ele>1604.5999755859</ele>
        <time>2018-06-15T10:34:53.000Z</time>
      </trkpt>
      <trkpt lat="43.95246" lon="7.37503">
        <ele>1604.8000488281</ele>
        <time>2018-06-15T10:34:56.000Z</time>
      </trkpt>
      <trkpt lat="43.95248" lon="7.37507">
        <ele>1604.8000488281</ele>
        <time>2018-06-15T10:34:58.000Z</time>
      </trkpt>
      <trkpt lat="43.95256" lon="7.37516">
        <ele>1605.4000244141</ele>
        <time>2018-06-15T10:35:04.000Z</time>
      </trkpt>
      <trkpt lat="43.95266" lon="7.37525">
        <ele>1605.4000244141</ele>
        <time>2018-06-15T10:35:11.000Z</time>
      </trkpt>
      <trkpt lat="43.95269" lon="7.37527">
        <ele>1606</ele>
        <time>2018-06-15T10:35:13.000Z</time>
      </trkpt>
      <trkpt lat="43.95268" lon="7.37526">
        <ele>1606.1999511719</ele>
        <time>2018-06-15T10:35:14.000Z</time>
      </trkpt>
      <trkpt lat="43.9527" lon="7.37532">
        <ele>1615</ele>
        <time>2018-06-15T10:35:39.000Z</time>
      </trkpt>
      <trkpt lat="43.95266" lon="7.37524">
        <ele>1616.1999511719</ele>
        <time>2018-06-15T10:35:43.000Z</time>
      </trkpt>
      <trkpt lat="43.95263" lon="7.3752">
        <ele>1617.4000244141</ele>
        <time>2018-06-15T10:35:46.000Z</time>
      </trkpt>
      <trkpt lat="43.95261" lon="7.37518">
        <ele>1618.1999511719</ele>
        <time>2018-06-15T10:35:48.000Z</time>
      </trkpt>
      <trkpt lat="43.9526" lon="7.37517">
        <ele>1618.5999755859</ele>
        <time>2018-06-15T10:35:49.000Z</time>
      </trkpt>
      <trkpt lat="43.95258" lon="7.37515">
        <ele>1620</ele>
        <time>2018-06-15T10:35:51.000Z</time>
      </trkpt>
      <trkpt lat="43.95258" lon="7.37516">
        <ele>1620.4000244141</ele>
        <time>2018-06-15T10:35:52.000Z</time>
      </trkpt>
      <trkpt lat="43.95254" lon="7.37505">
        <ele>1626.1999511719</ele>
        <time>2018-06-15T10:36:24.000Z</time>
      </trkpt>
      <trkpt lat="43.95253" lon="7.37504">
        <ele>1626.1999511719</ele>
        <time>2018-06-15T10:36:25.000Z</time>
      </trkpt>
      <trkpt lat="43.9525" lon="7.37501">
        <ele>1626.1999511719</ele>
        <time>2018-06-15T10:36:27.000Z</time>
      </trkpt>
      <trkpt lat="43.95246" lon="7.37498">
        <ele>1626.1999511719</ele>
        <time>2018-06-15T10:36:29.000Z</time>
      </trkpt>
      <trkpt lat="43.95241" lon="7.37494">
        <ele>1625.5999755859</ele>
        <time>2018-06-15T10:36:32.000Z</time>
      </trkpt>
      <trkpt lat="43.95231" lon="7.37486">
        <ele>1625.4000244141</ele>
        <time>2018-06-15T10:36:38.000Z</time>
      </trkpt>
      <trkpt lat="43.95218" lon="7.37478">
        <ele>1625.8000488281</ele>
        <time>2018-06-15T10:36:44.000Z</time>
      </trkpt>
      <trkpt lat="43.95209" lon="7.37465">
        <ele>1626</ele>
        <time>2018-06-15T10:36:50.000Z</time>
      </trkpt>
      <trkpt lat="43.95203" lon="7.37456">
        <ele>1626.4000244141</ele>
        <time>2018-06-15T10:36:54.000Z</time>
      </trkpt>
      <trkpt lat="43.95201" lon="7.37453">
        <ele>1626.5999755859</ele>
        <time>2018-06-15T10:36:56.000Z</time>
      </trkpt>
      <trkpt lat="43.95194" lon="7.37447">
        <ele>1627.1999511719</ele>
        <time>2018-06-15T10:37:01.000Z</time>
      </trkpt>
      <trkpt lat="43.95195" lon="7.37448">
        <ele>1627.4000244141</ele>
        <time>2018-06-15T10:37:02.000Z</time>
      </trkpt>
      <trkpt lat="43.95185" lon="7.3744">
        <ele>1626.8000488281</ele>
        <time>2018-06-15T10:37:31.000Z</time>
      </trkpt>
      <trkpt lat="43.95183" lon="7.37439">
        <ele>1627</ele>
        <time>2018-06-15T10:37:33.000Z</time>
      </trkpt>
      <trkpt lat="43.95174" lon="7.37437">
        <ele>1628</ele>
        <time>2018-06-15T10:37:38.000Z</time>
      </trkpt>
      <trkpt lat="43.95172" lon="7.37437">
        <ele>1628</ele>
        <time>2018-06-15T10:37:39.000Z</time>
      </trkpt>
      <trkpt lat="43.95158" lon="7.37433">
        <ele>1627.5999755859</ele>
        <time>2018-06-15T10:37:43.000Z</time>
      </trkpt>
      <trkpt lat="43.95146" lon="7.37426">
        <ele>1627.1999511719</ele>
        <time>2018-06-15T10:37:47.000Z</time>
      </trkpt>
      <trkpt lat="43.95145" lon="7.37426">
        <ele>1627.1999511719</ele>
        <time>2018-06-15T10:37:50.000Z</time>
      </trkpt>
      <trkpt lat="43.95126" lon="7.37413">
        <ele>1628</ele>
        <time>2018-06-15T10:40:03.000Z</time>
      </trkpt>
      <trkpt lat="43.95122" lon="7.37409">
        <ele>1627.4000244141</ele>
        <time>2018-06-15T10:40:06.000Z</time>
      </trkpt>
      <trkpt lat="43.95112" lon="7.37404">
        <ele>1627.1999511719</ele>
        <time>2018-06-15T10:40:10.000Z</time>
      </trkpt>
      <trkpt lat="43.95104" lon="7.374">
        <ele>1627.4000244141</ele>
        <time>2018-06-15T10:40:14.000Z</time>
      </trkpt>
      <trkpt lat="43.95102" lon="7.37398">
        <ele>1627.4000244141</ele>
        <time>2018-06-15T10:40:15.000Z</time>
      </trkpt>
      <trkpt lat="43.95093" lon="7.37392">
        <ele>1627.5999755859</ele>
        <time>2018-06-15T10:40:19.000Z</time>
      </trkpt>
      <trkpt lat="43.9509" lon="7.37387">
        <ele>1627</ele>
        <time>2018-06-15T10:40:22.000Z</time>
      </trkpt>
      <trkpt lat="43.95088" lon="7.37385">
        <ele>1627</ele>
        <time>2018-06-15T10:40:23.000Z</time>
      </trkpt>
      <trkpt lat="43.95083" lon="7.37372">
        <ele>1626.5999755859</ele>
        <time>2018-06-15T10:40:28.000Z</time>
      </trkpt>
      <trkpt lat="43.95084" lon="7.37365">
        <ele>1626.1999511719</ele>
        <time>2018-06-15T10:40:30.000Z</time>
      </trkpt>
      <trkpt lat="43.95082" lon="7.37359">
        <ele>1625.5999755859</ele>
        <time>2018-06-15T10:40:32.000Z</time>
      </trkpt>
      <trkpt lat="43.9508" lon="7.37349">
        <ele>1625.4000244141</ele>
        <time>2018-06-15T10:40:35.000Z</time>
      </trkpt>
      <trkpt lat="43.95079" lon="7.37345">
        <ele>1625</ele>
        <time>2018-06-15T10:40:36.000Z</time>
      </trkpt>
      <trkpt lat="43.95078" lon="7.37342">
        <ele>1624.8000488281</ele>
        <time>2018-06-15T10:40:37.000Z</time>
      </trkpt>
      <trkpt lat="43.9507" lon="7.37328">
        <ele>1624.1999511719</ele>
        <time>2018-06-15T10:40:42.000Z</time>
      </trkpt>
      <trkpt lat="43.95065" lon="7.37314">
        <ele>1624</ele>
        <time>2018-06-15T10:40:46.000Z</time>
      </trkpt>
      <trkpt lat="43.95065" lon="7.37308">
        <ele>1623.8000488281</ele>
        <time>2018-06-15T10:40:47.000Z</time>
      </trkpt>
      <trkpt lat="43.95068" lon="7.37297">
        <ele>1623.1999511719</ele>
        <time>2018-06-15T10:40:49.000Z</time>
      </trkpt>
      <trkpt lat="43.95068" lon="7.37291">
        <ele>1622.8000488281</ele>
        <time>2018-06-15T10:40:50.000Z</time>
      </trkpt>
      <trkpt lat="43.95068" lon="7.37286">
        <ele>1622.8000488281</ele>
        <time>2018-06-15T10:40:51.000Z</time>
      </trkpt>
      <trkpt lat="43.95067" lon="7.37273">
        <ele>1622.5999755859</ele>
        <time>2018-06-15T10:40:54.000Z</time>
      </trkpt>
      <trkpt lat="43.95062" lon="7.37266">
        <ele>1623</ele>
        <time>2018-06-15T10:40:56.000Z</time>
      </trkpt>
      <trkpt lat="43.9506" lon="7.37263">
        <ele>1623</ele>
        <time>2018-06-15T10:40:57.000Z</time>
      </trkpt>
      <trkpt lat="43.95049" lon="7.37253">
        <ele>1623.5999755859</ele>
        <time>2018-06-15T10:41:01.000Z</time>
      </trkpt>
      <trkpt lat="43.95039" lon="7.37245">
        <ele>1623.5999755859</ele>
        <time>2018-06-15T10:41:05.000Z</time>
      </trkpt>
      <trkpt lat="43.95037" lon="7.37242">
        <ele>1623</ele>
        <time>2018-06-15T10:41:07.000Z</time>
      </trkpt>
      <trkpt lat="43.95036" lon="7.37241">
        <ele>1622.8000488281</ele>
        <time>2018-06-15T10:41:08.000Z</time>
      </trkpt>
      <trkpt lat="43.95032" lon="7.37237">
        <ele>1622</ele>
        <time>2018-06-15T10:41:12.000Z</time>
      </trkpt>
      <trkpt lat="43.95025" lon="7.37222">
        <ele>1627.1999511719</ele>
        <time>2018-06-15T10:45:02.000Z</time>
      </trkpt>
      <trkpt lat="43.9502" lon="7.37217">
        <ele>1626.1999511719</ele>
        <time>2018-06-15T10:45:04.000Z</time>
      </trkpt>
      <trkpt lat="43.95016" lon="7.3721">
        <ele>1624.5999755859</ele>
        <time>2018-06-15T10:45:07.000Z</time>
      </trkpt>
      <trkpt lat="43.95016" lon="7.37203">
        <ele>1623.1999511719</ele>
        <time>2018-06-15T10:45:09.000Z</time>
      </trkpt>
      <trkpt lat="43.95017" lon="7.37196">
        <ele>1621.8000488281</ele>
        <time>2018-06-15T10:45:11.000Z</time>
      </trkpt>
      <trkpt lat="43.95019" lon="7.37188">
        <ele>1620.1999511719</ele>
        <time>2018-06-15T10:45:13.000Z</time>
      </trkpt>
      <trkpt lat="43.95019" lon="7.37183">
        <ele>1619.4000244141</ele>
        <time>2018-06-15T10:45:14.000Z</time>
      </trkpt>
      <trkpt lat="43.95019" lon="7.37178">
        <ele>1619</ele>
        <time>2018-06-15T10:45:15.000Z</time>
      </trkpt>
      <trkpt lat="43.95019" lon="7.37168">
        <ele>1617.8000488281</ele>
        <time>2018-06-15T10:45:17.000Z</time>
      </trkpt>
      <trkpt lat="43.95017" lon="7.37158">
        <ele>1616.8000488281</ele>
        <time>2018-06-15T10:45:19.000Z</time>
      </trkpt>
      <trkpt lat="43.95012" lon="7.37149">
        <ele>1616</ele>
        <time>2018-06-15T10:45:22.000Z</time>
      </trkpt>
      <trkpt lat="43.95009" lon="7.37147">
        <ele>1615.8000488281</ele>
        <time>2018-06-15T10:45:23.000Z</time>
      </trkpt>
      <trkpt lat="43.94994" lon="7.37131">
        <ele>1614.5999755859</ele>
        <time>2018-06-15T10:45:30.000Z</time>
      </trkpt>
      <trkpt lat="43.94992" lon="7.37121">
        <ele>1613.5999755859</ele>
        <time>2018-06-15T10:45:33.000Z</time>
      </trkpt>
      <trkpt lat="43.9499" lon="7.37114">
        <ele>1613</ele>
        <time>2018-06-15T10:45:35.000Z</time>
      </trkpt>
      <trkpt lat="43.94985" lon="7.37104">
        <ele>1612.1999511719</ele>
        <time>2018-06-15T10:45:38.000Z</time>
      </trkpt>
      <trkpt lat="43.94982" lon="7.37101">
        <ele>1611.8000488281</ele>
        <time>2018-06-15T10:45:39.000Z</time>
      </trkpt>
      <trkpt lat="43.94976" lon="7.37097">
        <ele>1611.1999511719</ele>
        <time>2018-06-15T10:45:41.000Z</time>
      </trkpt>
      <trkpt lat="43.9497" lon="7.37094">
        <ele>1610.4000244141</ele>
        <time>2018-06-15T10:45:43.000Z</time>
      </trkpt>
      <trkpt lat="43.94967" lon="7.37093">
        <ele>1610.1999511719</ele>
        <time>2018-06-15T10:45:44.000Z</time>
      </trkpt>
      <trkpt lat="43.94957" lon="7.3708">
        <ele>1609</ele>
        <time>2018-06-15T10:45:48.000Z</time>
      </trkpt>
      <trkpt lat="43.94945" lon="7.37073">
        <ele>1608.5999755859</ele>
        <time>2018-06-15T10:45:52.000Z</time>
      </trkpt>
      <trkpt lat="43.94938" lon="7.37066">
        <ele>1608</ele>
        <time>2018-06-15T10:45:55.000Z</time>
      </trkpt>
      <trkpt lat="43.94935" lon="7.37062">
        <ele>1607.5999755859</ele>
        <time>2018-06-15T10:45:56.000Z</time>
      </trkpt>
      <trkpt lat="43.94925" lon="7.37051">
        <ele>1606.8000488281</ele>
        <time>2018-06-15T10:45:59.000Z</time>
      </trkpt>
      <trkpt lat="43.94921" lon="7.37045">
        <ele>1606.4000244141</ele>
        <time>2018-06-15T10:46:01.000Z</time>
      </trkpt>
      <trkpt lat="43.94919" lon="7.37044">
        <ele>1606</ele>
        <time>2018-06-15T10:46:02.000Z</time>
      </trkpt>
      <trkpt lat="43.94917" lon="7.37043">
        <ele>1605.4000244141</ele>
        <time>2018-06-15T10:46:03.000Z</time>
      </trkpt>
      <trkpt lat="43.94914" lon="7.3704">
        <ele>1604.4000244141</ele>
        <time>2018-06-15T10:46:05.000Z</time>
      </trkpt>
      <trkpt lat="43.94911" lon="7.37036">
        <ele>1604</ele>
        <time>2018-06-15T10:46:07.000Z</time>
      </trkpt>
      <trkpt lat="43.94908" lon="7.37033">
        <ele>1603.1999511719</ele>
        <time>2018-06-15T10:46:10.000Z</time>
      </trkpt>
      <trkpt lat="43.94908" lon="7.37033">
        <ele>1602.8000488281</ele>
        <time>2018-06-15T10:46:11.000Z</time>
      </trkpt>
      <trkpt lat="43.94903" lon="7.3702">
        <ele>1595.8000488281</ele>
        <time>2018-06-15T10:46:44.000Z</time>
      </trkpt>
      <trkpt lat="43.94899" lon="7.37017">
        <ele>1595</ele>
        <time>2018-06-15T10:46:46.000Z</time>
      </trkpt>
      <trkpt lat="43.94898" lon="7.37015">
        <ele>1594.5999755859</ele>
        <time>2018-06-15T10:46:47.000Z</time>
      </trkpt>
      <trkpt lat="43.94893" lon="7.3701">
        <ele>1593.4000244141</ele>
        <time>2018-06-15T10:46:50.000Z</time>
      </trkpt>
      <trkpt lat="43.94892" lon="7.37009">
        <ele>1592.8000488281</ele>
        <time>2018-06-15T10:46:51.000Z</time>
      </trkpt>
      <trkpt lat="43.9489" lon="7.37007">
        <ele>1592.1999511719</ele>
        <time>2018-06-15T10:46:53.000Z</time>
      </trkpt>
      <trkpt lat="43.94883" lon="7.37003">
        <ele>1591</ele>
        <time>2018-06-15T10:46:57.000Z</time>
      </trkpt>
      <trkpt lat="43.94881" lon="7.37002">
        <ele>1590.5999755859</ele>
        <time>2018-06-15T10:46:58.000Z</time>
      </trkpt>
      <trkpt lat="43.94876" lon="7.36999">
        <ele>1589.5999755859</ele>
        <time>2018-06-15T10:47:00.000Z</time>
      </trkpt>
      <trkpt lat="43.94874" lon="7.36994">
        <ele>1588.4000244141</ele>
        <time>2018-06-15T10:47:02.000Z</time>
      </trkpt>
      <trkpt lat="43.9487" lon="7.36986">
        <ele>1587.1999511719</ele>
        <time>2018-06-15T10:47:05.000Z</time>
      </trkpt>
      <trkpt lat="43.94868" lon="7.36981">
        <ele>1585.8000488281</ele>
        <time>2018-06-15T10:47:08.000Z</time>
      </trkpt>
      <trkpt lat="43.94868" lon="7.36979">
        <ele>1585.1999511719</ele>
        <time>2018-06-15T10:47:09.000Z</time>
      </trkpt>
      <trkpt lat="43.94867" lon="7.36972">
        <ele>1584.5999755859</ele>
        <time>2018-06-15T10:47:11.000Z</time>
      </trkpt>
      <trkpt lat="43.94866" lon="7.3697">
        <ele>1584.1999511719</ele>
        <time>2018-06-15T10:47:12.000Z</time>
      </trkpt>
      <trkpt lat="43.94866" lon="7.36966">
        <ele>1583</ele>
        <time>2018-06-15T10:47:14.000Z</time>
      </trkpt>
      <trkpt lat="43.94864" lon="7.36965">
        <ele>1582.1999511719</ele>
        <time>2018-06-15T10:47:16.000Z</time>
      </trkpt>
      <trkpt lat="43.94862" lon="7.36964">
        <ele>1582.1999511719</ele>
        <time>2018-06-15T10:47:17.000Z</time>
      </trkpt>
      <trkpt lat="43.94861" lon="7.36962">
        <ele>1581.8000488281</ele>
        <time>2018-06-15T10:47:18.000Z</time>
      </trkpt>
      <trkpt lat="43.94861" lon="7.36961">
        <ele>1581</ele>
        <time>2018-06-15T10:47:20.000Z</time>
      </trkpt>
      <trkpt lat="43.9486" lon="7.36961">
        <ele>1580.5999755859</ele>
        <time>2018-06-15T10:47:21.000Z</time>
      </trkpt>
      <trkpt lat="43.94825" lon="7.36931">
        <ele>1574.8000488281</ele>
        <time>2018-06-15T10:50:33.000Z</time>
      </trkpt>
      <trkpt lat="43.94824" lon="7.36931">
        <ele>1575.4000244141</ele>
        <time>2018-06-15T10:50:35.000Z</time>
      </trkpt>
      <trkpt lat="43.94819" lon="7.36929">
        <ele>1575.1999511719</ele>
        <time>2018-06-15T10:50:36.000Z</time>
      </trkpt>
      <trkpt lat="43.94814" lon="7.36924">
        <ele>1575.1999511719</ele>
        <time>2018-06-15T10:50:38.000Z</time>
      </trkpt>
      <trkpt lat="43.94804" lon="7.36916">
        <ele>1574.8000488281</ele>
        <time>2018-06-15T10:50:41.000Z</time>
      </trkpt>
      <trkpt lat="43.94801" lon="7.36916">
        <ele>1574.8000488281</ele>
        <time>2018-06-15T10:50:42.000Z</time>
      </trkpt>
      <trkpt lat="43.94789" lon="7.36906">
        <ele>1574</ele>
        <time>2018-06-15T10:50:46.000Z</time>
      </trkpt>
      <trkpt lat="43.94787" lon="7.36904">
        <ele>1573.5999755859</ele>
        <time>2018-06-15T10:50:47.000Z</time>
      </trkpt>
      <trkpt lat="43.94783" lon="7.36899">
        <ele>1572.5999755859</ele>
        <time>2018-06-15T10:50:50.000Z</time>
      </trkpt>
      <trkpt lat="43.94782" lon="7.36899">
        <ele>1572</ele>
        <time>2018-06-15T10:50:52.000Z</time>
      </trkpt>
      <trkpt lat="43.94765" lon="7.36888">
        <ele>1569.5999755859</ele>
        <time>2018-06-15T10:51:17.000Z</time>
      </trkpt>
      <trkpt lat="43.9476" lon="7.36884">
        <ele>1569.5999755859</ele>
        <time>2018-06-15T10:51:19.000Z</time>
      </trkpt>
      <trkpt lat="43.94745" lon="7.36872">
        <ele>1569</ele>
        <time>2018-06-15T10:51:24.000Z</time>
      </trkpt>
      <trkpt lat="43.94729" lon="7.36865">
        <ele>1568.5999755859</ele>
        <time>2018-06-15T10:51:28.000Z</time>
      </trkpt>
      <trkpt lat="43.94713" lon="7.36856">
        <ele>1567.8000488281</ele>
        <time>2018-06-15T10:51:32.000Z</time>
      </trkpt>
      <trkpt lat="43.94709" lon="7.36853">
        <ele>1567.4000244141</ele>
        <time>2018-06-15T10:51:33.000Z</time>
      </trkpt>
      <trkpt lat="43.94701" lon="7.3685">
        <ele>1567</ele>
        <time>2018-06-15T10:51:34.000Z</time>
      </trkpt>
      <trkpt lat="43.94694" lon="7.36848">
        <ele>1566.4000244141</ele>
        <time>2018-06-15T10:51:35.000Z</time>
      </trkpt>
      <trkpt lat="43.94676" lon="7.36842">
        <ele>1565</ele>
        <time>2018-06-15T10:51:38.000Z</time>
      </trkpt>
      <trkpt lat="43.9467" lon="7.36839">
        <ele>1564.5999755859</ele>
        <time>2018-06-15T10:51:39.000Z</time>
      </trkpt>
      <trkpt lat="43.94658" lon="7.36834">
        <ele>1563.5999755859</ele>
        <time>2018-06-15T10:51:41.000Z</time>
      </trkpt>
      <trkpt lat="43.94649" lon="7.36829">
        <ele>1562.8000488281</ele>
        <time>2018-06-15T10:51:43.000Z</time>
      </trkpt>
      <trkpt lat="43.94644" lon="7.36828">
        <ele>1562.4000244141</ele>
        <time>2018-06-15T10:51:44.000Z</time>
      </trkpt>
      <trkpt lat="43.94637" lon="7.36827">
        <ele>1561.5999755859</ele>
        <time>2018-06-15T10:51:47.000Z</time>
      </trkpt>
      <trkpt lat="43.94634" lon="7.36826">
        <ele>1561.1999511719</ele>
        <time>2018-06-15T10:51:49.000Z</time>
      </trkpt>
      <trkpt lat="43.94635" lon="7.36826">
        <ele>1561.1999511719</ele>
        <time>2018-06-15T10:51:50.000Z</time>
      </trkpt>
      <trkpt lat="43.946" lon="7.36813">
        <ele>1555</ele>
        <time>2018-06-15T10:55:22.000Z</time>
      </trkpt>
      <trkpt lat="43.946" lon="7.36812">
        <ele>1555.1999511719</ele>
        <time>2018-06-15T10:55:23.000Z</time>
      </trkpt>
      <trkpt lat="43.946" lon="7.3681">
        <ele>1555.5999755859</ele>
        <time>2018-06-15T10:55:26.000Z</time>
      </trkpt>
      <trkpt lat="43.94597" lon="7.36808">
        <ele>1557.5999755859</ele>
        <time>2018-06-15T10:55:36.000Z</time>
      </trkpt>
      <trkpt lat="43.94592" lon="7.36806">
        <ele>1557.5999755859</ele>
        <time>2018-06-15T10:55:39.000Z</time>
      </trkpt>
      <trkpt lat="43.94584" lon="7.36802">
        <ele>1556.8000488281</ele>
        <time>2018-06-15T10:55:43.000Z</time>
      </trkpt>
      <trkpt lat="43.94578" lon="7.368">
        <ele>1556.4000244141</ele>
        <time>2018-06-15T10:55:45.000Z</time>
      </trkpt>
      <trkpt lat="43.94569" lon="7.36796">
        <ele>1556.4000244141</ele>
        <time>2018-06-15T10:55:48.000Z</time>
      </trkpt>
      <trkpt lat="43.94557" lon="7.36788">
        <ele>1555.4000244141</ele>
        <time>2018-06-15T10:55:52.000Z</time>
      </trkpt>
      <trkpt lat="43.94547" lon="7.36786">
        <ele>1554.8000488281</ele>
        <time>2018-06-15T10:55:54.000Z</time>
      </trkpt>
      <trkpt lat="43.94539" lon="7.36785">
        <ele>1554.1999511719</ele>
        <time>2018-06-15T10:55:56.000Z</time>
      </trkpt>
      <trkpt lat="43.94516" lon="7.36775">
        <ele>1553.4000244141</ele>
        <time>2018-06-15T10:56:00.000Z</time>
      </trkpt>
      <trkpt lat="43.94512" lon="7.36774">
        <ele>1553</ele>
        <time>2018-06-15T10:56:01.000Z</time>
      </trkpt>
      <trkpt lat="43.94506" lon="7.36774">
        <ele>1552</ele>
        <time>2018-06-15T10:56:03.000Z</time>
      </trkpt>
      <trkpt lat="43.94504" lon="7.36774">
        <ele>1551.5999755859</ele>
        <time>2018-06-15T10:56:04.000Z</time>
      </trkpt>
      <trkpt lat="43.94494" lon="7.36771">
        <ele>1551</ele>
        <time>2018-06-15T10:56:06.000Z</time>
      </trkpt>
      <trkpt lat="43.94484" lon="7.36764">
        <ele>1550.4000244141</ele>
        <time>2018-06-15T10:56:08.000Z</time>
      </trkpt>
      <trkpt lat="43.9448" lon="7.36763">
        <ele>1549.8000488281</ele>
        <time>2018-06-15T10:56:09.000Z</time>
      </trkpt>
      <trkpt lat="43.94475" lon="7.36761">
        <ele>1549.1999511719</ele>
        <time>2018-06-15T10:56:10.000Z</time>
      </trkpt>
      <trkpt lat="43.94464" lon="7.36757">
        <ele>1547.8000488281</ele>
        <time>2018-06-15T10:56:12.000Z</time>
      </trkpt>
      <trkpt lat="43.94458" lon="7.36757">
        <ele>1547</ele>
        <time>2018-06-15T10:56:13.000Z</time>
      </trkpt>
      <trkpt lat="43.94452" lon="7.36756">
        <ele>1546.4000244141</ele>
        <time>2018-06-15T10:56:14.000Z</time>
      </trkpt>
      <trkpt lat="43.9444" lon="7.36755">
        <ele>1545</ele>
        <time>2018-06-15T10:56:16.000Z</time>
      </trkpt>
      <trkpt lat="43.94426" lon="7.36755">
        <ele>1543.8000488281</ele>
        <time>2018-06-15T10:56:18.000Z</time>
      </trkpt>
      <trkpt lat="43.9442" lon="7.36756">
        <ele>1543.5999755859</ele>
        <time>2018-06-15T10:56:19.000Z</time>
      </trkpt>
      <trkpt lat="43.94414" lon="7.36759">
        <ele>1542.8000488281</ele>
        <time>2018-06-15T10:56:21.000Z</time>
      </trkpt>
      <trkpt lat="43.94407" lon="7.36763">
        <ele>1541.4000244141</ele>
        <time>2018-06-15T10:56:23.000Z</time>
      </trkpt>
      <trkpt lat="43.94397" lon="7.36767">
        <ele>1540.1999511719</ele>
        <time>2018-06-15T10:56:25.000Z</time>
      </trkpt>
      <trkpt lat="43.9439" lon="7.36777">
        <ele>1538.8000488281</ele>
        <time>2018-06-15T10:56:28.000Z</time>
      </trkpt>
      <trkpt lat="43.94384" lon="7.36785">
        <ele>1537.5999755859</ele>
        <time>2018-06-15T10:56:30.000Z</time>
      </trkpt>
      <trkpt lat="43.94381" lon="7.3679">
        <ele>1537.1999511719</ele>
        <time>2018-06-15T10:56:31.000Z</time>
      </trkpt>
      <trkpt lat="43.94379" lon="7.36796">
        <ele>1536.4000244141</ele>
        <time>2018-06-15T10:56:32.000Z</time>
      </trkpt>
      <trkpt lat="43.94374" lon="7.36799">
        <ele>1535</ele>
        <time>2018-06-15T10:56:33.000Z</time>
      </trkpt>
      <trkpt lat="43.94364" lon="7.36802">
        <ele>1533.8000488281</ele>
        <time>2018-06-15T10:56:34.000Z</time>
      </trkpt>
      <trkpt lat="43.94353" lon="7.3681">
        <ele>1532.1999511719</ele>
        <time>2018-06-15T10:56:36.000Z</time>
      </trkpt>
      <trkpt lat="43.94347" lon="7.36815">
        <ele>1532</ele>
        <time>2018-06-15T10:56:37.000Z</time>
      </trkpt>
      <trkpt lat="43.94343" lon="7.36819">
        <ele>1531.1999511719</ele>
        <time>2018-06-15T10:56:38.000Z</time>
      </trkpt>
      <trkpt lat="43.94339" lon="7.36824">
        <ele>1530.5999755859</ele>
        <time>2018-06-15T10:56:39.000Z</time>
      </trkpt>
      <trkpt lat="43.94339" lon="7.36831">
        <ele>1530</ele>
        <time>2018-06-15T10:56:41.000Z</time>
      </trkpt>
      <trkpt lat="43.94339" lon="7.36833">
        <ele>1529.5999755859</ele>
        <time>2018-06-15T10:56:42.000Z</time>
      </trkpt>
      <trkpt lat="43.94338" lon="7.36836">
        <ele>1529</ele>
        <time>2018-06-15T10:56:44.000Z</time>
      </trkpt>
      <trkpt lat="43.94338" lon="7.36837">
        <ele>1528.8000488281</ele>
        <time>2018-06-15T10:56:45.000Z</time>
      </trkpt>
      <trkpt lat="43.94338" lon="7.36837">
        <ele>1528.5999755859</ele>
        <time>2018-06-15T10:56:46.000Z</time>
      </trkpt>
      <trkpt lat="43.94334" lon="7.36838">
        <ele>1526.1999511719</ele>
        <time>2018-06-15T11:07:26.000Z</time>
      </trkpt>
      <trkpt lat="43.94336" lon="7.36841">
        <ele>1525.8000488281</ele>
        <time>2018-06-15T11:07:28.000Z</time>
      </trkpt>
      <trkpt lat="43.94341" lon="7.36843">
        <ele>1525</ele>
        <time>2018-06-15T11:07:30.000Z</time>
      </trkpt>
      <trkpt lat="43.94343" lon="7.36846">
        <ele>1524.5999755859</ele>
        <time>2018-06-15T11:07:31.000Z</time>
      </trkpt>
      <trkpt lat="43.94346" lon="7.36848">
        <ele>1524.1999511719</ele>
        <time>2018-06-15T11:07:32.000Z</time>
      </trkpt>
      <trkpt lat="43.94347" lon="7.36851">
        <ele>1523.8000488281</ele>
        <time>2018-06-15T11:07:33.000Z</time>
      </trkpt>
      <trkpt lat="43.94351" lon="7.36865">
        <ele>1522.8000488281</ele>
        <time>2018-06-15T11:07:37.000Z</time>
      </trkpt>
      <trkpt lat="43.94353" lon="7.36868">
        <ele>1522.5999755859</ele>
        <time>2018-06-15T11:07:38.000Z</time>
      </trkpt>
      <trkpt lat="43.94354" lon="7.36871">
        <ele>1522.4000244141</ele>
        <time>2018-06-15T11:07:39.000Z</time>
      </trkpt>
      <trkpt lat="43.94358" lon="7.36881">
        <ele>1522</ele>
        <time>2018-06-15T11:07:41.000Z</time>
      </trkpt>
      <trkpt lat="43.94361" lon="7.36901">
        <ele>1521.5999755859</ele>
        <time>2018-06-15T11:07:44.000Z</time>
      </trkpt>
      <trkpt lat="43.94364" lon="7.36918">
        <ele>1521.1999511719</ele>
        <time>2018-06-15T11:07:46.000Z</time>
      </trkpt>
      <trkpt lat="43.94368" lon="7.36935">
        <ele>1520.1999511719</ele>
        <time>2018-06-15T11:07:48.000Z</time>
      </trkpt>
      <trkpt lat="43.94374" lon="7.36948">
        <ele>1519.4000244141</ele>
        <time>2018-06-15T11:07:50.000Z</time>
      </trkpt>
      <trkpt lat="43.94376" lon="7.36953">
        <ele>1518.8000488281</ele>
        <time>2018-06-15T11:07:51.000Z</time>
      </trkpt>
      <trkpt lat="43.94375" lon="7.36962">
        <ele>1517.8000488281</ele>
        <time>2018-06-15T11:07:53.000Z</time>
      </trkpt>
      <trkpt lat="43.94373" lon="7.36962">
        <ele>1517.4000244141</ele>
        <time>2018-06-15T11:07:54.000Z</time>
      </trkpt>
      <trkpt lat="43.94367" lon="7.36955">
        <ele>1516.1999511719</ele>
        <time>2018-06-15T11:07:56.000Z</time>
      </trkpt>
      <trkpt lat="43.94361" lon="7.36943">
        <ele>1515.1999511719</ele>
        <time>2018-06-15T11:07:58.000Z</time>
      </trkpt>
      <trkpt lat="43.94355" lon="7.36932">
        <ele>1514</ele>
        <time>2018-06-15T11:08:00.000Z</time>
      </trkpt>
      <trkpt lat="43.94349" lon="7.36917">
        <ele>1512.8000488281</ele>
        <time>2018-06-15T11:08:03.000Z</time>
      </trkpt>
      <trkpt lat="43.94346" lon="7.36914">
        <ele>1512.1999511719</ele>
        <time>2018-06-15T11:08:04.000Z</time>
      </trkpt>
      <trkpt lat="43.94341" lon="7.36912">
        <ele>1511.5999755859</ele>
        <time>2018-06-15T11:08:05.000Z</time>
      </trkpt>
      <trkpt lat="43.94333" lon="7.3691">
        <ele>1510.4000244141</ele>
        <time>2018-06-15T11:08:07.000Z</time>
      </trkpt>
      <trkpt lat="43.94319" lon="7.36917">
        <ele>1509.4000244141</ele>
        <time>2018-06-15T11:08:09.000Z</time>
      </trkpt>
      <trkpt lat="43.9431" lon="7.36922">
        <ele>1508</ele>
        <time>2018-06-15T11:08:10.000Z</time>
      </trkpt>
      <trkpt lat="43.94305" lon="7.3693">
        <ele>1506.8000488281</ele>
        <time>2018-06-15T11:08:11.000Z</time>
      </trkpt>
      <trkpt lat="43.94298" lon="7.36938">
        <ele>1505.4000244141</ele>
        <time>2018-06-15T11:08:12.000Z</time>
      </trkpt>
      <trkpt lat="43.94292" lon="7.36946">
        <ele>1504</ele>
        <time>2018-06-15T11:08:13.000Z</time>
      </trkpt>
      <trkpt lat="43.94287" lon="7.36955">
        <ele>1503</ele>
        <time>2018-06-15T11:08:14.000Z</time>
      </trkpt>
      <trkpt lat="43.9428" lon="7.36963">
        <ele>1502.5999755859</ele>
        <time>2018-06-15T11:08:15.000Z</time>
      </trkpt>
      <trkpt lat="43.94274" lon="7.36969">
        <ele>1501.8000488281</ele>
        <time>2018-06-15T11:08:16.000Z</time>
      </trkpt>
      <trkpt lat="43.94268" lon="7.36974">
        <ele>1501.4000244141</ele>
        <time>2018-06-15T11:08:17.000Z</time>
      </trkpt>
      <trkpt lat="43.94265" lon="7.36976">
        <ele>1500.5999755859</ele>
        <time>2018-06-15T11:08:18.000Z</time>
      </trkpt>
      <trkpt lat="43.94263" lon="7.36979">
        <ele>1500.1999511719</ele>
        <time>2018-06-15T11:08:19.000Z</time>
      </trkpt>
      <trkpt lat="43.94262" lon="7.36981">
        <ele>1499.4000244141</ele>
        <time>2018-06-15T11:08:22.000Z</time>
      </trkpt>
      <trkpt lat="43.94262" lon="7.36986">
        <ele>1499.1999511719</ele>
        <time>2018-06-15T11:08:35.000Z</time>
      </trkpt>
      <trkpt lat="43.94261" lon="7.36992">
        <ele>1499.4000244141</ele>
        <time>2018-06-15T11:08:38.000Z</time>
      </trkpt>
      <trkpt lat="43.94257" lon="7.36999">
        <ele>1498</ele>
        <time>2018-06-15T11:08:40.000Z</time>
      </trkpt>
      <trkpt lat="43.94254" lon="7.3701">
        <ele>1496.5999755859</ele>
        <time>2018-06-15T11:08:42.000Z</time>
      </trkpt>
      <trkpt lat="43.94251" lon="7.37016">
        <ele>1496.1999511719</ele>
        <time>2018-06-15T11:08:43.000Z</time>
      </trkpt>
      <trkpt lat="43.94246" lon="7.37026">
        <ele>1495.1999511719</ele>
        <time>2018-06-15T11:08:45.000Z</time>
      </trkpt>
      <trkpt lat="43.94242" lon="7.37031">
        <ele>1495</ele>
        <time>2018-06-15T11:08:46.000Z</time>
      </trkpt>
      <trkpt lat="43.94234" lon="7.37047">
        <ele>1494.1999511719</ele>
        <time>2018-06-15T11:08:49.000Z</time>
      </trkpt>
      <trkpt lat="43.94231" lon="7.37053">
        <ele>1494</ele>
        <time>2018-06-15T11:08:50.000Z</time>
      </trkpt>
      <trkpt lat="43.94224" lon="7.37064">
        <ele>1493.4000244141</ele>
        <time>2018-06-15T11:08:52.000Z</time>
      </trkpt>
      <trkpt lat="43.94221" lon="7.37068">
        <ele>1493</ele>
        <time>2018-06-15T11:08:53.000Z</time>
      </trkpt>
      <trkpt lat="43.94212" lon="7.37081">
        <ele>1491.8000488281</ele>
        <time>2018-06-15T11:08:56.000Z</time>
      </trkpt>
      <trkpt lat="43.94209" lon="7.37084">
        <ele>1491.5999755859</ele>
        <time>2018-06-15T11:08:57.000Z</time>
      </trkpt>
      <trkpt lat="43.94197" lon="7.37096">
        <ele>1490.4000244141</ele>
        <time>2018-06-15T11:09:01.000Z</time>
      </trkpt>
      <trkpt lat="43.94194" lon="7.37098">
        <ele>1490.1999511719</ele>
        <time>2018-06-15T11:09:02.000Z</time>
      </trkpt>
      <trkpt lat="43.94181" lon="7.37109">
        <ele>1489.4000244141</ele>
        <time>2018-06-15T11:09:07.000Z</time>
      </trkpt>
      <trkpt lat="43.94168" lon="7.37118">
        <ele>1488.4000244141</ele>
        <time>2018-06-15T11:09:12.000Z</time>
      </trkpt>
      <trkpt lat="43.94165" lon="7.37121">
        <ele>1488.4000244141</ele>
        <time>2018-06-15T11:09:13.000Z</time>
      </trkpt>
      <trkpt lat="43.94146" lon="7.37129">
        <ele>1488</ele>
        <time>2018-06-15T11:09:19.000Z</time>
      </trkpt>
      <trkpt lat="43.94131" lon="7.37125">
        <ele>1487.8000488281</ele>
        <time>2018-06-15T11:09:24.000Z</time>
      </trkpt>
      <trkpt lat="43.9412" lon="7.37127">
        <ele>1487.4000244141</ele>
        <time>2018-06-15T11:09:27.000Z</time>
      </trkpt>
      <trkpt lat="43.94115" lon="7.37126">
        <ele>1487.1999511719</ele>
        <time>2018-06-15T11:09:28.000Z</time>
      </trkpt>
      <trkpt lat="43.94101" lon="7.37127">
        <ele>1486.5999755859</ele>
        <time>2018-06-15T11:09:31.000Z</time>
      </trkpt>
      <trkpt lat="43.94097" lon="7.37129">
        <ele>1486.5999755859</ele>
        <time>2018-06-15T11:09:32.000Z</time>
      </trkpt>
      <trkpt lat="43.9409" lon="7.37134">
        <ele>1486</ele>
        <time>2018-06-15T11:09:34.000Z</time>
      </trkpt>
      <trkpt lat="43.94086" lon="7.3714">
        <ele>1485.5999755859</ele>
        <time>2018-06-15T11:09:36.000Z</time>
      </trkpt>
      <trkpt lat="43.94083" lon="7.37149">
        <ele>1485.4000244141</ele>
        <time>2018-06-15T11:09:38.000Z</time>
      </trkpt>
      <trkpt lat="43.94078" lon="7.37161">
        <ele>1485.4000244141</ele>
        <time>2018-06-15T11:09:40.000Z</time>
      </trkpt>
      <trkpt lat="43.94074" lon="7.37177">
        <ele>1484.8000488281</ele>
        <time>2018-06-15T11:09:42.000Z</time>
      </trkpt>
      <trkpt lat="43.9407" lon="7.37193">
        <ele>1484.1999511719</ele>
        <time>2018-06-15T11:09:44.000Z</time>
      </trkpt>
      <trkpt lat="43.94069" lon="7.37201">
        <ele>1484</ele>
        <time>2018-06-15T11:09:45.000Z</time>
      </trkpt>
      <trkpt lat="43.94069" lon="7.37209">
        <ele>1483.8000488281</ele>
        <time>2018-06-15T11:09:46.000Z</time>
      </trkpt>
      <trkpt lat="43.94071" lon="7.37236">
        <ele>1483.1999511719</ele>
        <time>2018-06-15T11:09:49.000Z</time>
      </trkpt>
      <trkpt lat="43.94072" lon="7.37255">
        <ele>1483.1999511719</ele>
        <time>2018-06-15T11:09:51.000Z</time>
      </trkpt>
      <trkpt lat="43.94074" lon="7.37274">
        <ele>1482.4000244141</ele>
        <time>2018-06-15T11:09:53.000Z</time>
      </trkpt>
      <trkpt lat="43.94075" lon="7.37294">
        <ele>1481.4000244141</ele>
        <time>2018-06-15T11:09:55.000Z</time>
      </trkpt>
      <trkpt lat="43.94073" lon="7.37304">
        <ele>1480.8000488281</ele>
        <time>2018-06-15T11:09:56.000Z</time>
      </trkpt>
      <trkpt lat="43.94069" lon="7.37313">
        <ele>1480</ele>
        <time>2018-06-15T11:09:57.000Z</time>
      </trkpt>
      <trkpt lat="43.94066" lon="7.37323">
        <ele>1479.1999511719</ele>
        <time>2018-06-15T11:09:58.000Z</time>
      </trkpt>
      <trkpt lat="43.9406" lon="7.37345">
        <ele>1477.4000244141</ele>
        <time>2018-06-15T11:10:00.000Z</time>
      </trkpt>
      <trkpt lat="43.94059" lon="7.37355">
        <ele>1476.5999755859</ele>
        <time>2018-06-15T11:10:01.000Z</time>
      </trkpt>
      <trkpt lat="43.94058" lon="7.37366">
        <ele>1475.5999755859</ele>
        <time>2018-06-15T11:10:02.000Z</time>
      </trkpt>
      <trkpt lat="43.94059" lon="7.37388">
        <ele>1474.1999511719</ele>
        <time>2018-06-15T11:10:04.000Z</time>
      </trkpt>
      <trkpt lat="43.94061" lon="7.37397">
        <ele>1473.5999755859</ele>
        <time>2018-06-15T11:10:05.000Z</time>
      </trkpt>
      <trkpt lat="43.94062" lon="7.37407">
        <ele>1472.4000244141</ele>
        <time>2018-06-15T11:10:06.000Z</time>
      </trkpt>
      <trkpt lat="43.94062" lon="7.37416">
        <ele>1471.1999511719</ele>
        <time>2018-06-15T11:10:07.000Z</time>
      </trkpt>
      <trkpt lat="43.94062" lon="7.37424">
        <ele>1470</ele>
        <time>2018-06-15T11:10:08.000Z</time>
      </trkpt>
      <trkpt lat="43.94061" lon="7.37431">
        <ele>1469</ele>
        <time>2018-06-15T11:10:09.000Z</time>
      </trkpt>
      <trkpt lat="43.94064" lon="7.37439">
        <ele>1467.5999755859</ele>
        <time>2018-06-15T11:10:11.000Z</time>
      </trkpt>
      <trkpt lat="43.94067" lon="7.37438">
        <ele>1467</ele>
        <time>2018-06-15T11:10:12.000Z</time>
      </trkpt>
      <trkpt lat="43.94071" lon="7.37436">
        <ele>1466.4000244141</ele>
        <time>2018-06-15T11:10:13.000Z</time>
      </trkpt>
      <trkpt lat="43.94074" lon="7.37424">
        <ele>1465</ele>
        <time>2018-06-15T11:10:15.000Z</time>
      </trkpt>
      <trkpt lat="43.94077" lon="7.37407">
        <ele>1464</ele>
        <time>2018-06-15T11:10:17.000Z</time>
      </trkpt>
      <trkpt lat="43.94079" lon="7.37399">
        <ele>1463.5999755859</ele>
        <time>2018-06-15T11:10:18.000Z</time>
      </trkpt>
      <trkpt lat="43.94083" lon="7.37388">
        <ele>1463</ele>
        <time>2018-06-15T11:10:19.000Z</time>
      </trkpt>
      <trkpt lat="43.94085" lon="7.37377">
        <ele>1462.5999755859</ele>
        <time>2018-06-15T11:10:20.000Z</time>
      </trkpt>
      <trkpt lat="43.94087" lon="7.37356">
        <ele>1461</ele>
        <time>2018-06-15T11:10:22.000Z</time>
      </trkpt>
      <trkpt lat="43.94091" lon="7.37347">
        <ele>1460.4000244141</ele>
        <time>2018-06-15T11:10:23.000Z</time>
      </trkpt>
      <trkpt lat="43.94095" lon="7.37336">
        <ele>1459.8000488281</ele>
        <time>2018-06-15T11:10:24.000Z</time>
      </trkpt>
      <trkpt lat="43.94099" lon="7.37326">
        <ele>1459.1999511719</ele>
        <time>2018-06-15T11:10:25.000Z</time>
      </trkpt>
      <trkpt lat="43.94103" lon="7.37317">
        <ele>1458.8000488281</ele>
        <time>2018-06-15T11:10:26.000Z</time>
      </trkpt>
      <trkpt lat="43.94111" lon="7.373">
        <ele>1457.8000488281</ele>
        <time>2018-06-15T11:10:28.000Z</time>
      </trkpt>
      <trkpt lat="43.94112" lon="7.37292">
        <ele>1457</ele>
        <time>2018-06-15T11:10:29.000Z</time>
      </trkpt>
      <trkpt lat="43.94113" lon="7.37282">
        <ele>1456.4000244141</ele>
        <time>2018-06-15T11:10:30.000Z</time>
      </trkpt>
      <trkpt lat="43.94112" lon="7.37273">
        <ele>1455.5999755859</ele>
        <time>2018-06-15T11:10:31.000Z</time>
      </trkpt>
      <trkpt lat="43.94112" lon="7.37263">
        <ele>1455.4000244141</ele>
        <time>2018-06-15T11:10:32.000Z</time>
      </trkpt>
      <trkpt lat="43.94114" lon="7.37237">
        <ele>1455</ele>
        <time>2018-06-15T11:10:36.000Z</time>
      </trkpt>
      <trkpt lat="43.94121" lon="7.37238">
        <ele>1454.5999755859</ele>
        <time>2018-06-15T11:10:39.000Z</time>
      </trkpt>
      <trkpt lat="43.94123" lon="7.37245">
        <ele>1454</ele>
        <time>2018-06-15T11:10:41.000Z</time>
      </trkpt>
      <trkpt lat="43.94123" lon="7.37249">
        <ele>1453.8000488281</ele>
        <time>2018-06-15T11:10:42.000Z</time>
      </trkpt>
      <trkpt lat="43.94123" lon="7.37254">
        <ele>1453.5999755859</ele>
        <time>2018-06-15T11:10:43.000Z</time>
      </trkpt>
      <trkpt lat="43.94128" lon="7.37272">
        <ele>1452.8000488281</ele>
        <time>2018-06-15T11:10:46.000Z</time>
      </trkpt>
      <trkpt lat="43.94134" lon="7.37294">
        <ele>1451.5999755859</ele>
        <time>2018-06-15T11:10:49.000Z</time>
      </trkpt>
      <trkpt lat="43.94137" lon="7.37303">
        <ele>1451</ele>
        <time>2018-06-15T11:10:50.000Z</time>
      </trkpt>
      <trkpt lat="43.94136" lon="7.37309">
        <ele>1449</ele>
        <time>2018-06-15T11:10:51.000Z</time>
      </trkpt>
      <trkpt lat="43.94135" lon="7.37326">
        <ele>1447</ele>
        <time>2018-06-15T11:10:52.000Z</time>
      </trkpt>
      <trkpt lat="43.94135" lon="7.37335">
        <ele>1445</ele>
        <time>2018-06-15T11:10:53.000Z</time>
      </trkpt>
      <trkpt lat="43.94136" lon="7.37346">
        <ele>1443</ele>
        <time>2018-06-15T11:10:54.000Z</time>
      </trkpt>
      <trkpt lat="43.94137" lon="7.37357">
        <ele>1441.8000488281</ele>
        <time>2018-06-15T11:10:55.000Z</time>
      </trkpt>
      <trkpt lat="43.94137" lon="7.37366">
        <ele>1440.4000244141</ele>
        <time>2018-06-15T11:10:56.000Z</time>
      </trkpt>
      <trkpt lat="43.94136" lon="7.37375">
        <ele>1438.8000488281</ele>
        <time>2018-06-15T11:10:57.000Z</time>
      </trkpt>
      <trkpt lat="43.94137" lon="7.37382">
        <ele>1437.8000488281</ele>
        <time>2018-06-15T11:10:58.000Z</time>
      </trkpt>
      <trkpt lat="43.94138" lon="7.37389">
        <ele>1436.8000488281</ele>
        <time>2018-06-15T11:10:59.000Z</time>
      </trkpt>
      <trkpt lat="43.9414" lon="7.37392">
        <ele>1436.1999511719</ele>
        <time>2018-06-15T11:11:00.000Z</time>
      </trkpt>
      <trkpt lat="43.94144" lon="7.37393">
        <ele>1434.5999755859</ele>
        <time>2018-06-15T11:11:02.000Z</time>
      </trkpt>
      <trkpt lat="43.94145" lon="7.3739">
        <ele>1433.8000488281</ele>
        <time>2018-06-15T11:11:03.000Z</time>
      </trkpt>
      <trkpt lat="43.94146" lon="7.37386">
        <ele>1433</ele>
        <time>2018-06-15T11:11:04.000Z</time>
      </trkpt>
      <trkpt lat="43.94146" lon="7.37375">
        <ele>1432.4000244141</ele>
        <time>2018-06-15T11:11:06.000Z</time>
      </trkpt>
      <trkpt lat="43.94146" lon="7.37369">
        <ele>1432</ele>
        <time>2018-06-15T11:11:07.000Z</time>
      </trkpt>
      <trkpt lat="43.94146" lon="7.37363">
        <ele>1431.8000488281</ele>
        <time>2018-06-15T11:11:08.000Z</time>
      </trkpt>
      <trkpt lat="43.94144" lon="7.3735">
        <ele>1430.5999755859</ele>
        <time>2018-06-15T11:11:10.000Z</time>
      </trkpt>
      <trkpt lat="43.94142" lon="7.37339">
        <ele>1429.1999511719</ele>
        <time>2018-06-15T11:11:12.000Z</time>
      </trkpt>
      <trkpt lat="43.9414" lon="7.37331">
        <ele>1428</ele>
        <time>2018-06-15T11:11:14.000Z</time>
      </trkpt>
      <trkpt lat="43.94145" lon="7.3733">
        <ele>1427</ele>
        <time>2018-06-15T11:11:17.000Z</time>
      </trkpt>
      <trkpt lat="43.94146" lon="7.37339">
        <ele>1426</ele>
        <time>2018-06-15T11:11:19.000Z</time>
      </trkpt>
      <trkpt lat="43.94146" lon="7.37344">
        <ele>1425.4000244141</ele>
        <time>2018-06-15T11:11:20.000Z</time>
      </trkpt>
      <trkpt lat="43.94146" lon="7.37348">
        <ele>1424.8000488281</ele>
        <time>2018-06-15T11:11:21.000Z</time>
      </trkpt>
      <trkpt lat="43.94148" lon="7.37364">
        <ele>1423.8000488281</ele>
        <time>2018-06-15T11:11:25.000Z</time>
      </trkpt>
      <trkpt lat="43.94148" lon="7.37367">
        <ele>1423.5999755859</ele>
        <time>2018-06-15T11:11:27.000Z</time>
      </trkpt>
      <trkpt lat="43.94151" lon="7.37373">
        <ele>1423.4000244141</ele>
        <time>2018-06-15T11:11:29.000Z</time>
      </trkpt>
      <trkpt lat="43.94152" lon="7.3738">
        <ele>1422.4000244141</ele>
        <time>2018-06-15T11:11:31.000Z</time>
      </trkpt>
      <trkpt lat="43.94153" lon="7.37384">
        <ele>1422</ele>
        <time>2018-06-15T11:11:32.000Z</time>
      </trkpt>
      <trkpt lat="43.94153" lon="7.37387">
        <ele>1421.4000244141</ele>
        <time>2018-06-15T11:11:33.000Z</time>
      </trkpt>
      <trkpt lat="43.94153" lon="7.37397">
        <ele>1420.4000244141</ele>
        <time>2018-06-15T11:11:35.000Z</time>
      </trkpt>
      <trkpt lat="43.94151" lon="7.37402">
        <ele>1419.5999755859</ele>
        <time>2018-06-15T11:11:36.000Z</time>
      </trkpt>
      <trkpt lat="43.94146" lon="7.37412">
        <ele>1418.1999511719</ele>
        <time>2018-06-15T11:11:38.000Z</time>
      </trkpt>
      <trkpt lat="43.94144" lon="7.37418">
        <ele>1417.4000244141</ele>
        <time>2018-06-15T11:11:39.000Z</time>
      </trkpt>
      <trkpt lat="43.94141" lon="7.37425">
        <ele>1416.8000488281</ele>
        <time>2018-06-15T11:11:40.000Z</time>
      </trkpt>
      <trkpt lat="43.94135" lon="7.37437">
        <ele>1415.4000244141</ele>
        <time>2018-06-15T11:11:42.000Z</time>
      </trkpt>
      <trkpt lat="43.94133" lon="7.37444">
        <ele>1414.5999755859</ele>
        <time>2018-06-15T11:11:43.000Z</time>
      </trkpt>
      <trkpt lat="43.94131" lon="7.37452">
        <ele>1414</ele>
        <time>2018-06-15T11:11:44.000Z</time>
      </trkpt>
      <trkpt lat="43.94127" lon="7.37471">
        <ele>1412.1999511719</ele>
        <time>2018-06-15T11:11:46.000Z</time>
      </trkpt>
      <trkpt lat="43.94126" lon="7.37481">
        <ele>1411</ele>
        <time>2018-06-15T11:11:47.000Z</time>
      </trkpt>
      <trkpt lat="43.94125" lon="7.37491">
        <ele>1409.8000488281</ele>
        <time>2018-06-15T11:11:48.000Z</time>
      </trkpt>
      <trkpt lat="43.94125" lon="7.37504">
        <ele>1408.5999755859</ele>
        <time>2018-06-15T11:11:49.000Z</time>
      </trkpt>
      <trkpt lat="43.94123" lon="7.37525">
        <ele>1407</ele>
        <time>2018-06-15T11:11:51.000Z</time>
      </trkpt>
      <trkpt lat="43.94121" lon="7.37534">
        <ele>1406.8000488281</ele>
        <time>2018-06-15T11:11:52.000Z</time>
      </trkpt>
      <trkpt lat="43.94118" lon="7.37542">
        <ele>1405.8000488281</ele>
        <time>2018-06-15T11:11:53.000Z</time>
      </trkpt>
      <trkpt lat="43.94113" lon="7.37551">
        <ele>1405</ele>
        <time>2018-06-15T11:11:54.000Z</time>
      </trkpt>
      <trkpt lat="43.94107" lon="7.37557">
        <ele>1404</ele>
        <time>2018-06-15T11:11:55.000Z</time>
      </trkpt>
      <trkpt lat="43.94098" lon="7.37565">
        <ele>1402.4000244141</ele>
        <time>2018-06-15T11:11:57.000Z</time>
      </trkpt>
      <trkpt lat="43.94087" lon="7.37567">
        <ele>1401</ele>
        <time>2018-06-15T11:11:59.000Z</time>
      </trkpt>
      <trkpt lat="43.94081" lon="7.37566">
        <ele>1400.4000244141</ele>
        <time>2018-06-15T11:12:00.000Z</time>
      </trkpt>
      <trkpt lat="43.94076" lon="7.37564">
        <ele>1399.8000488281</ele>
        <time>2018-06-15T11:12:01.000Z</time>
      </trkpt>
      <trkpt lat="43.94065" lon="7.37558">
        <ele>1398.1999511719</ele>
        <time>2018-06-15T11:12:03.000Z</time>
      </trkpt>
      <trkpt lat="43.9406" lon="7.37554">
        <ele>1397.8000488281</ele>
        <time>2018-06-15T11:12:04.000Z</time>
      </trkpt>
      <trkpt lat="43.94052" lon="7.37551">
        <ele>1397.1999511719</ele>
        <time>2018-06-15T11:12:05.000Z</time>
      </trkpt>
      <trkpt lat="43.94038" lon="7.37549">
        <ele>1396</ele>
        <time>2018-06-15T11:12:07.000Z</time>
      </trkpt>
      <trkpt lat="43.94019" lon="7.37553">
        <ele>1394.8000488281</ele>
        <time>2018-06-15T11:12:10.000Z</time>
      </trkpt>
      <trkpt lat="43.94013" lon="7.37554">
        <ele>1394.5999755859</ele>
        <time>2018-06-15T11:12:11.000Z</time>
      </trkpt>
      <trkpt lat="43.94002" lon="7.37557">
        <ele>1393.5999755859</ele>
        <time>2018-06-15T11:12:13.000Z</time>
      </trkpt>
      <trkpt lat="43.93991" lon="7.37552">
        <ele>1392.4000244141</ele>
        <time>2018-06-15T11:12:15.000Z</time>
      </trkpt>
      <trkpt lat="43.93979" lon="7.37548">
        <ele>1390.8000488281</ele>
        <time>2018-06-15T11:12:17.000Z</time>
      </trkpt>
      <trkpt lat="43.93965" lon="7.37551">
        <ele>1389.4000244141</ele>
        <time>2018-06-15T11:12:19.000Z</time>
      </trkpt>
      <trkpt lat="43.9395" lon="7.37562">
        <ele>1388.5999755859</ele>
        <time>2018-06-15T11:12:22.000Z</time>
      </trkpt>
      <trkpt lat="43.93948" lon="7.37571">
        <ele>1388.4000244141</ele>
        <time>2018-06-15T11:12:24.000Z</time>
      </trkpt>
      <trkpt lat="43.93948" lon="7.37574">
        <ele>1388.1999511719</ele>
        <time>2018-06-15T11:12:25.000Z</time>
      </trkpt>
      <trkpt lat="43.93946" lon="7.37584">
        <ele>1387.4000244141</ele>
        <time>2018-06-15T11:12:29.000Z</time>
      </trkpt>
      <trkpt lat="43.93946" lon="7.37586">
        <ele>1386.8000488281</ele>
        <time>2018-06-15T11:12:30.000Z</time>
      </trkpt>
      <trkpt lat="43.93944" lon="7.37593">
        <ele>1385.4000244141</ele>
        <time>2018-06-15T11:12:32.000Z</time>
      </trkpt>
      <trkpt lat="43.93941" lon="7.37602">
        <ele>1384.1999511719</ele>
        <time>2018-06-15T11:12:34.000Z</time>
      </trkpt>
      <trkpt lat="43.93936" lon="7.37604">
        <ele>1383.5999755859</ele>
        <time>2018-06-15T11:12:35.000Z</time>
      </trkpt>
      <trkpt lat="43.93933" lon="7.37607">
        <ele>1382.5999755859</ele>
        <time>2018-06-15T11:12:36.000Z</time>
      </trkpt>
      <trkpt lat="43.9393" lon="7.3761">
        <ele>1381.8000488281</ele>
        <time>2018-06-15T11:12:37.000Z</time>
      </trkpt>
      <trkpt lat="43.93926" lon="7.37613">
        <ele>1381.4000244141</ele>
        <time>2018-06-15T11:12:38.000Z</time>
      </trkpt>
      <trkpt lat="43.93918" lon="7.37623">
        <ele>1380.8000488281</ele>
        <time>2018-06-15T11:12:40.000Z</time>
      </trkpt>
      <trkpt lat="43.93916" lon="7.37629">
        <ele>1380.5999755859</ele>
        <time>2018-06-15T11:12:41.000Z</time>
      </trkpt>
      <trkpt lat="43.93915" lon="7.37643">
        <ele>1380.1999511719</ele>
        <time>2018-06-15T11:12:43.000Z</time>
      </trkpt>
      <trkpt lat="43.93916" lon="7.37651">
        <ele>1380.1999511719</ele>
        <time>2018-06-15T11:12:44.000Z</time>
      </trkpt>
      <trkpt lat="43.93912" lon="7.37672">
        <ele>1380.1999511719</ele>
        <time>2018-06-15T11:12:47.000Z</time>
      </trkpt>
      <trkpt lat="43.93911" lon="7.37679">
        <ele>1380</ele>
        <time>2018-06-15T11:12:48.000Z</time>
      </trkpt>
      <trkpt lat="43.93911" lon="7.37706">
        <ele>1379.5999755859</ele>
        <time>2018-06-15T11:12:51.000Z</time>
      </trkpt>
      <trkpt lat="43.93912" lon="7.37714">
        <ele>1379.4000244141</ele>
        <time>2018-06-15T11:12:52.000Z</time>
      </trkpt>
      <trkpt lat="43.93915" lon="7.37718">
        <ele>1378.4000244141</ele>
        <time>2018-06-15T11:12:53.000Z</time>
      </trkpt>
      <trkpt lat="43.93924" lon="7.37731">
        <ele>1377.8000488281</ele>
        <time>2018-06-15T11:12:55.000Z</time>
      </trkpt>
      <trkpt lat="43.93933" lon="7.3775">
        <ele>1378</ele>
        <time>2018-06-15T11:12:58.000Z</time>
      </trkpt>
      <trkpt lat="43.93937" lon="7.37757">
        <ele>1378.4000244141</ele>
        <time>2018-06-15T11:12:59.000Z</time>
      </trkpt>
      <trkpt lat="43.93948" lon="7.37777">
        <ele>1379</ele>
        <time>2018-06-15T11:13:02.000Z</time>
      </trkpt>
      <trkpt lat="43.93949" lon="7.37783">
        <ele>1379</ele>
        <time>2018-06-15T11:13:03.000Z</time>
      </trkpt>
      <trkpt lat="43.93955" lon="7.37803">
        <ele>1379.4000244141</ele>
        <time>2018-06-15T11:13:06.000Z</time>
      </trkpt>
      <trkpt lat="43.93955" lon="7.3781">
        <ele>1379.1999511719</ele>
        <time>2018-06-15T11:13:07.000Z</time>
      </trkpt>
      <trkpt lat="43.93956" lon="7.37816">
        <ele>1379</ele>
        <time>2018-06-15T11:13:08.000Z</time>
      </trkpt>
      <trkpt lat="43.93959" lon="7.37823">
        <ele>1378.8000488281</ele>
        <time>2018-06-15T11:13:09.000Z</time>
      </trkpt>
      <trkpt lat="43.93965" lon="7.37842">
        <ele>1378.4000244141</ele>
        <time>2018-06-15T11:13:12.000Z</time>
      </trkpt>
      <trkpt lat="43.9397" lon="7.3786">
        <ele>1377.8000488281</ele>
        <time>2018-06-15T11:13:15.000Z</time>
      </trkpt>
      <trkpt lat="43.93974" lon="7.37872">
        <ele>1377.8000488281</ele>
        <time>2018-06-15T11:13:17.000Z</time>
      </trkpt>
      <trkpt lat="43.9398" lon="7.37896">
        <ele>1377.1999511719</ele>
        <time>2018-06-15T11:13:22.000Z</time>
      </trkpt>
      <trkpt lat="43.93983" lon="7.37906">
        <ele>1376.1999511719</ele>
        <time>2018-06-15T11:13:24.000Z</time>
      </trkpt>
      <trkpt lat="43.93981" lon="7.3791">
        <ele>1375.5999755859</ele>
        <time>2018-06-15T11:13:25.000Z</time>
      </trkpt>
      <trkpt lat="43.93978" lon="7.37915">
        <ele>1374.4000244141</ele>
        <time>2018-06-15T11:13:27.000Z</time>
      </trkpt>
      <trkpt lat="43.93978" lon="7.37916">
        <ele>1373.8000488281</ele>
        <time>2018-06-15T11:13:29.000Z</time>
      </trkpt>
      <trkpt lat="43.93972" lon="7.37921">
        <ele>1371.5999755859</ele>
        <time>2018-06-15T11:13:50.000Z</time>
      </trkpt>
      <trkpt lat="43.93966" lon="7.37923">
        <ele>1371.8000488281</ele>
        <time>2018-06-15T11:13:54.000Z</time>
      </trkpt>
      <trkpt lat="43.93948" lon="7.37932">
        <ele>1370.5999755859</ele>
        <time>2018-06-15T11:13:59.000Z</time>
      </trkpt>
      <trkpt lat="43.93944" lon="7.37933">
        <ele>1370.4000244141</ele>
        <time>2018-06-15T11:14:00.000Z</time>
      </trkpt>
      <trkpt lat="43.93934" lon="7.37939">
        <ele>1370</ele>
        <time>2018-06-15T11:14:02.000Z</time>
      </trkpt>
      <trkpt lat="43.93928" lon="7.37942">
        <ele>1370</ele>
        <time>2018-06-15T11:14:03.000Z</time>
      </trkpt>
      <trkpt lat="43.93915" lon="7.37956">
        <ele>1369.8000488281</ele>
        <time>2018-06-15T11:14:06.000Z</time>
      </trkpt>
      <trkpt lat="43.93901" lon="7.37964">
        <ele>1369.1999511719</ele>
        <time>2018-06-15T11:14:08.000Z</time>
      </trkpt>
      <trkpt lat="43.93896" lon="7.37965">
        <ele>1369</ele>
        <time>2018-06-15T11:14:09.000Z</time>
      </trkpt>
      <trkpt lat="43.93888" lon="7.37968">
        <ele>1368.5999755859</ele>
        <time>2018-06-15T11:14:10.000Z</time>
      </trkpt>
      <trkpt lat="43.93883" lon="7.37974">
        <ele>1368.1999511719</ele>
        <time>2018-06-15T11:14:11.000Z</time>
      </trkpt>
      <trkpt lat="43.93879" lon="7.37979">
        <ele>1367.5999755859</ele>
        <time>2018-06-15T11:14:12.000Z</time>
      </trkpt>
      <trkpt lat="43.93875" lon="7.37986">
        <ele>1366.5999755859</ele>
        <time>2018-06-15T11:14:13.000Z</time>
      </trkpt>
      <trkpt lat="43.93865" lon="7.37999">
        <ele>1366</ele>
        <time>2018-06-15T11:14:15.000Z</time>
      </trkpt>
      <trkpt lat="43.93859" lon="7.38004">
        <ele>1365.1999511719</ele>
        <time>2018-06-15T11:14:16.000Z</time>
      </trkpt>
      <trkpt lat="43.93842" lon="7.38018">
        <ele>1364.5999755859</ele>
        <time>2018-06-15T11:14:19.000Z</time>
      </trkpt>
      <trkpt lat="43.93837" lon="7.38025">
        <ele>1364.1999511719</ele>
        <time>2018-06-15T11:14:20.000Z</time>
      </trkpt>
      <trkpt lat="43.93833" lon="7.38033">
        <ele>1364.1999511719</ele>
        <time>2018-06-15T11:14:21.000Z</time>
      </trkpt>
      <trkpt lat="43.93831" lon="7.3804">
        <ele>1364</ele>
        <time>2018-06-15T11:14:22.000Z</time>
      </trkpt>
      <trkpt lat="43.9383" lon="7.38056">
        <ele>1363.1999511719</ele>
        <time>2018-06-15T11:14:24.000Z</time>
      </trkpt>
      <trkpt lat="43.93833" lon="7.38066">
        <ele>1363</ele>
        <time>2018-06-15T11:14:25.000Z</time>
      </trkpt>
      <trkpt lat="43.93835" lon="7.38075">
        <ele>1362.4000244141</ele>
        <time>2018-06-15T11:14:26.000Z</time>
      </trkpt>
      <trkpt lat="43.93837" lon="7.38086">
        <ele>1362.1999511719</ele>
        <time>2018-06-15T11:14:27.000Z</time>
      </trkpt>
      <trkpt lat="43.93839" lon="7.38097">
        <ele>1361.8000488281</ele>
        <time>2018-06-15T11:14:28.000Z</time>
      </trkpt>
      <trkpt lat="43.93838" lon="7.38107">
        <ele>1361.5999755859</ele>
        <time>2018-06-15T11:14:29.000Z</time>
      </trkpt>
      <trkpt lat="43.9384" lon="7.38127">
        <ele>1361</ele>
        <time>2018-06-15T11:14:31.000Z</time>
      </trkpt>
      <trkpt lat="43.93839" lon="7.38135">
        <ele>1361</ele>
        <time>2018-06-15T11:14:32.000Z</time>
      </trkpt>
      <trkpt lat="43.93837" lon="7.38154">
        <ele>1360.1999511719</ele>
        <time>2018-06-15T11:14:34.000Z</time>
      </trkpt>
      <trkpt lat="43.93844" lon="7.38187">
        <ele>1359</ele>
        <time>2018-06-15T11:14:38.000Z</time>
      </trkpt>
      <trkpt lat="43.93848" lon="7.38192">
        <ele>1359</ele>
        <time>2018-06-15T11:14:39.000Z</time>
      </trkpt>
      <trkpt lat="43.93853" lon="7.38196">
        <ele>1358.8000488281</ele>
        <time>2018-06-15T11:14:40.000Z</time>
      </trkpt>
      <trkpt lat="43.93862" lon="7.38209">
        <ele>1358.1999511719</ele>
        <time>2018-06-15T11:14:42.000Z</time>
      </trkpt>
      <trkpt lat="43.93863" lon="7.38217">
        <ele>1357.1999511719</ele>
        <time>2018-06-15T11:14:43.000Z</time>
      </trkpt>
      <trkpt lat="43.93864" lon="7.38226">
        <ele>1356.1999511719</ele>
        <time>2018-06-15T11:14:44.000Z</time>
      </trkpt>
      <trkpt lat="43.93863" lon="7.38236">
        <ele>1355</ele>
        <time>2018-06-15T11:14:45.000Z</time>
      </trkpt>
      <trkpt lat="43.9386" lon="7.3825">
        <ele>1353.1999511719</ele>
        <time>2018-06-15T11:14:47.000Z</time>
      </trkpt>
      <trkpt lat="43.93859" lon="7.38255">
        <ele>1352.8000488281</ele>
        <time>2018-06-15T11:14:48.000Z</time>
      </trkpt>
      <trkpt lat="43.93858" lon="7.3826">
        <ele>1352.1999511719</ele>
        <time>2018-06-15T11:14:49.000Z</time>
      </trkpt>
      <trkpt lat="43.93856" lon="7.38271">
        <ele>1350.8000488281</ele>
        <time>2018-06-15T11:14:52.000Z</time>
      </trkpt>
      <trkpt lat="43.93854" lon="7.38274">
        <ele>1350</ele>
        <time>2018-06-15T11:14:53.000Z</time>
      </trkpt>
      <trkpt lat="43.93853" lon="7.38276">
        <ele>1349.1999511719</ele>
        <time>2018-06-15T11:14:54.000Z</time>
      </trkpt>
      <trkpt lat="43.93848" lon="7.38286">
        <ele>1347.5999755859</ele>
        <time>2018-06-15T11:14:56.000Z</time>
      </trkpt>
      <trkpt lat="43.93844" lon="7.38289">
        <ele>1346.8000488281</ele>
        <time>2018-06-15T11:14:57.000Z</time>
      </trkpt>
      <trkpt lat="43.93843" lon="7.38291">
        <ele>1346</ele>
        <time>2018-06-15T11:14:58.000Z</time>
      </trkpt>
      <trkpt lat="43.9384" lon="7.38292">
        <ele>1345.5999755859</ele>
        <time>2018-06-15T11:14:59.000Z</time>
      </trkpt>
      <trkpt lat="43.9384" lon="7.38291">
        <ele>1345.1999511719</ele>
        <time>2018-06-15T11:15:00.000Z</time>
      </trkpt>
      <trkpt lat="43.93841" lon="7.38291">
        <ele>1345</ele>
        <time>2018-06-15T11:15:01.000Z</time>
      </trkpt>
      <trkpt lat="43.93839" lon="7.38295">
        <ele>1345.8000488281</ele>
        <time>2018-06-15T11:15:35.000Z</time>
      </trkpt>
      <trkpt lat="43.93835" lon="7.38298">
        <ele>1345.1999511719</ele>
        <time>2018-06-15T11:15:37.000Z</time>
      </trkpt>
      <trkpt lat="43.93829" lon="7.38303">
        <ele>1344.5999755859</ele>
        <time>2018-06-15T11:15:39.000Z</time>
      </trkpt>
      <trkpt lat="43.93823" lon="7.3831">
        <ele>1343.5999755859</ele>
        <time>2018-06-15T11:15:42.000Z</time>
      </trkpt>
      <trkpt lat="43.9381" lon="7.38327">
        <ele>1342.5999755859</ele>
        <time>2018-06-15T11:15:47.000Z</time>
      </trkpt>
      <trkpt lat="43.93805" lon="7.3833">
        <ele>1342</ele>
        <time>2018-06-15T11:15:48.000Z</time>
      </trkpt>
      <trkpt lat="43.938" lon="7.38333">
        <ele>1341.4000244141</ele>
        <time>2018-06-15T11:15:49.000Z</time>
      </trkpt>
      <trkpt lat="43.93788" lon="7.38337">
        <ele>1340.5999755859</ele>
        <time>2018-06-15T11:15:51.000Z</time>
      </trkpt>
      <trkpt lat="43.93782" lon="7.3834">
        <ele>1340</ele>
        <time>2018-06-15T11:15:52.000Z</time>
      </trkpt>
      <trkpt lat="43.93775" lon="7.38345">
        <ele>1339.4000244141</ele>
        <time>2018-06-15T11:15:53.000Z</time>
      </trkpt>
      <trkpt lat="43.93763" lon="7.38355">
        <ele>1339</ele>
        <time>2018-06-15T11:15:55.000Z</time>
      </trkpt>
      <trkpt lat="43.93759" lon="7.38362">
        <ele>1339</ele>
        <time>2018-06-15T11:15:56.000Z</time>
      </trkpt>
      <trkpt lat="43.93753" lon="7.38378">
        <ele>1339</ele>
        <time>2018-06-15T11:15:58.000Z</time>
      </trkpt>
      <trkpt lat="43.93759" lon="7.38411">
        <ele>1339.1999511719</ele>
        <time>2018-06-15T11:16:01.000Z</time>
      </trkpt>
      <trkpt lat="43.93765" lon="7.38436">
        <ele>1339.1999511719</ele>
        <time>2018-06-15T11:16:03.000Z</time>
      </trkpt>
      <trkpt lat="43.93766" lon="7.38446">
        <ele>1338.8000488281</ele>
        <time>2018-06-15T11:16:04.000Z</time>
      </trkpt>
      <trkpt lat="43.93781" lon="7.3847">
        <ele>1338</ele>
        <time>2018-06-15T11:16:06.000Z</time>
      </trkpt>
      <trkpt lat="43.93786" lon="7.38482">
        <ele>1336.4000244141</ele>
        <time>2018-06-15T11:16:07.000Z</time>
      </trkpt>
      <trkpt lat="43.93789" lon="7.38495">
        <ele>1335.4000244141</ele>
        <time>2018-06-15T11:16:08.000Z</time>
      </trkpt>
      <trkpt lat="43.93792" lon="7.38506">
        <ele>1334.8000488281</ele>
        <time>2018-06-15T11:16:09.000Z</time>
      </trkpt>
      <trkpt lat="43.93795" lon="7.38516">
        <ele>1334</ele>
        <time>2018-06-15T11:16:10.000Z</time>
      </trkpt>
      <trkpt lat="43.93795" lon="7.38526">
        <ele>1332.8000488281</ele>
        <time>2018-06-15T11:16:11.000Z</time>
      </trkpt>
      <trkpt lat="43.93794" lon="7.38536">
        <ele>1331.8000488281</ele>
        <time>2018-06-15T11:16:12.000Z</time>
      </trkpt>
      <trkpt lat="43.93791" lon="7.38545">
        <ele>1330.5999755859</ele>
        <time>2018-06-15T11:16:13.000Z</time>
      </trkpt>
      <trkpt lat="43.93783" lon="7.38558">
        <ele>1328.5999755859</ele>
        <time>2018-06-15T11:16:15.000Z</time>
      </trkpt>
      <trkpt lat="43.93777" lon="7.38564">
        <ele>1327.5999755859</ele>
        <time>2018-06-15T11:16:16.000Z</time>
      </trkpt>
      <trkpt lat="43.9377" lon="7.3857">
        <ele>1326.4000244141</ele>
        <time>2018-06-15T11:16:17.000Z</time>
      </trkpt>
      <trkpt lat="43.93756" lon="7.38579">
        <ele>1324.8000488281</ele>
        <time>2018-06-15T11:16:19.000Z</time>
      </trkpt>
      <trkpt lat="43.93749" lon="7.38582">
        <ele>1324</ele>
        <time>2018-06-15T11:16:20.000Z</time>
      </trkpt>
      <trkpt lat="43.93741" lon="7.38584">
        <ele>1323.4000244141</ele>
        <time>2018-06-15T11:16:21.000Z</time>
      </trkpt>
      <trkpt lat="43.93735" lon="7.38586">
        <ele>1322.5999755859</ele>
        <time>2018-06-15T11:16:22.000Z</time>
      </trkpt>
      <trkpt lat="43.93728" lon="7.38588">
        <ele>1322.1999511719</ele>
        <time>2018-06-15T11:16:23.000Z</time>
      </trkpt>
      <trkpt lat="43.93716" lon="7.38592">
        <ele>1320.8000488281</ele>
        <time>2018-06-15T11:16:25.000Z</time>
      </trkpt>
      <trkpt lat="43.93703" lon="7.38595">
        <ele>1319.5999755859</ele>
        <time>2018-06-15T11:16:27.000Z</time>
      </trkpt>
      <trkpt lat="43.93693" lon="7.38596">
        <ele>1318.8000488281</ele>
        <time>2018-06-15T11:16:29.000Z</time>
      </trkpt>
      <trkpt lat="43.93688" lon="7.38595">
        <ele>1318.5999755859</ele>
        <time>2018-06-15T11:16:30.000Z</time>
      </trkpt>
      <trkpt lat="43.93675" lon="7.38591">
        <ele>1317.5999755859</ele>
        <time>2018-06-15T11:16:33.000Z</time>
      </trkpt>
      <trkpt lat="43.93672" lon="7.38589">
        <ele>1317.4000244141</ele>
        <time>2018-06-15T11:16:34.000Z</time>
      </trkpt>
      <trkpt lat="43.93665" lon="7.38582">
        <ele>1316.8000488281</ele>
        <time>2018-06-15T11:16:36.000Z</time>
      </trkpt>
      <trkpt lat="43.93656" lon="7.38574">
        <ele>1316.4000244141</ele>
        <time>2018-06-15T11:16:39.000Z</time>
      </trkpt>
      <trkpt lat="43.93644" lon="7.38565">
        <ele>1316</ele>
        <time>2018-06-15T11:16:43.000Z</time>
      </trkpt>
      <trkpt lat="43.93629" lon="7.38547">
        <ele>1315.1999511719</ele>
        <time>2018-06-15T11:16:48.000Z</time>
      </trkpt>
      <trkpt lat="43.93625" lon="7.38545">
        <ele>1315</ele>
        <time>2018-06-15T11:16:49.000Z</time>
      </trkpt>
      <trkpt lat="43.93616" lon="7.38537">
        <ele>1314</ele>
        <time>2018-06-15T11:16:52.000Z</time>
      </trkpt>
      <trkpt lat="43.93607" lon="7.38535">
        <ele>1313</ele>
        <time>2018-06-15T11:16:54.000Z</time>
      </trkpt>
      <trkpt lat="43.93602" lon="7.38536">
        <ele>1312.8000488281</ele>
        <time>2018-06-15T11:16:55.000Z</time>
      </trkpt>
      <trkpt lat="43.9359" lon="7.38541">
        <ele>1311.8000488281</ele>
        <time>2018-06-15T11:16:58.000Z</time>
      </trkpt>
      <trkpt lat="43.93585" lon="7.38541">
        <ele>1311.5999755859</ele>
        <time>2018-06-15T11:16:59.000Z</time>
      </trkpt>
      <trkpt lat="43.9357" lon="7.38546">
        <ele>1310.5999755859</ele>
        <time>2018-06-15T11:17:02.000Z</time>
      </trkpt>
      <trkpt lat="43.93565" lon="7.3855">
        <ele>1310.4000244141</ele>
        <time>2018-06-15T11:17:03.000Z</time>
      </trkpt>
      <trkpt lat="43.93561" lon="7.38553">
        <ele>1310.1999511719</ele>
        <time>2018-06-15T11:17:04.000Z</time>
      </trkpt>
      <trkpt lat="43.9355" lon="7.38557">
        <ele>1309.5999755859</ele>
        <time>2018-06-15T11:17:06.000Z</time>
      </trkpt>
      <trkpt lat="43.93545" lon="7.38558">
        <ele>1309.4000244141</ele>
        <time>2018-06-15T11:17:07.000Z</time>
      </trkpt>
      <trkpt lat="43.93533" lon="7.38564">
        <ele>1309.1999511719</ele>
        <time>2018-06-15T11:17:10.000Z</time>
      </trkpt>
      <trkpt lat="43.93527" lon="7.38571">
        <ele>1309</ele>
        <time>2018-06-15T11:17:12.000Z</time>
      </trkpt>
      <trkpt lat="43.93511" lon="7.38588">
        <ele>1308.1999511719</ele>
        <time>2018-06-15T11:17:17.000Z</time>
      </trkpt>
      <trkpt lat="43.93505" lon="7.38594">
        <ele>1308</ele>
        <time>2018-06-15T11:17:19.000Z</time>
      </trkpt>
      <trkpt lat="43.93494" lon="7.38607">
        <ele>1307</ele>
        <time>2018-06-15T11:17:23.000Z</time>
      </trkpt>
      <trkpt lat="43.93482" lon="7.38601">
        <ele>1306</ele>
        <time>2018-06-15T11:17:26.000Z</time>
      </trkpt>
      <trkpt lat="43.93473" lon="7.38592">
        <ele>1305</ele>
        <time>2018-06-15T11:17:28.000Z</time>
      </trkpt>
      <trkpt lat="43.93468" lon="7.38587">
        <ele>1304.1999511719</ele>
        <time>2018-06-15T11:17:29.000Z</time>
      </trkpt>
      <trkpt lat="43.93462" lon="7.38584">
        <ele>1303.8000488281</ele>
        <time>2018-06-15T11:17:30.000Z</time>
      </trkpt>
      <trkpt lat="43.93449" lon="7.3858">
        <ele>1302.4000244141</ele>
        <time>2018-06-15T11:17:32.000Z</time>
      </trkpt>
      <trkpt lat="43.93439" lon="7.38577">
        <ele>1301.1999511719</ele>
        <time>2018-06-15T11:17:34.000Z</time>
      </trkpt>
      <trkpt lat="43.93436" lon="7.38573">
        <ele>1301</ele>
        <time>2018-06-15T11:17:35.000Z</time>
      </trkpt>
      <trkpt lat="43.93434" lon="7.38564">
        <ele>1300</ele>
        <time>2018-06-15T11:17:37.000Z</time>
      </trkpt>
      <trkpt lat="43.93434" lon="7.38549">
        <ele>1299.1999511719</ele>
        <time>2018-06-15T11:17:40.000Z</time>
      </trkpt>
      <trkpt lat="43.93433" lon="7.3854">
        <ele>1299</ele>
        <time>2018-06-15T11:17:42.000Z</time>
      </trkpt>
      <trkpt lat="43.93425" lon="7.38514">
        <ele>1298</ele>
        <time>2018-06-15T11:17:47.000Z</time>
      </trkpt>
      <trkpt lat="43.93415" lon="7.38512">
        <ele>1297.5999755859</ele>
        <time>2018-06-15T11:17:51.000Z</time>
      </trkpt>
      <trkpt lat="43.93415" lon="7.38525">
        <ele>1297.4000244141</ele>
        <time>2018-06-15T11:17:54.000Z</time>
      </trkpt>
      <trkpt lat="43.9342" lon="7.38533">
        <ele>1297</ele>
        <time>2018-06-15T11:17:57.000Z</time>
      </trkpt>
      <trkpt lat="43.93423" lon="7.38537">
        <ele>1296.5999755859</ele>
        <time>2018-06-15T11:17:59.000Z</time>
      </trkpt>
      <trkpt lat="43.93425" lon="7.38552">
        <ele>1297</ele>
        <time>2018-06-15T11:18:05.000Z</time>
      </trkpt>
      <trkpt lat="43.93425" lon="7.3857">
        <ele>1296.5999755859</ele>
        <time>2018-06-15T11:18:11.000Z</time>
      </trkpt>
      <trkpt lat="43.93432" lon="7.38587">
        <ele>1296.5999755859</ele>
        <time>2018-06-15T11:18:16.000Z</time>
      </trkpt>
      <trkpt lat="43.93447" lon="7.38595">
        <ele>1296.4000244141</ele>
        <time>2018-06-15T11:18:21.000Z</time>
      </trkpt>
      <trkpt lat="43.93451" lon="7.38598">
        <ele>1296.4000244141</ele>
        <time>2018-06-15T11:18:22.000Z</time>
      </trkpt>
      <trkpt lat="43.93459" lon="7.38605">
        <ele>1295.8000488281</ele>
        <time>2018-06-15T11:18:24.000Z</time>
      </trkpt>
      <trkpt lat="43.93462" lon="7.38611">
        <ele>1295.5999755859</ele>
        <time>2018-06-15T11:18:25.000Z</time>
      </trkpt>
      <trkpt lat="43.93467" lon="7.38627">
        <ele>1294.8000488281</ele>
        <time>2018-06-15T11:18:28.000Z</time>
      </trkpt>
      <trkpt lat="43.93467" lon="7.38632">
        <ele>1294.5999755859</ele>
        <time>2018-06-15T11:18:29.000Z</time>
      </trkpt>
      <trkpt lat="43.93468" lon="7.38636">
        <ele>1294.4000244141</ele>
        <time>2018-06-15T11:18:30.000Z</time>
      </trkpt>
      <trkpt lat="43.93469" lon="7.38653">
        <ele>1293.5999755859</ele>
        <time>2018-06-15T11:18:33.000Z</time>
      </trkpt>
      <trkpt lat="43.93469" lon="7.38658">
        <ele>1293.4000244141</ele>
        <time>2018-06-15T11:18:34.000Z</time>
      </trkpt>
      <trkpt lat="43.93468" lon="7.38665">
        <ele>1293</ele>
        <time>2018-06-15T11:18:35.000Z</time>
      </trkpt>
      <trkpt lat="43.93466" lon="7.38671">
        <ele>1292.4000244141</ele>
        <time>2018-06-15T11:18:36.000Z</time>
      </trkpt>
      <trkpt lat="43.93461" lon="7.38684">
        <ele>1291.4000244141</ele>
        <time>2018-06-15T11:18:38.000Z</time>
      </trkpt>
      <trkpt lat="43.93458" lon="7.38691">
        <ele>1290.8000488281</ele>
        <time>2018-06-15T11:18:39.000Z</time>
      </trkpt>
      <trkpt lat="43.93454" lon="7.38699">
        <ele>1290</ele>
        <time>2018-06-15T11:18:40.000Z</time>
      </trkpt>
      <trkpt lat="43.9345" lon="7.38707">
        <ele>1289.4000244141</ele>
        <time>2018-06-15T11:18:41.000Z</time>
      </trkpt>
      <trkpt lat="43.93449" lon="7.38713">
        <ele>1288.5999755859</ele>
        <time>2018-06-15T11:18:42.000Z</time>
      </trkpt>
      <trkpt lat="43.93448" lon="7.38716">
        <ele>1288.1999511719</ele>
        <time>2018-06-15T11:18:43.000Z</time>
      </trkpt>
      <trkpt lat="43.93447" lon="7.38719">
        <ele>1287.8000488281</ele>
        <time>2018-06-15T11:18:44.000Z</time>
      </trkpt>
      <trkpt lat="43.93446" lon="7.38727">
        <ele>1287</ele>
        <time>2018-06-15T11:18:48.000Z</time>
      </trkpt>
      <trkpt lat="43.93445" lon="7.38729">
        <ele>1286.8000488281</ele>
        <time>2018-06-15T11:18:49.000Z</time>
      </trkpt>
      <trkpt lat="43.93445" lon="7.38729">
        <ele>1286.5999755859</ele>
        <time>2018-06-15T11:18:51.000Z</time>
      </trkpt>
      <trkpt lat="43.93443" lon="7.38735">
        <ele>1283.4000244141</ele>
        <time>2018-06-15T11:23:15.000Z</time>
      </trkpt>
      <trkpt lat="43.93442" lon="7.38738">
        <ele>1283.5999755859</ele>
        <time>2018-06-15T11:23:16.000Z</time>
      </trkpt>
      <trkpt lat="43.9344" lon="7.38756">
        <ele>1284.4000244141</ele>
        <time>2018-06-15T11:23:21.000Z</time>
      </trkpt>
      <trkpt lat="43.93439" lon="7.38758">
        <ele>1284.5999755859</ele>
        <time>2018-06-15T11:23:22.000Z</time>
      </trkpt>
      <trkpt lat="43.93437" lon="7.38761">
        <ele>1285</ele>
        <time>2018-06-15T11:23:23.000Z</time>
      </trkpt>
      <trkpt lat="43.93433" lon="7.38765">
        <ele>1285.5999755859</ele>
        <time>2018-06-15T11:23:25.000Z</time>
      </trkpt>
      <trkpt lat="43.93432" lon="7.38767">
        <ele>1286</ele>
        <time>2018-06-15T11:23:26.000Z</time>
      </trkpt>
      <trkpt lat="43.93429" lon="7.3877">
        <ele>1286.5999755859</ele>
        <time>2018-06-15T11:23:28.000Z</time>
      </trkpt>
      <trkpt lat="43.93425" lon="7.38777">
        <ele>1288</ele>
        <time>2018-06-15T11:23:32.000Z</time>
      </trkpt>
      <trkpt lat="43.93423" lon="7.38779">
        <ele>1288.5999755859</ele>
        <time>2018-06-15T11:23:34.000Z</time>
      </trkpt>
      <trkpt lat="43.9342" lon="7.38783">
        <ele>1289.1999511719</ele>
        <time>2018-06-15T11:23:36.000Z</time>
      </trkpt>
      <trkpt lat="43.93419" lon="7.38785">
        <ele>1289.4000244141</ele>
        <time>2018-06-15T11:23:37.000Z</time>
      </trkpt>
      <trkpt lat="43.93414" lon="7.38791">
        <ele>1290.4000244141</ele>
        <time>2018-06-15T11:23:40.000Z</time>
      </trkpt>
      <trkpt lat="43.93411" lon="7.38796">
        <ele>1290.8000488281</ele>
        <time>2018-06-15T11:23:43.000Z</time>
      </trkpt>
      <trkpt lat="43.93409" lon="7.38803">
        <ele>1291.5999755859</ele>
        <time>2018-06-15T11:23:47.000Z</time>
      </trkpt>
      <trkpt lat="43.93408" lon="7.38807">
        <ele>1292</ele>
        <time>2018-06-15T11:23:49.000Z</time>
      </trkpt>
      <trkpt lat="43.93407" lon="7.3881">
        <ele>1292.5999755859</ele>
        <time>2018-06-15T11:23:51.000Z</time>
      </trkpt>
      <trkpt lat="43.93407" lon="7.38813">
        <ele>1293</ele>
        <time>2018-06-15T11:23:53.000Z</time>
      </trkpt>
      <trkpt lat="43.93407" lon="7.38816">
        <ele>1293.1999511719</ele>
        <time>2018-06-15T11:23:54.000Z</time>
      </trkpt>
      <trkpt lat="43.93406" lon="7.38818">
        <ele>1293.5999755859</ele>
        <time>2018-06-15T11:23:55.000Z</time>
      </trkpt>
      <trkpt lat="43.93403" lon="7.38827">
        <ele>1295.1999511719</ele>
        <time>2018-06-15T11:23:59.000Z</time>
      </trkpt>
      <trkpt lat="43.93401" lon="7.3883">
        <ele>1296.8000488281</ele>
        <time>2018-06-15T11:24:01.000Z</time>
      </trkpt>
      <trkpt lat="43.934" lon="7.38834">
        <ele>1298</ele>
        <time>2018-06-15T11:24:03.000Z</time>
      </trkpt>
      <trkpt lat="43.93399" lon="7.38836">
        <ele>1298.4000244141</ele>
        <time>2018-06-15T11:24:04.000Z</time>
      </trkpt>
      <trkpt lat="43.93397" lon="7.38839">
        <ele>1299.4000244141</ele>
        <time>2018-06-15T11:24:06.000Z</time>
      </trkpt>
      <trkpt lat="43.93395" lon="7.38844">
        <ele>1300.4000244141</ele>
        <time>2018-06-15T11:24:08.000Z</time>
      </trkpt>
      <trkpt lat="43.93393" lon="7.38849">
        <ele>1301.5999755859</ele>
        <time>2018-06-15T11:24:10.000Z</time>
      </trkpt>
      <trkpt lat="43.93391" lon="7.3885">
        <ele>1302.1999511719</ele>
        <time>2018-06-15T11:24:11.000Z</time>
      </trkpt>
      <trkpt lat="43.93391" lon="7.38853">
        <ele>1302.5999755859</ele>
        <time>2018-06-15T11:24:12.000Z</time>
      </trkpt>
      <trkpt lat="43.93391" lon="7.38857">
        <ele>1303.1999511719</ele>
        <time>2018-06-15T11:24:14.000Z</time>
      </trkpt>
      <trkpt lat="43.93392" lon="7.38863">
        <ele>1303.4000244141</ele>
        <time>2018-06-15T11:24:16.000Z</time>
      </trkpt>
      <trkpt lat="43.93393" lon="7.3887">
        <ele>1303.8000488281</ele>
        <time>2018-06-15T11:24:18.000Z</time>
      </trkpt>
      <trkpt lat="43.93392" lon="7.38875">
        <ele>1304</ele>
        <time>2018-06-15T11:24:20.000Z</time>
      </trkpt>
      <trkpt lat="43.9339" lon="7.3889">
        <ele>1304.4000244141</ele>
        <time>2018-06-15T11:24:27.000Z</time>
      </trkpt>
      <trkpt lat="43.93388" lon="7.38902">
        <ele>1305</ele>
        <time>2018-06-15T11:24:33.000Z</time>
      </trkpt>
      <trkpt lat="43.93386" lon="7.38916">
        <ele>1305.8000488281</ele>
        <time>2018-06-15T11:24:41.000Z</time>
      </trkpt>
      <trkpt lat="43.93385" lon="7.3892">
        <ele>1306</ele>
        <time>2018-06-15T11:24:43.000Z</time>
      </trkpt>
      <trkpt lat="43.93383" lon="7.38927">
        <ele>1306.1999511719</ele>
        <time>2018-06-15T11:24:47.000Z</time>
      </trkpt>
      <trkpt lat="43.9338" lon="7.38938">
        <ele>1307</ele>
        <time>2018-06-15T11:24:52.000Z</time>
      </trkpt>
      <trkpt lat="43.93378" lon="7.38945">
        <ele>1307.1999511719</ele>
        <time>2018-06-15T11:24:55.000Z</time>
      </trkpt>
      <trkpt lat="43.93378" lon="7.38951">
        <ele>1307</ele>
        <time>2018-06-15T11:24:57.000Z</time>
      </trkpt>
      <trkpt lat="43.93374" lon="7.38968">
        <ele>1306.5999755859</ele>
        <time>2018-06-15T11:25:01.000Z</time>
      </trkpt>
      <trkpt lat="43.93374" lon="7.38975">
        <ele>1306.4000244141</ele>
        <time>2018-06-15T11:25:02.000Z</time>
      </trkpt>
      <trkpt lat="43.93374" lon="7.3899">
        <ele>1306.5999755859</ele>
        <time>2018-06-15T11:25:04.000Z</time>
      </trkpt>
      <trkpt lat="43.93373" lon="7.39">
        <ele>1306.8000488281</ele>
        <time>2018-06-15T11:25:07.000Z</time>
      </trkpt>
      <trkpt lat="43.93372" lon="7.39003">
        <ele>1307.1999511719</ele>
        <time>2018-06-15T11:25:11.000Z</time>
      </trkpt>
      <trkpt lat="43.93364" lon="7.39015">
        <ele>1318</ele>
        <time>2018-06-15T11:26:08.000Z</time>
      </trkpt>
      <trkpt lat="43.93365" lon="7.39023">
        <ele>1317.5999755859</ele>
        <time>2018-06-15T11:26:12.000Z</time>
      </trkpt>
      <trkpt lat="43.93363" lon="7.39035">
        <ele>1318.4000244141</ele>
        <time>2018-06-15T11:26:17.000Z</time>
      </trkpt>
      <trkpt lat="43.93348" lon="7.3908">
        <ele>1323.8000488281</ele>
        <time>2018-06-15T11:27:40.000Z</time>
      </trkpt>
      <trkpt lat="43.93336" lon="7.39086">
        <ele>1324.5999755859</ele>
        <time>2018-06-15T11:27:47.000Z</time>
      </trkpt>
      <trkpt lat="43.93333" lon="7.39088">
        <ele>1325</ele>
        <time>2018-06-15T11:27:49.000Z</time>
      </trkpt>
      <trkpt lat="43.93327" lon="7.39089">
        <ele>1325.5999755859</ele>
        <time>2018-06-15T11:27:53.000Z</time>
      </trkpt>
      <trkpt lat="43.93325" lon="7.39089">
        <ele>1326</ele>
        <time>2018-06-15T11:27:54.000Z</time>
      </trkpt>
      <trkpt lat="43.93318" lon="7.39094">
        <ele>1327.1999511719</ele>
        <time>2018-06-15T11:27:59.000Z</time>
      </trkpt>
      <trkpt lat="43.93311" lon="7.39096">
        <ele>1328.1999511719</ele>
        <time>2018-06-15T11:28:04.000Z</time>
      </trkpt>
      <trkpt lat="43.93306" lon="7.39096">
        <ele>1328.1999511719</ele>
        <time>2018-06-15T11:28:07.000Z</time>
      </trkpt>
      <trkpt lat="43.93303" lon="7.39096">
        <ele>1328.5999755859</ele>
        <time>2018-06-15T11:28:11.000Z</time>
      </trkpt>
      <trkpt lat="43.93293" lon="7.39098">
        <ele>1330.4000244141</ele>
        <time>2018-06-15T11:28:31.000Z</time>
      </trkpt>
      <trkpt lat="43.93291" lon="7.39098">
        <ele>1330.5999755859</ele>
        <time>2018-06-15T11:28:32.000Z</time>
      </trkpt>
      <trkpt lat="43.9328" lon="7.39098">
        <ele>1331.5999755859</ele>
        <time>2018-06-15T11:28:38.000Z</time>
      </trkpt>
      <trkpt lat="43.93278" lon="7.39098">
        <ele>1331.8000488281</ele>
        <time>2018-06-15T11:28:39.000Z</time>
      </trkpt>
      <trkpt lat="43.93267" lon="7.39094">
        <ele>1332.5999755859</ele>
        <time>2018-06-15T11:28:45.000Z</time>
      </trkpt>
      <trkpt lat="43.93265" lon="7.39094">
        <ele>1332.8000488281</ele>
        <time>2018-06-15T11:28:46.000Z</time>
      </trkpt>
      <trkpt lat="43.93257" lon="7.39094">
        <ele>1333.4000244141</ele>
        <time>2018-06-15T11:28:50.000Z</time>
      </trkpt>
      <trkpt lat="43.93251" lon="7.39093">
        <ele>1334</ele>
        <time>2018-06-15T11:28:53.000Z</time>
      </trkpt>
      <trkpt lat="43.93246" lon="7.39092">
        <ele>1334.5999755859</ele>
        <time>2018-06-15T11:28:56.000Z</time>
      </trkpt>
      <trkpt lat="43.93237" lon="7.39092">
        <ele>1335.1999511719</ele>
        <time>2018-06-15T11:29:00.000Z</time>
      </trkpt>
      <trkpt lat="43.9323" lon="7.39094">
        <ele>1335.4000244141</ele>
        <time>2018-06-15T11:29:04.000Z</time>
      </trkpt>
      <trkpt lat="43.93223" lon="7.39094">
        <ele>1336</ele>
        <time>2018-06-15T11:29:09.000Z</time>
      </trkpt>
      <trkpt lat="43.93221" lon="7.39094">
        <ele>1336.1999511719</ele>
        <time>2018-06-15T11:29:10.000Z</time>
      </trkpt>
      <trkpt lat="43.93214" lon="7.39091">
        <ele>1337</ele>
        <time>2018-06-15T11:29:15.000Z</time>
      </trkpt>
      <trkpt lat="43.9321" lon="7.3909">
        <ele>1337.5999755859</ele>
        <time>2018-06-15T11:29:18.000Z</time>
      </trkpt>
      <trkpt lat="43.93202" lon="7.39089">
        <ele>1338.4000244141</ele>
        <time>2018-06-15T11:29:23.000Z</time>
      </trkpt>
      <trkpt lat="43.93194" lon="7.3909">
        <ele>1338.8000488281</ele>
        <time>2018-06-15T11:29:28.000Z</time>
      </trkpt>
      <trkpt lat="43.93192" lon="7.3909">
        <ele>1339.1999511719</ele>
        <time>2018-06-15T11:29:29.000Z</time>
      </trkpt>
      <trkpt lat="43.93189" lon="7.39091">
        <ele>1339.8000488281</ele>
        <time>2018-06-15T11:29:31.000Z</time>
      </trkpt>
      <trkpt lat="43.93182" lon="7.3909">
        <ele>1341</ele>
        <time>2018-06-15T11:29:35.000Z</time>
      </trkpt>
      <trkpt lat="43.9318" lon="7.3909">
        <ele>1341.4000244141</ele>
        <time>2018-06-15T11:29:36.000Z</time>
      </trkpt>
      <trkpt lat="43.93173" lon="7.39088">
        <ele>1342.4000244141</ele>
        <time>2018-06-15T11:29:40.000Z</time>
      </trkpt>
      <trkpt lat="43.93172" lon="7.39087">
        <ele>1342.1999511719</ele>
        <time>2018-06-15T11:29:41.000Z</time>
      </trkpt>
      <trkpt lat="43.93161" lon="7.39086">
        <ele>1342.4000244141</ele>
        <time>2018-06-15T11:29:47.000Z</time>
      </trkpt>
      <trkpt lat="43.93149" lon="7.39086">
        <ele>1343.5999755859</ele>
        <time>2018-06-15T11:29:54.000Z</time>
      </trkpt>
      <trkpt lat="43.93143" lon="7.39085">
        <ele>1344</ele>
        <time>2018-06-15T11:29:58.000Z</time>
      </trkpt>
      <trkpt lat="43.9314" lon="7.39085">
        <ele>1344.1999511719</ele>
        <time>2018-06-15T11:29:59.000Z</time>
      </trkpt>
      <trkpt lat="43.93135" lon="7.39085">
        <ele>1344.4000244141</ele>
        <time>2018-06-15T11:30:02.000Z</time>
      </trkpt>
      <trkpt lat="43.93133" lon="7.39086">
        <ele>1345.1999511719</ele>
        <time>2018-06-15T11:30:04.000Z</time>
      </trkpt>
      <trkpt lat="43.93125" lon="7.39088">
        <ele>1346</ele>
        <time>2018-06-15T11:30:09.000Z</time>
      </trkpt>
      <trkpt lat="43.93123" lon="7.3909">
        <ele>1346.1999511719</ele>
        <time>2018-06-15T11:30:10.000Z</time>
      </trkpt>
      <trkpt lat="43.93121" lon="7.39091">
        <ele>1346.1999511719</ele>
        <time>2018-06-15T11:30:11.000Z</time>
      </trkpt>
      <trkpt lat="43.93116" lon="7.39096">
        <ele>1347.1999511719</ele>
        <time>2018-06-15T11:30:15.000Z</time>
      </trkpt>
      <trkpt lat="43.93115" lon="7.39096">
        <ele>1347.5999755859</ele>
        <time>2018-06-15T11:30:16.000Z</time>
      </trkpt>
      <trkpt lat="43.93113" lon="7.39097">
        <ele>1347.5999755859</ele>
        <time>2018-06-15T11:30:17.000Z</time>
      </trkpt>
      <trkpt lat="43.93107" lon="7.39101">
        <ele>1348.4000244141</ele>
        <time>2018-06-15T11:30:20.000Z</time>
      </trkpt>
      <trkpt lat="43.93106" lon="7.39102">
        <ele>1348.8000488281</ele>
        <time>2018-06-15T11:30:21.000Z</time>
      </trkpt>
      <trkpt lat="43.93102" lon="7.39107">
        <ele>1349.8000488281</ele>
        <time>2018-06-15T11:30:24.000Z</time>
      </trkpt>
      <trkpt lat="43.93101" lon="7.39108">
        <ele>1350.4000244141</ele>
        <time>2018-06-15T11:30:25.000Z</time>
      </trkpt>
      <trkpt lat="43.93095" lon="7.39112">
        <ele>1351.4000244141</ele>
        <time>2018-06-15T11:30:28.000Z</time>
      </trkpt>
      <trkpt lat="43.93094" lon="7.39113">
        <ele>1351.4000244141</ele>
        <time>2018-06-15T11:30:29.000Z</time>
      </trkpt>
      <trkpt lat="43.93088" lon="7.39115">
        <ele>1351.5999755859</ele>
        <time>2018-06-15T11:30:33.000Z</time>
      </trkpt>
      <trkpt lat="43.93085" lon="7.39116">
        <ele>1352.1999511719</ele>
        <time>2018-06-15T11:30:34.000Z</time>
      </trkpt>
      <trkpt lat="43.93084" lon="7.39117">
        <ele>1352.5999755859</ele>
        <time>2018-06-15T11:30:35.000Z</time>
      </trkpt>
      <trkpt lat="43.93081" lon="7.39122">
        <ele>1353.8000488281</ele>
        <time>2018-06-15T11:30:38.000Z</time>
      </trkpt>
      <trkpt lat="43.93077" lon="7.39125">
        <ele>1354.5999755859</ele>
        <time>2018-06-15T11:30:41.000Z</time>
      </trkpt>
      <trkpt lat="43.93076" lon="7.39126">
        <ele>1354.8000488281</ele>
        <time>2018-06-15T11:30:42.000Z</time>
      </trkpt>
      <trkpt lat="43.93072" lon="7.39128">
        <ele>1356</ele>
        <time>2018-06-15T11:30:45.000Z</time>
      </trkpt>
      <trkpt lat="43.93071" lon="7.39128">
        <ele>1356.1999511719</ele>
        <time>2018-06-15T11:30:46.000Z</time>
      </trkpt>
      <trkpt lat="43.93068" lon="7.39129">
        <ele>1357</ele>
        <time>2018-06-15T11:30:48.000Z</time>
      </trkpt>
      <trkpt lat="43.93065" lon="7.3913">
        <ele>1358.1999511719</ele>
        <time>2018-06-15T11:30:51.000Z</time>
      </trkpt>
      <trkpt lat="43.93063" lon="7.3913">
        <ele>1358.5999755859</ele>
        <time>2018-06-15T11:30:52.000Z</time>
      </trkpt>
      <trkpt lat="43.93058" lon="7.39131">
        <ele>1359.1999511719</ele>
        <time>2018-06-15T11:30:55.000Z</time>
      </trkpt>
      <trkpt lat="43.93055" lon="7.39133">
        <ele>1360</ele>
        <time>2018-06-15T11:30:57.000Z</time>
      </trkpt>
      <trkpt lat="43.93054" lon="7.39134">
        <ele>1360.4000244141</ele>
        <time>2018-06-15T11:30:58.000Z</time>
      </trkpt>
      <trkpt lat="43.93053" lon="7.39135">
        <ele>1360.8000488281</ele>
        <time>2018-06-15T11:30:59.000Z</time>
      </trkpt>
      <trkpt lat="43.93051" lon="7.39137">
        <ele>1361.5999755859</ele>
        <time>2018-06-15T11:31:01.000Z</time>
      </trkpt>
      <trkpt lat="43.93051" lon="7.39137">
        <ele>1361.8000488281</ele>
        <time>2018-06-15T11:31:02.000Z</time>
      </trkpt>
      <trkpt lat="43.92983" lon="7.39179">
        <ele>1397</ele>
        <time>2018-06-15T11:36:44.000Z</time>
      </trkpt>
      <trkpt lat="43.92973" lon="7.39185">
        <ele>1398</ele>
        <time>2018-06-15T11:36:50.000Z</time>
      </trkpt>
      <trkpt lat="43.92972" lon="7.39186">
        <ele>1398.1999511719</ele>
        <time>2018-06-15T11:36:51.000Z</time>
      </trkpt>
      <trkpt lat="43.92965" lon="7.3919">
        <ele>1399.1999511719</ele>
        <time>2018-06-15T11:36:56.000Z</time>
      </trkpt>
      <trkpt lat="43.92964" lon="7.39192">
        <ele>1399.5999755859</ele>
        <time>2018-06-15T11:36:57.000Z</time>
      </trkpt>
      <trkpt lat="43.92961" lon="7.39194">
        <ele>1400.4000244141</ele>
        <time>2018-06-15T11:36:59.000Z</time>
      </trkpt>
      <trkpt lat="43.92956" lon="7.39199">
        <ele>1401.4000244141</ele>
        <time>2018-06-15T11:37:02.000Z</time>
      </trkpt>
      <trkpt lat="43.92952" lon="7.39202">
        <ele>1403.1999511719</ele>
        <time>2018-06-15T11:37:05.000Z</time>
      </trkpt>
      <trkpt lat="43.92948" lon="7.39204">
        <ele>1404.4000244141</ele>
        <time>2018-06-15T11:37:07.000Z</time>
      </trkpt>
      <trkpt lat="43.9294" lon="7.39206">
        <ele>1405.4000244141</ele>
        <time>2018-06-15T11:37:12.000Z</time>
      </trkpt>
      <trkpt lat="43.92928" lon="7.39208">
        <ele>1406</ele>
        <time>2018-06-15T11:37:19.000Z</time>
      </trkpt>
      <trkpt lat="43.92924" lon="7.39209">
        <ele>1406.5999755859</ele>
        <time>2018-06-15T11:37:21.000Z</time>
      </trkpt>
      <trkpt lat="43.92919" lon="7.39209">
        <ele>1407.1999511719</ele>
        <time>2018-06-15T11:37:24.000Z</time>
      </trkpt>
      <trkpt lat="43.92916" lon="7.39209">
        <ele>1407.8000488281</ele>
        <time>2018-06-15T11:37:25.000Z</time>
      </trkpt>
      <trkpt lat="43.92911" lon="7.3921">
        <ele>1408.8000488281</ele>
        <time>2018-06-15T11:37:28.000Z</time>
      </trkpt>
      <trkpt lat="43.92909" lon="7.3921">
        <ele>1409.1999511719</ele>
        <time>2018-06-15T11:37:29.000Z</time>
      </trkpt>
      <trkpt lat="43.92903" lon="7.39209">
        <ele>1410.4000244141</ele>
        <time>2018-06-15T11:37:32.000Z</time>
      </trkpt>
      <trkpt lat="43.92899" lon="7.3921">
        <ele>1410.8000488281</ele>
        <time>2018-06-15T11:37:34.000Z</time>
      </trkpt>
      <trkpt lat="43.92894" lon="7.3921">
        <ele>1411.1999511719</ele>
        <time>2018-06-15T11:37:37.000Z</time>
      </trkpt>
      <trkpt lat="43.92893" lon="7.3921">
        <ele>1411.1999511719</ele>
        <time>2018-06-15T11:37:38.000Z</time>
      </trkpt>
      <trkpt lat="43.92889" lon="7.3921">
        <ele>1412</ele>
        <time>2018-06-15T11:37:40.000Z</time>
      </trkpt>
      <trkpt lat="43.92884" lon="7.39212">
        <ele>1413</ele>
        <time>2018-06-15T11:37:43.000Z</time>
      </trkpt>
      <trkpt lat="43.92881" lon="7.39213">
        <ele>1414.1999511719</ele>
        <time>2018-06-15T11:37:45.000Z</time>
      </trkpt>
      <trkpt lat="43.92881" lon="7.39213">
        <ele>1414.5999755859</ele>
        <time>2018-06-15T11:37:47.000Z</time>
      </trkpt>
      <trkpt lat="43.92871" lon="7.39218">
        <ele>1419.8000488281</ele>
        <time>2018-06-15T11:38:12.000Z</time>
      </trkpt>
      <trkpt lat="43.9287" lon="7.39219">
        <ele>1420</ele>
        <time>2018-06-15T11:38:13.000Z</time>
      </trkpt>
      <trkpt lat="43.92865" lon="7.39224">
        <ele>1421</ele>
        <time>2018-06-15T11:38:17.000Z</time>
      </trkpt>
      <trkpt lat="43.92863" lon="7.39226">
        <ele>1421.8000488281</ele>
        <time>2018-06-15T11:38:19.000Z</time>
      </trkpt>
      <trkpt lat="43.9286" lon="7.39227">
        <ele>1422.1999511719</ele>
        <time>2018-06-15T11:38:21.000Z</time>
      </trkpt>
      <trkpt lat="43.92859" lon="7.39228">
        <ele>1422.1999511719</ele>
        <time>2018-06-15T11:38:22.000Z</time>
      </trkpt>
      <trkpt lat="43.92857" lon="7.3923">
        <ele>1422.4000244141</ele>
        <time>2018-06-15T11:38:24.000Z</time>
      </trkpt>
      <trkpt lat="43.92847" lon="7.39234">
        <ele>1422.8000488281</ele>
        <time>2018-06-15T11:38:30.000Z</time>
      </trkpt>
      <trkpt lat="43.92837" lon="7.39237">
        <ele>1422.8000488281</ele>
        <time>2018-06-15T11:38:36.000Z</time>
      </trkpt>
      <trkpt lat="43.92835" lon="7.39239">
        <ele>1423.1999511719</ele>
        <time>2018-06-15T11:38:38.000Z</time>
      </trkpt>
      <trkpt lat="43.92831" lon="7.3924">
        <ele>1424.1999511719</ele>
        <time>2018-06-15T11:38:41.000Z</time>
      </trkpt>
      <trkpt lat="43.92819" lon="7.39242">
        <ele>1424.8000488281</ele>
        <time>2018-06-15T11:38:47.000Z</time>
      </trkpt>
      <trkpt lat="43.9281" lon="7.39242">
        <ele>1425.1999511719</ele>
        <time>2018-06-15T11:38:50.000Z</time>
      </trkpt>
      <trkpt lat="43.92804" lon="7.39244">
        <ele>1424.8000488281</ele>
        <time>2018-06-15T11:38:53.000Z</time>
      </trkpt>
      <trkpt lat="43.92787" lon="7.39242">
        <ele>1425</ele>
        <time>2018-06-15T11:38:59.000Z</time>
      </trkpt>
      <trkpt lat="43.9277" lon="7.39242">
        <ele>1425.5999755859</ele>
        <time>2018-06-15T11:39:05.000Z</time>
      </trkpt>
      <trkpt lat="43.92763" lon="7.39242">
        <ele>1426.4000244141</ele>
        <time>2018-06-15T11:39:08.000Z</time>
      </trkpt>
      <trkpt lat="43.92755" lon="7.39238">
        <ele>1426.5999755859</ele>
        <time>2018-06-15T11:39:11.000Z</time>
      </trkpt>
      <trkpt lat="43.92744" lon="7.39236">
        <ele>1427.1999511719</ele>
        <time>2018-06-15T11:39:16.000Z</time>
      </trkpt>
      <trkpt lat="43.92743" lon="7.39235">
        <ele>1427.4000244141</ele>
        <time>2018-06-15T11:39:17.000Z</time>
      </trkpt>
      <trkpt lat="43.9274" lon="7.39234">
        <ele>1427.5999755859</ele>
        <time>2018-06-15T11:39:20.000Z</time>
      </trkpt>
      <trkpt lat="43.92733" lon="7.39233">
        <ele>1429.5999755859</ele>
        <time>2018-06-15T11:40:56.000Z</time>
      </trkpt>
      <trkpt lat="43.92732" lon="7.39232">
        <ele>1429.4000244141</ele>
        <time>2018-06-15T11:40:57.000Z</time>
      </trkpt>
      <trkpt lat="43.92719" lon="7.39222">
        <ele>1428.5999755859</ele>
        <time>2018-06-15T11:41:03.000Z</time>
      </trkpt>
      <trkpt lat="43.92708" lon="7.39218">
        <ele>1428.1999511719</ele>
        <time>2018-06-15T11:41:07.000Z</time>
      </trkpt>
      <trkpt lat="43.92701" lon="7.39208">
        <ele>1427.8000488281</ele>
        <time>2018-06-15T11:41:11.000Z</time>
      </trkpt>
      <trkpt lat="43.92698" lon="7.39206">
        <ele>1427.8000488281</ele>
        <time>2018-06-15T11:41:12.000Z</time>
      </trkpt>
      <trkpt lat="43.92687" lon="7.39195">
        <ele>1427.5999755859</ele>
        <time>2018-06-15T11:41:16.000Z</time>
      </trkpt>
      <trkpt lat="43.92675" lon="7.39181">
        <ele>1428.5999755859</ele>
        <time>2018-06-15T11:41:22.000Z</time>
      </trkpt>
      <trkpt lat="43.92663" lon="7.39164">
        <ele>1428.8000488281</ele>
        <time>2018-06-15T11:41:29.000Z</time>
      </trkpt>
      <trkpt lat="43.92659" lon="7.39153">
        <ele>1430</ele>
        <time>2018-06-15T11:41:33.000Z</time>
      </trkpt>
      <trkpt lat="43.92656" lon="7.39148">
        <ele>1430.4000244141</ele>
        <time>2018-06-15T11:41:36.000Z</time>
      </trkpt>
      <trkpt lat="43.92651" lon="7.3914">
        <ele>1431</ele>
        <time>2018-06-15T11:41:40.000Z</time>
      </trkpt>
      <trkpt lat="43.92647" lon="7.39137">
        <ele>1431.8000488281</ele>
        <time>2018-06-15T11:41:42.000Z</time>
      </trkpt>
      <trkpt lat="43.92646" lon="7.39136">
        <ele>1432</ele>
        <time>2018-06-15T11:41:43.000Z</time>
      </trkpt>
      <trkpt lat="43.92644" lon="7.39131">
        <ele>1432.5999755859</ele>
        <time>2018-06-15T11:41:45.000Z</time>
      </trkpt>
      <trkpt lat="43.92641" lon="7.39127">
        <ele>1433.4000244141</ele>
        <time>2018-06-15T11:41:47.000Z</time>
      </trkpt>
      <trkpt lat="43.92639" lon="7.39125">
        <ele>1433.5999755859</ele>
        <time>2018-06-15T11:41:48.000Z</time>
      </trkpt>
      <trkpt lat="43.92636" lon="7.39117">
        <ele>1434.4000244141</ele>
        <time>2018-06-15T11:41:52.000Z</time>
      </trkpt>
      <trkpt lat="43.92634" lon="7.39113">
        <ele>1434.8000488281</ele>
        <time>2018-06-15T11:41:54.000Z</time>
      </trkpt>
      <trkpt lat="43.9263" lon="7.39107">
        <ele>1435.4000244141</ele>
        <time>2018-06-15T11:41:57.000Z</time>
      </trkpt>
      <trkpt lat="43.92626" lon="7.39105">
        <ele>1436.8000488281</ele>
        <time>2018-06-15T11:42:00.000Z</time>
      </trkpt>
      <trkpt lat="43.92627" lon="7.39105">
        <ele>1437</ele>
        <time>2018-06-15T11:42:01.000Z</time>
      </trkpt>
      <trkpt lat="43.92596" lon="7.39078">
        <ele>1443.4000244141</ele>
        <time>2018-06-15T11:43:48.000Z</time>
      </trkpt>
      <trkpt lat="43.92595" lon="7.39077">
        <ele>1443.4000244141</ele>
        <time>2018-06-15T11:43:49.000Z</time>
      </trkpt>
      <trkpt lat="43.92592" lon="7.39068">
        <ele>1443.8000488281</ele>
        <time>2018-06-15T11:43:53.000Z</time>
      </trkpt>
      <trkpt lat="43.9259" lon="7.39065">
        <ele>1444</ele>
        <time>2018-06-15T11:43:54.000Z</time>
      </trkpt>
      <trkpt lat="43.92587" lon="7.39062">
        <ele>1444.5999755859</ele>
        <time>2018-06-15T11:43:56.000Z</time>
      </trkpt>
      <trkpt lat="43.92583" lon="7.39058">
        <ele>1444.5999755859</ele>
        <time>2018-06-15T11:43:58.000Z</time>
      </trkpt>
      <trkpt lat="43.92573" lon="7.39048">
        <ele>1444.1999511719</ele>
        <time>2018-06-15T11:44:03.000Z</time>
      </trkpt>
      <trkpt lat="43.92564" lon="7.39041">
        <ele>1444.1999511719</ele>
        <time>2018-06-15T11:44:08.000Z</time>
      </trkpt>
      <trkpt lat="43.92561" lon="7.39039">
        <ele>1443.8000488281</ele>
        <time>2018-06-15T11:44:13.000Z</time>
      </trkpt>
      <trkpt lat="43.92551" lon="7.39025">
        <ele>1444.5999755859</ele>
        <time>2018-06-15T11:44:48.000Z</time>
      </trkpt>
      <trkpt lat="43.92538" lon="7.39017">
        <ele>1445</ele>
        <time>2018-06-15T11:44:56.000Z</time>
      </trkpt>
      <trkpt lat="43.92536" lon="7.39016">
        <ele>1444.8000488281</ele>
        <time>2018-06-15T11:44:58.000Z</time>
      </trkpt>
      <trkpt lat="43.92532" lon="7.39016">
        <ele>1444.8000488281</ele>
        <time>2018-06-15T11:45:00.000Z</time>
      </trkpt>
      <trkpt lat="43.92527" lon="7.39012">
        <ele>1445</ele>
        <time>2018-06-15T11:45:04.000Z</time>
      </trkpt>
      <trkpt lat="43.92525" lon="7.39011">
        <ele>1445.1999511719</ele>
        <time>2018-06-15T11:45:06.000Z</time>
      </trkpt>
      <trkpt lat="43.9252" lon="7.39006">
        <ele>1445.1999511719</ele>
        <time>2018-06-15T11:45:10.000Z</time>
      </trkpt>
      <trkpt lat="43.92516" lon="7.38999">
        <ele>1445.8000488281</ele>
        <time>2018-06-15T11:45:14.000Z</time>
      </trkpt>
      <trkpt lat="43.92513" lon="7.38996">
        <ele>1446.1999511719</ele>
        <time>2018-06-15T11:45:16.000Z</time>
      </trkpt>
      <trkpt lat="43.92503" lon="7.38988">
        <ele>1446.8000488281</ele>
        <time>2018-06-15T11:45:22.000Z</time>
      </trkpt>
      <trkpt lat="43.92501" lon="7.38984">
        <ele>1446.5999755859</ele>
        <time>2018-06-15T11:45:26.000Z</time>
      </trkpt>
      <trkpt lat="43.92496" lon="7.3898">
        <ele>1445.4000244141</ele>
        <time>2018-06-15T11:45:29.000Z</time>
      </trkpt>
      <trkpt lat="43.92492" lon="7.38976">
        <ele>1445</ele>
        <time>2018-06-15T11:45:31.000Z</time>
      </trkpt>
      <trkpt lat="43.92478" lon="7.38962">
        <ele>1444.4000244141</ele>
        <time>2018-06-15T11:45:37.000Z</time>
      </trkpt>
      <trkpt lat="43.92472" lon="7.38955">
        <ele>1444.4000244141</ele>
        <time>2018-06-15T11:45:42.000Z</time>
      </trkpt>
      <trkpt lat="43.92473" lon="7.38956">
        <ele>1444.4000244141</ele>
        <time>2018-06-15T11:45:43.000Z</time>
      </trkpt>
      <trkpt lat="43.92468" lon="7.38951">
        <ele>1444.1999511719</ele>
        <time>2018-06-15T11:45:47.000Z</time>
      </trkpt>
      <trkpt lat="43.92464" lon="7.38948">
        <ele>1444</ele>
        <time>2018-06-15T11:45:49.000Z</time>
      </trkpt>
      <trkpt lat="43.92453" lon="7.38938">
        <ele>1443.8000488281</ele>
        <time>2018-06-15T11:45:54.000Z</time>
      </trkpt>
      <trkpt lat="43.92451" lon="7.38936">
        <ele>1443.8000488281</ele>
        <time>2018-06-15T11:45:56.000Z</time>
      </trkpt>
      <trkpt lat="43.92451" lon="7.38936">
        <ele>1444.1999511719</ele>
        <time>2018-06-15T11:45:58.000Z</time>
      </trkpt>
      <trkpt lat="43.92447" lon="7.38934">
        <ele>1444</ele>
        <time>2018-06-15T11:46:01.000Z</time>
      </trkpt>
      <trkpt lat="43.92442" lon="7.38928">
        <ele>1442.8000488281</ele>
        <time>2018-06-15T11:46:04.000Z</time>
      </trkpt>
      <trkpt lat="43.92436" lon="7.38925">
        <ele>1441.5999755859</ele>
        <time>2018-06-15T11:46:07.000Z</time>
      </trkpt>
      <trkpt lat="43.92433" lon="7.38924">
        <ele>1441.1999511719</ele>
        <time>2018-06-15T11:46:09.000Z</time>
      </trkpt>
      <trkpt lat="43.92431" lon="7.38922">
        <ele>1440.5999755859</ele>
        <time>2018-06-15T11:46:11.000Z</time>
      </trkpt>
      <trkpt lat="43.92432" lon="7.38923">
        <ele>1440.4000244141</ele>
        <time>2018-06-15T11:46:12.000Z</time>
      </trkpt>
      <trkpt lat="43.92426" lon="7.3892">
        <ele>1438.8000488281</ele>
        <time>2018-06-15T11:46:21.000Z</time>
      </trkpt>
      <trkpt lat="43.92424" lon="7.38918">
        <ele>1437.5999755859</ele>
        <time>2018-06-15T11:46:24.000Z</time>
      </trkpt>
      <trkpt lat="43.92422" lon="7.38918">
        <ele>1437.1999511719</ele>
        <time>2018-06-15T11:46:27.000Z</time>
      </trkpt>
      <trkpt lat="43.92418" lon="7.38915">
        <ele>1437.4000244141</ele>
        <time>2018-06-15T11:46:38.000Z</time>
      </trkpt>
      <trkpt lat="43.92414" lon="7.38913">
        <ele>1437.1999511719</ele>
        <time>2018-06-15T11:46:40.000Z</time>
      </trkpt>
      <trkpt lat="43.92407" lon="7.38908">
        <ele>1436.5999755859</ele>
        <time>2018-06-15T11:46:43.000Z</time>
      </trkpt>
      <trkpt lat="43.92401" lon="7.38903">
        <ele>1435.8000488281</ele>
        <time>2018-06-15T11:46:46.000Z</time>
      </trkpt>
      <trkpt lat="43.92396" lon="7.38901">
        <ele>1435.4000244141</ele>
        <time>2018-06-15T11:46:48.000Z</time>
      </trkpt>
      <trkpt lat="43.92392" lon="7.38896">
        <ele>1434.4000244141</ele>
        <time>2018-06-15T11:46:50.000Z</time>
      </trkpt>
      <trkpt lat="43.92389" lon="7.38893">
        <ele>1434</ele>
        <time>2018-06-15T11:46:51.000Z</time>
      </trkpt>
      <trkpt lat="43.92377" lon="7.38884">
        <ele>1433</ele>
        <time>2018-06-15T11:46:56.000Z</time>
      </trkpt>
      <trkpt lat="43.92377" lon="7.38884">
        <ele>1432.5999755859</ele>
        <time>2018-06-15T11:46:58.000Z</time>
      </trkpt>
      <trkpt lat="43.92366" lon="7.38878">
        <ele>1431.5999755859</ele>
        <time>2018-06-15T11:47:26.000Z</time>
      </trkpt>
      <trkpt lat="43.92365" lon="7.38877">
        <ele>1431.4000244141</ele>
        <time>2018-06-15T11:47:27.000Z</time>
      </trkpt>
      <trkpt lat="43.92353" lon="7.38868">
        <ele>1431</ele>
        <time>2018-06-15T11:47:32.000Z</time>
      </trkpt>
      <trkpt lat="43.92347" lon="7.38862">
        <ele>1430.4000244141</ele>
        <time>2018-06-15T11:47:34.000Z</time>
      </trkpt>
      <trkpt lat="43.9234" lon="7.38858">
        <ele>1429.1999511719</ele>
        <time>2018-06-15T11:47:36.000Z</time>
      </trkpt>
      <trkpt lat="43.92325" lon="7.38851">
        <ele>1428</ele>
        <time>2018-06-15T11:47:41.000Z</time>
      </trkpt>
      <trkpt lat="43.92316" lon="7.3885">
        <ele>1427.1999511719</ele>
        <time>2018-06-15T11:47:43.000Z</time>
      </trkpt>
      <trkpt lat="43.92307" lon="7.38851">
        <ele>1426.8000488281</ele>
        <time>2018-06-15T11:47:45.000Z</time>
      </trkpt>
      <trkpt lat="43.92302" lon="7.38851">
        <ele>1426.4000244141</ele>
        <time>2018-06-15T11:47:46.000Z</time>
      </trkpt>
      <trkpt lat="43.92286" lon="7.38851">
        <ele>1425.8000488281</ele>
        <time>2018-06-15T11:47:50.000Z</time>
      </trkpt>
      <trkpt lat="43.92282" lon="7.38851">
        <ele>1425.8000488281</ele>
        <time>2018-06-15T11:47:51.000Z</time>
      </trkpt>
      <trkpt lat="43.9227" lon="7.38855">
        <ele>1425.4000244141</ele>
        <time>2018-06-15T11:47:55.000Z</time>
      </trkpt>
      <trkpt lat="43.92253" lon="7.38861">
        <ele>1424.8000488281</ele>
        <time>2018-06-15T11:48:00.000Z</time>
      </trkpt>
      <trkpt lat="43.92247" lon="7.38862">
        <ele>1423.5999755859</ele>
        <time>2018-06-15T11:48:03.000Z</time>
      </trkpt>
      <trkpt lat="43.92246" lon="7.38862">
        <ele>1422.8000488281</ele>
        <time>2018-06-15T11:48:05.000Z</time>
      </trkpt>
      <trkpt lat="43.92246" lon="7.38862">
        <ele>1422.8000488281</ele>
        <time>2018-06-15T11:48:06.000Z</time>
      </trkpt>
      <trkpt lat="43.92238" lon="7.38862">
        <ele>1420</ele>
        <time>2018-06-15T11:48:31.000Z</time>
      </trkpt>
      <trkpt lat="43.92234" lon="7.38862">
        <ele>1420</ele>
        <time>2018-06-15T11:48:33.000Z</time>
      </trkpt>
      <trkpt lat="43.92221" lon="7.38866">
        <ele>1419</ele>
        <time>2018-06-15T11:48:38.000Z</time>
      </trkpt>
      <trkpt lat="43.92219" lon="7.38865">
        <ele>1418.8000488281</ele>
        <time>2018-06-15T11:48:39.000Z</time>
      </trkpt>
      <trkpt lat="43.92214" lon="7.38865">
        <ele>1418.4000244141</ele>
        <time>2018-06-15T11:48:42.000Z</time>
      </trkpt>
      <trkpt lat="43.92203" lon="7.38866">
        <ele>1418.4000244141</ele>
        <time>2018-06-15T11:48:47.000Z</time>
      </trkpt>
      <trkpt lat="43.92188" lon="7.38868">
        <ele>1418</ele>
        <time>2018-06-15T11:48:54.000Z</time>
      </trkpt>
      <trkpt lat="43.92184" lon="7.38869">
        <ele>1417.8000488281</ele>
        <time>2018-06-15T11:48:56.000Z</time>
      </trkpt>
      <trkpt lat="43.92182" lon="7.38871">
        <ele>1417.4000244141</ele>
        <time>2018-06-15T11:48:57.000Z</time>
      </trkpt>
      <trkpt lat="43.9218" lon="7.38873">
        <ele>1417.1999511719</ele>
        <time>2018-06-15T11:48:59.000Z</time>
      </trkpt>
      <trkpt lat="43.92177" lon="7.38876">
        <ele>1416.5999755859</ele>
        <time>2018-06-15T11:49:01.000Z</time>
      </trkpt>
      <trkpt lat="43.92172" lon="7.38876">
        <ele>1416</ele>
        <time>2018-06-15T11:49:04.000Z</time>
      </trkpt>
      <trkpt lat="43.92167" lon="7.38875">
        <ele>1415.4000244141</ele>
        <time>2018-06-15T11:49:06.000Z</time>
      </trkpt>
      <trkpt lat="43.92166" lon="7.38875">
        <ele>1414.5999755859</ele>
        <time>2018-06-15T11:49:09.000Z</time>
      </trkpt>
      <trkpt lat="43.9216" lon="7.38876">
        <ele>1413.4000244141</ele>
        <time>2018-06-15T11:49:16.000Z</time>
      </trkpt>
      <trkpt lat="43.92159" lon="7.38876">
        <ele>1412.8000488281</ele>
        <time>2018-06-15T11:49:19.000Z</time>
      </trkpt>
      <trkpt lat="43.9218" lon="7.38876">
        <ele>1412.4000244141</ele>
        <time>2018-06-15T11:55:07.000Z</time>
      </trkpt>
      <trkpt lat="43.92183" lon="7.38875">
        <ele>1412.1999511719</ele>
        <time>2018-06-15T11:55:10.000Z</time>
      </trkpt>
      <trkpt lat="43.92187" lon="7.38875">
        <ele>1412.5999755859</ele>
        <time>2018-06-15T11:55:15.000Z</time>
      </trkpt>
      <trkpt lat="43.92191" lon="7.38874">
        <ele>1416</ele>
        <time>2018-06-15T11:55:47.000Z</time>
      </trkpt>
      <trkpt lat="43.92194" lon="7.38868">
        <ele>1416.1999511719</ele>
        <time>2018-06-15T11:55:51.000Z</time>
      </trkpt>
      <trkpt lat="43.92197" lon="7.38866">
        <ele>1416</ele>
        <time>2018-06-15T11:55:53.000Z</time>
      </trkpt>
      <trkpt lat="43.92212" lon="7.38865">
        <ele>1416.4000244141</ele>
        <time>2018-06-15T11:55:58.000Z</time>
      </trkpt>
      <trkpt lat="43.92219" lon="7.38865">
        <ele>1416.5999755859</ele>
        <time>2018-06-15T11:56:02.000Z</time>
      </trkpt>
      <trkpt lat="43.92226" lon="7.38864">
        <ele>1415.8000488281</ele>
        <time>2018-06-15T11:56:07.000Z</time>
      </trkpt>
      <trkpt lat="43.92226" lon="7.38863">
        <ele>1415.4000244141</ele>
        <time>2018-06-15T11:56:08.000Z</time>
      </trkpt>
      <trkpt lat="43.92228" lon="7.38862">
        <ele>1415</ele>
        <time>2018-06-15T11:56:12.000Z</time>
      </trkpt>
      <trkpt lat="43.92237" lon="7.38859">
        <ele>1414.1999511719</ele>
        <time>2018-06-15T11:56:27.000Z</time>
      </trkpt>
      <trkpt lat="43.92246" lon="7.38855">
        <ele>1414.5999755859</ele>
        <time>2018-06-15T11:56:33.000Z</time>
      </trkpt>
      <trkpt lat="43.92252" lon="7.3885">
        <ele>1414.5999755859</ele>
        <time>2018-06-15T11:56:37.000Z</time>
      </trkpt>
      <trkpt lat="43.92256" lon="7.38849">
        <ele>1415</ele>
        <time>2018-06-15T11:56:39.000Z</time>
      </trkpt>
      <trkpt lat="43.92258" lon="7.38848">
        <ele>1415.1999511719</ele>
        <time>2018-06-15T11:56:40.000Z</time>
      </trkpt>
      <trkpt lat="43.92262" lon="7.38845">
        <ele>1416</ele>
        <time>2018-06-15T11:56:43.000Z</time>
      </trkpt>
      <trkpt lat="43.92264" lon="7.38845">
        <ele>1416.4000244141</ele>
        <time>2018-06-15T11:56:44.000Z</time>
      </trkpt>
      <trkpt lat="43.92269" lon="7.38843">
        <ele>1417.5999755859</ele>
        <time>2018-06-15T11:56:47.000Z</time>
      </trkpt>
      <trkpt lat="43.92271" lon="7.38843">
        <ele>1418</ele>
        <time>2018-06-15T11:56:49.000Z</time>
      </trkpt>
      <trkpt lat="43.92276" lon="7.38842">
        <ele>1418.4000244141</ele>
        <time>2018-06-15T11:56:52.000Z</time>
      </trkpt>
      <trkpt lat="43.92277" lon="7.38843">
        <ele>1418.5999755859</ele>
        <time>2018-06-15T11:56:53.000Z</time>
      </trkpt>
      <trkpt lat="43.92284" lon="7.38844">
        <ele>1419.8000488281</ele>
        <time>2018-06-15T11:56:57.000Z</time>
      </trkpt>
      <trkpt lat="43.92287" lon="7.38844">
        <ele>1420</ele>
        <time>2018-06-15T11:56:59.000Z</time>
      </trkpt>
      <trkpt lat="43.92297" lon="7.38843">
        <ele>1420</ele>
        <time>2018-06-15T11:57:05.000Z</time>
      </trkpt>
      <trkpt lat="43.92298" lon="7.38843">
        <ele>1419.8000488281</ele>
        <time>2018-06-15T11:57:06.000Z</time>
      </trkpt>
      <trkpt lat="43.92306" lon="7.38842">
        <ele>1419.5999755859</ele>
        <time>2018-06-15T11:57:09.000Z</time>
      </trkpt>
      <trkpt lat="43.9231" lon="7.38843">
        <ele>1419.8000488281</ele>
        <time>2018-06-15T11:57:11.000Z</time>
      </trkpt>
      <trkpt lat="43.92319" lon="7.38846">
        <ele>1420</ele>
        <time>2018-06-15T11:57:17.000Z</time>
      </trkpt>
      <trkpt lat="43.9233" lon="7.38853">
        <ele>1420.4000244141</ele>
        <time>2018-06-15T11:57:23.000Z</time>
      </trkpt>
      <trkpt lat="43.92339" lon="7.3886">
        <ele>1422.1999511719</ele>
        <time>2018-06-15T11:57:28.000Z</time>
      </trkpt>
      <trkpt lat="43.92342" lon="7.38865">
        <ele>1422.5999755859</ele>
        <time>2018-06-15T11:57:30.000Z</time>
      </trkpt>
      <trkpt lat="43.92347" lon="7.38866">
        <ele>1423.4000244141</ele>
        <time>2018-06-15T11:57:33.000Z</time>
      </trkpt>
      <trkpt lat="43.92351" lon="7.38867">
        <ele>1423.8000488281</ele>
        <time>2018-06-15T11:57:35.000Z</time>
      </trkpt>
      <trkpt lat="43.92352" lon="7.38868">
        <ele>1423.5999755859</ele>
        <time>2018-06-15T11:57:38.000Z</time>
      </trkpt>
      <trkpt lat="43.92367" lon="7.38874">
        <ele>1426.8000488281</ele>
        <time>2018-06-15T11:58:33.000Z</time>
      </trkpt>
      <trkpt lat="43.92373" lon="7.38882">
        <ele>1427.4000244141</ele>
        <time>2018-06-15T11:58:38.000Z</time>
      </trkpt>
      <trkpt lat="43.92376" lon="7.38885">
        <ele>1427.8000488281</ele>
        <time>2018-06-15T11:58:40.000Z</time>
      </trkpt>
      <trkpt lat="43.9238" lon="7.38888">
        <ele>1428.1999511719</ele>
        <time>2018-06-15T11:58:42.000Z</time>
      </trkpt>
      <trkpt lat="43.92384" lon="7.38889">
        <ele>1428.8000488281</ele>
        <time>2018-06-15T11:58:44.000Z</time>
      </trkpt>
      <trkpt lat="43.92386" lon="7.3889">
        <ele>1428.8000488281</ele>
        <time>2018-06-15T11:58:45.000Z</time>
      </trkpt>
      <trkpt lat="43.92389" lon="7.38892">
        <ele>1429.4000244141</ele>
        <time>2018-06-15T11:58:47.000Z</time>
      </trkpt>
      <trkpt lat="43.92391" lon="7.38894">
        <ele>1430.1999511719</ele>
        <time>2018-06-15T11:58:49.000Z</time>
      </trkpt>
      <trkpt lat="43.92392" lon="7.38894">
        <ele>1430.5999755859</ele>
        <time>2018-06-15T11:58:50.000Z</time>
      </trkpt>
      <trkpt lat="43.92398" lon="7.38898">
        <ele>1433.5999755859</ele>
        <time>2018-06-15T11:59:02.000Z</time>
      </trkpt>
      <trkpt lat="43.92402" lon="7.38901">
        <ele>1434</ele>
        <time>2018-06-15T11:59:04.000Z</time>
      </trkpt>
      <trkpt lat="43.9241" lon="7.38904">
        <ele>1434.8000488281</ele>
        <time>2018-06-15T11:59:10.000Z</time>
      </trkpt>
      <trkpt lat="43.9241" lon="7.38904">
        <ele>1435</ele>
        <time>2018-06-15T11:59:11.000Z</time>
      </trkpt>
      <trkpt lat="43.92414" lon="7.38906">
        <ele>1435.4000244141</ele>
        <time>2018-06-15T11:59:19.000Z</time>
      </trkpt>
      <trkpt lat="43.92442" lon="7.38923">
        <ele>1439.4000244141</ele>
        <time>2018-06-15T12:00:22.000Z</time>
      </trkpt>
      <trkpt lat="43.92442" lon="7.38923">
        <ele>1439</ele>
        <time>2018-06-15T12:00:24.000Z</time>
      </trkpt>
      <trkpt lat="43.92445" lon="7.38925">
        <ele>1437.8000488281</ele>
        <time>2018-06-15T12:00:28.000Z</time>
      </trkpt>
      <trkpt lat="43.92446" lon="7.38926">
        <ele>1437.8000488281</ele>
        <time>2018-06-15T12:00:29.000Z</time>
      </trkpt>
      <trkpt lat="43.92452" lon="7.38932">
        <ele>1437.8000488281</ele>
        <time>2018-06-15T12:00:35.000Z</time>
      </trkpt>
      <trkpt lat="43.92456" lon="7.38932">
        <ele>1437.5999755859</ele>
        <time>2018-06-15T12:00:39.000Z</time>
      </trkpt>
      <trkpt lat="43.92466" lon="7.38941">
        <ele>1438.4000244141</ele>
        <time>2018-06-15T12:01:18.000Z</time>
      </trkpt>
      <trkpt lat="43.9247" lon="7.38945">
        <ele>1439.1999511719</ele>
        <time>2018-06-15T12:01:21.000Z</time>
      </trkpt>
      <trkpt lat="43.92475" lon="7.3895">
        <ele>1440.1999511719</ele>
        <time>2018-06-15T12:01:24.000Z</time>
      </trkpt>
      <trkpt lat="43.92481" lon="7.38954">
        <ele>1441.1999511719</ele>
        <time>2018-06-15T12:01:27.000Z</time>
      </trkpt>
      <trkpt lat="43.92482" lon="7.38956">
        <ele>1441.4000244141</ele>
        <time>2018-06-15T12:01:28.000Z</time>
      </trkpt>
      <trkpt lat="43.92489" lon="7.38963">
        <ele>1442.4000244141</ele>
        <time>2018-06-15T12:01:33.000Z</time>
      </trkpt>
      <trkpt lat="43.92491" lon="7.38966">
        <ele>1442.5999755859</ele>
        <time>2018-06-15T12:01:35.000Z</time>
      </trkpt>
      <trkpt lat="43.92493" lon="7.38969">
        <ele>1442.5999755859</ele>
        <time>2018-06-15T12:01:36.000Z</time>
      </trkpt>
      <trkpt lat="43.92499" lon="7.38973">
        <ele>1443</ele>
        <time>2018-06-15T12:01:39.000Z</time>
      </trkpt>
      <trkpt lat="43.92503" lon="7.3898">
        <ele>1443.1999511719</ele>
        <time>2018-06-15T12:01:42.000Z</time>
      </trkpt>
      <trkpt lat="43.92504" lon="7.38983">
        <ele>1443.1999511719</ele>
        <time>2018-06-15T12:01:43.000Z</time>
      </trkpt>
      <trkpt lat="43.92508" lon="7.38987">
        <ele>1443.8000488281</ele>
        <time>2018-06-15T12:01:45.000Z</time>
      </trkpt>
      <trkpt lat="43.92512" lon="7.38989">
        <ele>1444.4000244141</ele>
        <time>2018-06-15T12:01:47.000Z</time>
      </trkpt>
      <trkpt lat="43.92523" lon="7.38997">
        <ele>1443.8000488281</ele>
        <time>2018-06-15T12:01:53.000Z</time>
      </trkpt>
      <trkpt lat="43.92533" lon="7.39003">
        <ele>1444</ele>
        <time>2018-06-15T12:01:57.000Z</time>
      </trkpt>
      <trkpt lat="43.92535" lon="7.39004">
        <ele>1444.1999511719</ele>
        <time>2018-06-15T12:01:58.000Z</time>
      </trkpt>
      <trkpt lat="43.92542" lon="7.39011">
        <ele>1444</ele>
        <time>2018-06-15T12:02:03.000Z</time>
      </trkpt>
      <trkpt lat="43.92542" lon="7.3901">
        <ele>1444.1999511719</ele>
        <time>2018-06-15T12:02:04.000Z</time>
      </trkpt>
      <trkpt lat="43.92553" lon="7.39021">
        <ele>1443.1999511719</ele>
        <time>2018-06-15T12:02:18.000Z</time>
      </trkpt>
      <trkpt lat="43.92557" lon="7.39024">
        <ele>1442.8000488281</ele>
        <time>2018-06-15T12:02:20.000Z</time>
      </trkpt>
      <trkpt lat="43.92555" lon="7.39023">
        <ele>1442.8000488281</ele>
        <time>2018-06-15T12:02:21.000Z</time>
      </trkpt>
      <trkpt lat="43.9256" lon="7.39027">
        <ele>1443</ele>
        <time>2018-06-15T12:02:30.000Z</time>
      </trkpt>
      <trkpt lat="43.92562" lon="7.39028">
        <ele>1443.1999511719</ele>
        <time>2018-06-15T12:02:31.000Z</time>
      </trkpt>
      <trkpt lat="43.92564" lon="7.3903">
        <ele>1444</ele>
        <time>2018-06-15T12:02:32.000Z</time>
      </trkpt>
      <trkpt lat="43.92569" lon="7.39036">
        <ele>1445</ele>
        <time>2018-06-15T12:02:36.000Z</time>
      </trkpt>
      <trkpt lat="43.92572" lon="7.39038">
        <ele>1445.4000244141</ele>
        <time>2018-06-15T12:02:37.000Z</time>
      </trkpt>
      <trkpt lat="43.92579" lon="7.39047">
        <ele>1443.8000488281</ele>
        <time>2018-06-15T12:02:41.000Z</time>
      </trkpt>
      <trkpt lat="43.9258" lon="7.3905">
        <ele>1443.1999511719</ele>
        <time>2018-06-15T12:02:42.000Z</time>
      </trkpt>
      <trkpt lat="43.92582" lon="7.39056">
        <ele>1442.8000488281</ele>
        <time>2018-06-15T12:02:44.000Z</time>
      </trkpt>
      <trkpt lat="43.92585" lon="7.39064">
        <ele>1442.4000244141</ele>
        <time>2018-06-15T12:02:47.000Z</time>
      </trkpt>
      <trkpt lat="43.92589" lon="7.39066">
        <ele>1442.1999511719</ele>
        <time>2018-06-15T12:02:49.000Z</time>
      </trkpt>
      <trkpt lat="43.92587" lon="7.39066">
        <ele>1442</ele>
        <time>2018-06-15T12:02:50.000Z</time>
      </trkpt>
      <trkpt lat="43.92623" lon="7.39101">
        <ele>1431.8000488281</ele>
        <time>2018-06-15T12:05:03.000Z</time>
      </trkpt>
      <trkpt lat="43.92625" lon="7.39103">
        <ele>1431.1999511719</ele>
        <time>2018-06-15T12:05:08.000Z</time>
      </trkpt>
      <trkpt lat="43.92627" lon="7.39111">
        <ele>1431</ele>
        <time>2018-06-15T12:05:35.000Z</time>
      </trkpt>
      <trkpt lat="43.92628" lon="7.39113">
        <ele>1430.8000488281</ele>
        <time>2018-06-15T12:05:36.000Z</time>
      </trkpt>
      <trkpt lat="43.9263" lon="7.39119">
        <ele>1430.4000244141</ele>
        <time>2018-06-15T12:05:41.000Z</time>
      </trkpt>
      <trkpt lat="43.92631" lon="7.3912">
        <ele>1430.1999511719</ele>
        <time>2018-06-15T12:05:42.000Z</time>
      </trkpt>
      <trkpt lat="43.92637" lon="7.39128">
        <ele>1429.5999755859</ele>
        <time>2018-06-15T12:05:52.000Z</time>
      </trkpt>
      <trkpt lat="43.92639" lon="7.39131">
        <ele>1429.1999511719</ele>
        <time>2018-06-15T12:05:54.000Z</time>
      </trkpt>
      <trkpt lat="43.92644" lon="7.39136">
        <ele>1429.4000244141</ele>
        <time>2018-06-15T12:06:02.000Z</time>
      </trkpt>
      <trkpt lat="43.92647" lon="7.39141">
        <ele>1429.4000244141</ele>
        <time>2018-06-15T12:06:07.000Z</time>
      </trkpt>
      <trkpt lat="43.92647" lon="7.39142">
        <ele>1429.1999511719</ele>
        <time>2018-06-15T12:06:09.000Z</time>
      </trkpt>
      <trkpt lat="43.92651" lon="7.39147">
        <ele>1428.8000488281</ele>
        <time>2018-06-15T12:06:15.000Z</time>
      </trkpt>
      <trkpt lat="43.92651" lon="7.39148">
        <ele>1428.4000244141</ele>
        <time>2018-06-15T12:06:16.000Z</time>
      </trkpt>
      <trkpt lat="43.92653" lon="7.39152">
        <ele>1428</ele>
        <time>2018-06-15T12:06:17.000Z</time>
      </trkpt>
      <trkpt lat="43.92654" lon="7.39156">
        <ele>1427.4000244141</ele>
        <time>2018-06-15T12:06:18.000Z</time>
      </trkpt>
      <trkpt lat="43.92663" lon="7.39171">
        <ele>1426.5999755859</ele>
        <time>2018-06-15T12:06:23.000Z</time>
      </trkpt>
      <trkpt lat="43.92675" lon="7.39184">
        <ele>1426.8000488281</ele>
        <time>2018-06-15T12:06:29.000Z</time>
      </trkpt>
      <trkpt lat="43.92684" lon="7.39195">
        <ele>1426.8000488281</ele>
        <time>2018-06-15T12:06:34.000Z</time>
      </trkpt>
      <trkpt lat="43.92685" lon="7.39196">
        <ele>1426.8000488281</ele>
        <time>2018-06-15T12:06:37.000Z</time>
      </trkpt>
      <trkpt lat="43.9269" lon="7.39203">
        <ele>1426</ele>
        <time>2018-06-15T12:09:15.000Z</time>
      </trkpt>
      <trkpt lat="43.92691" lon="7.39204">
        <ele>1426</ele>
        <time>2018-06-15T12:09:16.000Z</time>
      </trkpt>
      <trkpt lat="43.92701" lon="7.39211">
        <ele>1425.8000488281</ele>
        <time>2018-06-15T12:09:22.000Z</time>
      </trkpt>
      <trkpt lat="43.92706" lon="7.39219">
        <ele>1426.1999511719</ele>
        <time>2018-06-15T12:09:27.000Z</time>
      </trkpt>
      <trkpt lat="43.92717" lon="7.39222">
        <ele>1425.8000488281</ele>
        <time>2018-06-15T12:09:33.000Z</time>
      </trkpt>
      <trkpt lat="43.92728" lon="7.39231">
        <ele>1426.5999755859</ele>
        <time>2018-06-15T12:09:40.000Z</time>
      </trkpt>
      <trkpt lat="43.92736" lon="7.39237">
        <ele>1427</ele>
        <time>2018-06-15T12:09:45.000Z</time>
      </trkpt>
      <trkpt lat="43.92745" lon="7.39237">
        <ele>1427.1999511719</ele>
        <time>2018-06-15T12:09:49.000Z</time>
      </trkpt>
      <trkpt lat="43.92756" lon="7.39243">
        <ele>1427.1999511719</ele>
        <time>2018-06-15T12:09:55.000Z</time>
      </trkpt>
      <trkpt lat="43.92768" lon="7.39242">
        <ele>1427.8000488281</ele>
        <time>2018-06-15T12:10:01.000Z</time>
      </trkpt>
      <trkpt lat="43.92772" lon="7.39243">
        <ele>1428.1999511719</ele>
        <time>2018-06-15T12:10:03.000Z</time>
      </trkpt>
      <trkpt lat="43.92779" lon="7.39245">
        <ele>1428.5999755859</ele>
        <time>2018-06-15T12:10:07.000Z</time>
      </trkpt>
      <trkpt lat="43.92785" lon="7.39246">
        <ele>1429.1999511719</ele>
        <time>2018-06-15T12:10:11.000Z</time>
      </trkpt>
      <trkpt lat="43.92787" lon="7.39246">
        <ele>1429.1999511719</ele>
        <time>2018-06-15T12:10:12.000Z</time>
      </trkpt>
      <trkpt lat="43.92798" lon="7.39241">
        <ele>1429.5999755859</ele>
        <time>2018-06-15T12:10:17.000Z</time>
      </trkpt>
      <trkpt lat="43.92808" lon="7.39242">
        <ele>1429.5999755859</ele>
        <time>2018-06-15T12:10:22.000Z</time>
      </trkpt>
      <trkpt lat="43.92819" lon="7.39236">
        <ele>1429.1999511719</ele>
        <time>2018-06-15T12:10:26.000Z</time>
      </trkpt>
      <trkpt lat="43.92833" lon="7.39231">
        <ele>1429.4000244141</ele>
        <time>2018-06-15T12:10:30.000Z</time>
      </trkpt>
      <trkpt lat="43.92848" lon="7.39222">
        <ele>1428.8000488281</ele>
        <time>2018-06-15T12:10:35.000Z</time>
      </trkpt>
      <trkpt lat="43.92854" lon="7.39217">
        <ele>1427.8000488281</ele>
        <time>2018-06-15T12:10:38.000Z</time>
      </trkpt>
      <trkpt lat="43.92858" lon="7.39216">
        <ele>1427.4000244141</ele>
        <time>2018-06-15T12:10:40.000Z</time>
      </trkpt>
      <trkpt lat="43.92862" lon="7.39215">
        <ele>1426.8000488281</ele>
        <time>2018-06-15T12:10:42.000Z</time>
      </trkpt>
      <trkpt lat="43.92867" lon="7.39211">
        <ele>1426.1999511719</ele>
        <time>2018-06-15T12:10:44.000Z</time>
      </trkpt>
      <trkpt lat="43.92872" lon="7.39209">
        <ele>1425.8000488281</ele>
        <time>2018-06-15T12:10:46.000Z</time>
      </trkpt>
      <trkpt lat="43.92877" lon="7.39209">
        <ele>1425.1999511719</ele>
        <time>2018-06-15T12:10:48.000Z</time>
      </trkpt>
      <trkpt lat="43.92886" lon="7.39207">
        <ele>1424.4000244141</ele>
        <time>2018-06-15T12:10:52.000Z</time>
      </trkpt>
      <trkpt lat="43.92889" lon="7.39207">
        <ele>1424.1999511719</ele>
        <time>2018-06-15T12:10:53.000Z</time>
      </trkpt>
      <trkpt lat="43.92896" lon="7.39206">
        <ele>1423.4000244141</ele>
        <time>2018-06-15T12:10:56.000Z</time>
      </trkpt>
      <trkpt lat="43.92904" lon="7.39206">
        <ele>1423</ele>
        <time>2018-06-15T12:10:58.000Z</time>
      </trkpt>
      <trkpt lat="43.92907" lon="7.39206">
        <ele>1423.1999511719</ele>
        <time>2018-06-15T12:11:01.000Z</time>
      </trkpt>
      <trkpt lat="43.92908" lon="7.39206">
        <ele>1423.4000244141</ele>
        <time>2018-06-15T12:11:02.000Z</time>
      </trkpt>
      <trkpt lat="43.9292" lon="7.39208">
        <ele>1423</ele>
        <time>2018-06-15T12:11:31.000Z</time>
      </trkpt>
      <trkpt lat="43.92925" lon="7.39206">
        <ele>1422.8000488281</ele>
        <time>2018-06-15T12:11:33.000Z</time>
      </trkpt>
      <trkpt lat="43.92931" lon="7.39204">
        <ele>1422.4000244141</ele>
        <time>2018-06-15T12:11:35.000Z</time>
      </trkpt>
      <trkpt lat="43.92936" lon="7.39202">
        <ele>1421.8000488281</ele>
        <time>2018-06-15T12:11:38.000Z</time>
      </trkpt>
      <trkpt lat="43.92941" lon="7.39199">
        <ele>1421.4000244141</ele>
        <time>2018-06-15T12:11:40.000Z</time>
      </trkpt>
      <trkpt lat="43.92948" lon="7.39192">
        <ele>1420.1999511719</ele>
        <time>2018-06-15T12:11:43.000Z</time>
      </trkpt>
      <trkpt lat="43.92957" lon="7.39184">
        <ele>1419</ele>
        <time>2018-06-15T12:11:46.000Z</time>
      </trkpt>
      <trkpt lat="43.92965" lon="7.39177">
        <ele>1418</ele>
        <time>2018-06-15T12:11:49.000Z</time>
      </trkpt>
      <trkpt lat="43.92971" lon="7.39174">
        <ele>1416.4000244141</ele>
        <time>2018-06-15T12:11:52.000Z</time>
      </trkpt>
      <trkpt lat="43.92973" lon="7.39173">
        <ele>1415.8000488281</ele>
        <time>2018-06-15T12:11:53.000Z</time>
      </trkpt>
      <trkpt lat="43.92977" lon="7.39173">
        <ele>1415.1999511719</ele>
        <time>2018-06-15T12:11:55.000Z</time>
      </trkpt>
      <trkpt lat="43.9298" lon="7.39172">
        <ele>1414.5999755859</ele>
        <time>2018-06-15T12:11:58.000Z</time>
      </trkpt>
      <trkpt lat="43.9298" lon="7.39172">
        <ele>1414.1999511719</ele>
        <time>2018-06-15T12:11:59.000Z</time>
      </trkpt>
      <trkpt lat="43.9298" lon="7.39172">
        <ele>1414.1999511719</ele>
        <time>2018-06-15T12:12:00.000Z</time>
      </trkpt>
      <trkpt lat="43.92987" lon="7.39168">
        <ele>1411.1999511719</ele>
        <time>2018-06-15T12:12:15.000Z</time>
      </trkpt>
      <trkpt lat="43.92991" lon="7.39165">
        <ele>1410.5999755859</ele>
        <time>2018-06-15T12:12:17.000Z</time>
      </trkpt>
      <trkpt lat="43.92994" lon="7.39165">
        <ele>1410</ele>
        <time>2018-06-15T12:12:18.000Z</time>
      </trkpt>
      <trkpt lat="43.93" lon="7.39161">
        <ele>1408.8000488281</ele>
        <time>2018-06-15T12:12:21.000Z</time>
      </trkpt>
      <trkpt lat="43.93007" lon="7.39155">
        <ele>1407.5999755859</ele>
        <time>2018-06-15T12:12:24.000Z</time>
      </trkpt>
      <trkpt lat="43.93012" lon="7.39152">
        <ele>1406.5999755859</ele>
        <time>2018-06-15T12:12:26.000Z</time>
      </trkpt>
      <trkpt lat="43.93016" lon="7.39149">
        <ele>1405.4000244141</ele>
        <time>2018-06-15T12:12:28.000Z</time>
      </trkpt>
      <trkpt lat="43.9302" lon="7.39145">
        <ele>1403.5999755859</ele>
        <time>2018-06-15T12:12:30.000Z</time>
      </trkpt>
      <trkpt lat="43.93023" lon="7.39144">
        <ele>1402.4000244141</ele>
        <time>2018-06-15T12:12:31.000Z</time>
      </trkpt>
      <trkpt lat="43.93025" lon="7.39142">
        <ele>1401.1999511719</ele>
        <time>2018-06-15T12:12:32.000Z</time>
      </trkpt>
      <trkpt lat="43.93028" lon="7.39139">
        <ele>1400</ele>
        <time>2018-06-15T12:12:34.000Z</time>
      </trkpt>
      <trkpt lat="43.93033" lon="7.39136">
        <ele>1398.5999755859</ele>
        <time>2018-06-15T12:12:36.000Z</time>
      </trkpt>
      <trkpt lat="43.93037" lon="7.39136">
        <ele>1397</ele>
        <time>2018-06-15T12:12:38.000Z</time>
      </trkpt>
      <trkpt lat="43.93042" lon="7.39134">
        <ele>1395.8000488281</ele>
        <time>2018-06-15T12:12:40.000Z</time>
      </trkpt>
      <trkpt lat="43.93043" lon="7.39134">
        <ele>1395.1999511719</ele>
        <time>2018-06-15T12:12:41.000Z</time>
      </trkpt>
      <trkpt lat="43.93042" lon="7.39134">
        <ele>1394.5999755859</ele>
        <time>2018-06-15T12:12:42.000Z</time>
      </trkpt>
      <trkpt lat="43.93046" lon="7.39133">
        <ele>1393.1999511719</ele>
        <time>2018-06-15T12:12:49.000Z</time>
      </trkpt>
      <trkpt lat="43.93048" lon="7.39132">
        <ele>1392.8000488281</ele>
        <time>2018-06-15T12:12:50.000Z</time>
      </trkpt>
      <trkpt lat="43.93051" lon="7.39132">
        <ele>1392</ele>
        <time>2018-06-15T12:12:52.000Z</time>
      </trkpt>
      <trkpt lat="43.93055" lon="7.3913">
        <ele>1391.1999511719</ele>
        <time>2018-06-15T12:12:54.000Z</time>
      </trkpt>
      <trkpt lat="43.93056" lon="7.39128">
        <ele>1390.4000244141</ele>
        <time>2018-06-15T12:12:55.000Z</time>
      </trkpt>
      <trkpt lat="43.93058" lon="7.39124">
        <ele>1389</ele>
        <time>2018-06-15T12:12:57.000Z</time>
      </trkpt>
      <trkpt lat="43.9306" lon="7.39122">
        <ele>1388.8000488281</ele>
        <time>2018-06-15T12:12:58.000Z</time>
      </trkpt>
      <trkpt lat="43.93065" lon="7.39119">
        <ele>1387.4000244141</ele>
        <time>2018-06-15T12:13:00.000Z</time>
      </trkpt>
      <trkpt lat="43.93075" lon="7.39113">
        <ele>1386</ele>
        <time>2018-06-15T12:13:04.000Z</time>
      </trkpt>
      <trkpt lat="43.93076" lon="7.39112">
        <ele>1385.1999511719</ele>
        <time>2018-06-15T12:13:05.000Z</time>
      </trkpt>
      <trkpt lat="43.93077" lon="7.39111">
        <ele>1384.5999755859</ele>
        <time>2018-06-15T12:13:06.000Z</time>
      </trkpt>
      <trkpt lat="43.9308" lon="7.39109">
        <ele>1383.1999511719</ele>
        <time>2018-06-15T12:13:09.000Z</time>
      </trkpt>
      <trkpt lat="43.93081" lon="7.39108">
        <ele>1382.8000488281</ele>
        <time>2018-06-15T12:13:10.000Z</time>
      </trkpt>
      <trkpt lat="43.93084" lon="7.39105">
        <ele>1382</ele>
        <time>2018-06-15T12:13:12.000Z</time>
      </trkpt>
      <trkpt lat="43.9309" lon="7.39102">
        <ele>1380.8000488281</ele>
        <time>2018-06-15T12:13:14.000Z</time>
      </trkpt>
      <trkpt lat="43.93093" lon="7.391">
        <ele>1380.4000244141</ele>
        <time>2018-06-15T12:13:15.000Z</time>
      </trkpt>
      <trkpt lat="43.93098" lon="7.39094">
        <ele>1379.1999511719</ele>
        <time>2018-06-15T12:13:17.000Z</time>
      </trkpt>
      <trkpt lat="43.93104" lon="7.39092">
        <ele>1378.1999511719</ele>
        <time>2018-06-15T12:13:19.000Z</time>
      </trkpt>
      <trkpt lat="43.93107" lon="7.39091">
        <ele>1377.4000244141</ele>
        <time>2018-06-15T12:13:20.000Z</time>
      </trkpt>
      <trkpt lat="43.9311" lon="7.3909">
        <ele>1377</ele>
        <time>2018-06-15T12:13:21.000Z</time>
      </trkpt>
      <trkpt lat="43.93128" lon="7.39087">
        <ele>1376.1999511719</ele>
        <time>2018-06-15T12:13:25.000Z</time>
      </trkpt>
      <trkpt lat="43.93137" lon="7.39088">
        <ele>1375.8000488281</ele>
        <time>2018-06-15T12:13:27.000Z</time>
      </trkpt>
      <trkpt lat="43.93144" lon="7.39088">
        <ele>1375.1999511719</ele>
        <time>2018-06-15T12:13:29.000Z</time>
      </trkpt>
      <trkpt lat="43.9315" lon="7.39087">
        <ele>1374.5999755859</ele>
        <time>2018-06-15T12:13:31.000Z</time>
      </trkpt>
      <trkpt lat="43.93156" lon="7.3909">
        <ele>1374</ele>
        <time>2018-06-15T12:13:33.000Z</time>
      </trkpt>
      <trkpt lat="43.93163" lon="7.39091">
        <ele>1373</ele>
        <time>2018-06-15T12:13:35.000Z</time>
      </trkpt>
      <trkpt lat="43.93168" lon="7.39092">
        <ele>1372.4000244141</ele>
        <time>2018-06-15T12:13:36.000Z</time>
      </trkpt>
      <trkpt lat="43.93172" lon="7.39091">
        <ele>1372</ele>
        <time>2018-06-15T12:13:37.000Z</time>
      </trkpt>
      <trkpt lat="43.93178" lon="7.3909">
        <ele>1371.5999755859</ele>
        <time>2018-06-15T12:13:38.000Z</time>
      </trkpt>
      <trkpt lat="43.93194" lon="7.39091">
        <ele>1370.4000244141</ele>
        <time>2018-06-15T12:13:41.000Z</time>
      </trkpt>
      <trkpt lat="43.93198" lon="7.39092">
        <ele>1369.4000244141</ele>
        <time>2018-06-15T12:13:42.000Z</time>
      </trkpt>
      <trkpt lat="43.93202" lon="7.39094">
        <ele>1368.5999755859</ele>
        <time>2018-06-15T12:13:43.000Z</time>
      </trkpt>
      <trkpt lat="43.93206" lon="7.39094">
        <ele>1367.4000244141</ele>
        <time>2018-06-15T12:13:44.000Z</time>
      </trkpt>
      <trkpt lat="43.9321" lon="7.39094">
        <ele>1366.5999755859</ele>
        <time>2018-06-15T12:13:45.000Z</time>
      </trkpt>
      <trkpt lat="43.93212" lon="7.39095">
        <ele>1365.5999755859</ele>
        <time>2018-06-15T12:13:46.000Z</time>
      </trkpt>
      <trkpt lat="43.93216" lon="7.39096">
        <ele>1364.4000244141</ele>
        <time>2018-06-15T12:13:48.000Z</time>
      </trkpt>
      <trkpt lat="43.93218" lon="7.39096">
        <ele>1363.8000488281</ele>
        <time>2018-06-15T12:13:49.000Z</time>
      </trkpt>
      <trkpt lat="43.93219" lon="7.39096">
        <ele>1363.4000244141</ele>
        <time>2018-06-15T12:13:50.000Z</time>
      </trkpt>
      <trkpt lat="43.9322" lon="7.39095">
        <ele>1362.4000244141</ele>
        <time>2018-06-15T12:13:52.000Z</time>
      </trkpt>
      <trkpt lat="43.93227" lon="7.39091">
        <ele>1344.1999511719</ele>
        <time>2018-06-15T12:15:00.000Z</time>
      </trkpt>
      <trkpt lat="43.93229" lon="7.39091">
        <ele>1343.8000488281</ele>
        <time>2018-06-15T12:15:01.000Z</time>
      </trkpt>
      <trkpt lat="43.93245" lon="7.39091">
        <ele>1343.1999511719</ele>
        <time>2018-06-15T12:15:06.000Z</time>
      </trkpt>
      <trkpt lat="43.93257" lon="7.39091">
        <ele>1342</ele>
        <time>2018-06-15T12:15:09.000Z</time>
      </trkpt>
      <trkpt lat="43.9326" lon="7.39092">
        <ele>1341.4000244141</ele>
        <time>2018-06-15T12:15:10.000Z</time>
      </trkpt>
      <trkpt lat="43.93263" lon="7.39094">
        <ele>1340.8000488281</ele>
        <time>2018-06-15T12:15:11.000Z</time>
      </trkpt>
      <trkpt lat="43.93276" lon="7.39097">
        <ele>1339.5999755859</ele>
        <time>2018-06-15T12:15:15.000Z</time>
      </trkpt>
      <trkpt lat="43.93285" lon="7.39097">
        <ele>1338.4000244141</ele>
        <time>2018-06-15T12:15:19.000Z</time>
      </trkpt>
      <trkpt lat="43.93297" lon="7.39096">
        <ele>1337.4000244141</ele>
        <time>2018-06-15T12:15:25.000Z</time>
      </trkpt>
      <trkpt lat="43.933" lon="7.39096">
        <ele>1337.1999511719</ele>
        <time>2018-06-15T12:15:26.000Z</time>
      </trkpt>
      <trkpt lat="43.93303" lon="7.39094">
        <ele>1336.8000488281</ele>
        <time>2018-06-15T12:15:27.000Z</time>
      </trkpt>
      <trkpt lat="43.93309" lon="7.3909">
        <ele>1335.8000488281</ele>
        <time>2018-06-15T12:15:29.000Z</time>
      </trkpt>
      <trkpt lat="43.93316" lon="7.39089">
        <ele>1334.5999755859</ele>
        <time>2018-06-15T12:15:31.000Z</time>
      </trkpt>
      <trkpt lat="43.93321" lon="7.39088">
        <ele>1333.8000488281</ele>
        <time>2018-06-15T12:15:33.000Z</time>
      </trkpt>
      <trkpt lat="43.93324" lon="7.39087">
        <ele>1333.4000244141</ele>
        <time>2018-06-15T12:15:34.000Z</time>
      </trkpt>
      <trkpt lat="43.93333" lon="7.39082">
        <ele>1332</ele>
        <time>2018-06-15T12:15:37.000Z</time>
      </trkpt>
      <trkpt lat="43.93335" lon="7.39082">
        <ele>1331.8000488281</ele>
        <time>2018-06-15T12:15:38.000Z</time>
      </trkpt>
      <trkpt lat="43.9334" lon="7.3908">
        <ele>1331</ele>
        <time>2018-06-15T12:15:40.000Z</time>
      </trkpt>
      <trkpt lat="43.93342" lon="7.39077">
        <ele>1330</ele>
        <time>2018-06-15T12:15:42.000Z</time>
      </trkpt>
      <trkpt lat="43.93346" lon="7.3907">
        <ele>1328.5999755859</ele>
        <time>2018-06-15T12:15:45.000Z</time>
      </trkpt>
      <trkpt lat="43.93348" lon="7.39064">
        <ele>1327.1999511719</ele>
        <time>2018-06-15T12:15:48.000Z</time>
      </trkpt>
      <trkpt lat="43.93351" lon="7.39052">
        <ele>1326</ele>
        <time>2018-06-15T12:15:52.000Z</time>
      </trkpt>
      <trkpt lat="43.93353" lon="7.3905">
        <ele>1325.4000244141</ele>
        <time>2018-06-15T12:15:53.000Z</time>
      </trkpt>
      <trkpt lat="43.93355" lon="7.39045">
        <ele>1324.5999755859</ele>
        <time>2018-06-15T12:15:55.000Z</time>
      </trkpt>
      <trkpt lat="43.9336" lon="7.39038">
        <ele>1323.4000244141</ele>
        <time>2018-06-15T12:15:58.000Z</time>
      </trkpt>
      <trkpt lat="43.93361" lon="7.39035">
        <ele>1323.1999511719</ele>
        <time>2018-06-15T12:15:59.000Z</time>
      </trkpt>
      <trkpt lat="43.93361" lon="7.39025">
        <ele>1322.4000244141</ele>
        <time>2018-06-15T12:16:02.000Z</time>
      </trkpt>
      <trkpt lat="43.93361" lon="7.39024">
        <ele>1321.8000488281</ele>
        <time>2018-06-15T12:16:03.000Z</time>
      </trkpt>
      <trkpt lat="43.93361" lon="7.39016">
        <ele>1320.5999755859</ele>
        <time>2018-06-15T12:16:07.000Z</time>
      </trkpt>
      <trkpt lat="43.93363" lon="7.38996">
        <ele>1320.4000244141</ele>
        <time>2018-06-15T12:16:11.000Z</time>
      </trkpt>
      <trkpt lat="43.93364" lon="7.3898">
        <ele>1320</ele>
        <time>2018-06-15T12:16:15.000Z</time>
      </trkpt>
      <trkpt lat="43.93365" lon="7.38968">
        <ele>1320.1999511719</ele>
        <time>2018-06-15T12:16:20.000Z</time>
      </trkpt>
      <trkpt lat="43.93366" lon="7.38963">
        <ele>1320</ele>
        <time>2018-06-15T12:16:22.000Z</time>
      </trkpt>
      <trkpt lat="43.93366" lon="7.3896">
        <ele>1319.4000244141</ele>
        <time>2018-06-15T12:16:24.000Z</time>
      </trkpt>
      <trkpt lat="43.93366" lon="7.38957">
        <ele>1319</ele>
        <time>2018-06-15T12:16:25.000Z</time>
      </trkpt>
      <trkpt lat="43.93368" lon="7.3895">
        <ele>1318.8000488281</ele>
        <time>2018-06-15T12:16:27.000Z</time>
      </trkpt>
      <trkpt lat="43.93372" lon="7.38937">
        <ele>1318.4000244141</ele>
        <time>2018-06-15T12:16:29.000Z</time>
      </trkpt>
      <trkpt lat="43.93379" lon="7.38905">
        <ele>1317.4000244141</ele>
        <time>2018-06-15T12:16:33.000Z</time>
      </trkpt>
      <trkpt lat="43.93379" lon="7.38894">
        <ele>1317</ele>
        <time>2018-06-15T12:16:35.000Z</time>
      </trkpt>
      <trkpt lat="43.93378" lon="7.38881">
        <ele>1316.5999755859</ele>
        <time>2018-06-15T12:16:37.000Z</time>
      </trkpt>
      <trkpt lat="43.93377" lon="7.38873">
        <ele>1315.8000488281</ele>
        <time>2018-06-15T12:16:40.000Z</time>
      </trkpt>
      <trkpt lat="43.93379" lon="7.38868">
        <ele>1314.1999511719</ele>
        <time>2018-06-15T12:16:42.000Z</time>
      </trkpt>
      <trkpt lat="43.93381" lon="7.38864">
        <ele>1313</ele>
        <time>2018-06-15T12:16:44.000Z</time>
      </trkpt>
      <trkpt lat="43.93382" lon="7.38862">
        <ele>1312</ele>
        <time>2018-06-15T12:16:45.000Z</time>
      </trkpt>
      <trkpt lat="43.93384" lon="7.38859">
        <ele>1311</ele>
        <time>2018-06-15T12:16:46.000Z</time>
      </trkpt>
      <trkpt lat="43.93386" lon="7.38857">
        <ele>1310.1999511719</ele>
        <time>2018-06-15T12:16:47.000Z</time>
      </trkpt>
      <trkpt lat="43.93389" lon="7.3885">
        <ele>1308.5999755859</ele>
        <time>2018-06-15T12:16:49.000Z</time>
      </trkpt>
      <trkpt lat="43.9339" lon="7.38847">
        <ele>1307.8000488281</ele>
        <time>2018-06-15T12:16:50.000Z</time>
      </trkpt>
      <trkpt lat="43.93392" lon="7.38843">
        <ele>1307.1999511719</ele>
        <time>2018-06-15T12:16:51.000Z</time>
      </trkpt>
      <trkpt lat="43.93395" lon="7.38835">
        <ele>1305.8000488281</ele>
        <time>2018-06-15T12:16:53.000Z</time>
      </trkpt>
      <trkpt lat="43.93398" lon="7.38827">
        <ele>1305</ele>
        <time>2018-06-15T12:16:55.000Z</time>
      </trkpt>
      <trkpt lat="43.934" lon="7.38822">
        <ele>1304.8000488281</ele>
        <time>2018-06-15T12:16:56.000Z</time>
      </trkpt>
      <trkpt lat="43.93407" lon="7.38808">
        <ele>1303.5999755859</ele>
        <time>2018-06-15T12:16:59.000Z</time>
      </trkpt>
      <trkpt lat="43.9341" lon="7.38804">
        <ele>1303</ele>
        <time>2018-06-15T12:17:00.000Z</time>
      </trkpt>
      <trkpt lat="43.93415" lon="7.38797">
        <ele>1302.1999511719</ele>
        <time>2018-06-15T12:17:02.000Z</time>
      </trkpt>
      <trkpt lat="43.93427" lon="7.38783">
        <ele>1301.4000244141</ele>
        <time>2018-06-15T12:17:06.000Z</time>
      </trkpt>
      <trkpt lat="43.93433" lon="7.38774">
        <ele>1301</ele>
        <time>2018-06-15T12:17:09.000Z</time>
      </trkpt>
      <trkpt lat="43.93436" lon="7.38767">
        <ele>1300.5999755859</ele>
        <time>2018-06-15T12:17:11.000Z</time>
      </trkpt>
      <trkpt lat="43.93439" lon="7.38761">
        <ele>1299.5999755859</ele>
        <time>2018-06-15T12:17:13.000Z</time>
      </trkpt>
      <trkpt lat="43.9344" lon="7.38752">
        <ele>1298.8000488281</ele>
        <time>2018-06-15T12:17:17.000Z</time>
      </trkpt>
      <trkpt lat="43.93438" lon="7.38752">
        <ele>1298.5999755859</ele>
        <time>2018-06-15T12:17:18.000Z</time>
      </trkpt>
      <trkpt lat="43.93437" lon="7.38753">
        <ele>1298.5999755859</ele>
        <time>2018-06-15T12:17:19.000Z</time>
      </trkpt>
      <trkpt lat="43.93438" lon="7.38752">
        <ele>1298.4000244141</ele>
        <time>2018-06-15T12:17:20.000Z</time>
      </trkpt>
      <trkpt lat="43.93437" lon="7.38744">
        <ele>1284.1999511719</ele>
        <time>2018-06-15T12:19:31.000Z</time>
      </trkpt>
      <trkpt lat="43.93433" lon="7.38748">
        <ele>1283.8000488281</ele>
        <time>2018-06-15T12:19:34.000Z</time>
      </trkpt>
      <trkpt lat="43.93429" lon="7.38751">
        <ele>1283.4000244141</ele>
        <time>2018-06-15T12:19:36.000Z</time>
      </trkpt>
      <trkpt lat="43.93422" lon="7.38755">
        <ele>1283.1999511719</ele>
        <time>2018-06-15T12:19:39.000Z</time>
      </trkpt>
      <trkpt lat="43.93421" lon="7.38757">
        <ele>1283.1999511719</ele>
        <time>2018-06-15T12:19:40.000Z</time>
      </trkpt>
      <trkpt lat="43.93409" lon="7.38765">
        <ele>1282.8000488281</ele>
        <time>2018-06-15T12:19:45.000Z</time>
      </trkpt>
      <trkpt lat="43.93396" lon="7.38781">
        <ele>1282.5999755859</ele>
        <time>2018-06-15T12:19:50.000Z</time>
      </trkpt>
      <trkpt lat="43.93393" lon="7.38784">
        <ele>1282.5999755859</ele>
        <time>2018-06-15T12:19:51.000Z</time>
      </trkpt>
      <trkpt lat="43.93383" lon="7.38798">
        <ele>1282.5999755859</ele>
        <time>2018-06-15T12:19:54.000Z</time>
      </trkpt>
      <trkpt lat="43.93367" lon="7.38808">
        <ele>1282.4000244141</ele>
        <time>2018-06-15T12:19:58.000Z</time>
      </trkpt>
      <trkpt lat="43.93346" lon="7.38814">
        <ele>1282.5999755859</ele>
        <time>2018-06-15T12:20:03.000Z</time>
      </trkpt>
      <trkpt lat="43.93341" lon="7.38814">
        <ele>1282.5999755859</ele>
        <time>2018-06-15T12:20:04.000Z</time>
      </trkpt>
      <trkpt lat="43.93327" lon="7.38816">
        <ele>1282.5999755859</ele>
        <time>2018-06-15T12:20:07.000Z</time>
      </trkpt>
      <trkpt lat="43.93324" lon="7.3882">
        <ele>1282.5999755859</ele>
        <time>2018-06-15T12:20:08.000Z</time>
      </trkpt>
      <trkpt lat="43.93324" lon="7.38836">
        <ele>1282.1999511719</ele>
        <time>2018-06-15T12:20:11.000Z</time>
      </trkpt>
      <trkpt lat="43.93326" lon="7.38845">
        <ele>1282</ele>
        <time>2018-06-15T12:20:12.000Z</time>
      </trkpt>
      <trkpt lat="43.93328" lon="7.38852">
        <ele>1281.8000488281</ele>
        <time>2018-06-15T12:20:13.000Z</time>
      </trkpt>
      <trkpt lat="43.93331" lon="7.38859">
        <ele>1281.5999755859</ele>
        <time>2018-06-15T12:20:14.000Z</time>
      </trkpt>
      <trkpt lat="43.93334" lon="7.38863">
        <ele>1281.5999755859</ele>
        <time>2018-06-15T12:20:15.000Z</time>
      </trkpt>
      <trkpt lat="43.93339" lon="7.38892">
        <ele>1281.4000244141</ele>
        <time>2018-06-15T12:20:19.000Z</time>
      </trkpt>
      <trkpt lat="43.93327" lon="7.38902">
        <ele>1281</ele>
        <time>2018-06-15T12:20:22.000Z</time>
      </trkpt>
      <trkpt lat="43.93323" lon="7.38904">
        <ele>1281</ele>
        <time>2018-06-15T12:20:23.000Z</time>
      </trkpt>
      <trkpt lat="43.93318" lon="7.38908">
        <ele>1281</ele>
        <time>2018-06-15T12:20:24.000Z</time>
      </trkpt>
      <trkpt lat="43.93312" lon="7.38918">
        <ele>1280.1999511719</ele>
        <time>2018-06-15T12:20:26.000Z</time>
      </trkpt>
      <trkpt lat="43.93304" lon="7.38931">
        <ele>1279.5999755859</ele>
        <time>2018-06-15T12:20:28.000Z</time>
      </trkpt>
      <trkpt lat="43.93299" lon="7.38933">
        <ele>1279.4000244141</ele>
        <time>2018-06-15T12:20:29.000Z</time>
      </trkpt>
      <trkpt lat="43.93286" lon="7.38924">
        <ele>1279.1999511719</ele>
        <time>2018-06-15T12:20:32.000Z</time>
      </trkpt>
      <trkpt lat="43.93283" lon="7.3892">
        <ele>1279.1999511719</ele>
        <time>2018-06-15T12:20:33.000Z</time>
      </trkpt>
      <trkpt lat="43.93278" lon="7.38917">
        <ele>1279.1999511719</ele>
        <time>2018-06-15T12:20:34.000Z</time>
      </trkpt>
      <trkpt lat="43.93261" lon="7.38908">
        <ele>1279</ele>
        <time>2018-06-15T12:20:37.000Z</time>
      </trkpt>
      <trkpt lat="43.93255" lon="7.38906">
        <ele>1279</ele>
        <time>2018-06-15T12:20:38.000Z</time>
      </trkpt>
      <trkpt lat="43.93249" lon="7.38903">
        <ele>1279</ele>
        <time>2018-06-15T12:20:39.000Z</time>
      </trkpt>
      <trkpt lat="43.93236" lon="7.38897">
        <ele>1279</ele>
        <time>2018-06-15T12:20:41.000Z</time>
      </trkpt>
      <trkpt lat="43.93225" lon="7.38894">
        <ele>1279.1999511719</ele>
        <time>2018-06-15T12:20:42.000Z</time>
      </trkpt>
      <trkpt lat="43.93207" lon="7.38888">
        <ele>1279.4000244141</ele>
        <time>2018-06-15T12:20:45.000Z</time>
      </trkpt>
      <trkpt lat="43.93202" lon="7.38887">
        <ele>1278.8000488281</ele>
        <time>2018-06-15T12:20:46.000Z</time>
      </trkpt>
      <trkpt lat="43.93192" lon="7.38883">
        <ele>1278.5999755859</ele>
        <time>2018-06-15T12:20:47.000Z</time>
      </trkpt>
      <trkpt lat="43.93184" lon="7.38881">
        <ele>1278.5999755859</ele>
        <time>2018-06-15T12:20:48.000Z</time>
      </trkpt>
      <trkpt lat="43.93176" lon="7.3888">
        <ele>1278.8000488281</ele>
        <time>2018-06-15T12:20:49.000Z</time>
      </trkpt>
      <trkpt lat="43.93171" lon="7.3888">
        <ele>1279</ele>
        <time>2018-06-15T12:20:50.000Z</time>
      </trkpt>
      <trkpt lat="43.93153" lon="7.38875">
        <ele>1279</ele>
        <time>2018-06-15T12:20:52.000Z</time>
      </trkpt>
      <trkpt lat="43.93137" lon="7.38872">
        <ele>1278</ele>
        <time>2018-06-15T12:20:54.000Z</time>
      </trkpt>
      <trkpt lat="43.9313" lon="7.38869">
        <ele>1277.4000244141</ele>
        <time>2018-06-15T12:20:55.000Z</time>
      </trkpt>
      <trkpt lat="43.93123" lon="7.38868">
        <ele>1277.1999511719</ele>
        <time>2018-06-15T12:20:56.000Z</time>
      </trkpt>
      <trkpt lat="43.93093" lon="7.38853">
        <ele>1277.1999511719</ele>
        <time>2018-06-15T12:20:59.000Z</time>
      </trkpt>
      <trkpt lat="43.93088" lon="7.38849">
        <ele>1277.1999511719</ele>
        <time>2018-06-15T12:21:00.000Z</time>
      </trkpt>
      <trkpt lat="43.93081" lon="7.38844">
        <ele>1277.1999511719</ele>
        <time>2018-06-15T12:21:01.000Z</time>
      </trkpt>
      <trkpt lat="43.93065" lon="7.38823">
        <ele>1277.4000244141</ele>
        <time>2018-06-15T12:21:03.000Z</time>
      </trkpt>
      <trkpt lat="43.93054" lon="7.38803">
        <ele>1277.5999755859</ele>
        <time>2018-06-15T12:21:05.000Z</time>
      </trkpt>
      <trkpt lat="43.9304" lon="7.38781">
        <ele>1276.4000244141</ele>
        <time>2018-06-15T12:21:07.000Z</time>
      </trkpt>
      <trkpt lat="43.93033" lon="7.38773">
        <ele>1275.8000488281</ele>
        <time>2018-06-15T12:21:08.000Z</time>
      </trkpt>
      <trkpt lat="43.9302" lon="7.38759">
        <ele>1274.5999755859</ele>
        <time>2018-06-15T12:21:10.000Z</time>
      </trkpt>
      <trkpt lat="43.93005" lon="7.38746">
        <ele>1272.4000244141</ele>
        <time>2018-06-15T12:21:12.000Z</time>
      </trkpt>
      <trkpt lat="43.92991" lon="7.38737">
        <ele>1271</ele>
        <time>2018-06-15T12:21:14.000Z</time>
      </trkpt>
      <trkpt lat="43.92986" lon="7.38736">
        <ele>1270</ele>
        <time>2018-06-15T12:21:15.000Z</time>
      </trkpt>
      <trkpt lat="43.92982" lon="7.38738">
        <ele>1269.1999511719</ele>
        <time>2018-06-15T12:21:16.000Z</time>
      </trkpt>
      <trkpt lat="43.92976" lon="7.38743">
        <ele>1267.8000488281</ele>
        <time>2018-06-15T12:21:17.000Z</time>
      </trkpt>
      <trkpt lat="43.92973" lon="7.38757">
        <ele>1265.5999755859</ele>
        <time>2018-06-15T12:21:19.000Z</time>
      </trkpt>
      <trkpt lat="43.92972" lon="7.38764">
        <ele>1264.5999755859</ele>
        <time>2018-06-15T12:21:20.000Z</time>
      </trkpt>
      <trkpt lat="43.92971" lon="7.38771">
        <ele>1263.4000244141</ele>
        <time>2018-06-15T12:21:21.000Z</time>
      </trkpt>
      <trkpt lat="43.9297" lon="7.38791">
        <ele>1262.4000244141</ele>
        <time>2018-06-15T12:21:23.000Z</time>
      </trkpt>
      <trkpt lat="43.9296" lon="7.38808">
        <ele>1261.8000488281</ele>
        <time>2018-06-15T12:21:26.000Z</time>
      </trkpt>
      <trkpt lat="43.92947" lon="7.38809">
        <ele>1261.4000244141</ele>
        <time>2018-06-15T12:21:28.000Z</time>
      </trkpt>
      <trkpt lat="43.92941" lon="7.38806">
        <ele>1261.4000244141</ele>
        <time>2018-06-15T12:21:29.000Z</time>
      </trkpt>
      <trkpt lat="43.92936" lon="7.38803">
        <ele>1261.1999511719</ele>
        <time>2018-06-15T12:21:30.000Z</time>
      </trkpt>
      <trkpt lat="43.9293" lon="7.38799">
        <ele>1261.1999511719</ele>
        <time>2018-06-15T12:21:31.000Z</time>
      </trkpt>
      <trkpt lat="43.92915" lon="7.3879">
        <ele>1261</ele>
        <time>2018-06-15T12:21:33.000Z</time>
      </trkpt>
      <trkpt lat="43.92897" lon="7.38784">
        <ele>1260.4000244141</ele>
        <time>2018-06-15T12:21:36.000Z</time>
      </trkpt>
      <trkpt lat="43.92884" lon="7.38781">
        <ele>1260.1999511719</ele>
        <time>2018-06-15T12:21:37.000Z</time>
      </trkpt>
      <trkpt lat="43.92878" lon="7.38782">
        <ele>1260</ele>
        <time>2018-06-15T12:21:38.000Z</time>
      </trkpt>
      <trkpt lat="43.92873" lon="7.3878">
        <ele>1260</ele>
        <time>2018-06-15T12:21:39.000Z</time>
      </trkpt>
      <trkpt lat="43.92863" lon="7.38764">
        <ele>1259.8000488281</ele>
        <time>2018-06-15T12:21:42.000Z</time>
      </trkpt>
      <trkpt lat="43.9286" lon="7.38758">
        <ele>1259.5999755859</ele>
        <time>2018-06-15T12:21:43.000Z</time>
      </trkpt>
      <trkpt lat="43.92857" lon="7.38752">
        <ele>1259.5999755859</ele>
        <time>2018-06-15T12:21:44.000Z</time>
      </trkpt>
      <trkpt lat="43.92846" lon="7.38728">
        <ele>1259.8000488281</ele>
        <time>2018-06-15T12:21:48.000Z</time>
      </trkpt>
      <trkpt lat="43.92838" lon="7.38715">
        <ele>1260</ele>
        <time>2018-06-15T12:21:51.000Z</time>
      </trkpt>
      <trkpt lat="43.92832" lon="7.38712">
        <ele>1259.4000244141</ele>
        <time>2018-06-15T12:21:52.000Z</time>
      </trkpt>
      <trkpt lat="43.92829" lon="7.38708">
        <ele>1258.8000488281</ele>
        <time>2018-06-15T12:21:53.000Z</time>
      </trkpt>
      <trkpt lat="43.92821" lon="7.38701">
        <ele>1258</ele>
        <time>2018-06-15T12:21:55.000Z</time>
      </trkpt>
      <trkpt lat="43.92818" lon="7.38698">
        <ele>1257.8000488281</ele>
        <time>2018-06-15T12:21:56.000Z</time>
      </trkpt>
      <trkpt lat="43.92811" lon="7.38693">
        <ele>1257.4000244141</ele>
        <time>2018-06-15T12:21:57.000Z</time>
      </trkpt>
      <trkpt lat="43.92801" lon="7.38688">
        <ele>1257.4000244141</ele>
        <time>2018-06-15T12:21:59.000Z</time>
      </trkpt>
      <trkpt lat="43.92787" lon="7.38681">
        <ele>1257.5999755859</ele>
        <time>2018-06-15T12:22:02.000Z</time>
      </trkpt>
      <trkpt lat="43.92778" lon="7.38676">
        <ele>1257</ele>
        <time>2018-06-15T12:22:04.000Z</time>
      </trkpt>
      <trkpt lat="43.92766" lon="7.38668">
        <ele>1257</ele>
        <time>2018-06-15T12:22:07.000Z</time>
      </trkpt>
      <trkpt lat="43.92753" lon="7.3866">
        <ele>1256.1999511719</ele>
        <time>2018-06-15T12:22:11.000Z</time>
      </trkpt>
      <trkpt lat="43.92739" lon="7.3865">
        <ele>1255.5999755859</ele>
        <time>2018-06-15T12:22:15.000Z</time>
      </trkpt>
      <trkpt lat="43.92718" lon="7.38632">
        <ele>1256.5999755859</ele>
        <time>2018-06-15T12:22:22.000Z</time>
      </trkpt>
      <trkpt lat="43.92703" lon="7.38623">
        <ele>1257.4000244141</ele>
        <time>2018-06-15T12:22:27.000Z</time>
      </trkpt>
      <trkpt lat="43.92701" lon="7.38622">
        <ele>1257.4000244141</ele>
        <time>2018-06-15T12:22:28.000Z</time>
      </trkpt>
      <trkpt lat="43.92688" lon="7.38619">
        <ele>1257.5999755859</ele>
        <time>2018-06-15T12:22:33.000Z</time>
      </trkpt>
      <trkpt lat="43.92685" lon="7.38615">
        <ele>1258.1999511719</ele>
        <time>2018-06-15T12:22:35.000Z</time>
      </trkpt>
      <trkpt lat="43.92684" lon="7.38614">
        <ele>1258.8000488281</ele>
        <time>2018-06-15T12:22:36.000Z</time>
      </trkpt>
      <trkpt lat="43.92681" lon="7.38612">
        <ele>1259.1999511719</ele>
        <time>2018-06-15T12:22:37.000Z</time>
      </trkpt>
      <trkpt lat="43.92677" lon="7.38608">
        <ele>1260.1999511719</ele>
        <time>2018-06-15T12:22:39.000Z</time>
      </trkpt>
      <trkpt lat="43.9267" lon="7.38601">
        <ele>1260.4000244141</ele>
        <time>2018-06-15T12:22:42.000Z</time>
      </trkpt>
      <trkpt lat="43.92659" lon="7.38591">
        <ele>1260.1999511719</ele>
        <time>2018-06-15T12:22:47.000Z</time>
      </trkpt>
      <trkpt lat="43.92646" lon="7.38581">
        <ele>1259.8000488281</ele>
        <time>2018-06-15T12:22:53.000Z</time>
      </trkpt>
      <trkpt lat="43.92637" lon="7.38575">
        <ele>1260</ele>
        <time>2018-06-15T12:22:57.000Z</time>
      </trkpt>
      <trkpt lat="43.92629" lon="7.38568">
        <ele>1260.1999511719</ele>
        <time>2018-06-15T12:23:02.000Z</time>
      </trkpt>
      <trkpt lat="43.92623" lon="7.38564">
        <ele>1260</ele>
        <time>2018-06-15T12:23:06.000Z</time>
      </trkpt>
      <trkpt lat="43.9262" lon="7.38561">
        <ele>1259.1999511719</ele>
        <time>2018-06-15T12:23:08.000Z</time>
      </trkpt>
      <trkpt lat="43.92616" lon="7.38558">
        <ele>1259.4000244141</ele>
        <time>2018-06-15T12:23:10.000Z</time>
      </trkpt>
      <trkpt lat="43.92605" lon="7.38551">
        <ele>1260</ele>
        <time>2018-06-15T12:23:15.000Z</time>
      </trkpt>
      <trkpt lat="43.92595" lon="7.38544">
        <ele>1261.1999511719</ele>
        <time>2018-06-15T12:23:20.000Z</time>
      </trkpt>
      <trkpt lat="43.92589" lon="7.38541">
        <ele>1262.1999511719</ele>
        <time>2018-06-15T12:23:23.000Z</time>
      </trkpt>
      <trkpt lat="43.92587" lon="7.3854">
        <ele>1262.4000244141</ele>
        <time>2018-06-15T12:23:24.000Z</time>
      </trkpt>
      <trkpt lat="43.92576" lon="7.38533">
        <ele>1263.4000244141</ele>
        <time>2018-06-15T12:23:30.000Z</time>
      </trkpt>
      <trkpt lat="43.92574" lon="7.38531">
        <ele>1263.8000488281</ele>
        <time>2018-06-15T12:23:31.000Z</time>
      </trkpt>
      <trkpt lat="43.92564" lon="7.38526">
        <ele>1264.5999755859</ele>
        <time>2018-06-15T12:23:36.000Z</time>
      </trkpt>
      <trkpt lat="43.92559" lon="7.38523">
        <ele>1265.5999755859</ele>
        <time>2018-06-15T12:23:39.000Z</time>
      </trkpt>
      <trkpt lat="43.92553" lon="7.3852">
        <ele>1266.8000488281</ele>
        <time>2018-06-15T12:23:42.000Z</time>
      </trkpt>
      <trkpt lat="43.92547" lon="7.38516">
        <ele>1267.8000488281</ele>
        <time>2018-06-15T12:23:45.000Z</time>
      </trkpt>
      <trkpt lat="43.92542" lon="7.38513">
        <ele>1269</ele>
        <time>2018-06-15T12:23:48.000Z</time>
      </trkpt>
      <trkpt lat="43.92536" lon="7.38511">
        <ele>1270.1999511719</ele>
        <time>2018-06-15T12:23:51.000Z</time>
      </trkpt>
      <trkpt lat="43.92528" lon="7.38506">
        <ele>1271.4000244141</ele>
        <time>2018-06-15T12:23:55.000Z</time>
      </trkpt>
      <trkpt lat="43.92526" lon="7.38504">
        <ele>1271.8000488281</ele>
        <time>2018-06-15T12:23:56.000Z</time>
      </trkpt>
      <trkpt lat="43.92524" lon="7.38503">
        <ele>1272.5999755859</ele>
        <time>2018-06-15T12:23:57.000Z</time>
      </trkpt>
      <trkpt lat="43.92511" lon="7.38497">
        <ele>1273.5999755859</ele>
        <time>2018-06-15T12:24:03.000Z</time>
      </trkpt>
      <trkpt lat="43.92509" lon="7.38496">
        <ele>1273.8000488281</ele>
        <time>2018-06-15T12:24:04.000Z</time>
      </trkpt>
      <trkpt lat="43.92493" lon="7.38488">
        <ele>1274.1999511719</ele>
        <time>2018-06-15T12:24:11.000Z</time>
      </trkpt>
      <trkpt lat="43.9248" lon="7.3848">
        <ele>1273.5999755859</ele>
        <time>2018-06-15T12:24:17.000Z</time>
      </trkpt>
      <trkpt lat="43.92474" lon="7.38475">
        <ele>1274</ele>
        <time>2018-06-15T12:24:21.000Z</time>
      </trkpt>
      <trkpt lat="43.92462" lon="7.38469">
        <ele>1274.8000488281</ele>
        <time>2018-06-15T12:24:26.000Z</time>
      </trkpt>
      <trkpt lat="43.92458" lon="7.38466">
        <ele>1275.5999755859</ele>
        <time>2018-06-15T12:24:28.000Z</time>
      </trkpt>
      <trkpt lat="43.92455" lon="7.38465">
        <ele>1276</ele>
        <time>2018-06-15T12:24:29.000Z</time>
      </trkpt>
      <trkpt lat="43.92442" lon="7.38459">
        <ele>1277.1999511719</ele>
        <time>2018-06-15T12:24:35.000Z</time>
      </trkpt>
      <trkpt lat="43.92438" lon="7.38457">
        <ele>1278</ele>
        <time>2018-06-15T12:24:37.000Z</time>
      </trkpt>
      <trkpt lat="43.92436" lon="7.38456">
        <ele>1278.4000244141</ele>
        <time>2018-06-15T12:24:38.000Z</time>
      </trkpt>
      <trkpt lat="43.92428" lon="7.38451">
        <ele>1279.8000488281</ele>
        <time>2018-06-15T12:24:42.000Z</time>
      </trkpt>
      <trkpt lat="43.92415" lon="7.38444">
        <ele>1280.8000488281</ele>
        <time>2018-06-15T12:24:48.000Z</time>
      </trkpt>
      <trkpt lat="43.92413" lon="7.38442">
        <ele>1281</ele>
        <time>2018-06-15T12:24:49.000Z</time>
      </trkpt>
      <trkpt lat="43.92399" lon="7.38432">
        <ele>1281.5999755859</ele>
        <time>2018-06-15T12:24:55.000Z</time>
      </trkpt>
      <trkpt lat="43.92397" lon="7.38429">
        <ele>1282</ele>
        <time>2018-06-15T12:24:56.000Z</time>
      </trkpt>
      <trkpt lat="43.92385" lon="7.38419">
        <ele>1282.8000488281</ele>
        <time>2018-06-15T12:25:01.000Z</time>
      </trkpt>
      <trkpt lat="43.92379" lon="7.38416">
        <ele>1283.1999511719</ele>
        <time>2018-06-15T12:25:03.000Z</time>
      </trkpt>
      <trkpt lat="43.92372" lon="7.38415">
        <ele>1283.5999755859</ele>
        <time>2018-06-15T12:25:06.000Z</time>
      </trkpt>
      <trkpt lat="43.92358" lon="7.38421">
        <ele>1284.1999511719</ele>
        <time>2018-06-15T12:25:11.000Z</time>
      </trkpt>
      <trkpt lat="43.92356" lon="7.38424">
        <ele>1284.5999755859</ele>
        <time>2018-06-15T12:25:12.000Z</time>
      </trkpt>
      <trkpt lat="43.92346" lon="7.38437">
        <ele>1285.5999755859</ele>
        <time>2018-06-15T12:25:17.000Z</time>
      </trkpt>
      <trkpt lat="43.9233" lon="7.38449">
        <ele>1287</ele>
        <time>2018-06-15T12:25:24.000Z</time>
      </trkpt>
      <trkpt lat="43.92328" lon="7.3845">
        <ele>1287.1999511719</ele>
        <time>2018-06-15T12:25:25.000Z</time>
      </trkpt>
      <trkpt lat="43.92307" lon="7.38463">
        <ele>1287.8000488281</ele>
        <time>2018-06-15T12:25:33.000Z</time>
      </trkpt>
      <trkpt lat="43.92294" lon="7.38472">
        <ele>1286.4000244141</ele>
        <time>2018-06-15T12:25:38.000Z</time>
      </trkpt>
      <trkpt lat="43.9229" lon="7.38478">
        <ele>1285.8000488281</ele>
        <time>2018-06-15T12:25:40.000Z</time>
      </trkpt>
      <trkpt lat="43.92283" lon="7.38486">
        <ele>1284.8000488281</ele>
        <time>2018-06-15T12:25:43.000Z</time>
      </trkpt>
      <trkpt lat="43.92281" lon="7.38488">
        <ele>1284.5999755859</ele>
        <time>2018-06-15T12:25:44.000Z</time>
      </trkpt>
      <trkpt lat="43.92274" lon="7.38499">
        <ele>1284.4000244141</ele>
        <time>2018-06-15T12:25:48.000Z</time>
      </trkpt>
      <trkpt lat="43.92268" lon="7.3851">
        <ele>1284.8000488281</ele>
        <time>2018-06-15T12:25:52.000Z</time>
      </trkpt>
      <trkpt lat="43.92262" lon="7.38515">
        <ele>1285.8000488281</ele>
        <time>2018-06-15T12:25:55.000Z</time>
      </trkpt>
      <trkpt lat="43.92257" lon="7.38518">
        <ele>1286.4000244141</ele>
        <time>2018-06-15T12:25:57.000Z</time>
      </trkpt>
      <trkpt lat="43.92251" lon="7.38521">
        <ele>1287</ele>
        <time>2018-06-15T12:25:59.000Z</time>
      </trkpt>
      <trkpt lat="43.92243" lon="7.38525">
        <ele>1287.5999755859</ele>
        <time>2018-06-15T12:26:02.000Z</time>
      </trkpt>
      <trkpt lat="43.92236" lon="7.38527">
        <ele>1288</ele>
        <time>2018-06-15T12:26:04.000Z</time>
      </trkpt>
      <trkpt lat="43.92228" lon="7.38529">
        <ele>1288.5999755859</ele>
        <time>2018-06-15T12:26:07.000Z</time>
      </trkpt>
      <trkpt lat="43.92217" lon="7.38531">
        <ele>1289</ele>
        <time>2018-06-15T12:26:11.000Z</time>
      </trkpt>
      <trkpt lat="43.92211" lon="7.38534">
        <ele>1289.4000244141</ele>
        <time>2018-06-15T12:26:13.000Z</time>
      </trkpt>
      <trkpt lat="43.92198" lon="7.38536">
        <ele>1289.4000244141</ele>
        <time>2018-06-15T12:26:18.000Z</time>
      </trkpt>
      <trkpt lat="43.92184" lon="7.38537">
        <ele>1288.8000488281</ele>
        <time>2018-06-15T12:26:24.000Z</time>
      </trkpt>
      <trkpt lat="43.92169" lon="7.38541">
        <ele>1288.8000488281</ele>
        <time>2018-06-15T12:26:30.000Z</time>
      </trkpt>
      <trkpt lat="43.92163" lon="7.38555">
        <ele>1287.4000244141</ele>
        <time>2018-06-15T12:26:34.000Z</time>
      </trkpt>
      <trkpt lat="43.92159" lon="7.38565">
        <ele>1286.4000244141</ele>
        <time>2018-06-15T12:26:37.000Z</time>
      </trkpt>
      <trkpt lat="43.92154" lon="7.38577">
        <ele>1285.5999755859</ele>
        <time>2018-06-15T12:26:40.000Z</time>
      </trkpt>
      <trkpt lat="43.92145" lon="7.38589">
        <ele>1285.1999511719</ele>
        <time>2018-06-15T12:26:44.000Z</time>
      </trkpt>
      <trkpt lat="43.92141" lon="7.38593">
        <ele>1285.1999511719</ele>
        <time>2018-06-15T12:26:46.000Z</time>
      </trkpt>
      <trkpt lat="43.92127" lon="7.38614">
        <ele>1284.4000244141</ele>
        <time>2018-06-15T12:26:53.000Z</time>
      </trkpt>
      <trkpt lat="43.92121" lon="7.38629">
        <ele>1284.8000488281</ele>
        <time>2018-06-15T12:26:58.000Z</time>
      </trkpt>
      <trkpt lat="43.92112" lon="7.38642">
        <ele>1285.4000244141</ele>
        <time>2018-06-15T12:27:03.000Z</time>
      </trkpt>
      <trkpt lat="43.92103" lon="7.38642">
        <ele>1286.1999511719</ele>
        <time>2018-06-15T12:27:06.000Z</time>
      </trkpt>
      <trkpt lat="43.92101" lon="7.38641">
        <ele>1286.5999755859</ele>
        <time>2018-06-15T12:27:07.000Z</time>
      </trkpt>
      <trkpt lat="43.9208" lon="7.38636">
        <ele>1287.1999511719</ele>
        <time>2018-06-15T12:27:12.000Z</time>
      </trkpt>
      <trkpt lat="43.92043" lon="7.38635">
        <ele>1286.4000244141</ele>
        <time>2018-06-15T12:27:18.000Z</time>
      </trkpt>
      <trkpt lat="43.92022" lon="7.38637">
        <ele>1286.1999511719</ele>
        <time>2018-06-15T12:27:22.000Z</time>
      </trkpt>
      <trkpt lat="43.92013" lon="7.3864">
        <ele>1286.1999511719</ele>
        <time>2018-06-15T12:27:24.000Z</time>
      </trkpt>
      <trkpt lat="43.92002" lon="7.38645">
        <ele>1286.1999511719</ele>
        <time>2018-06-15T12:27:26.000Z</time>
      </trkpt>
      <trkpt lat="43.91994" lon="7.3865">
        <ele>1285.5999755859</ele>
        <time>2018-06-15T12:27:28.000Z</time>
      </trkpt>
      <trkpt lat="43.91991" lon="7.38653">
        <ele>1285.5999755859</ele>
        <time>2018-06-15T12:27:29.000Z</time>
      </trkpt>
      <trkpt lat="43.91982" lon="7.38665">
        <ele>1285.1999511719</ele>
        <time>2018-06-15T12:27:31.000Z</time>
      </trkpt>
      <trkpt lat="43.9198" lon="7.3867">
        <ele>1285.1999511719</ele>
        <time>2018-06-15T12:27:32.000Z</time>
      </trkpt>
      <trkpt lat="43.91977" lon="7.38679">
        <ele>1285</ele>
        <time>2018-06-15T12:27:34.000Z</time>
      </trkpt>
      <trkpt lat="43.91973" lon="7.38693">
        <ele>1285</ele>
        <time>2018-06-15T12:27:36.000Z</time>
      </trkpt>
      <trkpt lat="43.91972" lon="7.38719">
        <ele>1284.8000488281</ele>
        <time>2018-06-15T12:27:40.000Z</time>
      </trkpt>
      <trkpt lat="43.9197" lon="7.38769">
        <ele>1284.4000244141</ele>
        <time>2018-06-15T12:27:47.000Z</time>
      </trkpt>
      <trkpt lat="43.91969" lon="7.38781">
        <ele>1284</ele>
        <time>2018-06-15T12:27:48.000Z</time>
      </trkpt>
      <trkpt lat="43.91964" lon="7.38813">
        <ele>1283.5999755859</ele>
        <time>2018-06-15T12:27:52.000Z</time>
      </trkpt>
      <trkpt lat="43.9196" lon="7.38828">
        <ele>1283.1999511719</ele>
        <time>2018-06-15T12:27:54.000Z</time>
      </trkpt>
      <trkpt lat="43.91957" lon="7.38835">
        <ele>1283</ele>
        <time>2018-06-15T12:27:55.000Z</time>
      </trkpt>
      <trkpt lat="43.91945" lon="7.38869">
        <ele>1282</ele>
        <time>2018-06-15T12:27:59.000Z</time>
      </trkpt>
      <trkpt lat="43.91936" lon="7.38892">
        <ele>1281.1999511719</ele>
        <time>2018-06-15T12:28:01.000Z</time>
      </trkpt>
      <trkpt lat="43.91926" lon="7.38902">
        <ele>1281</ele>
        <time>2018-06-15T12:28:03.000Z</time>
      </trkpt>
      <trkpt lat="43.91901" lon="7.38916">
        <ele>1280.4000244141</ele>
        <time>2018-06-15T12:28:06.000Z</time>
      </trkpt>
      <trkpt lat="43.91895" lon="7.38918">
        <ele>1280.4000244141</ele>
        <time>2018-06-15T12:28:07.000Z</time>
      </trkpt>
      <trkpt lat="43.91863" lon="7.38931">
        <ele>1279.8000488281</ele>
        <time>2018-06-15T12:28:11.000Z</time>
      </trkpt>
      <trkpt lat="43.91858" lon="7.38933">
        <ele>1279.5999755859</ele>
        <time>2018-06-15T12:28:12.000Z</time>
      </trkpt>
      <trkpt lat="43.91804" lon="7.3895">
        <ele>1278.4000244141</ele>
        <time>2018-06-15T12:28:18.000Z</time>
      </trkpt>
      <trkpt lat="43.91783" lon="7.3896">
        <ele>1277.1999511719</ele>
        <time>2018-06-15T12:28:21.000Z</time>
      </trkpt>
      <trkpt lat="43.91763" lon="7.38971">
        <ele>1277</ele>
        <time>2018-06-15T12:28:23.000Z</time>
      </trkpt>
      <trkpt lat="43.91754" lon="7.38972">
        <ele>1276.8000488281</ele>
        <time>2018-06-15T12:28:24.000Z</time>
      </trkpt>
      <trkpt lat="43.91748" lon="7.38975">
        <ele>1276.1999511719</ele>
        <time>2018-06-15T12:28:25.000Z</time>
      </trkpt>
      <trkpt lat="43.91718" lon="7.38984">
        <ele>1274.4000244141</ele>
        <time>2018-06-15T12:28:28.000Z</time>
      </trkpt>
      <trkpt lat="43.91671" lon="7.38985">
        <ele>1273.1999511719</ele>
        <time>2018-06-15T12:28:33.000Z</time>
      </trkpt>
      <trkpt lat="43.91648" lon="7.38987">
        <ele>1272.1999511719</ele>
        <time>2018-06-15T12:28:35.000Z</time>
      </trkpt>
      <trkpt lat="43.91622" lon="7.38992">
        <ele>1270.8000488281</ele>
        <time>2018-06-15T12:28:38.000Z</time>
      </trkpt>
      <trkpt lat="43.91608" lon="7.38999">
        <ele>1270.1999511719</ele>
        <time>2018-06-15T12:28:39.000Z</time>
      </trkpt>
      <trkpt lat="43.91588" lon="7.39006">
        <ele>1269</ele>
        <time>2018-06-15T12:28:41.000Z</time>
      </trkpt>
      <trkpt lat="43.91581" lon="7.39009">
        <ele>1268.1999511719</ele>
        <time>2018-06-15T12:28:42.000Z</time>
      </trkpt>
      <trkpt lat="43.91572" lon="7.39014">
        <ele>1266.8000488281</ele>
        <time>2018-06-15T12:28:43.000Z</time>
      </trkpt>
      <trkpt lat="43.91557" lon="7.39021">
        <ele>1265.4000244141</ele>
        <time>2018-06-15T12:28:44.000Z</time>
      </trkpt>
      <trkpt lat="43.91548" lon="7.39027">
        <ele>1264.1999511719</ele>
        <time>2018-06-15T12:28:45.000Z</time>
      </trkpt>
      <trkpt lat="43.91543" lon="7.39032">
        <ele>1263.4000244141</ele>
        <time>2018-06-15T12:28:46.000Z</time>
      </trkpt>
      <trkpt lat="43.91538" lon="7.39037">
        <ele>1262.5999755859</ele>
        <time>2018-06-15T12:28:47.000Z</time>
      </trkpt>
      <trkpt lat="43.91529" lon="7.39053">
        <ele>1261.1999511719</ele>
        <time>2018-06-15T12:28:49.000Z</time>
      </trkpt>
      <trkpt lat="43.91533" lon="7.39072">
        <ele>1259.5999755859</ele>
        <time>2018-06-15T12:28:52.000Z</time>
      </trkpt>
      <trkpt lat="43.91543" lon="7.39091">
        <ele>1258.4000244141</ele>
        <time>2018-06-15T12:28:54.000Z</time>
      </trkpt>
      <trkpt lat="43.91547" lon="7.39096">
        <ele>1257.5999755859</ele>
        <time>2018-06-15T12:28:55.000Z</time>
      </trkpt>
      <trkpt lat="43.91551" lon="7.39104">
        <ele>1257</ele>
        <time>2018-06-15T12:28:56.000Z</time>
      </trkpt>
      <trkpt lat="43.91567" lon="7.39131">
        <ele>1254</ele>
        <time>2018-06-15T12:28:59.000Z</time>
      </trkpt>
      <trkpt lat="43.91572" lon="7.39141">
        <ele>1252.5999755859</ele>
        <time>2018-06-15T12:29:00.000Z</time>
      </trkpt>
      <trkpt lat="43.91578" lon="7.39151">
        <ele>1252.5999755859</ele>
        <time>2018-06-15T12:29:01.000Z</time>
      </trkpt>
      <trkpt lat="43.91586" lon="7.3917">
        <ele>1250.1999511719</ele>
        <time>2018-06-15T12:29:02.000Z</time>
      </trkpt>
      <trkpt lat="43.91588" lon="7.39176">
        <ele>1248.5999755859</ele>
        <time>2018-06-15T12:29:03.000Z</time>
      </trkpt>
      <trkpt lat="43.91594" lon="7.39191">
        <ele>1247.5999755859</ele>
        <time>2018-06-15T12:29:04.000Z</time>
      </trkpt>
      <trkpt lat="43.91602" lon="7.3921">
        <ele>1246.4000244141</ele>
        <time>2018-06-15T12:29:05.000Z</time>
      </trkpt>
      <trkpt lat="43.91608" lon="7.39222">
        <ele>1245.4000244141</ele>
        <time>2018-06-15T12:29:06.000Z</time>
      </trkpt>
      <trkpt lat="43.91614" lon="7.39235">
        <ele>1244.1999511719</ele>
        <time>2018-06-15T12:29:07.000Z</time>
      </trkpt>
      <trkpt lat="43.91616" lon="7.39243">
        <ele>1243.1999511719</ele>
        <time>2018-06-15T12:29:08.000Z</time>
      </trkpt>
      <trkpt lat="43.9162" lon="7.39257">
        <ele>1242.1999511719</ele>
        <time>2018-06-15T12:29:09.000Z</time>
      </trkpt>
      <trkpt lat="43.91624" lon="7.39277">
        <ele>1241.1999511719</ele>
        <time>2018-06-15T12:29:10.000Z</time>
      </trkpt>
      <trkpt lat="43.91627" lon="7.39293">
        <ele>1240.1999511719</ele>
        <time>2018-06-15T12:29:11.000Z</time>
      </trkpt>
      <trkpt lat="43.91629" lon="7.39304">
        <ele>1239</ele>
        <time>2018-06-15T12:29:12.000Z</time>
      </trkpt>
      <trkpt lat="43.91631" lon="7.39315">
        <ele>1238</ele>
        <time>2018-06-15T12:29:13.000Z</time>
      </trkpt>
      <trkpt lat="43.91636" lon="7.39351">
        <ele>1236.4000244141</ele>
        <time>2018-06-15T12:29:15.000Z</time>
      </trkpt>
      <trkpt lat="43.9164" lon="7.39369">
        <ele>1234.8000488281</ele>
        <time>2018-06-15T12:29:17.000Z</time>
      </trkpt>
      <trkpt lat="43.91649" lon="7.39389">
        <ele>1233.4000244141</ele>
        <time>2018-06-15T12:29:19.000Z</time>
      </trkpt>
      <trkpt lat="43.91654" lon="7.39394">
        <ele>1233</ele>
        <time>2018-06-15T12:29:20.000Z</time>
      </trkpt>
      <trkpt lat="43.91665" lon="7.394">
        <ele>1232.1999511719</ele>
        <time>2018-06-15T12:29:22.000Z</time>
      </trkpt>
      <trkpt lat="43.91676" lon="7.39404">
        <ele>1231.4000244141</ele>
        <time>2018-06-15T12:29:23.000Z</time>
      </trkpt>
      <trkpt lat="43.91684" lon="7.39406">
        <ele>1231</ele>
        <time>2018-06-15T12:29:24.000Z</time>
      </trkpt>
      <trkpt lat="43.9169" lon="7.39407">
        <ele>1230.8000488281</ele>
        <time>2018-06-15T12:29:25.000Z</time>
      </trkpt>
      <trkpt lat="43.91709" lon="7.39409">
        <ele>1230.1999511719</ele>
        <time>2018-06-15T12:29:27.000Z</time>
      </trkpt>
      <trkpt lat="43.91717" lon="7.3941">
        <ele>1229.5999755859</ele>
        <time>2018-06-15T12:29:28.000Z</time>
      </trkpt>
      <trkpt lat="43.91734" lon="7.39412">
        <ele>1228.5999755859</ele>
        <time>2018-06-15T12:29:30.000Z</time>
      </trkpt>
      <trkpt lat="43.9175" lon="7.39415">
        <ele>1228</ele>
        <time>2018-06-15T12:29:31.000Z</time>
      </trkpt>
      <trkpt lat="43.9177" lon="7.39419">
        <ele>1227.1999511719</ele>
        <time>2018-06-15T12:29:33.000Z</time>
      </trkpt>
      <trkpt lat="43.91789" lon="7.39422">
        <ele>1226</ele>
        <time>2018-06-15T12:29:35.000Z</time>
      </trkpt>
      <trkpt lat="43.91804" lon="7.39424">
        <ele>1225.1999511719</ele>
        <time>2018-06-15T12:29:36.000Z</time>
      </trkpt>
      <trkpt lat="43.91815" lon="7.39424">
        <ele>1225</ele>
        <time>2018-06-15T12:29:37.000Z</time>
      </trkpt>
      <trkpt lat="43.91845" lon="7.3943">
        <ele>1224.1999511719</ele>
        <time>2018-06-15T12:29:40.000Z</time>
      </trkpt>
      <trkpt lat="43.91865" lon="7.39435">
        <ele>1221.5999755859</ele>
        <time>2018-06-15T12:29:42.000Z</time>
      </trkpt>
      <trkpt lat="43.91886" lon="7.3944">
        <ele>1220.1999511719</ele>
        <time>2018-06-15T12:29:44.000Z</time>
      </trkpt>
      <trkpt lat="43.91897" lon="7.3944">
        <ele>1219.4000244141</ele>
        <time>2018-06-15T12:29:45.000Z</time>
      </trkpt>
      <trkpt lat="43.91905" lon="7.3944">
        <ele>1219</ele>
        <time>2018-06-15T12:29:46.000Z</time>
      </trkpt>
      <trkpt lat="43.91919" lon="7.3944">
        <ele>1218</ele>
        <time>2018-06-15T12:29:48.000Z</time>
      </trkpt>
      <trkpt lat="43.91943" lon="7.39433">
        <ele>1217.4000244141</ele>
        <time>2018-06-15T12:29:50.000Z</time>
      </trkpt>
      <trkpt lat="43.91958" lon="7.39428">
        <ele>1216.8000488281</ele>
        <time>2018-06-15T12:29:52.000Z</time>
      </trkpt>
      <trkpt lat="43.91984" lon="7.39421">
        <ele>1215.4000244141</ele>
        <time>2018-06-15T12:29:54.000Z</time>
      </trkpt>
      <trkpt lat="43.91992" lon="7.39419">
        <ele>1214.8000488281</ele>
        <time>2018-06-15T12:29:55.000Z</time>
      </trkpt>
      <trkpt lat="43.91999" lon="7.39418">
        <ele>1214.4000244141</ele>
        <time>2018-06-15T12:29:56.000Z</time>
      </trkpt>
      <trkpt lat="43.92023" lon="7.39412">
        <ele>1213.5999755859</ele>
        <time>2018-06-15T12:29:58.000Z</time>
      </trkpt>
      <trkpt lat="43.92032" lon="7.39409">
        <ele>1212.1999511719</ele>
        <time>2018-06-15T12:29:59.000Z</time>
      </trkpt>
      <trkpt lat="43.92039" lon="7.39408">
        <ele>1211.4000244141</ele>
        <time>2018-06-15T12:30:00.000Z</time>
      </trkpt>
      <trkpt lat="43.92047" lon="7.39408">
        <ele>1211.1999511719</ele>
        <time>2018-06-15T12:30:01.000Z</time>
      </trkpt>
      <trkpt lat="43.92067" lon="7.39415">
        <ele>1210.1999511719</ele>
        <time>2018-06-15T12:30:03.000Z</time>
      </trkpt>
      <trkpt lat="43.92075" lon="7.3942">
        <ele>1209.4000244141</ele>
        <time>2018-06-15T12:30:04.000Z</time>
      </trkpt>
      <trkpt lat="43.92082" lon="7.39427">
        <ele>1207.1999511719</ele>
        <time>2018-06-15T12:30:05.000Z</time>
      </trkpt>
      <trkpt lat="43.92093" lon="7.39438">
        <ele>1205.5999755859</ele>
        <time>2018-06-15T12:30:06.000Z</time>
      </trkpt>
      <trkpt lat="43.92101" lon="7.39442">
        <ele>1202.8000488281</ele>
        <time>2018-06-15T12:30:07.000Z</time>
      </trkpt>
      <trkpt lat="43.92107" lon="7.39444">
        <ele>1201</ele>
        <time>2018-06-15T12:30:08.000Z</time>
      </trkpt>
      <trkpt lat="43.92113" lon="7.39444">
        <ele>1199</ele>
        <time>2018-06-15T12:30:09.000Z</time>
      </trkpt>
      <trkpt lat="43.92132" lon="7.39439">
        <ele>1198</ele>
        <time>2018-06-15T12:30:11.000Z</time>
      </trkpt>
      <trkpt lat="43.92139" lon="7.39434">
        <ele>1197.4000244141</ele>
        <time>2018-06-15T12:30:12.000Z</time>
      </trkpt>
      <trkpt lat="43.92144" lon="7.39431">
        <ele>1196.5999755859</ele>
        <time>2018-06-15T12:30:13.000Z</time>
      </trkpt>
      <trkpt lat="43.92165" lon="7.39421">
        <ele>1194.4000244141</ele>
        <time>2018-06-15T12:30:15.000Z</time>
      </trkpt>
      <trkpt lat="43.92173" lon="7.39418">
        <ele>1193.8000488281</ele>
        <time>2018-06-15T12:30:16.000Z</time>
      </trkpt>
      <trkpt lat="43.92181" lon="7.39415">
        <ele>1193.1999511719</ele>
        <time>2018-06-15T12:30:17.000Z</time>
      </trkpt>
      <trkpt lat="43.92206" lon="7.39402">
        <ele>1192</ele>
        <time>2018-06-15T12:30:20.000Z</time>
      </trkpt>
      <trkpt lat="43.92211" lon="7.39397">
        <ele>1191.4000244141</ele>
        <time>2018-06-15T12:30:21.000Z</time>
      </trkpt>
      <trkpt lat="43.92214" lon="7.39393">
        <ele>1190.4000244141</ele>
        <time>2018-06-15T12:30:22.000Z</time>
      </trkpt>
      <trkpt lat="43.92225" lon="7.39376">
        <ele>1188.4000244141</ele>
        <time>2018-06-15T12:30:24.000Z</time>
      </trkpt>
      <trkpt lat="43.9223" lon="7.39372">
        <ele>1188</ele>
        <time>2018-06-15T12:30:25.000Z</time>
      </trkpt>
      <trkpt lat="43.92234" lon="7.39371">
        <ele>1187.4000244141</ele>
        <time>2018-06-15T12:30:26.000Z</time>
      </trkpt>
      <trkpt lat="43.92238" lon="7.39374">
        <ele>1186.5999755859</ele>
        <time>2018-06-15T12:30:27.000Z</time>
      </trkpt>
      <trkpt lat="43.92242" lon="7.39378">
        <ele>1186</ele>
        <time>2018-06-15T12:30:28.000Z</time>
      </trkpt>
      <trkpt lat="43.92246" lon="7.39386">
        <ele>1184.1999511719</ele>
        <time>2018-06-15T12:30:30.000Z</time>
      </trkpt>
      <trkpt lat="43.92251" lon="7.39398">
        <ele>1182.4000244141</ele>
        <time>2018-06-15T12:30:32.000Z</time>
      </trkpt>
      <trkpt lat="43.92258" lon="7.3941">
        <ele>1180.4000244141</ele>
        <time>2018-06-15T12:30:34.000Z</time>
      </trkpt>
      <trkpt lat="43.92261" lon="7.39415">
        <ele>1179.1999511719</ele>
        <time>2018-06-15T12:30:35.000Z</time>
      </trkpt>
      <trkpt lat="43.9227" lon="7.39435">
        <ele>1178.4000244141</ele>
        <time>2018-06-15T12:30:37.000Z</time>
      </trkpt>
      <trkpt lat="43.92273" lon="7.39444">
        <ele>1177.5999755859</ele>
        <time>2018-06-15T12:30:38.000Z</time>
      </trkpt>
      <trkpt lat="43.92277" lon="7.39459">
        <ele>1176</ele>
        <time>2018-06-15T12:30:40.000Z</time>
      </trkpt>
      <trkpt lat="43.92286" lon="7.39489">
        <ele>1174.5999755859</ele>
        <time>2018-06-15T12:30:42.000Z</time>
      </trkpt>
      <trkpt lat="43.92293" lon="7.39505">
        <ele>1173.1999511719</ele>
        <time>2018-06-15T12:30:44.000Z</time>
      </trkpt>
      <trkpt lat="43.923" lon="7.39518">
        <ele>1172</ele>
        <time>2018-06-15T12:30:45.000Z</time>
      </trkpt>
      <trkpt lat="43.92306" lon="7.39523">
        <ele>1171</ele>
        <time>2018-06-15T12:30:46.000Z</time>
      </trkpt>
      <trkpt lat="43.92314" lon="7.39529">
        <ele>1170.1999511719</ele>
        <time>2018-06-15T12:30:47.000Z</time>
      </trkpt>
      <trkpt lat="43.92321" lon="7.39533">
        <ele>1169.5999755859</ele>
        <time>2018-06-15T12:30:48.000Z</time>
      </trkpt>
      <trkpt lat="43.9234" lon="7.39538">
        <ele>1168.1999511719</ele>
        <time>2018-06-15T12:30:50.000Z</time>
      </trkpt>
      <trkpt lat="43.92357" lon="7.39546">
        <ele>1167</ele>
        <time>2018-06-15T12:30:52.000Z</time>
      </trkpt>
      <trkpt lat="43.92376" lon="7.39553">
        <ele>1165</ele>
        <time>2018-06-15T12:30:54.000Z</time>
      </trkpt>
      <trkpt lat="43.92384" lon="7.39554">
        <ele>1164.1999511719</ele>
        <time>2018-06-15T12:30:55.000Z</time>
      </trkpt>
      <trkpt lat="43.92388" lon="7.39554">
        <ele>1163.4000244141</ele>
        <time>2018-06-15T12:30:56.000Z</time>
      </trkpt>
      <trkpt lat="43.92401" lon="7.39558">
        <ele>1162.8000488281</ele>
        <time>2018-06-15T12:30:57.000Z</time>
      </trkpt>
      <trkpt lat="43.92409" lon="7.39562">
        <ele>1162.1999511719</ele>
        <time>2018-06-15T12:30:58.000Z</time>
      </trkpt>
      <trkpt lat="43.92416" lon="7.39565">
        <ele>1161.5999755859</ele>
        <time>2018-06-15T12:30:59.000Z</time>
      </trkpt>
      <trkpt lat="43.92422" lon="7.39567">
        <ele>1161</ele>
        <time>2018-06-15T12:31:00.000Z</time>
      </trkpt>
      <trkpt lat="43.92432" lon="7.39569">
        <ele>1160</ele>
        <time>2018-06-15T12:31:01.000Z</time>
      </trkpt>
      <trkpt lat="43.92441" lon="7.39574">
        <ele>1159</ele>
        <time>2018-06-15T12:31:03.000Z</time>
      </trkpt>
      <trkpt lat="43.92442" lon="7.39578">
        <ele>1158.8000488281</ele>
        <time>2018-06-15T12:31:04.000Z</time>
      </trkpt>
      <trkpt lat="43.92442" lon="7.39593">
        <ele>1158</ele>
        <time>2018-06-15T12:31:06.000Z</time>
      </trkpt>
      <trkpt lat="43.92439" lon="7.396">
        <ele>1157.5999755859</ele>
        <time>2018-06-15T12:31:07.000Z</time>
      </trkpt>
      <trkpt lat="43.92432" lon="7.3961">
        <ele>1156.4000244141</ele>
        <time>2018-06-15T12:31:09.000Z</time>
      </trkpt>
      <trkpt lat="43.92426" lon="7.39619">
        <ele>1155.8000488281</ele>
        <time>2018-06-15T12:31:10.000Z</time>
      </trkpt>
      <trkpt lat="43.92421" lon="7.39628">
        <ele>1155.4000244141</ele>
        <time>2018-06-15T12:31:11.000Z</time>
      </trkpt>
      <trkpt lat="43.92418" lon="7.39636">
        <ele>1155</ele>
        <time>2018-06-15T12:31:12.000Z</time>
      </trkpt>
      <trkpt lat="43.9241" lon="7.3966">
        <ele>1154</ele>
        <time>2018-06-15T12:31:14.000Z</time>
      </trkpt>
      <trkpt lat="43.92405" lon="7.39682">
        <ele>1152.5999755859</ele>
        <time>2018-06-15T12:31:16.000Z</time>
      </trkpt>
      <trkpt lat="43.92394" lon="7.39716">
        <ele>1151.4000244141</ele>
        <time>2018-06-15T12:31:19.000Z</time>
      </trkpt>
      <trkpt lat="43.92391" lon="7.39728">
        <ele>1151.1999511719</ele>
        <time>2018-06-15T12:31:20.000Z</time>
      </trkpt>
      <trkpt lat="43.9239" lon="7.39745">
        <ele>1150.4000244141</ele>
        <time>2018-06-15T12:31:22.000Z</time>
      </trkpt>
      <trkpt lat="43.92391" lon="7.39758">
        <ele>1150.1999511719</ele>
        <time>2018-06-15T12:31:23.000Z</time>
      </trkpt>
      <trkpt lat="43.92396" lon="7.39772">
        <ele>1149.5999755859</ele>
        <time>2018-06-15T12:31:25.000Z</time>
      </trkpt>
      <trkpt lat="43.92406" lon="7.39789">
        <ele>1149</ele>
        <time>2018-06-15T12:31:27.000Z</time>
      </trkpt>
      <trkpt lat="43.92411" lon="7.39796">
        <ele>1148.5999755859</ele>
        <time>2018-06-15T12:31:28.000Z</time>
      </trkpt>
      <trkpt lat="43.92418" lon="7.39803">
        <ele>1148.1999511719</ele>
        <time>2018-06-15T12:31:29.000Z</time>
      </trkpt>
      <trkpt lat="43.92422" lon="7.39806">
        <ele>1147.8000488281</ele>
        <time>2018-06-15T12:31:30.000Z</time>
      </trkpt>
      <trkpt lat="43.92435" lon="7.3982">
        <ele>1146.8000488281</ele>
        <time>2018-06-15T12:31:32.000Z</time>
      </trkpt>
      <trkpt lat="43.92436" lon="7.39839">
        <ele>1145.5999755859</ele>
        <time>2018-06-15T12:31:35.000Z</time>
      </trkpt>
      <trkpt lat="43.92427" lon="7.39865">
        <ele>1144.4000244141</ele>
        <time>2018-06-15T12:31:38.000Z</time>
      </trkpt>
      <trkpt lat="43.92424" lon="7.39872">
        <ele>1144</ele>
        <time>2018-06-15T12:31:39.000Z</time>
      </trkpt>
      <trkpt lat="43.92415" lon="7.39895">
        <ele>1143.1999511719</ele>
        <time>2018-06-15T12:31:41.000Z</time>
      </trkpt>
      <trkpt lat="43.92404" lon="7.39919">
        <ele>1141.8000488281</ele>
        <time>2018-06-15T12:31:44.000Z</time>
      </trkpt>
      <trkpt lat="43.92397" lon="7.39932">
        <ele>1140.8000488281</ele>
        <time>2018-06-15T12:31:45.000Z</time>
      </trkpt>
      <trkpt lat="43.92393" lon="7.3994">
        <ele>1139.4000244141</ele>
        <time>2018-06-15T12:31:46.000Z</time>
      </trkpt>
      <trkpt lat="43.92389" lon="7.39948">
        <ele>1138.1999511719</ele>
        <time>2018-06-15T12:31:47.000Z</time>
      </trkpt>
      <trkpt lat="43.92386" lon="7.39955">
        <ele>1137</ele>
        <time>2018-06-15T12:31:48.000Z</time>
      </trkpt>
      <trkpt lat="43.92379" lon="7.3997">
        <ele>1135.8000488281</ele>
        <time>2018-06-15T12:31:49.000Z</time>
      </trkpt>
      <trkpt lat="43.92375" lon="7.39981">
        <ele>1134.8000488281</ele>
        <time>2018-06-15T12:31:50.000Z</time>
      </trkpt>
      <trkpt lat="43.92372" lon="7.39992">
        <ele>1134</ele>
        <time>2018-06-15T12:31:51.000Z</time>
      </trkpt>
      <trkpt lat="43.9237" lon="7.40013">
        <ele>1132</ele>
        <time>2018-06-15T12:31:53.000Z</time>
      </trkpt>
      <trkpt lat="43.92371" lon="7.40035">
        <ele>1130</ele>
        <time>2018-06-15T12:31:55.000Z</time>
      </trkpt>
      <trkpt lat="43.92373" lon="7.40045">
        <ele>1128.1999511719</ele>
        <time>2018-06-15T12:31:56.000Z</time>
      </trkpt>
      <trkpt lat="43.92376" lon="7.40055">
        <ele>1126.5999755859</ele>
        <time>2018-06-15T12:31:57.000Z</time>
      </trkpt>
      <trkpt lat="43.9238" lon="7.40062">
        <ele>1125.1999511719</ele>
        <time>2018-06-15T12:31:58.000Z</time>
      </trkpt>
      <trkpt lat="43.92387" lon="7.4007">
        <ele>1124</ele>
        <time>2018-06-15T12:31:59.000Z</time>
      </trkpt>
      <trkpt lat="43.92399" lon="7.40082">
        <ele>1121.8000488281</ele>
        <time>2018-06-15T12:32:01.000Z</time>
      </trkpt>
      <trkpt lat="43.92406" lon="7.40088">
        <ele>1120.8000488281</ele>
        <time>2018-06-15T12:32:02.000Z</time>
      </trkpt>
      <trkpt lat="43.92412" lon="7.40094">
        <ele>1119.4000244141</ele>
        <time>2018-06-15T12:32:03.000Z</time>
      </trkpt>
      <trkpt lat="43.92417" lon="7.40099">
        <ele>1118.4000244141</ele>
        <time>2018-06-15T12:32:04.000Z</time>
      </trkpt>
      <trkpt lat="43.92424" lon="7.40105">
        <ele>1117.1999511719</ele>
        <time>2018-06-15T12:32:05.000Z</time>
      </trkpt>
      <trkpt lat="43.92435" lon="7.40115">
        <ele>1116.1999511719</ele>
        <time>2018-06-15T12:32:06.000Z</time>
      </trkpt>
      <trkpt lat="43.92442" lon="7.40122">
        <ele>1114.8000488281</ele>
        <time>2018-06-15T12:32:07.000Z</time>
      </trkpt>
      <trkpt lat="43.92447" lon="7.40127">
        <ele>1113.5999755859</ele>
        <time>2018-06-15T12:32:08.000Z</time>
      </trkpt>
      <trkpt lat="43.92453" lon="7.40133">
        <ele>1112.1999511719</ele>
        <time>2018-06-15T12:32:09.000Z</time>
      </trkpt>
      <trkpt lat="43.92469" lon="7.40152">
        <ele>1110.1999511719</ele>
        <time>2018-06-15T12:32:11.000Z</time>
      </trkpt>
      <trkpt lat="43.92477" lon="7.40164">
        <ele>1108.5999755859</ele>
        <time>2018-06-15T12:32:13.000Z</time>
      </trkpt>
      <trkpt lat="43.92491" lon="7.40183">
        <ele>1107.1999511719</ele>
        <time>2018-06-15T12:32:15.000Z</time>
      </trkpt>
      <trkpt lat="43.92495" lon="7.40204">
        <ele>1105.5999755859</ele>
        <time>2018-06-15T12:32:18.000Z</time>
      </trkpt>
      <trkpt lat="43.92495" lon="7.40228">
        <ele>1104.4000244141</ele>
        <time>2018-06-15T12:32:20.000Z</time>
      </trkpt>
      <trkpt lat="43.925" lon="7.40243">
        <ele>1103.8000488281</ele>
        <time>2018-06-15T12:32:22.000Z</time>
      </trkpt>
      <trkpt lat="43.92505" lon="7.40246">
        <ele>1102.1999511719</ele>
        <time>2018-06-15T12:32:23.000Z</time>
      </trkpt>
      <trkpt lat="43.92514" lon="7.40256">
        <ele>1101.4000244141</ele>
        <time>2018-06-15T12:32:24.000Z</time>
      </trkpt>
      <trkpt lat="43.92519" lon="7.40259">
        <ele>1100.5999755859</ele>
        <time>2018-06-15T12:32:25.000Z</time>
      </trkpt>
      <trkpt lat="43.92534" lon="7.40268">
        <ele>1099.4000244141</ele>
        <time>2018-06-15T12:32:27.000Z</time>
      </trkpt>
      <trkpt lat="43.92541" lon="7.40272">
        <ele>1099.4000244141</ele>
        <time>2018-06-15T12:32:28.000Z</time>
      </trkpt>
      <trkpt lat="43.92543" lon="7.40273">
        <ele>1097.1999511719</ele>
        <time>2018-06-15T12:32:29.000Z</time>
      </trkpt>
      <trkpt lat="43.92554" lon="7.40279">
        <ele>1096</ele>
        <time>2018-06-15T12:32:30.000Z</time>
      </trkpt>
      <trkpt lat="43.92561" lon="7.40284">
        <ele>1095</ele>
        <time>2018-06-15T12:32:31.000Z</time>
      </trkpt>
      <trkpt lat="43.92567" lon="7.4029">
        <ele>1093.8000488281</ele>
        <time>2018-06-15T12:32:32.000Z</time>
      </trkpt>
      <trkpt lat="43.92573" lon="7.40296">
        <ele>1092.8000488281</ele>
        <time>2018-06-15T12:32:33.000Z</time>
      </trkpt>
      <trkpt lat="43.92579" lon="7.40304">
        <ele>1091.5999755859</ele>
        <time>2018-06-15T12:32:34.000Z</time>
      </trkpt>
      <trkpt lat="43.92584" lon="7.40312">
        <ele>1090.4000244141</ele>
        <time>2018-06-15T12:32:35.000Z</time>
      </trkpt>
      <trkpt lat="43.9259" lon="7.40329">
        <ele>1088.5999755859</ele>
        <time>2018-06-15T12:32:37.000Z</time>
      </trkpt>
      <trkpt lat="43.9259" lon="7.40338">
        <ele>1088</ele>
        <time>2018-06-15T12:32:38.000Z</time>
      </trkpt>
      <trkpt lat="43.9259" lon="7.40349">
        <ele>1087.5999755859</ele>
        <time>2018-06-15T12:32:39.000Z</time>
      </trkpt>
      <trkpt lat="43.9259" lon="7.40358">
        <ele>1087.1999511719</ele>
        <time>2018-06-15T12:32:40.000Z</time>
      </trkpt>
      <trkpt lat="43.92588" lon="7.4038">
        <ele>1086</ele>
        <time>2018-06-15T12:32:42.000Z</time>
      </trkpt>
      <trkpt lat="43.92589" lon="7.40401">
        <ele>1085</ele>
        <time>2018-06-15T12:32:44.000Z</time>
      </trkpt>
      <trkpt lat="43.92591" lon="7.40412">
        <ele>1083.5999755859</ele>
        <time>2018-06-15T12:32:45.000Z</time>
      </trkpt>
      <trkpt lat="43.92594" lon="7.40422">
        <ele>1082.1999511719</ele>
        <time>2018-06-15T12:32:46.000Z</time>
      </trkpt>
      <trkpt lat="43.92601" lon="7.40444">
        <ele>1080.1999511719</ele>
        <time>2018-06-15T12:32:48.000Z</time>
      </trkpt>
      <trkpt lat="43.92606" lon="7.40469">
        <ele>1078.5999755859</ele>
        <time>2018-06-15T12:32:50.000Z</time>
      </trkpt>
      <trkpt lat="43.92608" lon="7.40482">
        <ele>1077.8000488281</ele>
        <time>2018-06-15T12:32:51.000Z</time>
      </trkpt>
      <trkpt lat="43.92608" lon="7.40491">
        <ele>1076.8000488281</ele>
        <time>2018-06-15T12:32:52.000Z</time>
      </trkpt>
      <trkpt lat="43.92608" lon="7.40501">
        <ele>1075.5999755859</ele>
        <time>2018-06-15T12:32:53.000Z</time>
      </trkpt>
      <trkpt lat="43.92609" lon="7.40521">
        <ele>1074.5999755859</ele>
        <time>2018-06-15T12:32:54.000Z</time>
      </trkpt>
      <trkpt lat="43.92612" lon="7.40543">
        <ele>1072.4000244141</ele>
        <time>2018-06-15T12:32:56.000Z</time>
      </trkpt>
      <trkpt lat="43.92614" lon="7.40551">
        <ele>1071.4000244141</ele>
        <time>2018-06-15T12:32:57.000Z</time>
      </trkpt>
      <trkpt lat="43.92616" lon="7.4056">
        <ele>1070.1999511719</ele>
        <time>2018-06-15T12:32:58.000Z</time>
      </trkpt>
      <trkpt lat="43.92623" lon="7.40577">
        <ele>1069</ele>
        <time>2018-06-15T12:32:59.000Z</time>
      </trkpt>
      <trkpt lat="43.92628" lon="7.40586">
        <ele>1068</ele>
        <time>2018-06-15T12:33:00.000Z</time>
      </trkpt>
      <trkpt lat="43.92637" lon="7.40598">
        <ele>1065.8000488281</ele>
        <time>2018-06-15T12:33:02.000Z</time>
      </trkpt>
      <trkpt lat="43.92646" lon="7.40609">
        <ele>1064.5999755859</ele>
        <time>2018-06-15T12:33:03.000Z</time>
      </trkpt>
      <trkpt lat="43.92653" lon="7.40617">
        <ele>1063.4000244141</ele>
        <time>2018-06-15T12:33:04.000Z</time>
      </trkpt>
      <trkpt lat="43.92659" lon="7.40621">
        <ele>1062.1999511719</ele>
        <time>2018-06-15T12:33:05.000Z</time>
      </trkpt>
      <trkpt lat="43.92665" lon="7.40626">
        <ele>1061.1999511719</ele>
        <time>2018-06-15T12:33:06.000Z</time>
      </trkpt>
      <trkpt lat="43.92677" lon="7.40634">
        <ele>1060.1999511719</ele>
        <time>2018-06-15T12:33:07.000Z</time>
      </trkpt>
      <trkpt lat="43.92684" lon="7.4064">
        <ele>1059.4000244141</ele>
        <time>2018-06-15T12:33:08.000Z</time>
      </trkpt>
      <trkpt lat="43.92695" lon="7.4065">
        <ele>1057.4000244141</ele>
        <time>2018-06-15T12:33:10.000Z</time>
      </trkpt>
      <trkpt lat="43.92714" lon="7.40672">
        <ele>1055.1999511719</ele>
        <time>2018-06-15T12:33:12.000Z</time>
      </trkpt>
      <trkpt lat="43.92726" lon="7.40685">
        <ele>1053.4000244141</ele>
        <time>2018-06-15T12:33:14.000Z</time>
      </trkpt>
      <trkpt lat="43.92733" lon="7.40691">
        <ele>1052.1999511719</ele>
        <time>2018-06-15T12:33:15.000Z</time>
      </trkpt>
      <trkpt lat="43.92744" lon="7.40698">
        <ele>1051.4000244141</ele>
        <time>2018-06-15T12:33:16.000Z</time>
      </trkpt>
      <trkpt lat="43.92752" lon="7.407">
        <ele>1050.4000244141</ele>
        <time>2018-06-15T12:33:17.000Z</time>
      </trkpt>
      <trkpt lat="43.92765" lon="7.40699">
        <ele>1049</ele>
        <time>2018-06-15T12:33:19.000Z</time>
      </trkpt>
      <trkpt lat="43.92785" lon="7.40693">
        <ele>1047</ele>
        <time>2018-06-15T12:33:21.000Z</time>
      </trkpt>
      <trkpt lat="43.92791" lon="7.4069">
        <ele>1046.1999511719</ele>
        <time>2018-06-15T12:33:22.000Z</time>
      </trkpt>
      <trkpt lat="43.92799" lon="7.40684">
        <ele>1045.5999755859</ele>
        <time>2018-06-15T12:33:24.000Z</time>
      </trkpt>
      <trkpt lat="43.92812" lon="7.4066">
        <ele>1042.4000244141</ele>
        <time>2018-06-15T12:33:27.000Z</time>
      </trkpt>
      <trkpt lat="43.92816" lon="7.40646">
        <ele>1041.1999511719</ele>
        <time>2018-06-15T12:33:28.000Z</time>
      </trkpt>
      <trkpt lat="43.92817" lon="7.40635">
        <ele>1040</ele>
        <time>2018-06-15T12:33:29.000Z</time>
      </trkpt>
      <trkpt lat="43.92818" lon="7.40624">
        <ele>1038.8000488281</ele>
        <time>2018-06-15T12:33:30.000Z</time>
      </trkpt>
      <trkpt lat="43.92821" lon="7.40608">
        <ele>1037.1999511719</ele>
        <time>2018-06-15T12:33:31.000Z</time>
      </trkpt>
      <trkpt lat="43.92827" lon="7.40584">
        <ele>1036.4000244141</ele>
        <time>2018-06-15T12:33:33.000Z</time>
      </trkpt>
      <trkpt lat="43.9283" lon="7.40576">
        <ele>1035.5999755859</ele>
        <time>2018-06-15T12:33:34.000Z</time>
      </trkpt>
      <trkpt lat="43.92842" lon="7.40555">
        <ele>1034</ele>
        <time>2018-06-15T12:33:36.000Z</time>
      </trkpt>
      <trkpt lat="43.92851" lon="7.40536">
        <ele>1032.1999511719</ele>
        <time>2018-06-15T12:33:38.000Z</time>
      </trkpt>
      <trkpt lat="43.9286" lon="7.40523">
        <ele>1031</ele>
        <time>2018-06-15T12:33:40.000Z</time>
      </trkpt>
      <trkpt lat="43.92885" lon="7.40513">
        <ele>1029.8000488281</ele>
        <time>2018-06-15T12:33:43.000Z</time>
      </trkpt>
      <trkpt lat="43.9289" lon="7.40512">
        <ele>1029.4000244141</ele>
        <time>2018-06-15T12:33:44.000Z</time>
      </trkpt>
      <trkpt lat="43.92901" lon="7.40508">
        <ele>1028.8000488281</ele>
        <time>2018-06-15T12:33:45.000Z</time>
      </trkpt>
      <trkpt lat="43.92903" lon="7.40505">
        <ele>1028.1999511719</ele>
        <time>2018-06-15T12:33:46.000Z</time>
      </trkpt>
      <trkpt lat="43.92909" lon="7.40489">
        <ele>1027</ele>
        <time>2018-06-15T12:33:47.000Z</time>
      </trkpt>
      <trkpt lat="43.92913" lon="7.40471">
        <ele>1026.5999755859</ele>
        <time>2018-06-15T12:33:49.000Z</time>
      </trkpt>
      <trkpt lat="43.92915" lon="7.40458">
        <ele>1025</ele>
        <time>2018-06-15T12:33:50.000Z</time>
      </trkpt>
      <trkpt lat="43.92917" lon="7.40447">
        <ele>1024.1999511719</ele>
        <time>2018-06-15T12:33:51.000Z</time>
      </trkpt>
      <trkpt lat="43.92919" lon="7.40438">
        <ele>1023.200012207</ele>
        <time>2018-06-15T12:33:52.000Z</time>
      </trkpt>
      <trkpt lat="43.92927" lon="7.40423">
        <ele>1022.4000244141</ele>
        <time>2018-06-15T12:33:54.000Z</time>
      </trkpt>
      <trkpt lat="43.92936" lon="7.40413">
        <ele>1021.200012207</ele>
        <time>2018-06-15T12:33:55.000Z</time>
      </trkpt>
      <trkpt lat="43.92956" lon="7.40395">
        <ele>1019.5999755859</ele>
        <time>2018-06-15T12:33:58.000Z</time>
      </trkpt>
      <trkpt lat="43.92966" lon="7.4039">
        <ele>1017.5999755859</ele>
        <time>2018-06-15T12:33:59.000Z</time>
      </trkpt>
      <trkpt lat="43.92973" lon="7.40388">
        <ele>1016.799987793</ele>
        <time>2018-06-15T12:34:00.000Z</time>
      </trkpt>
      <trkpt lat="43.92979" lon="7.40386">
        <ele>1016.200012207</ele>
        <time>2018-06-15T12:34:01.000Z</time>
      </trkpt>
      <trkpt lat="43.9299" lon="7.40382">
        <ele>1015.5999755859</ele>
        <time>2018-06-15T12:34:03.000Z</time>
      </trkpt>
      <trkpt lat="43.92999" lon="7.40375">
        <ele>1014.4000244141</ele>
        <time>2018-06-15T12:34:04.000Z</time>
      </trkpt>
      <trkpt lat="43.93017" lon="7.4036">
        <ele>1013.200012207</ele>
        <time>2018-06-15T12:34:07.000Z</time>
      </trkpt>
      <trkpt lat="43.93025" lon="7.40352">
        <ele>1011.4000244141</ele>
        <time>2018-06-15T12:34:08.000Z</time>
      </trkpt>
      <trkpt lat="43.9303" lon="7.40344">
        <ele>1010.799987793</ele>
        <time>2018-06-15T12:34:09.000Z</time>
      </trkpt>
      <trkpt lat="43.93036" lon="7.40331">
        <ele>1009.799987793</ele>
        <time>2018-06-15T12:34:11.000Z</time>
      </trkpt>
      <trkpt lat="43.93042" lon="7.40323">
        <ele>1008.4000244141</ele>
        <time>2018-06-15T12:34:12.000Z</time>
      </trkpt>
      <trkpt lat="43.93046" lon="7.4032">
        <ele>1007.799987793</ele>
        <time>2018-06-15T12:34:13.000Z</time>
      </trkpt>
      <trkpt lat="43.93059" lon="7.4032">
        <ele>1007</ele>
        <time>2018-06-15T12:34:16.000Z</time>
      </trkpt>
      <trkpt lat="43.93065" lon="7.40324">
        <ele>1006</ele>
        <time>2018-06-15T12:34:17.000Z</time>
      </trkpt>
      <trkpt lat="43.93079" lon="7.40332">
        <ele>1004.5999755859</ele>
        <time>2018-06-15T12:34:20.000Z</time>
      </trkpt>
      <trkpt lat="43.93087" lon="7.40338">
        <ele>1003.200012207</ele>
        <time>2018-06-15T12:34:21.000Z</time>
      </trkpt>
      <trkpt lat="43.93095" lon="7.40353">
        <ele>1002.200012207</ele>
        <time>2018-06-15T12:34:23.000Z</time>
      </trkpt>
      <trkpt lat="43.93101" lon="7.40372">
        <ele>1000.4000244141</ele>
        <time>2018-06-15T12:34:25.000Z</time>
      </trkpt>
      <trkpt lat="43.93105" lon="7.40382">
        <ele>999.40002441406</ele>
        <time>2018-06-15T12:34:26.000Z</time>
      </trkpt>
      <trkpt lat="43.9311" lon="7.40391">
        <ele>998.40002441406</ele>
        <time>2018-06-15T12:34:27.000Z</time>
      </trkpt>
      <trkpt lat="43.93121" lon="7.40408">
        <ele>996.40002441406</ele>
        <time>2018-06-15T12:34:29.000Z</time>
      </trkpt>
      <trkpt lat="43.93128" lon="7.40417">
        <ele>995.40002441406</ele>
        <time>2018-06-15T12:34:30.000Z</time>
      </trkpt>
      <trkpt lat="43.93135" lon="7.40425">
        <ele>994.20001220703</ele>
        <time>2018-06-15T12:34:31.000Z</time>
      </trkpt>
      <trkpt lat="43.93149" lon="7.40441">
        <ele>992.59997558594</ele>
        <time>2018-06-15T12:34:33.000Z</time>
      </trkpt>
      <trkpt lat="43.93164" lon="7.40458">
        <ele>990.40002441406</ele>
        <time>2018-06-15T12:34:35.000Z</time>
      </trkpt>
      <trkpt lat="43.93171" lon="7.40466">
        <ele>989.20001220703</ele>
        <time>2018-06-15T12:34:36.000Z</time>
      </trkpt>
      <trkpt lat="43.93178" lon="7.40474">
        <ele>988.20001220703</ele>
        <time>2018-06-15T12:34:37.000Z</time>
      </trkpt>
      <trkpt lat="43.93192" lon="7.4049">
        <ele>986.40002441406</ele>
        <time>2018-06-15T12:34:39.000Z</time>
      </trkpt>
      <trkpt lat="43.93205" lon="7.40501">
        <ele>986</ele>
        <time>2018-06-15T12:34:41.000Z</time>
      </trkpt>
      <trkpt lat="43.93215" lon="7.4051">
        <ele>984.59997558594</ele>
        <time>2018-06-15T12:34:42.000Z</time>
      </trkpt>
      <trkpt lat="43.93225" lon="7.40517">
        <ele>981.59997558594</ele>
        <time>2018-06-15T12:34:43.000Z</time>
      </trkpt>
      <trkpt lat="43.93234" lon="7.40522">
        <ele>980.40002441406</ele>
        <time>2018-06-15T12:34:44.000Z</time>
      </trkpt>
      <trkpt lat="43.9324" lon="7.40524">
        <ele>979.20001220703</ele>
        <time>2018-06-15T12:34:45.000Z</time>
      </trkpt>
      <trkpt lat="43.93253" lon="7.40523">
        <ele>978.59997558594</ele>
        <time>2018-06-15T12:34:47.000Z</time>
      </trkpt>
      <trkpt lat="43.93263" lon="7.4052">
        <ele>977.40002441406</ele>
        <time>2018-06-15T12:34:48.000Z</time>
      </trkpt>
      <trkpt lat="43.9327" lon="7.40516">
        <ele>976.59997558594</ele>
        <time>2018-06-15T12:34:49.000Z</time>
      </trkpt>
      <trkpt lat="43.93282" lon="7.40511">
        <ele>976</ele>
        <time>2018-06-15T12:34:51.000Z</time>
      </trkpt>
      <trkpt lat="43.93292" lon="7.40507">
        <ele>974.59997558594</ele>
        <time>2018-06-15T12:34:52.000Z</time>
      </trkpt>
      <trkpt lat="43.93314" lon="7.405">
        <ele>973.20001220703</ele>
        <time>2018-06-15T12:34:55.000Z</time>
      </trkpt>
      <trkpt lat="43.93324" lon="7.40496">
        <ele>972</ele>
        <time>2018-06-15T12:34:56.000Z</time>
      </trkpt>
      <trkpt lat="43.93333" lon="7.40494">
        <ele>971.40002441406</ele>
        <time>2018-06-15T12:34:57.000Z</time>
      </trkpt>
      <trkpt lat="43.93348" lon="7.40494">
        <ele>970.79998779297</ele>
        <time>2018-06-15T12:34:59.000Z</time>
      </trkpt>
      <trkpt lat="43.93356" lon="7.40495">
        <ele>969.79998779297</ele>
        <time>2018-06-15T12:35:00.000Z</time>
      </trkpt>
      <trkpt lat="43.93369" lon="7.40497">
        <ele>968</ele>
        <time>2018-06-15T12:35:01.000Z</time>
      </trkpt>
      <trkpt lat="43.93394" lon="7.40502">
        <ele>966.20001220703</ele>
        <time>2018-06-15T12:35:04.000Z</time>
      </trkpt>
      <trkpt lat="43.93407" lon="7.40503">
        <ele>964.79998779297</ele>
        <time>2018-06-15T12:35:05.000Z</time>
      </trkpt>
      <trkpt lat="43.93425" lon="7.405">
        <ele>964</ele>
        <time>2018-06-15T12:35:07.000Z</time>
      </trkpt>
      <trkpt lat="43.93432" lon="7.40499">
        <ele>963.40002441406</ele>
        <time>2018-06-15T12:35:08.000Z</time>
      </trkpt>
      <trkpt lat="43.93443" lon="7.405">
        <ele>961.79998779297</ele>
        <time>2018-06-15T12:35:09.000Z</time>
      </trkpt>
      <trkpt lat="43.93459" lon="7.40509">
        <ele>960.79998779297</ele>
        <time>2018-06-15T12:35:11.000Z</time>
      </trkpt>
      <trkpt lat="43.93472" lon="7.40519">
        <ele>960</ele>
        <time>2018-06-15T12:35:13.000Z</time>
      </trkpt>
      <trkpt lat="43.93483" lon="7.40533">
        <ele>957.40002441406</ele>
        <time>2018-06-15T12:35:14.000Z</time>
      </trkpt>
      <trkpt lat="43.93489" lon="7.40541">
        <ele>956.20001220703</ele>
        <time>2018-06-15T12:35:15.000Z</time>
      </trkpt>
      <trkpt lat="43.935" lon="7.40556">
        <ele>955.20001220703</ele>
        <time>2018-06-15T12:35:17.000Z</time>
      </trkpt>
      <trkpt lat="43.9351" lon="7.40568">
        <ele>952.79998779297</ele>
        <time>2018-06-15T12:35:18.000Z</time>
      </trkpt>
      <trkpt lat="43.9353" lon="7.40592">
        <ele>951</ele>
        <time>2018-06-15T12:35:21.000Z</time>
      </trkpt>
      <trkpt lat="43.93538" lon="7.406">
        <ele>949.20001220703</ele>
        <time>2018-06-15T12:35:22.000Z</time>
      </trkpt>
      <trkpt lat="43.93544" lon="7.40607">
        <ele>948.20001220703</ele>
        <time>2018-06-15T12:35:23.000Z</time>
      </trkpt>
      <trkpt lat="43.93551" lon="7.40613">
        <ele>947.20001220703</ele>
        <time>2018-06-15T12:35:24.000Z</time>
      </trkpt>
      <trkpt lat="43.93574" lon="7.40636">
        <ele>944.59997558594</ele>
        <time>2018-06-15T12:35:27.000Z</time>
      </trkpt>
      <trkpt lat="43.93588" lon="7.40649">
        <ele>943.79998779297</ele>
        <time>2018-06-15T12:35:29.000Z</time>
      </trkpt>
      <trkpt lat="43.93594" lon="7.40655">
        <ele>943.40002441406</ele>
        <time>2018-06-15T12:35:30.000Z</time>
      </trkpt>
      <trkpt lat="43.93604" lon="7.40665">
        <ele>942.40002441406</ele>
        <time>2018-06-15T12:35:31.000Z</time>
      </trkpt>
      <trkpt lat="43.93621" lon="7.40681">
        <ele>941.40002441406</ele>
        <time>2018-06-15T12:35:34.000Z</time>
      </trkpt>
      <trkpt lat="43.93628" lon="7.40687">
        <ele>940.79998779297</ele>
        <time>2018-06-15T12:35:35.000Z</time>
      </trkpt>
      <trkpt lat="43.93633" lon="7.40692">
        <ele>940.40002441406</ele>
        <time>2018-06-15T12:35:36.000Z</time>
      </trkpt>
      <trkpt lat="43.93635" lon="7.40697">
        <ele>940</ele>
        <time>2018-06-15T12:35:37.000Z</time>
      </trkpt>
      <trkpt lat="43.93638" lon="7.40707">
        <ele>939.59997558594</ele>
        <time>2018-06-15T12:35:39.000Z</time>
      </trkpt>
      <trkpt lat="43.93641" lon="7.4072">
        <ele>938.40002441406</ele>
        <time>2018-06-15T12:35:41.000Z</time>
      </trkpt>
      <trkpt lat="43.93647" lon="7.40726">
        <ele>937.79998779297</ele>
        <time>2018-06-15T12:35:43.000Z</time>
      </trkpt>
      <trkpt lat="43.93652" lon="7.40726">
        <ele>937.20001220703</ele>
        <time>2018-06-15T12:35:44.000Z</time>
      </trkpt>
      <trkpt lat="43.93654" lon="7.40725">
        <ele>937.20001220703</ele>
        <time>2018-06-15T12:35:45.000Z</time>
      </trkpt>
      <trkpt lat="43.93657" lon="7.40722">
        <ele>937</ele>
        <time>2018-06-15T12:35:47.000Z</time>
      </trkpt>
      <trkpt lat="43.93656" lon="7.40712">
        <ele>936</ele>
        <time>2018-06-15T12:35:49.000Z</time>
      </trkpt>
      <trkpt lat="43.93653" lon="7.40703">
        <ele>935.40002441406</ele>
        <time>2018-06-15T12:35:51.000Z</time>
      </trkpt>
      <trkpt lat="43.93652" lon="7.40699">
        <ele>934.79998779297</ele>
        <time>2018-06-15T12:35:52.000Z</time>
      </trkpt>
      <trkpt lat="43.93648" lon="7.40693">
        <ele>934</ele>
        <time>2018-06-15T12:35:53.000Z</time>
      </trkpt>
      <trkpt lat="43.93645" lon="7.40689">
        <ele>933.59997558594</ele>
        <time>2018-06-15T12:35:54.000Z</time>
      </trkpt>
      <trkpt lat="43.9362" lon="7.4066">
        <ele>932</ele>
        <time>2018-06-15T12:36:00.000Z</time>
      </trkpt>
      <trkpt lat="43.93604" lon="7.40638">
        <ele>930.79998779297</ele>
        <time>2018-06-15T12:36:03.000Z</time>
      </trkpt>
      <trkpt lat="43.93592" lon="7.4062">
        <ele>930</ele>
        <time>2018-06-15T12:36:05.000Z</time>
      </trkpt>
      <trkpt lat="43.93588" lon="7.40611">
        <ele>929.79998779297</ele>
        <time>2018-06-15T12:36:06.000Z</time>
      </trkpt>
      <trkpt lat="43.93574" lon="7.40569">
        <ele>928.20001220703</ele>
        <time>2018-06-15T12:36:10.000Z</time>
      </trkpt>
      <trkpt lat="43.93567" lon="7.40541">
        <ele>927.59997558594</ele>
        <time>2018-06-15T12:36:13.000Z</time>
      </trkpt>
      <trkpt lat="43.93564" lon="7.40527">
        <ele>926.20001220703</ele>
        <time>2018-06-15T12:36:14.000Z</time>
      </trkpt>
      <trkpt lat="43.93562" lon="7.40515">
        <ele>925.59997558594</ele>
        <time>2018-06-15T12:36:15.000Z</time>
      </trkpt>
      <trkpt lat="43.93561" lon="7.40506">
        <ele>924.79998779297</ele>
        <time>2018-06-15T12:36:16.000Z</time>
      </trkpt>
      <trkpt lat="43.93557" lon="7.40478">
        <ele>923.40002441406</ele>
        <time>2018-06-15T12:36:18.000Z</time>
      </trkpt>
      <trkpt lat="43.93553" lon="7.40455">
        <ele>921.79998779297</ele>
        <time>2018-06-15T12:36:20.000Z</time>
      </trkpt>
      <trkpt lat="43.93549" lon="7.40419">
        <ele>919.79998779297</ele>
        <time>2018-06-15T12:36:23.000Z</time>
      </trkpt>
      <trkpt lat="43.93548" lon="7.40397">
        <ele>918.79998779297</ele>
        <time>2018-06-15T12:36:25.000Z</time>
      </trkpt>
      <trkpt lat="43.93548" lon="7.40372">
        <ele>917.79998779297</ele>
        <time>2018-06-15T12:36:27.000Z</time>
      </trkpt>
      <trkpt lat="43.93549" lon="7.40353">
        <ele>916.40002441406</ele>
        <time>2018-06-15T12:36:29.000Z</time>
      </trkpt>
      <trkpt lat="43.93551" lon="7.40344">
        <ele>916.40002441406</ele>
        <time>2018-06-15T12:36:30.000Z</time>
      </trkpt>
      <trkpt lat="43.93556" lon="7.40334">
        <ele>916</ele>
        <time>2018-06-15T12:36:31.000Z</time>
      </trkpt>
      <trkpt lat="43.93563" lon="7.40319">
        <ele>916.20001220703</ele>
        <time>2018-06-15T12:36:33.000Z</time>
      </trkpt>
      <trkpt lat="43.93567" lon="7.40306">
        <ele>916.20001220703</ele>
        <time>2018-06-15T12:36:35.000Z</time>
      </trkpt>
      <trkpt lat="43.93572" lon="7.40281">
        <ele>915.20001220703</ele>
        <time>2018-06-15T12:36:37.000Z</time>
      </trkpt>
      <trkpt lat="43.93574" lon="7.40271">
        <ele>915.20001220703</ele>
        <time>2018-06-15T12:36:38.000Z</time>
      </trkpt>
      <trkpt lat="43.93578" lon="7.40251">
        <ele>914</ele>
        <time>2018-06-15T12:36:40.000Z</time>
      </trkpt>
      <trkpt lat="43.93585" lon="7.40221">
        <ele>913.59997558594</ele>
        <time>2018-06-15T12:36:43.000Z</time>
      </trkpt>
      <trkpt lat="43.9359" lon="7.40209">
        <ele>912.59997558594</ele>
        <time>2018-06-15T12:36:44.000Z</time>
      </trkpt>
      <trkpt lat="43.93599" lon="7.40192">
        <ele>912</ele>
        <time>2018-06-15T12:36:46.000Z</time>
      </trkpt>
      <trkpt lat="43.93607" lon="7.40177">
        <ele>911.40002441406</ele>
        <time>2018-06-15T12:36:48.000Z</time>
      </trkpt>
      <trkpt lat="43.93611" lon="7.40161">
        <ele>910.20001220703</ele>
        <time>2018-06-15T12:36:49.000Z</time>
      </trkpt>
      <trkpt lat="43.93619" lon="7.40141">
        <ele>909.20001220703</ele>
        <time>2018-06-15T12:36:51.000Z</time>
      </trkpt>
      <trkpt lat="43.93623" lon="7.40135">
        <ele>908.59997558594</ele>
        <time>2018-06-15T12:36:52.000Z</time>
      </trkpt>
      <trkpt lat="43.9363" lon="7.40123">
        <ele>907.59997558594</ele>
        <time>2018-06-15T12:36:53.000Z</time>
      </trkpt>
      <trkpt lat="43.9364" lon="7.40105">
        <ele>907</ele>
        <time>2018-06-15T12:36:55.000Z</time>
      </trkpt>
      <trkpt lat="43.93651" lon="7.40085">
        <ele>905.79998779297</ele>
        <time>2018-06-15T12:36:57.000Z</time>
      </trkpt>
      <trkpt lat="43.9366" lon="7.40065">
        <ele>904.40002441406</ele>
        <time>2018-06-15T12:36:59.000Z</time>
      </trkpt>
      <trkpt lat="43.93664" lon="7.40056">
        <ele>904.40002441406</ele>
        <time>2018-06-15T12:37:00.000Z</time>
      </trkpt>
      <trkpt lat="43.93674" lon="7.40043">
        <ele>903.40002441406</ele>
        <time>2018-06-15T12:37:02.000Z</time>
      </trkpt>
      <trkpt lat="43.9368" lon="7.4004">
        <ele>903.20001220703</ele>
        <time>2018-06-15T12:37:03.000Z</time>
      </trkpt>
      <trkpt lat="43.93692" lon="7.40037">
        <ele>902.59997558594</ele>
        <time>2018-06-15T12:37:05.000Z</time>
      </trkpt>
      <trkpt lat="43.93701" lon="7.40033">
        <ele>901.20001220703</ele>
        <time>2018-06-15T12:37:06.000Z</time>
      </trkpt>
      <trkpt lat="43.93708" lon="7.4003">
        <ele>900.20001220703</ele>
        <time>2018-06-15T12:37:07.000Z</time>
      </trkpt>
      <trkpt lat="43.93714" lon="7.40026">
        <ele>899.59997558594</ele>
        <time>2018-06-15T12:37:08.000Z</time>
      </trkpt>
      <trkpt lat="43.93736" lon="7.40013">
        <ele>897.40002441406</ele>
        <time>2018-06-15T12:37:11.000Z</time>
      </trkpt>
      <trkpt lat="43.93749" lon="7.40006">
        <ele>897</ele>
        <time>2018-06-15T12:37:13.000Z</time>
      </trkpt>
      <trkpt lat="43.93754" lon="7.40006">
        <ele>896.20001220703</ele>
        <time>2018-06-15T12:37:14.000Z</time>
      </trkpt>
      <trkpt lat="43.93771" lon="7.40005">
        <ele>895.40002441406</ele>
        <time>2018-06-15T12:37:16.000Z</time>
      </trkpt>
      <trkpt lat="43.93781" lon="7.40003">
        <ele>895.20001220703</ele>
        <time>2018-06-15T12:37:18.000Z</time>
      </trkpt>
      <trkpt lat="43.93786" lon="7.40006">
        <ele>895</ele>
        <time>2018-06-15T12:37:19.000Z</time>
      </trkpt>
      <trkpt lat="43.9379" lon="7.40009">
        <ele>894.79998779297</ele>
        <time>2018-06-15T12:37:20.000Z</time>
      </trkpt>
      <trkpt lat="43.93801" lon="7.40024">
        <ele>894</ele>
        <time>2018-06-15T12:37:24.000Z</time>
      </trkpt>
      <trkpt lat="43.93807" lon="7.40035">
        <ele>894</ele>
        <time>2018-06-15T12:37:27.000Z</time>
      </trkpt>
      <trkpt lat="43.93805" lon="7.40042">
        <ele>893</ele>
        <time>2018-06-15T12:37:28.000Z</time>
      </trkpt>
      <trkpt lat="43.93802" lon="7.40048">
        <ele>892.79998779297</ele>
        <time>2018-06-15T12:37:29.000Z</time>
      </trkpt>
      <trkpt lat="43.93796" lon="7.40052">
        <ele>892.59997558594</ele>
        <time>2018-06-15T12:37:31.000Z</time>
      </trkpt>
      <trkpt lat="43.93791" lon="7.40053">
        <ele>892.20001220703</ele>
        <time>2018-06-15T12:37:32.000Z</time>
      </trkpt>
      <trkpt lat="43.93788" lon="7.40054">
        <ele>891.79998779297</ele>
        <time>2018-06-15T12:37:33.000Z</time>
      </trkpt>
      <trkpt lat="43.9378" lon="7.40059">
        <ele>891.20001220703</ele>
        <time>2018-06-15T12:37:35.000Z</time>
      </trkpt>
      <trkpt lat="43.93774" lon="7.40065">
        <ele>890.20001220703</ele>
        <time>2018-06-15T12:37:36.000Z</time>
      </trkpt>
      <trkpt lat="43.9377" lon="7.4007">
        <ele>889.79998779297</ele>
        <time>2018-06-15T12:37:37.000Z</time>
      </trkpt>
      <trkpt lat="43.93765" lon="7.40075">
        <ele>889.40002441406</ele>
        <time>2018-06-15T12:37:38.000Z</time>
      </trkpt>
      <trkpt lat="43.93757" lon="7.40086">
        <ele>889</ele>
        <time>2018-06-15T12:37:40.000Z</time>
      </trkpt>
      <trkpt lat="43.93751" lon="7.40096">
        <ele>888.20001220703</ele>
        <time>2018-06-15T12:37:41.000Z</time>
      </trkpt>
      <trkpt lat="43.93746" lon="7.40104">
        <ele>888</ele>
        <time>2018-06-15T12:37:42.000Z</time>
      </trkpt>
      <trkpt lat="43.93737" lon="7.40133">
        <ele>887.20001220703</ele>
        <time>2018-06-15T12:37:45.000Z</time>
      </trkpt>
      <trkpt lat="43.93735" lon="7.40142">
        <ele>886.79998779297</ele>
        <time>2018-06-15T12:37:46.000Z</time>
      </trkpt>
      <trkpt lat="43.93733" lon="7.40151">
        <ele>886.20001220703</ele>
        <time>2018-06-15T12:37:47.000Z</time>
      </trkpt>
      <trkpt lat="43.93732" lon="7.40175">
        <ele>885.59997558594</ele>
        <time>2018-06-15T12:37:49.000Z</time>
      </trkpt>
      <trkpt lat="43.93733" lon="7.40195">
        <ele>885.40002441406</ele>
        <time>2018-06-15T12:37:51.000Z</time>
      </trkpt>
      <trkpt lat="43.93732" lon="7.4022">
        <ele>884.79998779297</ele>
        <time>2018-06-15T12:37:54.000Z</time>
      </trkpt>
      <trkpt lat="43.9373" lon="7.40229">
        <ele>884.79998779297</ele>
        <time>2018-06-15T12:37:55.000Z</time>
      </trkpt>
      <trkpt lat="43.93729" lon="7.40244">
        <ele>884.59997558594</ele>
        <time>2018-06-15T12:37:57.000Z</time>
      </trkpt>
      <trkpt lat="43.93736" lon="7.40261">
        <ele>883.79998779297</ele>
        <time>2018-06-15T12:37:59.000Z</time>
      </trkpt>
      <trkpt lat="43.93746" lon="7.40281">
        <ele>883.59997558594</ele>
        <time>2018-06-15T12:38:02.000Z</time>
      </trkpt>
      <trkpt lat="43.93767" lon="7.40321">
        <ele>883.79998779297</ele>
        <time>2018-06-15T12:38:08.000Z</time>
      </trkpt>
      <trkpt lat="43.93783" lon="7.40349">
        <ele>882</ele>
        <time>2018-06-15T12:38:12.000Z</time>
      </trkpt>
      <trkpt lat="43.93787" lon="7.40356">
        <ele>880</ele>
        <time>2018-06-15T12:38:13.000Z</time>
      </trkpt>
      <trkpt lat="43.93797" lon="7.40374">
        <ele>878.59997558594</ele>
        <time>2018-06-15T12:38:15.000Z</time>
      </trkpt>
      <trkpt lat="43.93806" lon="7.4039">
        <ele>876.79998779297</ele>
        <time>2018-06-15T12:38:17.000Z</time>
      </trkpt>
      <trkpt lat="43.93821" lon="7.40417">
        <ele>874.59997558594</ele>
        <time>2018-06-15T12:38:20.000Z</time>
      </trkpt>
      <trkpt lat="43.93831" lon="7.40436">
        <ele>873.79998779297</ele>
        <time>2018-06-15T12:38:22.000Z</time>
      </trkpt>
      <trkpt lat="43.93834" lon="7.40443">
        <ele>873.20001220703</ele>
        <time>2018-06-15T12:38:23.000Z</time>
      </trkpt>
      <trkpt lat="43.9384" lon="7.40456">
        <ele>871.79998779297</ele>
        <time>2018-06-15T12:38:24.000Z</time>
      </trkpt>
      <trkpt lat="43.93849" lon="7.40472">
        <ele>870.40002441406</ele>
        <time>2018-06-15T12:38:26.000Z</time>
      </trkpt>
      <trkpt lat="43.93853" lon="7.4048">
        <ele>870.40002441406</ele>
        <time>2018-06-15T12:38:27.000Z</time>
      </trkpt>
      <trkpt lat="43.9386" lon="7.40491">
        <ele>868.59997558594</ele>
        <time>2018-06-15T12:38:29.000Z</time>
      </trkpt>
      <trkpt lat="43.93864" lon="7.40497">
        <ele>868.20001220703</ele>
        <time>2018-06-15T12:38:30.000Z</time>
      </trkpt>
      <trkpt lat="43.93872" lon="7.40506">
        <ele>867.59997558594</ele>
        <time>2018-06-15T12:38:32.000Z</time>
      </trkpt>
      <trkpt lat="43.93881" lon="7.40508">
        <ele>866.40002441406</ele>
        <time>2018-06-15T12:38:33.000Z</time>
      </trkpt>
      <trkpt lat="43.93887" lon="7.40511">
        <ele>865.59997558594</ele>
        <time>2018-06-15T12:38:34.000Z</time>
      </trkpt>
      <trkpt lat="43.93895" lon="7.40519">
        <ele>865</ele>
        <time>2018-06-15T12:38:36.000Z</time>
      </trkpt>
      <trkpt lat="43.93896" lon="7.40528">
        <ele>864.20001220703</ele>
        <time>2018-06-15T12:38:37.000Z</time>
      </trkpt>
      <trkpt lat="43.93894" lon="7.40534">
        <ele>864</ele>
        <time>2018-06-15T12:38:38.000Z</time>
      </trkpt>
      <trkpt lat="43.93891" lon="7.40547">
        <ele>863.59997558594</ele>
        <time>2018-06-15T12:38:40.000Z</time>
      </trkpt>
      <trkpt lat="43.93891" lon="7.40557">
        <ele>863</ele>
        <time>2018-06-15T12:38:41.000Z</time>
      </trkpt>
      <trkpt lat="43.93892" lon="7.40573">
        <ele>862.59997558594</ele>
        <time>2018-06-15T12:38:43.000Z</time>
      </trkpt>
      <trkpt lat="43.93899" lon="7.40599">
        <ele>862.59997558594</ele>
        <time>2018-06-15T12:38:46.000Z</time>
      </trkpt>
      <trkpt lat="43.93903" lon="7.40606">
        <ele>862.79998779297</ele>
        <time>2018-06-15T12:38:47.000Z</time>
      </trkpt>
      <trkpt lat="43.93911" lon="7.40617">
        <ele>862.79998779297</ele>
        <time>2018-06-15T12:38:49.000Z</time>
      </trkpt>
      <trkpt lat="43.93923" lon="7.40633">
        <ele>862.20001220703</ele>
        <time>2018-06-15T12:38:51.000Z</time>
      </trkpt>
      <trkpt lat="43.93927" lon="7.40639">
        <ele>861.59997558594</ele>
        <time>2018-06-15T12:38:52.000Z</time>
      </trkpt>
      <trkpt lat="43.9394" lon="7.40666">
        <ele>861</ele>
        <time>2018-06-15T12:38:55.000Z</time>
      </trkpt>
      <trkpt lat="43.9395" lon="7.40677">
        <ele>860.79998779297</ele>
        <time>2018-06-15T12:38:57.000Z</time>
      </trkpt>
      <trkpt lat="43.93955" lon="7.40677">
        <ele>860.59997558594</ele>
        <time>2018-06-15T12:38:58.000Z</time>
      </trkpt>
      <trkpt lat="43.93964" lon="7.40674">
        <ele>860.20001220703</ele>
        <time>2018-06-15T12:38:59.000Z</time>
      </trkpt>
      <trkpt lat="43.93981" lon="7.40674">
        <ele>859.79998779297</ele>
        <time>2018-06-15T12:39:02.000Z</time>
      </trkpt>
      <trkpt lat="43.93983" lon="7.40682">
        <ele>859.79998779297</ele>
        <time>2018-06-15T12:39:03.000Z</time>
      </trkpt>
      <trkpt lat="43.93981" lon="7.40703">
        <ele>859.59997558594</ele>
        <time>2018-06-15T12:39:06.000Z</time>
      </trkpt>
      <trkpt lat="43.9398" lon="7.40714">
        <ele>859.40002441406</ele>
        <time>2018-06-15T12:39:07.000Z</time>
      </trkpt>
      <trkpt lat="43.9398" lon="7.40743">
        <ele>858.79998779297</ele>
        <time>2018-06-15T12:39:10.000Z</time>
      </trkpt>
      <trkpt lat="43.93982" lon="7.40763">
        <ele>858</ele>
        <time>2018-06-15T12:39:12.000Z</time>
      </trkpt>
      <trkpt lat="43.93988" lon="7.40779">
        <ele>857.20001220703</ele>
        <time>2018-06-15T12:39:14.000Z</time>
      </trkpt>
      <trkpt lat="43.94" lon="7.408">
        <ele>856.40002441406</ele>
        <time>2018-06-15T12:39:16.000Z</time>
      </trkpt>
      <trkpt lat="43.94015" lon="7.40829">
        <ele>855.40002441406</ele>
        <time>2018-06-15T12:39:19.000Z</time>
      </trkpt>
      <trkpt lat="43.94023" lon="7.40841">
        <ele>854.40002441406</ele>
        <time>2018-06-15T12:39:20.000Z</time>
      </trkpt>
      <trkpt lat="43.94044" lon="7.40876">
        <ele>853</ele>
        <time>2018-06-15T12:39:24.000Z</time>
      </trkpt>
      <trkpt lat="43.94053" lon="7.40889">
        <ele>852</ele>
        <time>2018-06-15T12:39:25.000Z</time>
      </trkpt>
      <trkpt lat="43.9408" lon="7.40923">
        <ele>850.59997558594</ele>
        <time>2018-06-15T12:39:29.000Z</time>
      </trkpt>
      <trkpt lat="43.94086" lon="7.40931">
        <ele>850</ele>
        <time>2018-06-15T12:39:30.000Z</time>
      </trkpt>
      <trkpt lat="43.94092" lon="7.40938">
        <ele>849.59997558594</ele>
        <time>2018-06-15T12:39:31.000Z</time>
      </trkpt>
      <trkpt lat="43.94104" lon="7.40957">
        <ele>848.59997558594</ele>
        <time>2018-06-15T12:39:33.000Z</time>
      </trkpt>
      <trkpt lat="43.94113" lon="7.40977">
        <ele>847.40002441406</ele>
        <time>2018-06-15T12:39:35.000Z</time>
      </trkpt>
      <trkpt lat="43.94129" lon="7.41012">
        <ele>846.40002441406</ele>
        <time>2018-06-15T12:39:39.000Z</time>
      </trkpt>
      <trkpt lat="43.94133" lon="7.41018">
        <ele>846.40002441406</ele>
        <time>2018-06-15T12:39:40.000Z</time>
      </trkpt>
      <trkpt lat="43.94135" lon="7.41019">
        <ele>845.79998779297</ele>
        <time>2018-06-15T12:39:41.000Z</time>
      </trkpt>
      <trkpt lat="43.94141" lon="7.41019">
        <ele>844.20001220703</ele>
        <time>2018-06-15T12:39:42.000Z</time>
      </trkpt>
      <trkpt lat="43.94144" lon="7.41017">
        <ele>843.59997558594</ele>
        <time>2018-06-15T12:39:43.000Z</time>
      </trkpt>
      <trkpt lat="43.94151" lon="7.41011">
        <ele>843.40002441406</ele>
        <time>2018-06-15T12:39:45.000Z</time>
      </trkpt>
      <trkpt lat="43.94154" lon="7.41008">
        <ele>843.20001220703</ele>
        <time>2018-06-15T12:39:46.000Z</time>
      </trkpt>
      <trkpt lat="43.9416" lon="7.41004">
        <ele>842.59997558594</ele>
        <time>2018-06-15T12:39:47.000Z</time>
      </trkpt>
      <trkpt lat="43.9417" lon="7.41002">
        <ele>842</ele>
        <time>2018-06-15T12:39:49.000Z</time>
      </trkpt>
      <trkpt lat="43.94175" lon="7.41003">
        <ele>841.79998779297</ele>
        <time>2018-06-15T12:39:50.000Z</time>
      </trkpt>
      <trkpt lat="43.94188" lon="7.41016">
        <ele>841.79998779297</ele>
        <time>2018-06-15T12:39:53.000Z</time>
      </trkpt>
      <trkpt lat="43.94193" lon="7.41039">
        <ele>842.20001220703</ele>
        <time>2018-06-15T12:39:56.000Z</time>
      </trkpt>
      <trkpt lat="43.94188" lon="7.41063">
        <ele>841.79998779297</ele>
        <time>2018-06-15T12:39:59.000Z</time>
      </trkpt>
      <trkpt lat="43.94186" lon="7.41071">
        <ele>841.59997558594</ele>
        <time>2018-06-15T12:40:00.000Z</time>
      </trkpt>
      <trkpt lat="43.94184" lon="7.41078">
        <ele>841.40002441406</ele>
        <time>2018-06-15T12:40:01.000Z</time>
      </trkpt>
      <trkpt lat="43.94178" lon="7.41098">
        <ele>841.20001220703</ele>
        <time>2018-06-15T12:40:04.000Z</time>
      </trkpt>
      <trkpt lat="43.94177" lon="7.41104">
        <ele>841.40002441406</ele>
        <time>2018-06-15T12:40:05.000Z</time>
      </trkpt>
      <trkpt lat="43.94175" lon="7.4111">
        <ele>841.40002441406</ele>
        <time>2018-06-15T12:40:06.000Z</time>
      </trkpt>
      <trkpt lat="43.94171" lon="7.4112">
        <ele>840.40002441406</ele>
        <time>2018-06-15T12:40:09.000Z</time>
      </trkpt>
      <trkpt lat="43.94169" lon="7.41121">
        <ele>840.40002441406</ele>
        <time>2018-06-15T12:40:10.000Z</time>
      </trkpt>
      <trkpt lat="43.9417" lon="7.4112">
        <ele>839.20001220703</ele>
        <time>2018-06-15T12:40:12.000Z</time>
      </trkpt>
    </trkseg>
  </trk>
</gpx>